<?xml version="1.0" encoding="utf-8"?>
<gpx xmlns:xsi="http://www.w3.org/2001/XMLSchema-instance" xmlns:xsd="http://www.w3.org/2001/XMLSchema" version="1.1" creator="Shapelink.com" xmlns="http://www.topografix.com/GPX/1/1" xmlns:gpxtpx="http://www.garmin.com/xmlschemas/TrackPointExtension/v1">
  <metadata>
    <name>Löpning 12.23 km, 2017-12-19</name>
    <desc></desc>
    <author><name>Bengt-Åke Forslund</name></author> 
    <time>2017-12-19T12:22:06Z</time>
  </metadata>
  <trk>
    <name>Löpning 12.23 km, 2017-12-19</name>
    <trkseg>
      <trkpt lat="62.635894773685" lon="17.967830011617">
        <ele>65.6</ele>
        <time>2017-12-19T12:22:06Z</time>
      </trkpt>
      <trkpt lat="62.635991416992" lon="17.968129664542">
        <ele>65.6</ele>
        <time>2017-12-19T12:22:16Z</time>
      </trkpt>
      <trkpt lat="62.636004911851" lon="17.968172496051">
        <ele>65.6</ele>
        <time>2017-12-19T12:22:17Z</time>
      </trkpt>
      <trkpt lat="62.636019580176" lon="17.96821532756">
        <ele>65.8</ele>
        <time>2017-12-19T12:22:18Z</time>
      </trkpt>
      <trkpt lat="62.636032404483" lon="17.968260841277">
        <ele>65.8</ele>
        <time>2017-12-19T12:22:19Z</time>
      </trkpt>
      <trkpt lat="62.636045061152" lon="17.968306019718">
        <ele>66</ele>
        <time>2017-12-19T12:22:20Z</time>
      </trkpt>
      <trkpt lat="62.636058220735" lon="17.968336781291">
        <ele>65.8</ele>
        <time>2017-12-19T12:22:21Z</time>
      </trkpt>
      <trkpt lat="62.636075068354" lon="17.968381959732">
        <ele>66</ele>
        <time>2017-12-19T12:22:22Z</time>
      </trkpt>
      <trkpt lat="62.636086048643" lon="17.968412218391">
        <ele>66</ele>
        <time>2017-12-19T12:22:23Z</time>
      </trkpt>
      <trkpt lat="62.636101555158" lon="17.968447925285">
        <ele>66</ele>
        <time>2017-12-19T12:22:24Z</time>
      </trkpt>
      <trkpt lat="62.636112703085" lon="17.968473825356">
        <ele>66</ele>
        <time>2017-12-19T12:22:25Z</time>
      </trkpt>
      <trkpt lat="62.636132316731" lon="17.968501653264">
        <ele>66</ele>
        <time>2017-12-19T12:22:26Z</time>
      </trkpt>
      <trkpt lat="62.636147404151" lon="17.968524368213">
        <ele>66.2</ele>
        <time>2017-12-19T12:22:27Z</time>
      </trkpt>
      <trkpt lat="62.636156288965" lon="17.968534175036">
        <ele>66.4</ele>
        <time>2017-12-19T12:22:28Z</time>
      </trkpt>
      <trkpt lat="62.636168945634" lon="17.968546664067">
        <ele>66.4</ele>
        <time>2017-12-19T12:22:29Z</time>
      </trkpt>
      <trkpt lat="62.636193085506" lon="17.968562757315">
        <ele>66.6</ele>
        <time>2017-12-19T12:22:30Z</time>
      </trkpt>
      <trkpt lat="62.636215548998" lon="17.96856904374">
        <ele>66.6</ele>
        <time>2017-12-19T12:22:31Z</time>
      </trkpt>
      <trkpt lat="62.636241281431" lon="17.9685807784">
        <ele>66.8</ele>
        <time>2017-12-19T12:22:32Z</time>
      </trkpt>
      <trkpt lat="62.636271204814" lon="17.968595195268">
        <ele>66.6</ele>
        <time>2017-12-19T12:22:33Z</time>
      </trkpt>
      <trkpt lat="62.636299032722" lon="17.968622101167">
        <ele>66.8</ele>
        <time>2017-12-19T12:22:34Z</time>
      </trkpt>
      <trkpt lat="62.636327615001" lon="17.968648336514">
        <ele>66.8</ele>
        <time>2017-12-19T12:22:35Z</time>
      </trkpt>
      <trkpt lat="62.636359130945" lon="17.968668117798">
        <ele>66.8</ele>
        <time>2017-12-19T12:22:36Z</time>
      </trkpt>
      <trkpt lat="62.636385114835" lon="17.968714721162">
        <ele>66.8</ele>
        <time>2017-12-19T12:22:37Z</time>
      </trkpt>
      <trkpt lat="62.636410428173" lon="17.968748500219">
        <ele>66.8</ele>
        <time>2017-12-19T12:22:38Z</time>
      </trkpt>
      <trkpt lat="62.636430712371" lon="17.968797282877">
        <ele>66.8</ele>
        <time>2017-12-19T12:22:39Z</time>
      </trkpt>
      <trkpt lat="62.636454014053" lon="17.968838605644">
        <ele>66.6</ele>
        <time>2017-12-19T12:22:40Z</time>
      </trkpt>
      <trkpt lat="62.636473376242" lon="17.968866852647">
        <ele>66.6</ele>
        <time>2017-12-19T12:22:41Z</time>
      </trkpt>
      <trkpt lat="62.636493744259" lon="17.968929046345">
        <ele>66.6</ele>
        <time>2017-12-19T12:22:42Z</time>
      </trkpt>
      <trkpt lat="62.636512603534" lon="17.968968105999">
        <ele>66.6</ele>
        <time>2017-12-19T12:22:43Z</time>
      </trkpt>
      <trkpt lat="62.636529283515" lon="17.969017894485">
        <ele>66.6</ele>
        <time>2017-12-19T12:22:44Z</time>
      </trkpt>
      <trkpt lat="62.636543029831" lon="17.969070029903">
        <ele>66.6</ele>
        <time>2017-12-19T12:22:45Z</time>
      </trkpt>
      <trkpt lat="62.636561721468" lon="17.969108167548">
        <ele>66.8</ele>
        <time>2017-12-19T12:22:46Z</time>
      </trkpt>
      <trkpt lat="62.636577563259" lon="17.969163655726">
        <ele>66.8</ele>
        <time>2017-12-19T12:22:47Z</time>
      </trkpt>
      <trkpt lat="62.636596003439" lon="17.969210594366">
        <ele>66.8</ele>
        <time>2017-12-19T12:22:48Z</time>
      </trkpt>
      <trkpt lat="62.636610839402" lon="17.969274967358">
        <ele>67</ele>
        <time>2017-12-19T12:22:49Z</time>
      </trkpt>
      <trkpt lat="62.636625843003" lon="17.969333724477">
        <ele>67</ele>
        <time>2017-12-19T12:22:50Z</time>
      </trkpt>
      <trkpt lat="62.636637493844" lon="17.96938963175">
        <ele>67</ele>
        <time>2017-12-19T12:22:51Z</time>
      </trkpt>
      <trkpt lat="62.636651994531" lon="17.969459704434">
        <ele>66.8</ele>
        <time>2017-12-19T12:22:52Z</time>
      </trkpt>
      <trkpt lat="62.636666076123" lon="17.969504966694">
        <ele>66.8</ele>
        <time>2017-12-19T12:22:53Z</time>
      </trkpt>
      <trkpt lat="62.636684432484" lon="17.969578978871">
        <ele>67</ele>
        <time>2017-12-19T12:22:54Z</time>
      </trkpt>
      <trkpt lat="62.636700106637" lon="17.969628432081">
        <ele>67</ele>
        <time>2017-12-19T12:22:55Z</time>
      </trkpt>
      <trkpt lat="62.636709326727" lon="17.969685261363">
        <ele>67</ele>
        <time>2017-12-19T12:22:56Z</time>
      </trkpt>
      <trkpt lat="62.636725084699" lon="17.969736810048">
        <ele>67.2</ele>
        <time>2017-12-19T12:22:57Z</time>
      </trkpt>
      <trkpt lat="62.636737741368" lon="17.969780982661">
        <ele>67.2</ele>
        <time>2017-12-19T12:22:58Z</time>
      </trkpt>
      <trkpt lat="62.636752493512" lon="17.969836135563">
        <ele>67.2</ele>
        <time>2017-12-19T12:22:59Z</time>
      </trkpt>
      <trkpt lat="62.636768754398" lon="17.969896820519">
        <ele>67.2</ele>
        <time>2017-12-19T12:23:00Z</time>
      </trkpt>
      <trkpt lat="62.636783757999" lon="17.969950883774">
        <ele>67.2</ele>
        <time>2017-12-19T12:23:01Z</time>
      </trkpt>
      <trkpt lat="62.636807562595" lon="17.96998977579">
        <ele>67.4</ele>
        <time>2017-12-19T12:23:02Z</time>
      </trkpt>
      <trkpt lat="62.636826924784" lon="17.970038474629">
        <ele>67.4</ele>
        <time>2017-12-19T12:23:03Z</time>
      </trkpt>
      <trkpt lat="62.636843604765" lon="17.970052807678">
        <ele>67.4</ele>
        <time>2017-12-19T12:23:04Z</time>
      </trkpt>
      <trkpt lat="62.636862296402" lon="17.970092705522">
        <ele>67.6</ele>
        <time>2017-12-19T12:23:05Z</time>
      </trkpt>
      <trkpt lat="62.636887106826" lon="17.970134950298">
        <ele>67.6</ele>
        <time>2017-12-19T12:23:06Z</time>
      </trkpt>
      <trkpt lat="62.636915856743" lon="17.97015573741">
        <ele>67.6</ele>
        <time>2017-12-19T12:23:07Z</time>
      </trkpt>
      <trkpt lat="62.636943936108" lon="17.970184487327">
        <ele>67.6</ele>
        <time>2017-12-19T12:23:08Z</time>
      </trkpt>
      <trkpt lat="62.636978553355" lon="17.970211644683">
        <ele>67.6</ele>
        <time>2017-12-19T12:23:09Z</time>
      </trkpt>
      <trkpt lat="62.637014008792" lon="17.970228576121">
        <ele>67.6</ele>
        <time>2017-12-19T12:23:10Z</time>
      </trkpt>
      <trkpt lat="62.637042926347" lon="17.970240897514">
        <ele>67.6</ele>
        <time>2017-12-19T12:23:11Z</time>
      </trkpt>
      <trkpt lat="62.637085171123" lon="17.970251626346">
        <ele>67.6</ele>
        <time>2017-12-19T12:23:12Z</time>
      </trkpt>
      <trkpt lat="62.637117441438" lon="17.970248860319">
        <ele>67.4</ele>
        <time>2017-12-19T12:23:13Z</time>
      </trkpt>
      <trkpt lat="62.637156165816" lon="17.970239975505">
        <ele>67.2</ele>
        <time>2017-12-19T12:23:14Z</time>
      </trkpt>
      <trkpt lat="62.637194303461" lon="17.970226313008">
        <ele>67</ele>
        <time>2017-12-19T12:23:15Z</time>
      </trkpt>
      <trkpt lat="62.637236883513" lon="17.970204436249">
        <ele>66.8</ele>
        <time>2017-12-19T12:23:16Z</time>
      </trkpt>
      <trkpt lat="62.637265549611" lon="17.97018675044">
        <ele>66.6</ele>
        <time>2017-12-19T12:23:17Z</time>
      </trkpt>
      <trkpt lat="62.637321959798" lon="17.970158754894">
        <ele>66.4</ele>
        <time>2017-12-19T12:23:18Z</time>
      </trkpt>
      <trkpt lat="62.637370742456" lon="17.970132938642">
        <ele>66.2</ele>
        <time>2017-12-19T12:23:19Z</time>
      </trkpt>
      <trkpt lat="62.637417597277" lon="17.970113324996">
        <ele>66</ele>
        <time>2017-12-19T12:23:20Z</time>
      </trkpt>
      <trkpt lat="62.637465457926" lon="17.970106032743">
        <ele>65.8</ele>
        <time>2017-12-19T12:23:21Z</time>
      </trkpt>
      <trkpt lat="62.637514324403" lon="17.970114079367">
        <ele>65.6</ele>
        <time>2017-12-19T12:23:22Z</time>
      </trkpt>
      <trkpt lat="62.637549696021" lon="17.970140230895">
        <ele>65.6</ele>
        <time>2017-12-19T12:23:23Z</time>
      </trkpt>
      <trkpt lat="62.637592108435" lon="17.970189013553">
        <ele>65.4</ele>
        <time>2017-12-19T12:23:24Z</time>
      </trkpt>
      <trkpt lat="62.637624797845" lon="17.970248105948">
        <ele>65.4</ele>
        <time>2017-12-19T12:23:25Z</time>
      </trkpt>
      <trkpt lat="62.637652793391" lon="17.970299319357">
        <ele>65.2</ele>
        <time>2017-12-19T12:23:26Z</time>
      </trkpt>
      <trkpt lat="62.637685315163" lon="17.970376013742">
        <ele>65</ele>
        <time>2017-12-19T12:23:27Z</time>
      </trkpt>
      <trkpt lat="62.637710460863" lon="17.970439716182">
        <ele>64.8</ele>
        <time>2017-12-19T12:23:28Z</time>
      </trkpt>
      <trkpt lat="62.6377375344" lon="17.970492186876">
        <ele>64.8</ele>
        <time>2017-12-19T12:23:29Z</time>
      </trkpt>
      <trkpt lat="62.637759494978" lon="17.970571982564">
        <ele>64.8</ele>
        <time>2017-12-19T12:23:30Z</time>
      </trkpt>
      <trkpt lat="62.637784389221" lon="17.970628895665">
        <ele>64.8</ele>
        <time>2017-12-19T12:23:31Z</time>
      </trkpt>
      <trkpt lat="62.637803332315" lon="17.970698381616">
        <ele>64.8</ele>
        <time>2017-12-19T12:23:32Z</time>
      </trkpt>
      <trkpt lat="62.637817749183" lon="17.970748421559">
        <ele>64.8</ele>
        <time>2017-12-19T12:23:33Z</time>
      </trkpt>
      <trkpt lat="62.637834093888" lon="17.970812375456">
        <ele>65</ele>
        <time>2017-12-19T12:23:34Z</time>
      </trkpt>
      <trkpt lat="62.63784733729" lon="17.970873563326">
        <ele>65</ele>
        <time>2017-12-19T12:23:35Z</time>
      </trkpt>
      <trkpt lat="62.637862927624" lon="17.970930979341">
        <ele>65</ele>
        <time>2017-12-19T12:23:36Z</time>
      </trkpt>
      <trkpt lat="62.63787080661" lon="17.970997196351">
        <ele>65</ele>
        <time>2017-12-19T12:23:37Z</time>
      </trkpt>
      <trkpt lat="62.637879691424" lon="17.971053103624">
        <ele>65</ele>
        <time>2017-12-19T12:23:38Z</time>
      </trkpt>
      <trkpt lat="62.637886816039" lon="17.971116470788">
        <ele>65</ele>
        <time>2017-12-19T12:23:39Z</time>
      </trkpt>
      <trkpt lat="62.637894359749" lon="17.971176904287">
        <ele>65</ele>
        <time>2017-12-19T12:23:40Z</time>
      </trkpt>
      <trkpt lat="62.637897293414" lon="17.971207330584">
        <ele>65</ele>
        <time>2017-12-19T12:23:41Z</time>
      </trkpt>
      <trkpt lat="62.637909614807" lon="17.971291987774">
        <ele>65</ele>
        <time>2017-12-19T12:23:42Z</time>
      </trkpt>
      <trkpt lat="62.637920595096" lon="17.971337501491">
        <ele>65.2</ele>
        <time>2017-12-19T12:23:43Z</time>
      </trkpt>
      <trkpt lat="62.637927971168" lon="17.9714054787">
        <ele>65.2</ele>
        <time>2017-12-19T12:23:44Z</time>
      </trkpt>
      <trkpt lat="62.637939622009" lon="17.971456021557">
        <ele>65.4</ele>
        <time>2017-12-19T12:23:45Z</time>
      </trkpt>
      <trkpt lat="62.637944064416" lon="17.971504301301">
        <ele>65.4</ele>
        <time>2017-12-19T12:23:46Z</time>
      </trkpt>
      <trkpt lat="62.637950267022" lon="17.971556017624">
        <ele>65.4</ele>
        <time>2017-12-19T12:23:47Z</time>
      </trkpt>
      <trkpt lat="62.637959068017" lon="17.971627096136">
        <ele>65.6</ele>
        <time>2017-12-19T12:23:48Z</time>
      </trkpt>
      <trkpt lat="62.63796552208" lon="17.97166950855">
        <ele>65.6</ele>
        <time>2017-12-19T12:23:49Z</time>
      </trkpt>
      <trkpt lat="62.637969964487" lon="17.971735977017">
        <ele>65.6</ele>
        <time>2017-12-19T12:23:50Z</time>
      </trkpt>
      <trkpt lat="62.637978346387" lon="17.971777383603">
        <ele>65.8</ele>
        <time>2017-12-19T12:23:51Z</time>
      </trkpt>
      <trkpt lat="62.63798228588" lon="17.971849970857">
        <ele>66</ele>
        <time>2017-12-19T12:23:52Z</time>
      </trkpt>
      <trkpt lat="62.63798563864" lon="17.971895987488">
        <ele>66</ele>
        <time>2017-12-19T12:23:53Z</time>
      </trkpt>
      <trkpt lat="62.63798480045" lon="17.971973017149">
        <ele>66</ele>
        <time>2017-12-19T12:23:54Z</time>
      </trkpt>
      <trkpt lat="62.63799150597" lon="17.972025655481">
        <ele>66</ele>
        <time>2017-12-19T12:23:55Z</time>
      </trkpt>
      <trkpt lat="62.637988656124" lon="17.972084999333">
        <ele>66</ele>
        <time>2017-12-19T12:23:56Z</time>
      </trkpt>
      <trkpt lat="62.637988907581" lon="17.972153730913">
        <ele>66</ele>
        <time>2017-12-19T12:23:57Z</time>
      </trkpt>
      <trkpt lat="62.637992763255" lon="17.972202262114">
        <ele>66</ele>
        <time>2017-12-19T12:23:58Z</time>
      </trkpt>
      <trkpt lat="62.637993098531" lon="17.9722604325">
        <ele>66</ele>
        <time>2017-12-19T12:23:59Z</time>
      </trkpt>
      <trkpt lat="62.637998295309" lon="17.972335785781">
        <ele>66</ele>
        <time>2017-12-19T12:24:00Z</time>
      </trkpt>
      <trkpt lat="62.638001396612" lon="17.97239202833">
        <ele>66</ele>
        <time>2017-12-19T12:24:01Z</time>
      </trkpt>
      <trkpt lat="62.638006258114" lon="17.972436536219">
        <ele>66.2</ele>
        <time>2017-12-19T12:24:02Z</time>
      </trkpt>
      <trkpt lat="62.638010365245" lon="17.972486324705">
        <ele>66</ele>
        <time>2017-12-19T12:24:03Z</time>
      </trkpt>
      <trkpt lat="62.638012963634" lon="17.972544495091">
        <ele>66.2</ele>
        <time>2017-12-19T12:24:04Z</time>
      </trkpt>
      <trkpt lat="62.638016484032" lon="17.972595037948">
        <ele>66.2</ele>
        <time>2017-12-19T12:24:05Z</time>
      </trkpt>
      <trkpt lat="62.638020758801" lon="17.972639629656">
        <ele>66.4</ele>
        <time>2017-12-19T12:24:06Z</time>
      </trkpt>
      <trkpt lat="62.638023692466" lon="17.972697800042">
        <ele>66.4</ele>
        <time>2017-12-19T12:24:07Z</time>
      </trkpt>
      <trkpt lat="62.638025620303" lon="17.972749767822">
        <ele>66.6</ele>
        <time>2017-12-19T12:24:08Z</time>
      </trkpt>
      <trkpt lat="62.638027296683" lon="17.972792180236">
        <ele>66.6</ele>
        <time>2017-12-19T12:24:09Z</time>
      </trkpt>
      <trkpt lat="62.638027464321" lon="17.972859235436">
        <ele>66.8</ele>
        <time>2017-12-19T12:24:10Z</time>
      </trkpt>
      <trkpt lat="62.638027883416" lon="17.972906090257">
        <ele>67</ele>
        <time>2017-12-19T12:24:11Z</time>
      </trkpt>
      <trkpt lat="62.638033750746" lon="17.972954956734">
        <ele>67</ele>
        <time>2017-12-19T12:24:12Z</time>
      </trkpt>
      <trkpt lat="62.638031822909" lon="17.973001727736">
        <ele>67</ele>
        <time>2017-12-19T12:24:13Z</time>
      </trkpt>
      <trkpt lat="62.638028134873" lon="17.97305755119">
        <ele>67.2</ele>
        <time>2017-12-19T12:24:14Z</time>
      </trkpt>
      <trkpt lat="62.638021596991" lon="17.973114799567">
        <ele>67.4</ele>
        <time>2017-12-19T12:24:15Z</time>
      </trkpt>
      <trkpt lat="62.638021261715" lon="17.97315478123">
        <ele>67.4</ele>
        <time>2017-12-19T12:24:16Z</time>
      </trkpt>
      <trkpt lat="62.638021513172" lon="17.973205240268">
        <ele>67.6</ele>
        <time>2017-12-19T12:24:17Z</time>
      </trkpt>
      <trkpt lat="62.638022602819" lon="17.973256537496">
        <ele>67.6</ele>
        <time>2017-12-19T12:24:18Z</time>
      </trkpt>
      <trkpt lat="62.638026626131" lon="17.973301045385">
        <ele>67.8</ele>
        <time>2017-12-19T12:24:19Z</time>
      </trkpt>
      <trkpt lat="62.638026290855" lon="17.973334321528">
        <ele>67.8</ele>
        <time>2017-12-19T12:24:20Z</time>
      </trkpt>
      <trkpt lat="62.638025452665" lon="17.973372878268">
        <ele>67.8</ele>
        <time>2017-12-19T12:24:21Z</time>
      </trkpt>
      <trkpt lat="62.638024027742" lon="17.973422834392">
        <ele>67.8</ele>
        <time>2017-12-19T12:24:22Z</time>
      </trkpt>
      <trkpt lat="62.638021513172" lon="17.973468096652">
        <ele>68</ele>
        <time>2017-12-19T12:24:23Z</time>
      </trkpt>
      <trkpt lat="62.638021596991" lon="17.973510509066">
        <ele>68</ele>
        <time>2017-12-19T12:24:24Z</time>
      </trkpt>
      <trkpt lat="62.638020507344" lon="17.973557531525">
        <ele>68.2</ele>
        <time>2017-12-19T12:24:25Z</time>
      </trkpt>
      <trkpt lat="62.638016232575" lon="17.973612516789">
        <ele>68.4</ele>
        <time>2017-12-19T12:24:26Z</time>
      </trkpt>
      <trkpt lat="62.638016232575" lon="17.973658030506">
        <ele>68.4</ele>
        <time>2017-12-19T12:24:27Z</time>
      </trkpt>
      <trkpt lat="62.638015226747" lon="17.973706896983">
        <ele>68.6</ele>
        <time>2017-12-19T12:24:28Z</time>
      </trkpt>
      <trkpt lat="62.638016400213" lon="17.973757858935">
        <ele>68.8</ele>
        <time>2017-12-19T12:24:29Z</time>
      </trkpt>
      <trkpt lat="62.638014388557" lon="17.973823153936">
        <ele>69</ele>
        <time>2017-12-19T12:24:30Z</time>
      </trkpt>
      <trkpt lat="62.638013885643" lon="17.973880486132">
        <ele>69</ele>
        <time>2017-12-19T12:24:31Z</time>
      </trkpt>
      <trkpt lat="62.638012963634" lon="17.973935471396">
        <ele>69.2</ele>
        <time>2017-12-19T12:24:32Z</time>
      </trkpt>
      <trkpt lat="62.638015226747" lon="17.97399213304">
        <ele>69.2</ele>
        <time>2017-12-19T12:24:33Z</time>
      </trkpt>
      <trkpt lat="62.638017322222" lon="17.974044436096">
        <ele>69.2</ele>
        <time>2017-12-19T12:24:34Z</time>
      </trkpt>
      <trkpt lat="62.638019585335" lon="17.974099840455">
        <ele>69</ele>
        <time>2017-12-19T12:24:35Z</time>
      </trkpt>
      <trkpt lat="62.638023441009" lon="17.974155831547">
        <ele>69</ele>
        <time>2017-12-19T12:24:36Z</time>
      </trkpt>
      <trkpt lat="62.638025955579" lon="17.974221126548">
        <ele>69</ele>
        <time>2017-12-19T12:24:37Z</time>
      </trkpt>
      <trkpt lat="62.63803593004" lon="17.97426789755">
        <ele>68.8</ele>
        <time>2017-12-19T12:24:38Z</time>
      </trkpt>
      <trkpt lat="62.638035259488" lon="17.974344424297">
        <ele>69</ele>
        <time>2017-12-19T12:24:39Z</time>
      </trkpt>
      <trkpt lat="62.638042132646" lon="17.97440200795">
        <ele>69</ele>
        <time>2017-12-19T12:24:40Z</time>
      </trkpt>
      <trkpt lat="62.638039953352" lon="17.974461435621">
        <ele>69</ele>
        <time>2017-12-19T12:24:41Z</time>
      </trkpt>
      <trkpt lat="62.638041462094" lon="17.974536705083">
        <ele>69</ele>
        <time>2017-12-19T12:24:42Z</time>
      </trkpt>
      <trkpt lat="62.638039534257" lon="17.974594707831">
        <ele>69</ele>
        <time>2017-12-19T12:24:43Z</time>
      </trkpt>
      <trkpt lat="62.638036684411" lon="17.974670312569">
        <ele>69</ele>
        <time>2017-12-19T12:24:44Z</time>
      </trkpt>
      <trkpt lat="62.638031990547" lon="17.974724962557">
        <ele>69.2</ele>
        <time>2017-12-19T12:24:45Z</time>
      </trkpt>
      <trkpt lat="62.63801832805" lon="17.974792436852">
        <ele>69.2</ele>
        <time>2017-12-19T12:24:46Z</time>
      </trkpt>
      <trkpt lat="62.63801162253" lon="17.974834681628">
        <ele>69.2</ele>
        <time>2017-12-19T12:24:47Z</time>
      </trkpt>
      <trkpt lat="62.637996702748" lon="17.974889080159">
        <ele>69</ele>
        <time>2017-12-19T12:24:48Z</time>
      </trkpt>
      <trkpt lat="62.637987566477" lon="17.974925625243">
        <ele>69</ele>
        <time>2017-12-19T12:24:49Z</time>
      </trkpt>
      <trkpt lat="62.637972898152" lon="17.974965942182">
        <ele>69</ele>
        <time>2017-12-19T12:24:50Z</time>
      </trkpt>
      <trkpt lat="62.637958565103" lon="17.975009611881">
        <ele>69</ele>
        <time>2017-12-19T12:24:51Z</time>
      </trkpt>
      <trkpt lat="62.637945237882" lon="17.975037188332">
        <ele>69.2</ele>
        <time>2017-12-19T12:24:52Z</time>
      </trkpt>
      <trkpt lat="62.637936688344" lon="17.975058897453">
        <ele>69.2</ele>
        <time>2017-12-19T12:24:53Z</time>
      </trkpt>
      <trkpt lat="62.637924702227" lon="17.975097538012">
        <ele>69.4</ele>
        <time>2017-12-19T12:24:54Z</time>
      </trkpt>
      <trkpt lat="62.637909950083" lon="17.975134669829">
        <ele>69.4</ele>
        <time>2017-12-19T12:24:55Z</time>
      </trkpt>
      <trkpt lat="62.637894695025" lon="17.975161575728">
        <ele>69.6</ele>
        <time>2017-12-19T12:24:56Z</time>
      </trkpt>
      <trkpt lat="62.637879859062" lon="17.975190074188">
        <ele>69.6</ele>
        <time>2017-12-19T12:24:57Z</time>
      </trkpt>
      <trkpt lat="62.637868459678" lon="17.975218237372">
        <ele>69.8</ele>
        <time>2017-12-19T12:24:58Z</time>
      </trkpt>
      <trkpt lat="62.637855803009" lon="17.975243802167">
        <ele>70</ele>
        <time>2017-12-19T12:24:59Z</time>
      </trkpt>
      <trkpt lat="62.637845074177" lon="17.97527037279">
        <ele>70.2</ele>
        <time>2017-12-19T12:25:00Z</time>
      </trkpt>
      <trkpt lat="62.637824622341" lon="17.975308510435">
        <ele>70.4</ele>
        <time>2017-12-19T12:25:01Z</time>
      </trkpt>
      <trkpt lat="62.637808864369" lon="17.975344552605">
        <ele>70.4</ele>
        <time>2017-12-19T12:25:02Z</time>
      </trkpt>
      <trkpt lat="62.637796375338" lon="17.975369195391">
        <ele>70.6</ele>
        <time>2017-12-19T12:25:03Z</time>
      </trkpt>
      <trkpt lat="62.637783048117" lon="17.97539693948">
        <ele>70.4</ele>
        <time>2017-12-19T12:25:04Z</time>
      </trkpt>
      <trkpt lat="62.637767625421" lon="17.975415882574">
        <ele>70.4</ele>
        <time>2017-12-19T12:25:05Z</time>
      </trkpt>
      <trkpt lat="62.637753292372" lon="17.975429545071">
        <ele>70.4</ele>
        <time>2017-12-19T12:25:06Z</time>
      </trkpt>
      <trkpt lat="62.637738791685" lon="17.975447901432">
        <ele>70.6</ele>
        <time>2017-12-19T12:25:07Z</time>
      </trkpt>
      <trkpt lat="62.637724374817" lon="17.975456618608">
        <ele>70.8</ele>
        <time>2017-12-19T12:25:08Z</time>
      </trkpt>
      <trkpt lat="62.637710796139" lon="17.97547153839">
        <ele>70.8</ele>
        <time>2017-12-19T12:25:09Z</time>
      </trkpt>
      <trkpt lat="62.637696714547" lon="17.975487631638">
        <ele>71</ele>
        <time>2017-12-19T12:25:10Z</time>
      </trkpt>
      <trkpt lat="62.637685315163" lon="17.975497857556">
        <ele>71.4</ele>
        <time>2017-12-19T12:25:11Z</time>
      </trkpt>
      <trkpt lat="62.637670311562" lon="17.975510598044">
        <ele>71.6</ele>
        <time>2017-12-19T12:25:12Z</time>
      </trkpt>
      <trkpt lat="62.637656732884" lon="17.97552350617">
        <ele>71.6</ele>
        <time>2017-12-19T12:25:13Z</time>
      </trkpt>
      <trkpt lat="62.637643238025" lon="17.975537671581">
        <ele>72</ele>
        <time>2017-12-19T12:25:14Z</time>
      </trkpt>
      <trkpt lat="62.6376201878" lon="17.975538509771">
        <ele>72.2</ele>
        <time>2017-12-19T12:25:15Z</time>
      </trkpt>
      <trkpt lat="62.637596886118" lon="17.975543203635">
        <ele>72.2</ele>
        <time>2017-12-19T12:25:16Z</time>
      </trkpt>
      <trkpt lat="62.637586408743" lon="17.975547646042">
        <ele>72.4</ele>
        <time>2017-12-19T12:25:17Z</time>
      </trkpt>
      <trkpt lat="62.637564783441" lon="17.975559464521">
        <ele>72.6</ele>
        <time>2017-12-19T12:25:18Z</time>
      </trkpt>
      <trkpt lat="62.637542822863" lon="17.975568936068">
        <ele>72.6</ele>
        <time>2017-12-19T12:25:19Z</time>
      </trkpt>
      <trkpt lat="62.637526897253" lon="17.975585280773">
        <ele>72.8</ele>
        <time>2017-12-19T12:25:20Z</time>
      </trkpt>
      <trkpt lat="62.637511558376" lon="17.975597685985">
        <ele>72.8</ele>
        <time>2017-12-19T12:25:21Z</time>
      </trkpt>
      <trkpt lat="62.637494375481" lon="17.975602379849">
        <ele>73</ele>
        <time>2017-12-19T12:25:22Z</time>
      </trkpt>
      <trkpt lat="62.637473420731" lon="17.975574803398">
        <ele>73</ele>
        <time>2017-12-19T12:25:23Z</time>
      </trkpt>
      <trkpt lat="62.637455232008" lon="17.975583772031">
        <ele>73.2</ele>
        <time>2017-12-19T12:25:24Z</time>
      </trkpt>
      <trkpt lat="62.637440396045" lon="17.975590645189">
        <ele>73.4</ele>
        <time>2017-12-19T12:25:25Z</time>
      </trkpt>
      <trkpt lat="62.637425057168" lon="17.975601541659">
        <ele>73.4</ele>
        <time>2017-12-19T12:25:26Z</time>
      </trkpt>
      <trkpt lat="62.637413825422" lon="17.975619562744">
        <ele>73.6</ele>
        <time>2017-12-19T12:25:27Z</time>
      </trkpt>
      <trkpt lat="62.637398151269" lon="17.975629621024">
        <ele>74</ele>
        <time>2017-12-19T12:25:28Z</time>
      </trkpt>
      <trkpt lat="62.637376861243" lon="17.975645965729">
        <ele>74</ele>
        <time>2017-12-19T12:25:29Z</time>
      </trkpt>
      <trkpt lat="62.637361773823" lon="17.975662226615">
        <ele>74.2</ele>
        <time>2017-12-19T12:25:30Z</time>
      </trkpt>
      <trkpt lat="62.637338472141" lon="17.975672117257">
        <ele>74.4</ele>
        <time>2017-12-19T12:25:31Z</time>
      </trkpt>
      <trkpt lat="62.637319529047" lon="17.975686785582">
        <ele>74.4</ele>
        <time>2017-12-19T12:25:32Z</time>
      </trkpt>
      <trkpt lat="62.637302178514" lon="17.975704722848">
        <ele>74.6</ele>
        <time>2017-12-19T12:25:33Z</time>
      </trkpt>
      <trkpt lat="62.637285582352" lon="17.975727689254">
        <ele>74.6</ele>
        <time>2017-12-19T12:25:34Z</time>
      </trkpt>
      <trkpt lat="62.637269321466" lon="17.975745961796">
        <ele>74.6</ele>
        <time>2017-12-19T12:25:35Z</time>
      </trkpt>
      <trkpt lat="62.637265968706" lon="17.975764150519">
        <ele>74.8</ele>
        <time>2017-12-19T12:25:36Z</time>
      </trkpt>
      <trkpt lat="62.637253228218" lon="17.975781752509">
        <ele>74.8</ele>
        <time>2017-12-19T12:25:37Z</time>
      </trkpt>
      <trkpt lat="62.637242499386" lon="17.9758059762">
        <ele>75</ele>
        <time>2017-12-19T12:25:38Z</time>
      </trkpt>
      <trkpt lat="62.637234704219" lon="17.975829277882">
        <ele>75.2</ele>
        <time>2017-12-19T12:25:39Z</time>
      </trkpt>
      <trkpt lat="62.637224729758" lon="17.975853920668">
        <ele>75.4</ele>
        <time>2017-12-19T12:25:40Z</time>
      </trkpt>
      <trkpt lat="62.63721618022" lon="17.975873450495">
        <ele>75.4</ele>
        <time>2017-12-19T12:25:41Z</time>
      </trkpt>
      <trkpt lat="62.63720360737" lon="17.975904631163">
        <ele>75.6</ele>
        <time>2017-12-19T12:25:42Z</time>
      </trkpt>
      <trkpt lat="62.637196398936" lon="17.975937236754">
        <ele>75.8</ele>
        <time>2017-12-19T12:25:43Z</time>
      </trkpt>
      <trkpt lat="62.637185251009" lon="17.975973111286">
        <ele>76</ele>
        <time>2017-12-19T12:25:44Z</time>
      </trkpt>
      <trkpt lat="62.637177958756" lon="17.976007812352">
        <ele>76.2</ele>
        <time>2017-12-19T12:25:45Z</time>
      </trkpt>
      <trkpt lat="62.637167984295" lon="17.97604150759">
        <ele>76.4</ele>
        <time>2017-12-19T12:25:46Z</time>
      </trkpt>
      <trkpt lat="62.637164715354" lon="17.976058774304">
        <ele>76.4</ele>
        <time>2017-12-19T12:25:47Z</time>
      </trkpt>
      <trkpt lat="62.6371508014" lon="17.976115352129">
        <ele>76.6</ele>
        <time>2017-12-19T12:25:48Z</time>
      </trkpt>
      <trkpt lat="62.637143509147" lon="17.97615969238">
        <ele>76.8</ele>
        <time>2017-12-19T12:25:49Z</time>
      </trkpt>
      <trkpt lat="62.637139988749" lon="17.976186765917">
        <ele>76.8</ele>
        <time>2017-12-19T12:25:50Z</time>
      </trkpt>
      <trkpt lat="62.637127415899" lon="17.976235213299">
        <ele>76.8</ele>
        <time>2017-12-19T12:25:51Z</time>
      </trkpt>
      <trkpt lat="62.637120794198" lon="17.976270249641">
        <ele>76.8</ele>
        <time>2017-12-19T12:25:52Z</time>
      </trkpt>
      <trkpt lat="62.637116100334" lon="17.976301681766">
        <ele>76.8</ele>
        <time>2017-12-19T12:25:53Z</time>
      </trkpt>
      <trkpt lat="62.637109981547" lon="17.976337807755">
        <ele>77</ele>
        <time>2017-12-19T12:25:54Z</time>
      </trkpt>
      <trkpt lat="62.637104533312" lon="17.976373011735">
        <ele>77.2</ele>
        <time>2017-12-19T12:25:55Z</time>
      </trkpt>
      <trkpt lat="62.637095983774" lon="17.976421375298">
        <ele>77.2</ele>
        <time>2017-12-19T12:25:56Z</time>
      </trkpt>
      <trkpt lat="62.637093301566" lon="17.976456579278">
        <ele>77.4</ele>
        <time>2017-12-19T12:25:57Z</time>
      </trkpt>
      <trkpt lat="62.637083830019" lon="17.97650502666">
        <ele>77.4</ele>
        <time>2017-12-19T12:25:58Z</time>
      </trkpt>
      <trkpt lat="62.637081986001" lon="17.976554982784">
        <ele>77.4</ele>
        <time>2017-12-19T12:25:59Z</time>
      </trkpt>
      <trkpt lat="62.637081650725" lon="17.976598568664">
        <ele>77.6</ele>
        <time>2017-12-19T12:26:00Z</time>
      </trkpt>
      <trkpt lat="62.637077124499" lon="17.976661600552">
        <ele>77.6</ele>
        <time>2017-12-19T12:26:01Z</time>
      </trkpt>
      <trkpt lat="62.637081147811" lon="17.976697391265">
        <ele>77.6</ele>
        <time>2017-12-19T12:26:02Z</time>
      </trkpt>
      <trkpt lat="62.63707787887" lon="17.976746928294">
        <ele>77.6</ele>
        <time>2017-12-19T12:26:03Z</time>
      </trkpt>
      <trkpt lat="62.637078046508" lon="17.976795794771">
        <ele>77.8</ele>
        <time>2017-12-19T12:26:04Z</time>
      </trkpt>
      <trkpt lat="62.637077711232" lon="17.976850109483">
        <ele>77.8</ele>
        <time>2017-12-19T12:26:05Z</time>
      </trkpt>
      <trkpt lat="62.637080141983" lon="17.976901071435">
        <ele>77.8</ele>
        <time>2017-12-19T12:26:06Z</time>
      </trkpt>
      <trkpt lat="62.637077627413" lon="17.976960331468">
        <ele>78</ele>
        <time>2017-12-19T12:26:07Z</time>
      </trkpt>
      <trkpt lat="62.637082405096" lon="17.977003246796">
        <ele>78</ele>
        <time>2017-12-19T12:26:08Z</time>
      </trkpt>
      <trkpt lat="62.637079806707" lon="17.977066949236">
        <ele>78</ele>
        <time>2017-12-19T12:26:09Z</time>
      </trkpt>
      <trkpt lat="62.637085925494" lon="17.97711774355">
        <ele>78</ele>
        <time>2017-12-19T12:26:10Z</time>
      </trkpt>
      <trkpt lat="62.637080225802" lon="17.977174069918">
        <ele>78</ele>
        <time>2017-12-19T12:26:11Z</time>
      </trkpt>
      <trkpt lat="62.637076286309" lon="17.977246238077">
        <ele>78</ele>
        <time>2017-12-19T12:26:12Z</time>
      </trkpt>
      <trkpt lat="62.637070754255" lon="17.977291751794">
        <ele>78</ele>
        <time>2017-12-19T12:26:13Z</time>
      </trkpt>
      <trkpt lat="62.637059354871" lon="17.977343468117">
        <ele>78</ele>
        <time>2017-12-19T12:26:14Z</time>
      </trkpt>
      <trkpt lat="62.637053822817" lon="17.977388143644">
        <ele>78</ele>
        <time>2017-12-19T12:26:15Z</time>
      </trkpt>
      <trkpt lat="62.637040327958" lon="17.977441703985">
        <ele>78</ele>
        <time>2017-12-19T12:26:16Z</time>
      </trkpt>
      <trkpt lat="62.637033370981" lon="17.977480596001">
        <ele>77.8</ele>
        <time>2017-12-19T12:26:17Z</time>
      </trkpt>
      <trkpt lat="62.637010572213" lon="17.977535916541">
        <ele>77.8</ele>
        <time>2017-12-19T12:26:18Z</time>
      </trkpt>
      <trkpt lat="62.636997496449" lon="17.977588973968">
        <ele>77.8</ele>
        <time>2017-12-19T12:26:19Z</time>
      </trkpt>
      <trkpt lat="62.636978888631" lon="17.977637756626">
        <ele>77.6</ele>
        <time>2017-12-19T12:26:20Z</time>
      </trkpt>
      <trkpt lat="62.636966986333" lon="17.977691652243">
        <ele>77.8</ele>
        <time>2017-12-19T12:26:21Z</time>
      </trkpt>
      <trkpt lat="62.636959945537" lon="17.977732388277">
        <ele>78</ele>
        <time>2017-12-19T12:26:22Z</time>
      </trkpt>
      <trkpt lat="62.636950054895" lon="17.977781422392">
        <ele>78</ele>
        <time>2017-12-19T12:26:23Z</time>
      </trkpt>
      <trkpt lat="62.636945277212" lon="17.977823583349">
        <ele>78</ele>
        <time>2017-12-19T12:26:24Z</time>
      </trkpt>
      <trkpt lat="62.636935973303" lon="17.977880580269">
        <ele>78</ele>
        <time>2017-12-19T12:26:25Z</time>
      </trkpt>
      <trkpt lat="62.636934213104" lon="17.977914107869">
        <ele>78</ele>
        <time>2017-12-19T12:26:26Z</time>
      </trkpt>
      <trkpt lat="62.63692616648" lon="17.977981330707">
        <ele>78</ele>
        <time>2017-12-19T12:26:27Z</time>
      </trkpt>
      <trkpt lat="62.636921807892" lon="17.978022653474">
        <ele>78</ele>
        <time>2017-12-19T12:26:28Z</time>
      </trkpt>
      <trkpt lat="62.636914767096" lon="17.978081159136">
        <ele>78</ele>
        <time>2017-12-19T12:26:29Z</time>
      </trkpt>
      <trkpt lat="62.636909318861" lon="17.978141005902">
        <ele>78</ele>
        <time>2017-12-19T12:26:30Z</time>
      </trkpt>
      <trkpt lat="62.636901607513" lon="17.97818392123">
        <ele>78.2</ele>
        <time>2017-12-19T12:26:31Z</time>
      </trkpt>
      <trkpt lat="62.636891716871" lon="17.978225076359">
        <ele>78.2</ele>
        <time>2017-12-19T12:26:32Z</time>
      </trkpt>
      <trkpt lat="62.636884759894" lon="17.97825935833">
        <ele>78.2</ele>
        <time>2017-12-19T12:26:33Z</time>
      </trkpt>
      <trkpt lat="62.636870091569" lon="17.978312834852">
        <ele>78.4</ele>
        <time>2017-12-19T12:26:34Z</time>
      </trkpt>
      <trkpt lat="62.636864643334" lon="17.978340746579">
        <ele>78.6</ele>
        <time>2017-12-19T12:26:35Z</time>
      </trkpt>
      <trkpt lat="62.636850897018" lon="17.97839682149">
        <ele>78.6</ele>
        <time>2017-12-19T12:26:36Z</time>
      </trkpt>
      <trkpt lat="62.636835139046" lon="17.978438144257">
        <ele>78.6</ele>
        <time>2017-12-19T12:26:37Z</time>
      </trkpt>
      <trkpt lat="62.636834300856" lon="17.978477120092">
        <ele>78.6</ele>
        <time>2017-12-19T12:26:38Z</time>
      </trkpt>
      <trkpt lat="62.636812424097" lon="17.978529674605">
        <ele>78.4</ele>
        <time>2017-12-19T12:26:39Z</time>
      </trkpt>
      <trkpt lat="62.636804126016" lon="17.978572338476">
        <ele>78.4</ele>
        <time>2017-12-19T12:26:40Z</time>
      </trkpt>
      <trkpt lat="62.636793481003" lon="17.978600669298">
        <ele>78.4</ele>
        <time>2017-12-19T12:26:41Z</time>
      </trkpt>
      <trkpt lat="62.636769592588" lon="17.978642075884">
        <ele>78.4</ele>
        <time>2017-12-19T12:26:42Z</time>
      </trkpt>
      <trkpt lat="62.636756349186" lon="17.978666131937">
        <ele>78.6</ele>
        <time>2017-12-19T12:26:43Z</time>
      </trkpt>
      <trkpt lat="62.636745201259" lon="17.978695300949">
        <ele>78.6</ele>
        <time>2017-12-19T12:26:44Z</time>
      </trkpt>
      <trkpt lat="62.636723240681" lon="17.978723380314">
        <ele>78.6</ele>
        <time>2017-12-19T12:26:45Z</time>
      </trkpt>
      <trkpt lat="62.636702453569" lon="17.978747017272">
        <ele>78.8</ele>
        <time>2017-12-19T12:26:46Z</time>
      </trkpt>
      <trkpt lat="62.636693065841" lon="17.978764619262">
        <ele>78.8</ele>
        <time>2017-12-19T12:26:47Z</time>
      </trkpt>
      <trkpt lat="62.636675463851" lon="17.978784652003">
        <ele>79</ele>
        <time>2017-12-19T12:26:48Z</time>
      </trkpt>
      <trkpt lat="62.636650150513" lon="17.978791944256">
        <ele>79</ele>
        <time>2017-12-19T12:26:49Z</time>
      </trkpt>
      <trkpt lat="62.636627519383" lon="17.978799320328">
        <ele>79.2</ele>
        <time>2017-12-19T12:26:50Z</time>
      </trkpt>
      <trkpt lat="62.636613018696" lon="17.97881004916">
        <ele>79.2</ele>
        <time>2017-12-19T12:26:51Z</time>
      </trkpt>
      <trkpt lat="62.63659340505" lon="17.978809043332">
        <ele>79.2</ele>
        <time>2017-12-19T12:26:52Z</time>
      </trkpt>
      <trkpt lat="62.636572869395" lon="17.978807115495">
        <ele>79.2</ele>
        <time>2017-12-19T12:26:53Z</time>
      </trkpt>
      <trkpt lat="62.636549651532" lon="17.978810300617">
        <ele>79.4</ele>
        <time>2017-12-19T12:26:54Z</time>
      </trkpt>
      <trkpt lat="62.636539257976" lon="17.978814994481">
        <ele>79.4</ele>
        <time>2017-12-19T12:26:55Z</time>
      </trkpt>
      <trkpt lat="62.636520985434" lon="17.978815162119">
        <ele>79.6</ele>
        <time>2017-12-19T12:26:56Z</time>
      </trkpt>
      <trkpt lat="62.636496091191" lon="17.978812396092">
        <ele>79.6</ele>
        <time>2017-12-19T12:26:57Z</time>
      </trkpt>
      <trkpt lat="62.636473208604" lon="17.978806109667">
        <ele>79.8</ele>
        <time>2017-12-19T12:26:58Z</time>
      </trkpt>
      <trkpt lat="62.636455019881" lon="17.97880921097">
        <ele>80.2</ele>
        <time>2017-12-19T12:26:59Z</time>
      </trkpt>
      <trkpt lat="62.63643331076" lon="17.978821029449">
        <ele>80.4</ele>
        <time>2017-12-19T12:27:00Z</time>
      </trkpt>
      <trkpt lat="62.636417133693" lon="17.97881759287">
        <ele>80.6</ele>
        <time>2017-12-19T12:27:01Z</time>
      </trkpt>
      <trkpt lat="62.636402130092" lon="17.978824968942">
        <ele>80.8</ele>
        <time>2017-12-19T12:27:02Z</time>
      </trkpt>
      <trkpt lat="62.636388299957" lon="17.978825890951">
        <ele>80.8</ele>
        <time>2017-12-19T12:27:03Z</time>
      </trkpt>
      <trkpt lat="62.636374553641" lon="17.978826645322">
        <ele>80.8</ele>
        <time>2017-12-19T12:27:04Z</time>
      </trkpt>
      <trkpt lat="62.63636206461" lon="17.978829076073">
        <ele>80.8</ele>
        <time>2017-12-19T12:27:05Z</time>
      </trkpt>
      <trkpt lat="62.636329459019" lon="17.978845336959">
        <ele>81.2</ele>
        <time>2017-12-19T12:27:07Z</time>
      </trkpt>
      <trkpt lat="62.636321328576" lon="17.97884609133">
        <ele>81.4</ele>
        <time>2017-12-19T12:27:08Z</time>
      </trkpt>
      <trkpt lat="62.636305738242" lon="17.978855646696">
        <ele>81.6</ele>
        <time>2017-12-19T12:27:09Z</time>
      </trkpt>
      <trkpt lat="62.636291153736" lon="17.978867548994">
        <ele>81.8</ele>
        <time>2017-12-19T12:27:10Z</time>
      </trkpt>
      <trkpt lat="62.636275898678" lon="17.978882301138">
        <ele>82</ele>
        <time>2017-12-19T12:27:11Z</time>
      </trkpt>
      <trkpt lat="62.636258212869" lon="17.97889638273">
        <ele>82.2</ele>
        <time>2017-12-19T12:27:12Z</time>
      </trkpt>
      <trkpt lat="62.636242622535" lon="17.978914906729">
        <ele>82.4</ele>
        <time>2017-12-19T12:27:13Z</time>
      </trkpt>
      <trkpt lat="62.636226529287" lon="17.978936280574">
        <ele>82.6</ele>
        <time>2017-12-19T12:27:14Z</time>
      </trkpt>
      <trkpt lat="62.636220075224" lon="17.978956229496">
        <ele>82.6</ele>
        <time>2017-12-19T12:27:15Z</time>
      </trkpt>
      <trkpt lat="62.63620783765" lon="17.978979447359">
        <ele>83</ele>
        <time>2017-12-19T12:27:16Z</time>
      </trkpt>
      <trkpt lat="62.636197863189" lon="17.978992858399">
        <ele>83</ele>
        <time>2017-12-19T12:27:17Z</time>
      </trkpt>
      <trkpt lat="62.636187301995" lon="17.97900618562">
        <ele>83.2</ele>
        <time>2017-12-19T12:27:18Z</time>
      </trkpt>
      <trkpt lat="62.636178249543" lon="17.979015070434">
        <ele>83.4</ele>
        <time>2017-12-19T12:27:19Z</time>
      </trkpt>
      <trkpt lat="62.636168945634" lon="17.979021021583">
        <ele>83.6</ele>
        <time>2017-12-19T12:27:20Z</time>
      </trkpt>
      <trkpt lat="62.636161234286" lon="17.979030996044">
        <ele>83.8</ele>
        <time>2017-12-19T12:27:21Z</time>
      </trkpt>
      <trkpt lat="62.636152852386" lon="17.979044909998">
        <ele>84</ele>
        <time>2017-12-19T12:27:22Z</time>
      </trkpt>
      <trkpt lat="62.636142207373" lon="17.979062595807">
        <ele>84.4</ele>
        <time>2017-12-19T12:27:23Z</time>
      </trkpt>
      <trkpt lat="62.636131143265" lon="17.979084640204">
        <ele>84.8</ele>
        <time>2017-12-19T12:27:24Z</time>
      </trkpt>
      <trkpt lat="62.636122677546" lon="17.979108025705">
        <ele>85</ele>
        <time>2017-12-19T12:27:25Z</time>
      </trkpt>
      <trkpt lat="62.636115720569" lon="17.979121939659">
        <ele>85.4</ele>
        <time>2017-12-19T12:27:26Z</time>
      </trkpt>
      <trkpt lat="62.636107506307" lon="17.979147420635">
        <ele>85.6</ele>
        <time>2017-12-19T12:27:27Z</time>
      </trkpt>
      <trkpt lat="62.636098118579" lon="17.97917214724">
        <ele>85.8</ele>
        <time>2017-12-19T12:27:28Z</time>
      </trkpt>
      <trkpt lat="62.636091832154" lon="17.979201986804">
        <ele>85.8</ele>
        <time>2017-12-19T12:27:29Z</time>
      </trkpt>
      <trkpt lat="62.636077582924" lon="17.97924087882">
        <ele>86</ele>
        <time>2017-12-19T12:27:30Z</time>
      </trkpt>
      <trkpt lat="62.63607121268" lon="17.979277004809">
        <ele>86.2</ele>
        <time>2017-12-19T12:27:31Z</time>
      </trkpt>
      <trkpt lat="62.636055538527" lon="17.979314555721">
        <ele>86.2</ele>
        <time>2017-12-19T12:27:32Z</time>
      </trkpt>
      <trkpt lat="62.636048833007" lon="17.979345904027">
        <ele>86.4</ele>
        <time>2017-12-19T12:27:33Z</time>
      </trkpt>
      <trkpt lat="62.636038858546" lon="17.979394099952">
        <ele>86.4</ele>
        <time>2017-12-19T12:27:34Z</time>
      </trkpt>
      <trkpt lat="62.63603517051" lon="17.979435590357">
        <ele>86.6</ele>
        <time>2017-12-19T12:27:35Z</time>
      </trkpt>
      <trkpt lat="62.636024693135" lon="17.979513877303">
        <ele>86.6</ele>
        <time>2017-12-19T12:27:36Z</time>
      </trkpt>
      <trkpt lat="62.636020837461" lon="17.979586129281">
        <ele>86.6</ele>
        <time>2017-12-19T12:27:37Z</time>
      </trkpt>
      <trkpt lat="62.636012958475" lon="17.979669780643">
        <ele>86.6</ele>
        <time>2017-12-19T12:27:38Z</time>
      </trkpt>
      <trkpt lat="62.636006923507" lon="17.97979995155">
        <ele>86.6</ele>
        <time>2017-12-19T12:27:39Z</time>
      </trkpt>
      <trkpt lat="62.636010611543" lon="17.979947975904">
        <ele>85.8</ele>
        <time>2017-12-19T12:27:40Z</time>
      </trkpt>
      <trkpt lat="62.636014886312" lon="17.9800723633">
        <ele>85.4</ele>
        <time>2017-12-19T12:27:41Z</time>
      </trkpt>
      <trkpt lat="62.636025196049" lon="17.980239749843">
        <ele>84.4</ele>
        <time>2017-12-19T12:27:42Z</time>
      </trkpt>
      <trkpt lat="62.636040451107" lon="17.980378386469">
        <ele>83.6</ele>
        <time>2017-12-19T12:27:43Z</time>
      </trkpt>
      <trkpt lat="62.636066015902" lon="17.980528087203">
        <ele>82.6</ele>
        <time>2017-12-19T12:27:44Z</time>
      </trkpt>
      <trkpt lat="62.63609132924" lon="17.98066328725">
        <ele>81.8</ele>
        <time>2017-12-19T12:27:45Z</time>
      </trkpt>
      <trkpt lat="62.636117564587" lon="17.980797565288">
        <ele>81</ele>
        <time>2017-12-19T12:27:46Z</time>
      </trkpt>
      <trkpt lat="62.636146565961" lon="17.980923880521">
        <ele>80.6</ele>
        <time>2017-12-19T12:27:47Z</time>
      </trkpt>
      <trkpt lat="62.636169448548" lon="17.981055392532">
        <ele>80.2</ele>
        <time>2017-12-19T12:27:48Z</time>
      </trkpt>
      <trkpt lat="62.636191157669" lon="17.981193190968">
        <ele>79.8</ele>
        <time>2017-12-19T12:27:49Z</time>
      </trkpt>
      <trkpt lat="62.636207167098" lon="17.98132294278">
        <ele>79.6</ele>
        <time>2017-12-19T12:27:50Z</time>
      </trkpt>
      <trkpt lat="62.636222589794" lon="17.981450180022">
        <ele>79.4</ele>
        <time>2017-12-19T12:27:51Z</time>
      </trkpt>
      <trkpt lat="62.636236000834" lon="17.981577333445">
        <ele>79</ele>
        <time>2017-12-19T12:27:52Z</time>
      </trkpt>
      <trkpt lat="62.63625477629" lon="17.981679844082">
        <ele>78.8</ele>
        <time>2017-12-19T12:27:53Z</time>
      </trkpt>
      <trkpt lat="62.636272126823" lon="17.981792832094">
        <ele>78.8</ele>
        <time>2017-12-19T12:27:54Z</time>
      </trkpt>
      <trkpt lat="62.636297607799" lon="17.98188872103">
        <ele>78.6</ele>
        <time>2017-12-19T12:27:55Z</time>
      </trkpt>
      <trkpt lat="62.636310348287" lon="17.981978491179">
        <ele>78.6</ele>
        <time>2017-12-19T12:27:56Z</time>
      </trkpt>
      <trkpt lat="62.63631847873" lon="17.982076978504">
        <ele>78.4</ele>
        <time>2017-12-19T12:27:57Z</time>
      </trkpt>
      <trkpt lat="62.636340439308" lon="17.982182338987">
        <ele>78.4</ele>
        <time>2017-12-19T12:27:58Z</time>
      </trkpt>
      <trkpt lat="62.636343540611" lon="17.982294907904">
        <ele>78.4</ele>
        <time>2017-12-19T12:27:59Z</time>
      </trkpt>
      <trkpt lat="62.636349407941" lon="17.982397669998">
        <ele>78.6</ele>
        <time>2017-12-19T12:28:00Z</time>
      </trkpt>
      <trkpt lat="62.636353598891" lon="17.982495235314">
        <ele>78.8</ele>
        <time>2017-12-19T12:28:01Z</time>
      </trkpt>
      <trkpt lat="62.636355862004" lon="17.982579724866">
        <ele>79</ele>
        <time>2017-12-19T12:28:02Z</time>
      </trkpt>
      <trkpt lat="62.636356867832" lon="17.982642421478">
        <ele>79.4</ele>
        <time>2017-12-19T12:28:03Z</time>
      </trkpt>
      <trkpt lat="62.636350246131" lon="17.982751889092">
        <ele>79.6</ele>
        <time>2017-12-19T12:28:04Z</time>
      </trkpt>
      <trkpt lat="62.636354688538" lon="17.982810310935">
        <ele>79.8</ele>
        <time>2017-12-19T12:28:05Z</time>
      </trkpt>
      <trkpt lat="62.636351084321" lon="17.982899745808">
        <ele>79.8</ele>
        <time>2017-12-19T12:28:06Z</time>
      </trkpt>
      <trkpt lat="62.636344378801" lon="17.982973003614">
        <ele>79.8</ele>
        <time>2017-12-19T12:28:07Z</time>
      </trkpt>
      <trkpt lat="62.636341361317" lon="17.98304039409">
        <ele>80</ele>
        <time>2017-12-19T12:28:08Z</time>
      </trkpt>
      <trkpt lat="62.636337421824" lon="17.983106275824">
        <ele>80</ele>
        <time>2017-12-19T12:28:09Z</time>
      </trkpt>
      <trkpt lat="62.636330967761" lon="17.983166541685">
        <ele>80.2</ele>
        <time>2017-12-19T12:28:10Z</time>
      </trkpt>
      <trkpt lat="62.636335913082" lon="17.983229992668">
        <ele>80.2</ele>
        <time>2017-12-19T12:28:11Z</time>
      </trkpt>
      <trkpt lat="62.636336332177" lon="17.983313392573">
        <ele>80.2</ele>
        <time>2017-12-19T12:28:12Z</time>
      </trkpt>
      <trkpt lat="62.636340355489" lon="17.983354547702">
        <ele>80</ele>
        <time>2017-12-19T12:28:13Z</time>
      </trkpt>
      <trkpt lat="62.636335996901" lon="17.983428978974">
        <ele>80</ele>
        <time>2017-12-19T12:28:14Z</time>
      </trkpt>
      <trkpt lat="62.636324681336" lon="17.983481868763">
        <ele>80</ele>
        <time>2017-12-19T12:28:15Z</time>
      </trkpt>
      <trkpt lat="62.636322837318" lon="17.983520844598">
        <ele>80</ele>
        <time>2017-12-19T12:28:16Z</time>
      </trkpt>
      <trkpt lat="62.636312443762" lon="17.983570716903">
        <ele>80</ele>
        <time>2017-12-19T12:28:17Z</time>
      </trkpt>
      <trkpt lat="62.636304732414" lon="17.983614973335">
        <ele>80.2</ele>
        <time>2017-12-19T12:28:18Z</time>
      </trkpt>
      <trkpt lat="62.636293584487" lon="17.983668366038">
        <ele>80.2</ele>
        <time>2017-12-19T12:28:19Z</time>
      </trkpt>
      <trkpt lat="62.636284783492" lon="17.983719998542">
        <ele>80.4</ele>
        <time>2017-12-19T12:28:20Z</time>
      </trkpt>
      <trkpt lat="62.636276233954" lon="17.983767607734">
        <ele>80.6</ele>
        <time>2017-12-19T12:28:21Z</time>
      </trkpt>
      <trkpt lat="62.636267600597" lon="17.983836339314">
        <ele>80.8</ele>
        <time>2017-12-19T12:28:22Z</time>
      </trkpt>
      <trkpt lat="62.636252932272" lon="17.983895683166">
        <ele>80.8</ele>
        <time>2017-12-19T12:28:23Z</time>
      </trkpt>
      <trkpt lat="62.636246562028" lon="17.983947734765">
        <ele>81</ele>
        <time>2017-12-19T12:28:24Z</time>
      </trkpt>
      <trkpt lat="62.63623382154" lon="17.984015879612">
        <ele>81</ele>
        <time>2017-12-19T12:28:25Z</time>
      </trkpt>
      <trkpt lat="62.63623214516" lon="17.984091568169">
        <ele>81</ele>
        <time>2017-12-19T12:28:26Z</time>
      </trkpt>
      <trkpt lat="62.636224014717" lon="17.984153929505">
        <ele>81.2</ele>
        <time>2017-12-19T12:28:27Z</time>
      </trkpt>
      <trkpt lat="62.636221164871" lon="17.984204807638">
        <ele>81.2</ele>
        <time>2017-12-19T12:28:28Z</time>
      </trkpt>
      <trkpt lat="62.636215548998" lon="17.984255266676">
        <ele>81.4</ele>
        <time>2017-12-19T12:28:29Z</time>
      </trkpt>
      <trkpt lat="62.636210268401" lon="17.984316454546">
        <ele>81.4</ele>
        <time>2017-12-19T12:28:30Z</time>
      </trkpt>
      <trkpt lat="62.63621119041" lon="17.984367332679">
        <ele>81.6</ele>
        <time>2017-12-19T12:28:31Z</time>
      </trkpt>
      <trkpt lat="62.636205490718" lon="17.984431957128">
        <ele>81.6</ele>
        <time>2017-12-19T12:28:32Z</time>
      </trkpt>
      <trkpt lat="62.636211693324" lon="17.984483421994">
        <ele>81.8</ele>
        <time>2017-12-19T12:28:33Z</time>
      </trkpt>
      <trkpt lat="62.636213285885" lon="17.984536227964">
        <ele>81.8</ele>
        <time>2017-12-19T12:28:34Z</time>
      </trkpt>
      <trkpt lat="62.636205909813" lon="17.984599595128">
        <ele>81.8</ele>
        <time>2017-12-19T12:28:35Z</time>
      </trkpt>
      <trkpt lat="62.636202976148" lon="17.984657430238">
        <ele>81.8</ele>
        <time>2017-12-19T12:28:36Z</time>
      </trkpt>
      <trkpt lat="62.636202137958" lon="17.984697160444">
        <ele>81.8</ele>
        <time>2017-12-19T12:28:37Z</time>
      </trkpt>
      <trkpt lat="62.636197695551" lon="17.984750888423">
        <ele>82</ele>
        <time>2017-12-19T12:28:38Z</time>
      </trkpt>
      <trkpt lat="62.636194342791" lon="17.984808555895">
        <ele>82</ele>
        <time>2017-12-19T12:28:39Z</time>
      </trkpt>
      <trkpt lat="62.636191325307" lon="17.984841496762">
        <ele>82</ele>
        <time>2017-12-19T12:28:40Z</time>
      </trkpt>
      <trkpt lat="62.636186463805" lon="17.984893967456">
        <ele>82.2</ele>
        <time>2017-12-19T12:28:41Z</time>
      </trkpt>
      <trkpt lat="62.636184200692" lon="17.984951299652">
        <ele>82.2</ele>
        <time>2017-12-19T12:28:42Z</time>
      </trkpt>
      <trkpt lat="62.636179590647" lon="17.984993544428">
        <ele>82.4</ele>
        <time>2017-12-19T12:28:43Z</time>
      </trkpt>
      <trkpt lat="62.636173304222" lon="17.985052217728">
        <ele>82.4</ele>
        <time>2017-12-19T12:28:44Z</time>
      </trkpt>
      <trkpt lat="62.63616508996" lon="17.985111226304">
        <ele>82.6</ele>
        <time>2017-12-19T12:28:45Z</time>
      </trkpt>
      <trkpt lat="62.636174393869" lon="17.985156404745">
        <ele>82.6</ele>
        <time>2017-12-19T12:28:46Z</time>
      </trkpt>
      <trkpt lat="62.636163581218" lon="17.985192530734">
        <ele>82.6</ele>
        <time>2017-12-19T12:28:47Z</time>
      </trkpt>
      <trkpt lat="62.636158468259" lon="17.985260340305">
        <ele>82.6</ele>
        <time>2017-12-19T12:28:48Z</time>
      </trkpt>
      <trkpt lat="62.636156037508" lon="17.985309206782">
        <ele>82.8</ele>
        <time>2017-12-19T12:28:49Z</time>
      </trkpt>
      <trkpt lat="62.636149834902" lon="17.985374837059">
        <ele>82.8</ele>
        <time>2017-12-19T12:28:50Z</time>
      </trkpt>
      <trkpt lat="62.636155450775" lon="17.985423703536">
        <ele>83</ele>
        <time>2017-12-19T12:28:51Z</time>
      </trkpt>
      <trkpt lat="62.636147320332" lon="17.985459242792">
        <ele>83</ele>
        <time>2017-12-19T12:28:52Z</time>
      </trkpt>
      <trkpt lat="62.636146817418" lon="17.985526214173">
        <ele>83.2</ele>
        <time>2017-12-19T12:28:53Z</time>
      </trkpt>
      <trkpt lat="62.636142794106" lon="17.985569380958">
        <ele>83.2</ele>
        <time>2017-12-19T12:28:54Z</time>
      </trkpt>
      <trkpt lat="62.636131227084" lon="17.985609362621">
        <ele>83.2</ele>
        <time>2017-12-19T12:28:55Z</time>
      </trkpt>
      <trkpt lat="62.636118235139" lon="17.985672059233">
        <ele>83.2</ele>
        <time>2017-12-19T12:28:56Z</time>
      </trkpt>
      <trkpt lat="62.636113876551" lon="17.985720171339">
        <ele>83.2</ele>
        <time>2017-12-19T12:28:57Z</time>
      </trkpt>
      <trkpt lat="62.636101974253" lon="17.985769037816">
        <ele>83.4</ele>
        <time>2017-12-19T12:28:58Z</time>
      </trkpt>
      <trkpt lat="62.636086551557" lon="17.985821843786">
        <ele>83.4</ele>
        <time>2017-12-19T12:28:59Z</time>
      </trkpt>
      <trkpt lat="62.636076660915" lon="17.98587766724">
        <ele>83.4</ele>
        <time>2017-12-19T12:29:00Z</time>
      </trkpt>
      <trkpt lat="62.636070206852" lon="17.985905914243">
        <ele>83.6</ele>
        <time>2017-12-19T12:29:01Z</time>
      </trkpt>
      <trkpt lat="62.63604019965" lon="17.985948326657">
        <ele>83.8</ele>
        <time>2017-12-19T12:29:02Z</time>
      </trkpt>
      <trkpt lat="62.636024860773" lon="17.985988895053">
        <ele>83.8</ele>
        <time>2017-12-19T12:29:03Z</time>
      </trkpt>
      <trkpt lat="62.636008432249" lon="17.986011274726">
        <ele>84</ele>
        <time>2017-12-19T12:29:04Z</time>
      </trkpt>
      <trkpt lat="62.635980101427" lon="17.986019908083">
        <ele>84.2</ele>
        <time>2017-12-19T12:29:05Z</time>
      </trkpt>
      <trkpt lat="62.635952860252" lon="17.986042623032">
        <ele>84.2</ele>
        <time>2017-12-19T12:29:06Z</time>
      </trkpt>
      <trkpt lat="62.635932576054" lon="17.986045053783">
        <ele>84.4</ele>
        <time>2017-12-19T12:29:07Z</time>
      </trkpt>
      <trkpt lat="62.635916734263" lon="17.98606458361">
        <ele>84.6</ele>
        <time>2017-12-19T12:29:08Z</time>
      </trkpt>
      <trkpt lat="62.635902652671" lon="17.986085035446">
        <ele>84.6</ele>
        <time>2017-12-19T12:29:09Z</time>
      </trkpt>
      <trkpt lat="62.635873986573" lon="17.986114958829">
        <ele>84.6</ele>
        <time>2017-12-19T12:29:10Z</time>
      </trkpt>
      <trkpt lat="62.635856719859" lon="17.98614588804">
        <ele>84.8</ele>
        <time>2017-12-19T12:29:11Z</time>
      </trkpt>
      <trkpt lat="62.635831909435" lon="17.986175643785">
        <ele>84.8</ele>
        <time>2017-12-19T12:29:12Z</time>
      </trkpt>
      <trkpt lat="62.635810367952" lon="17.986208668471">
        <ele>84.8</ele>
        <time>2017-12-19T12:29:13Z</time>
      </trkpt>
      <trkpt lat="62.635798298016" lon="17.986247644306">
        <ele>85</ele>
        <time>2017-12-19T12:29:14Z</time>
      </trkpt>
      <trkpt lat="62.635769631918" lon="17.98629927681">
        <ele>85</ele>
        <time>2017-12-19T12:29:15Z</time>
      </trkpt>
      <trkpt lat="62.635748677168" lon="17.986307574891">
        <ele>85</ele>
        <time>2017-12-19T12:29:16Z</time>
      </trkpt>
      <trkpt lat="62.635730823721" lon="17.986327104718">
        <ele>85.2</ele>
        <time>2017-12-19T12:29:17Z</time>
      </trkpt>
      <trkpt lat="62.635708192591" lon="17.986353507703">
        <ele>85.4</ele>
        <time>2017-12-19T12:29:18Z</time>
      </trkpt>
      <trkpt lat="62.635690171506" lon="17.986388292588">
        <ele>85.6</ele>
        <time>2017-12-19T12:29:19Z</time>
      </trkpt>
      <trkpt lat="62.635663936159" lon="17.986432129925">
        <ele>85.8</ele>
        <time>2017-12-19T12:29:20Z</time>
      </trkpt>
      <trkpt lat="62.635653877879" lon="17.986467920638">
        <ele>86</ele>
        <time>2017-12-19T12:29:21Z</time>
      </trkpt>
      <trkpt lat="62.635624960324" lon="17.986515948925">
        <ele>86</ele>
        <time>2017-12-19T12:29:22Z</time>
      </trkpt>
      <trkpt lat="62.635604089393" lon="17.986550063258">
        <ele>86.2</ele>
        <time>2017-12-19T12:29:23Z</time>
      </trkpt>
      <trkpt lat="62.635589588706" lon="17.986594906423">
        <ele>86.2</ele>
        <time>2017-12-19T12:29:24Z</time>
      </trkpt>
      <trkpt lat="62.635569723603" lon="17.986644862547">
        <ele>86.4</ele>
        <time>2017-12-19T12:29:25Z</time>
      </trkpt>
      <trkpt lat="62.635553965631" lon="17.986690376264">
        <ele>86.4</ele>
        <time>2017-12-19T12:29:26Z</time>
      </trkpt>
      <trkpt lat="62.635538626754" lon="17.986732956316">
        <ele>86.4</ele>
        <time>2017-12-19T12:29:27Z</time>
      </trkpt>
      <trkpt lat="62.635525299533" lon="17.986775452549">
        <ele>86.4</ele>
        <time>2017-12-19T12:29:28Z</time>
      </trkpt>
      <trkpt lat="62.635511050303" lon="17.986808225778">
        <ele>86.4</ele>
        <time>2017-12-19T12:29:29Z</time>
      </trkpt>
      <trkpt lat="62.635496046702" lon="17.986838316799">
        <ele>86.6</ele>
        <time>2017-12-19T12:29:30Z</time>
      </trkpt>
      <trkpt lat="62.635469811355" lon="17.986879555747">
        <ele>86.6</ele>
        <time>2017-12-19T12:29:31Z</time>
      </trkpt>
      <trkpt lat="62.635447850777" lon="17.986929008957">
        <ele>86.8</ele>
        <time>2017-12-19T12:29:32Z</time>
      </trkpt>
      <trkpt lat="62.635441396714" lon="17.986967062783">
        <ele>87</ele>
        <time>2017-12-19T12:29:33Z</time>
      </trkpt>
      <trkpt lat="62.635415329005" lon="17.987023137694">
        <ele>87</ele>
        <time>2017-12-19T12:29:34Z</time>
      </trkpt>
      <trkpt lat="62.635397727015" lon="17.987059766597">
        <ele>87</ele>
        <time>2017-12-19T12:29:35Z</time>
      </trkpt>
      <trkpt lat="62.635394709531" lon="17.987086169582">
        <ele>87.2</ele>
        <time>2017-12-19T12:29:36Z</time>
      </trkpt>
      <trkpt lat="62.635378364826" lon="17.987119697182">
        <ele>87.2</ele>
        <time>2017-12-19T12:29:37Z</time>
      </trkpt>
      <trkpt lat="62.63536378032" lon="17.987158673017">
        <ele>87.4</ele>
        <time>2017-12-19T12:29:38Z</time>
      </trkpt>
      <trkpt lat="62.635348525262" lon="17.987194966644">
        <ele>87.4</ele>
        <time>2017-12-19T12:29:39Z</time>
      </trkpt>
      <trkpt lat="62.635334862765" lon="17.987233104289">
        <ele>87.6</ele>
        <time>2017-12-19T12:29:40Z</time>
      </trkpt>
      <trkpt lat="62.635332180557" lon="17.987284904431">
        <ele>87.6</ele>
        <time>2017-12-19T12:29:41Z</time>
      </trkpt>
      <trkpt lat="62.635313069825" lon="17.987313821986">
        <ele>87.6</ele>
        <time>2017-12-19T12:29:42Z</time>
      </trkpt>
      <trkpt lat="62.63529337236" lon="17.987347517224">
        <ele>87.6</ele>
        <time>2017-12-19T12:29:43Z</time>
      </trkpt>
      <trkpt lat="62.635282559709" lon="17.987381296281">
        <ele>87.8</ele>
        <time>2017-12-19T12:29:44Z</time>
      </trkpt>
      <trkpt lat="62.635259425665" lon="17.987417757546">
        <ele>88</ele>
        <time>2017-12-19T12:29:45Z</time>
      </trkpt>
      <trkpt lat="62.635238470915" lon="17.987466791661">
        <ele>88.2</ele>
        <time>2017-12-19T12:29:46Z</time>
      </trkpt>
      <trkpt lat="62.635225562789" lon="17.987493278465">
        <ele>88.4</ele>
        <time>2017-12-19T12:29:47Z</time>
      </trkpt>
      <trkpt lat="62.635211732654" lon="17.987527811893">
        <ele>88.4</ele>
        <time>2017-12-19T12:29:48Z</time>
      </trkpt>
      <trkpt lat="62.635187425144" lon="17.987579528216">
        <ele>88.6</ele>
        <time>2017-12-19T12:29:49Z</time>
      </trkpt>
      <trkpt lat="62.635175774303" lon="17.98760433864">
        <ele>88.6</ele>
        <time>2017-12-19T12:29:50Z</time>
      </trkpt>
      <trkpt lat="62.635155406286" lon="17.987636273679">
        <ele>88.8</ele>
        <time>2017-12-19T12:29:51Z</time>
      </trkpt>
      <trkpt lat="62.635138810124" lon="17.987667789623">
        <ele>88.8</ele>
        <time>2017-12-19T12:29:52Z</time>
      </trkpt>
      <trkpt lat="62.635126740188" lon="17.987702490689">
        <ele>88.8</ele>
        <time>2017-12-19T12:29:53Z</time>
      </trkpt>
      <trkpt lat="62.635115424623" lon="17.987739538687">
        <ele>89</ele>
        <time>2017-12-19T12:29:54Z</time>
      </trkpt>
      <trkpt lat="62.635093464045" lon="17.987770970812">
        <ele>89</ele>
        <time>2017-12-19T12:29:55Z</time>
      </trkpt>
      <trkpt lat="62.635079047177" lon="17.987814808149">
        <ele>89</ele>
        <time>2017-12-19T12:29:56Z</time>
      </trkpt>
      <trkpt lat="62.635068402164" lon="17.98784741374">
        <ele>89.2</ele>
        <time>2017-12-19T12:29:57Z</time>
      </trkpt>
      <trkpt lat="62.635052308916" lon="17.987871553612">
        <ele>89.4</ele>
        <time>2017-12-19T12:29:58Z</time>
      </trkpt>
      <trkpt lat="62.635026325026" lon="17.987909523619">
        <ele>89.6</ele>
        <time>2017-12-19T12:29:59Z</time>
      </trkpt>
      <trkpt lat="62.635023978094" lon="17.987929640179">
        <ele>89.8</ele>
        <time>2017-12-19T12:30:00Z</time>
      </trkpt>
      <trkpt lat="62.634996904557" lon="17.987951181662">
        <ele>89.8</ele>
        <time>2017-12-19T12:30:01Z</time>
      </trkpt>
      <trkpt lat="62.634975614531" lon="17.988001305424">
        <ele>90</ele>
        <time>2017-12-19T12:30:02Z</time>
      </trkpt>
      <trkpt lat="62.634962790224" lon="17.988018991233">
        <ele>90</ele>
        <time>2017-12-19T12:30:03Z</time>
      </trkpt>
      <trkpt lat="62.634937560705" lon="17.988029133332">
        <ele>90</ele>
        <time>2017-12-19T12:30:04Z</time>
      </trkpt>
      <trkpt lat="62.634918198516" lon="17.988056709783">
        <ele>90</ele>
        <time>2017-12-19T12:30:05Z</time>
      </trkpt>
      <trkpt lat="62.634895735024" lon="17.988074227954">
        <ele>90.4</ele>
        <time>2017-12-19T12:30:06Z</time>
      </trkpt>
      <trkpt lat="62.634877965396" lon="17.988090572659">
        <ele>90.4</ele>
        <time>2017-12-19T12:30:07Z</time>
      </trkpt>
      <trkpt lat="62.634857262103" lon="17.988102139681">
        <ele>90.6</ele>
        <time>2017-12-19T12:30:08Z</time>
      </trkpt>
      <trkpt lat="62.634830272385" lon="17.988118232929">
        <ele>90.8</ele>
        <time>2017-12-19T12:30:09Z</time>
      </trkpt>
      <trkpt lat="62.634809233816" lon="17.98812988377">
        <ele>91</ele>
        <time>2017-12-19T12:30:10Z</time>
      </trkpt>
      <trkpt lat="62.634794984586" lon="17.988134326177">
        <ele>91</ele>
        <time>2017-12-19T12:30:11Z</time>
      </trkpt>
      <trkpt lat="62.634762295176" lon="17.988139522955">
        <ele>91</ele>
        <time>2017-12-19T12:30:12Z</time>
      </trkpt>
      <trkpt lat="62.634741759521" lon="17.988151928167">
        <ele>91.2</ele>
        <time>2017-12-19T12:30:13Z</time>
      </trkpt>
      <trkpt lat="62.634711165586" lon="17.988146815208">
        <ele>91.4</ele>
        <time>2017-12-19T12:30:14Z</time>
      </trkpt>
      <trkpt lat="62.634687612447" lon="17.988160561524">
        <ele>91.4</ele>
        <time>2017-12-19T12:30:15Z</time>
      </trkpt>
      <trkpt lat="62.634663640213" lon="17.988158801325">
        <ele>91.6</ele>
        <time>2017-12-19T12:30:16Z</time>
      </trkpt>
      <trkpt lat="62.63463874597" lon="17.988169781614">
        <ele>91.8</ele>
        <time>2017-12-19T12:30:17Z</time>
      </trkpt>
      <trkpt lat="62.634611420976" lon="17.988162070266">
        <ele>92</ele>
        <time>2017-12-19T12:30:18Z</time>
      </trkpt>
      <trkpt lat="62.634588538389" lon="17.988189479079">
        <ele>92</ele>
        <time>2017-12-19T12:30:19Z</time>
      </trkpt>
      <trkpt lat="62.634563979422" lon="17.988220156833">
        <ele>92</ele>
        <time>2017-12-19T12:30:20Z</time>
      </trkpt>
      <trkpt lat="62.634539671912" lon="17.988214876236">
        <ele>92</ele>
        <time>2017-12-19T12:30:21Z</time>
      </trkpt>
      <trkpt lat="62.634517124601" lon="17.988213786589">
        <ele>92.2</ele>
        <time>2017-12-19T12:30:22Z</time>
      </trkpt>
      <trkpt lat="62.634504970846" lon="17.988218228996">
        <ele>92.2</ele>
        <time>2017-12-19T12:30:23Z</time>
      </trkpt>
      <trkpt lat="62.634470018323" lon="17.988202135748">
        <ele>92.4</ele>
        <time>2017-12-19T12:30:24Z</time>
      </trkpt>
      <trkpt lat="62.634454427989" lon="17.988205488508">
        <ele>92.4</ele>
        <time>2017-12-19T12:30:25Z</time>
      </trkpt>
      <trkpt lat="62.634432383592" lon="17.98820783544">
        <ele>92.6</ele>
        <time>2017-12-19T12:30:26Z</time>
      </trkpt>
      <trkpt lat="62.634401286743" lon="17.98820615906">
        <ele>92.6</ele>
        <time>2017-12-19T12:30:27Z</time>
      </trkpt>
      <trkpt lat="62.63438142164" lon="17.988214289503">
        <ele>92.4</ele>
        <time>2017-12-19T12:30:28Z</time>
      </trkpt>
      <trkpt lat="62.634356695035" lon="17.98821537915">
        <ele>92.6</ele>
        <time>2017-12-19T12:30:29Z</time>
      </trkpt>
      <trkpt lat="62.634332890439" lon="17.988203560671">
        <ele>92.6</ele>
        <time>2017-12-19T12:30:30Z</time>
      </trkpt>
      <trkpt lat="62.63430766092" lon="17.988203225395">
        <ele>92.8</ele>
        <time>2017-12-19T12:30:31Z</time>
      </trkpt>
      <trkpt lat="62.634273630406" lon="17.988191742192">
        <ele>92.8</ele>
        <time>2017-12-19T12:30:32Z</time>
      </trkpt>
      <trkpt lat="62.634251250733" lon="17.988197944798">
        <ele>93</ele>
        <time>2017-12-19T12:30:33Z</time>
      </trkpt>
      <trkpt lat="62.634222584635" lon="17.988193334753">
        <ele>93</ele>
        <time>2017-12-19T12:30:34Z</time>
      </trkpt>
      <trkpt lat="62.634194589089" lon="17.988180007532">
        <ele>93.2</ele>
        <time>2017-12-19T12:30:35Z</time>
      </trkpt>
      <trkpt lat="62.634167096457" lon="17.988155113289">
        <ele>93.2</ele>
        <time>2017-12-19T12:30:36Z</time>
      </trkpt>
      <trkpt lat="62.634130467554" lon="17.988145390285">
        <ele>93.2</ele>
        <time>2017-12-19T12:30:37Z</time>
      </trkpt>
      <trkpt lat="62.63409727523" lon="17.988135415824">
        <ele>93.2</ele>
        <time>2017-12-19T12:30:38Z</time>
      </trkpt>
      <trkpt lat="62.634072716263" lon="17.98812234006">
        <ele>93.2</ele>
        <time>2017-12-19T12:30:39Z</time>
      </trkpt>
      <trkpt lat="62.634048408753" lon="17.988106665907">
        <ele>93.2</ele>
        <time>2017-12-19T12:30:40Z</time>
      </trkpt>
      <trkpt lat="62.63402351451" lon="17.988095098885">
        <ele>93.2</ele>
        <time>2017-12-19T12:30:41Z</time>
      </trkpt>
      <trkpt lat="62.634001889208" lon="17.988076071972">
        <ele>93.2</ele>
        <time>2017-12-19T12:30:42Z</time>
      </trkpt>
      <trkpt lat="62.633975234766" lon="17.988057715611">
        <ele>93.2</ele>
        <time>2017-12-19T12:30:43Z</time>
      </trkpt>
      <trkpt lat="62.633952687455" lon="17.988041203268">
        <ele>93.4</ele>
        <time>2017-12-19T12:30:44Z</time>
      </trkpt>
      <trkpt lat="62.633936007474" lon="17.988044556028">
        <ele>93.4</ele>
        <time>2017-12-19T12:30:45Z</time>
      </trkpt>
      <trkpt lat="62.63391203524" lon="17.988036425585">
        <ele>93.6</ele>
        <time>2017-12-19T12:30:46Z</time>
      </trkpt>
      <trkpt lat="62.633886302807" lon="17.98800499346">
        <ele>93.8</ele>
        <time>2017-12-19T12:30:47Z</time>
      </trkpt>
      <trkpt lat="62.633870544835" lon="17.987989151669">
        <ele>93.8</ele>
        <time>2017-12-19T12:30:48Z</time>
      </trkpt>
      <trkpt lat="62.633840537633" lon="17.987961239942">
        <ele>93.8</ele>
        <time>2017-12-19T12:30:49Z</time>
      </trkpt>
      <trkpt lat="62.633813883191" lon="17.987925868324">
        <ele>93.8</ele>
        <time>2017-12-19T12:30:50Z</time>
      </trkpt>
      <trkpt lat="62.633799298685" lon="17.987912876379">
        <ele>94</ele>
        <time>2017-12-19T12:30:51Z</time>
      </trkpt>
      <trkpt lat="62.633776080822" lon="17.987891921629">
        <ele>94</ele>
        <time>2017-12-19T12:30:52Z</time>
      </trkpt>
      <trkpt lat="62.633753701149" lon="17.987871302155">
        <ele>94.2</ele>
        <time>2017-12-19T12:30:53Z</time>
      </trkpt>
      <trkpt lat="62.633727298164" lon="17.987857639658">
        <ele>94.4</ele>
        <time>2017-12-19T12:30:54Z</time>
      </trkpt>
      <trkpt lat="62.633702823016" lon="17.987830901397">
        <ele>94.4</ele>
        <time>2017-12-19T12:30:55Z</time>
      </trkpt>
      <trkpt lat="62.633682957913" lon="17.987799469272">
        <ele>94.4</ele>
        <time>2017-12-19T12:30:56Z</time>
      </trkpt>
      <trkpt lat="62.633655297643" lon="17.987768204785">
        <ele>94.6</ele>
        <time>2017-12-19T12:30:57Z</time>
      </trkpt>
      <trkpt lat="62.633635348721" lon="17.987747920587">
        <ele>94.6</ele>
        <time>2017-12-19T12:30:58Z</time>
      </trkpt>
      <trkpt lat="62.633623614061" lon="17.987724702724">
        <ele>94.8</ele>
        <time>2017-12-19T12:30:59Z</time>
      </trkpt>
      <trkpt lat="62.633606179709" lon="17.987706933096">
        <ele>95</ele>
        <time>2017-12-19T12:31:00Z</time>
      </trkpt>
      <trkpt lat="62.633588829176" lon="17.987687822364">
        <ele>95.2</ele>
        <time>2017-12-19T12:31:01Z</time>
      </trkpt>
      <trkpt lat="62.633568880254" lon="17.987664520682">
        <ele>95.2</ele>
        <time>2017-12-19T12:31:02Z</time>
      </trkpt>
      <trkpt lat="62.63354155526" lon="17.987624622838">
        <ele>95.6</ele>
        <time>2017-12-19T12:31:03Z</time>
      </trkpt>
      <trkpt lat="62.63352311508" lon="17.987607104667">
        <ele>95.6</ele>
        <time>2017-12-19T12:31:04Z</time>
      </trkpt>
      <trkpt lat="62.633501238321" lon="17.98758086932">
        <ele>95.8</ele>
        <time>2017-12-19T12:31:05Z</time>
      </trkpt>
      <trkpt lat="62.633470812024" lon="17.987535439422">
        <ele>95.8</ele>
        <time>2017-12-19T12:31:06Z</time>
      </trkpt>
      <trkpt lat="62.633456227518" lon="17.987519094717">
        <ele>96</ele>
        <time>2017-12-19T12:31:07Z</time>
      </trkpt>
      <trkpt lat="62.6334460016" lon="17.987491434447">
        <ele>96</ele>
        <time>2017-12-19T12:31:08Z</time>
      </trkpt>
      <trkpt lat="62.633430495085" lon="17.987460002322">
        <ele>96.2</ele>
        <time>2017-12-19T12:31:09Z</time>
      </trkpt>
      <trkpt lat="62.633418257511" lon="17.987425971808">
        <ele>96.2</ele>
        <time>2017-12-19T12:31:10Z</time>
      </trkpt>
      <trkpt lat="62.633397051304" lon="17.987387582706">
        <ele>96.4</ele>
        <time>2017-12-19T12:31:11Z</time>
      </trkpt>
      <trkpt lat="62.633380371323" lon="17.987364364843">
        <ele>96.4</ele>
        <time>2017-12-19T12:31:12Z</time>
      </trkpt>
      <trkpt lat="62.633356482908" lon="17.987314241081">
        <ele>96.6</ele>
        <time>2017-12-19T12:31:13Z</time>
      </trkpt>
      <trkpt lat="62.63333871328" lon="17.987252634116">
        <ele>96.8</ele>
        <time>2017-12-19T12:31:14Z</time>
      </trkpt>
      <trkpt lat="62.633316752702" lon="17.987191362427">
        <ele>97</ele>
        <time>2017-12-19T12:31:15Z</time>
      </trkpt>
      <trkpt lat="62.633291942278" lon="17.987124139589">
        <ele>97</ele>
        <time>2017-12-19T12:31:16Z</time>
      </trkpt>
      <trkpt lat="62.633268389139" lon="17.987052055249">
        <ele>96.8</ele>
        <time>2017-12-19T12:31:17Z</time>
      </trkpt>
      <trkpt lat="62.633254810461" lon="17.986973265389">
        <ele>96.6</ele>
        <time>2017-12-19T12:31:18Z</time>
      </trkpt>
      <trkpt lat="62.633235448272" lon="17.986850051459">
        <ele>96.6</ele>
        <time>2017-12-19T12:31:19Z</time>
      </trkpt>
      <trkpt lat="62.633226731096" lon="17.986747540822">
        <ele>96</ele>
        <time>2017-12-19T12:31:20Z</time>
      </trkpt>
      <trkpt lat="62.633214325884" lon="17.986636564466">
        <ele>95.2</ele>
        <time>2017-12-19T12:31:21Z</time>
      </trkpt>
      <trkpt lat="62.633199657559" lon="17.986519301685">
        <ele>94.8</ele>
        <time>2017-12-19T12:31:22Z</time>
      </trkpt>
      <trkpt lat="62.633188425813" lon="17.986426765509">
        <ele>94.2</ele>
        <time>2017-12-19T12:31:23Z</time>
      </trkpt>
      <trkpt lat="62.633165794683" lon="17.986339426111">
        <ele>93.8</ele>
        <time>2017-12-19T12:31:24Z</time>
      </trkpt>
      <trkpt lat="62.633160849362" lon="17.986227779203">
        <ele>93.8</ele>
        <time>2017-12-19T12:31:25Z</time>
      </trkpt>
      <trkpt lat="62.633160094991" lon="17.986103307988">
        <ele>94</ele>
        <time>2017-12-19T12:31:26Z</time>
      </trkpt>
      <trkpt lat="62.633159424439" lon="17.985973975271">
        <ele>93.8</ele>
        <time>2017-12-19T12:31:27Z</time>
      </trkpt>
      <trkpt lat="62.633160094991" lon="17.985864842933">
        <ele>93.6</ele>
        <time>2017-12-19T12:31:28Z</time>
      </trkpt>
      <trkpt lat="62.63316604614" lon="17.985741293727">
        <ele>92.8</ele>
        <time>2017-12-19T12:31:29Z</time>
      </trkpt>
      <trkpt lat="62.633169147443" lon="17.98561028463">
        <ele>92.4</ele>
        <time>2017-12-19T12:31:30Z</time>
      </trkpt>
      <trkpt lat="62.633174092764" lon="17.985496626066">
        <ele>91.6</ele>
        <time>2017-12-19T12:31:31Z</time>
      </trkpt>
      <trkpt lat="62.633179876275" lon="17.985375339973">
        <ele>91.4</ele>
        <time>2017-12-19T12:31:32Z</time>
      </trkpt>
      <trkpt lat="62.633194879876" lon="17.985287162385">
        <ele>91.2</ele>
        <time>2017-12-19T12:31:33Z</time>
      </trkpt>
      <trkpt lat="62.633215834626" lon="17.985151291786">
        <ele>91</ele>
        <time>2017-12-19T12:31:34Z</time>
      </trkpt>
      <trkpt lat="62.633238214299" lon="17.985013996264">
        <ele>90.8</ele>
        <time>2017-12-19T12:31:35Z</time>
      </trkpt>
      <trkpt lat="62.633262186533" lon="17.984859853123">
        <ele>90.4</ele>
        <time>2017-12-19T12:31:36Z</time>
      </trkpt>
      <trkpt lat="62.633289511527" lon="17.984724736895">
        <ele>90</ele>
        <time>2017-12-19T12:31:37Z</time>
      </trkpt>
      <trkpt lat="62.633319183453" lon="17.984620885154">
        <ele>89.4</ele>
        <time>2017-12-19T12:31:38Z</time>
      </trkpt>
      <trkpt lat="62.63334960975" lon="17.984518793612">
        <ele>89</ele>
        <time>2017-12-19T12:31:39Z</time>
      </trkpt>
      <trkpt lat="62.633373414346" lon="17.984415109509">
        <ele>88.4</ele>
        <time>2017-12-19T12:31:40Z</time>
      </trkpt>
      <trkpt lat="62.633396967485" lon="17.984312934148">
        <ele>88.2</ele>
        <time>2017-12-19T12:31:41Z</time>
      </trkpt>
      <trkpt lat="62.633413479828" lon="17.984207573665">
        <ele>88</ele>
        <time>2017-12-19T12:31:42Z</time>
      </trkpt>
      <trkpt lat="62.633421610271" lon="17.984110175987">
        <ele>88.2</ele>
        <time>2017-12-19T12:31:43Z</time>
      </trkpt>
      <trkpt lat="62.633419095701" lon="17.983984782763">
        <ele>88.6</ele>
        <time>2017-12-19T12:31:44Z</time>
      </trkpt>
      <trkpt lat="62.633420520624" lon="17.983901634315">
        <ele>89</ele>
        <time>2017-12-19T12:31:45Z</time>
      </trkpt>
      <trkpt lat="62.633435524225" lon="17.983785880276">
        <ele>89.4</ele>
        <time>2017-12-19T12:31:46Z</time>
      </trkpt>
      <trkpt lat="62.633433847845" lon="17.983741372387">
        <ele>89.4</ele>
        <time>2017-12-19T12:31:47Z</time>
      </trkpt>
      <trkpt lat="62.633447845618" lon="17.983652775704">
        <ele>89.8</ele>
        <time>2017-12-19T12:31:48Z</time>
      </trkpt>
      <trkpt lat="62.63346360359" lon="17.983554372198">
        <ele>89.6</ele>
        <time>2017-12-19T12:31:49Z</time>
      </trkpt>
      <trkpt lat="62.633492269688" lon="17.983481617306">
        <ele>89.6</ele>
        <time>2017-12-19T12:31:50Z</time>
      </trkpt>
      <trkpt lat="62.633504591081" lon="17.983405509654">
        <ele>89.6</ele>
        <time>2017-12-19T12:31:51Z</time>
      </trkpt>
      <trkpt lat="62.633511128963" lon="17.983338454454">
        <ele>89.4</ele>
        <time>2017-12-19T12:31:52Z</time>
      </trkpt>
      <trkpt lat="62.633521354881" lon="17.983283301552">
        <ele>89.4</ele>
        <time>2017-12-19T12:31:53Z</time>
      </trkpt>
      <trkpt lat="62.633543315459" lon="17.983186155331">
        <ele>89.4</ele>
        <time>2017-12-19T12:31:54Z</time>
      </trkpt>
      <trkpt lat="62.6335465844" lon="17.983113735715">
        <ele>89.6</ele>
        <time>2017-12-19T12:31:55Z</time>
      </trkpt>
      <trkpt lat="62.633533592455" lon="17.983000663884">
        <ele>89.8</ele>
        <time>2017-12-19T12:31:56Z</time>
      </trkpt>
      <trkpt lat="62.633551529721" lon="17.982931932304">
        <ele>89.8</ele>
        <time>2017-12-19T12:31:57Z</time>
      </trkpt>
      <trkpt lat="62.633548847513" lon="17.982865296199">
        <ele>89.8</ele>
        <time>2017-12-19T12:31:58Z</time>
      </trkpt>
      <trkpt lat="62.633570221358" lon="17.982790864927">
        <ele>89.8</ele>
        <time>2017-12-19T12:31:59Z</time>
      </trkpt>
      <trkpt lat="62.633579106172" lon="17.982741495536">
        <ele>89.8</ele>
        <time>2017-12-19T12:32:00Z</time>
      </trkpt>
      <trkpt lat="62.633586649882" lon="17.982687599919">
        <ele>89.8</ele>
        <time>2017-12-19T12:32:01Z</time>
      </trkpt>
      <trkpt lat="62.633601653483" lon="17.982627417877">
        <ele>89.8</ele>
        <time>2017-12-19T12:32:02Z</time>
      </trkpt>
      <trkpt lat="62.633609113374" lon="17.982565391817">
        <ele>90</ele>
        <time>2017-12-19T12:32:03Z</time>
      </trkpt>
      <trkpt lat="62.633619926025" lon="17.98247545403">
        <ele>89.8</ele>
        <time>2017-12-19T12:32:04Z</time>
      </trkpt>
      <trkpt lat="62.633630822495" lon="17.982393143772">
        <ele>90</ele>
        <time>2017-12-19T12:32:05Z</time>
      </trkpt>
      <trkpt lat="62.633630738676" lon="17.982322316717">
        <ele>90</ele>
        <time>2017-12-19T12:32:06Z</time>
      </trkpt>
      <trkpt lat="62.633645993734" lon="17.982232881844">
        <ele>90.2</ele>
        <time>2017-12-19T12:32:07Z</time>
      </trkpt>
      <trkpt lat="62.633650268503" lon="17.982170771965">
        <ele>90</ele>
        <time>2017-12-19T12:32:08Z</time>
      </trkpt>
      <trkpt lat="62.63365471091" lon="17.982091730648">
        <ele>90</ele>
        <time>2017-12-19T12:32:09Z</time>
      </trkpt>
      <trkpt lat="62.63366141643" lon="17.982015790634">
        <ele>90</ele>
        <time>2017-12-19T12:32:10Z</time>
      </trkpt>
      <trkpt lat="62.633659153317" lon="17.981969690184">
        <ele>90</ele>
        <time>2017-12-19T12:32:11Z</time>
      </trkpt>
      <trkpt lat="62.633661751706" lon="17.981895091274">
        <ele>90</ele>
        <time>2017-12-19T12:32:12Z</time>
      </trkpt>
      <trkpt lat="62.633669630692" lon="17.981842033847">
        <ele>89.8</ele>
        <time>2017-12-19T12:32:13Z</time>
      </trkpt>
      <trkpt lat="62.633677677316" lon="17.981777577036">
        <ele>90</ele>
        <time>2017-12-19T12:32:14Z</time>
      </trkpt>
      <trkpt lat="62.633691926546" lon="17.981698954814">
        <ele>90</ele>
        <time>2017-12-19T12:32:15Z</time>
      </trkpt>
      <trkpt lat="62.633702403921" lon="17.981658470237">
        <ele>90</ele>
        <time>2017-12-19T12:32:16Z</time>
      </trkpt>
      <trkpt lat="62.633708774165" lon="17.981592169408">
        <ele>90</ele>
        <time>2017-12-19T12:32:17Z</time>
      </trkpt>
      <trkpt lat="62.633719419178" lon="17.981518995421">
        <ele>90.2</ele>
        <time>2017-12-19T12:32:18Z</time>
      </trkpt>
      <trkpt lat="62.63372847163" lon="17.981462166139">
        <ele>90</ele>
        <time>2017-12-19T12:32:19Z</time>
      </trkpt>
      <trkpt lat="62.633733752227" lon="17.981372228352">
        <ele>90.2</ele>
        <time>2017-12-19T12:32:20Z</time>
      </trkpt>
      <trkpt lat="62.633749677837" lon="17.981319841477">
        <ele>90.2</ele>
        <time>2017-12-19T12:32:21Z</time>
      </trkpt>
      <trkpt lat="62.633754958434" lon="17.981251026078">
        <ele>90.2</ele>
        <time>2017-12-19T12:32:22Z</time>
      </trkpt>
      <trkpt lat="62.633775158813" lon="17.981200064126">
        <ele>90.2</ele>
        <time>2017-12-19T12:32:23Z</time>
      </trkpt>
      <trkpt lat="62.633784127446" lon="17.981158489902">
        <ele>90.2</ele>
        <time>2017-12-19T12:32:24Z</time>
      </trkpt>
      <trkpt lat="62.633804160187" lon="17.981111886538">
        <ele>90.2</ele>
        <time>2017-12-19T12:32:25Z</time>
      </trkpt>
      <trkpt lat="62.633819415245" lon="17.981042484406">
        <ele>90</ele>
        <time>2017-12-19T12:32:26Z</time>
      </trkpt>
      <trkpt lat="62.633837771606" lon="17.980995294309">
        <ele>90</ele>
        <time>2017-12-19T12:32:27Z</time>
      </trkpt>
      <trkpt lat="62.633857133795" lon="17.980956821388">
        <ele>90.2</ele>
        <time>2017-12-19T12:32:28Z</time>
      </trkpt>
      <trkpt lat="62.633885129341" lon="17.980906529988">
        <ele>90.4</ele>
        <time>2017-12-19T12:32:29Z</time>
      </trkpt>
      <trkpt lat="62.633905413539" lon="17.980841570263">
        <ele>90.4</ele>
        <time>2017-12-19T12:32:30Z</time>
      </trkpt>
      <trkpt lat="62.633921003873" lon="17.980793290519">
        <ele>90.6</ele>
        <time>2017-12-19T12:32:31Z</time>
      </trkpt>
      <trkpt lat="62.633933660542" lon="17.980739897816">
        <ele>90.6</ele>
        <time>2017-12-19T12:32:32Z</time>
      </trkpt>
      <trkpt lat="62.633953693283" lon="17.980684744914">
        <ele>90.8</ele>
        <time>2017-12-19T12:32:33Z</time>
      </trkpt>
      <trkpt lat="62.63397070854" lon="17.980613582583">
        <ele>90.8</ele>
        <time>2017-12-19T12:32:34Z</time>
      </trkpt>
      <trkpt lat="62.633985963598" lon="17.980552143256">
        <ele>91</ele>
        <time>2017-12-19T12:32:35Z</time>
      </trkpt>
      <trkpt lat="62.634008510909" lon="17.980486512979">
        <ele>91.2</ele>
        <time>2017-12-19T12:32:36Z</time>
      </trkpt>
      <trkpt lat="62.634029968573" lon="17.980439574339">
        <ele>91.2</ele>
        <time>2017-12-19T12:32:37Z</time>
      </trkpt>
      <trkpt lat="62.634049666038" lon="17.980375117528">
        <ele>91.2</ele>
        <time>2017-12-19T12:32:38Z</time>
      </trkpt>
      <trkpt lat="62.634070872245" lon="17.980327843612">
        <ele>91.4</ele>
        <time>2017-12-19T12:32:39Z</time>
      </trkpt>
      <trkpt lat="62.634089228606" lon="17.980288867777">
        <ele>91.2</ele>
        <time>2017-12-19T12:32:40Z</time>
      </trkpt>
      <trkpt lat="62.634111273003" lon="17.980248718476">
        <ele>91.2</ele>
        <time>2017-12-19T12:32:41Z</time>
      </trkpt>
      <trkpt lat="62.634137675988" lon="17.980208569175">
        <ele>91.6</ele>
        <time>2017-12-19T12:32:42Z</time>
      </trkpt>
      <trkpt lat="62.63416181586" lon="17.980146543115">
        <ele>91.6</ele>
        <time>2017-12-19T12:32:43Z</time>
      </trkpt>
      <trkpt lat="62.634184698447" lon="17.980078398268">
        <ele>91.8</ele>
        <time>2017-12-19T12:32:44Z</time>
      </trkpt>
      <trkpt lat="62.634212191079" lon="17.980021066072">
        <ele>91.8</ele>
        <time>2017-12-19T12:32:45Z</time>
      </trkpt>
      <trkpt lat="62.634237755874" lon="17.979964572066">
        <ele>91.6</ele>
        <time>2017-12-19T12:32:46Z</time>
      </trkpt>
      <trkpt lat="62.634253262389" lon="17.979919561263">
        <ele>91.4</ele>
        <time>2017-12-19T12:32:47Z</time>
      </trkpt>
      <trkpt lat="62.634265919058" lon="17.979862899619">
        <ele>91.4</ele>
        <time>2017-12-19T12:32:48Z</time>
      </trkpt>
      <trkpt lat="62.634277066985" lon="17.979795509143">
        <ele>91.4</ele>
        <time>2017-12-19T12:32:49Z</time>
      </trkpt>
      <trkpt lat="62.63429424988" lon="17.979713031247">
        <ele>91.4</ele>
        <time>2017-12-19T12:32:50Z</time>
      </trkpt>
      <trkpt lat="62.634296345355" lon="17.979660644372">
        <ele>91.4</ele>
        <time>2017-12-19T12:32:51Z</time>
      </trkpt>
      <trkpt lat="62.634315372268" lon="17.979593170077">
        <ele>91.6</ele>
        <time>2017-12-19T12:32:52Z</time>
      </trkpt>
      <trkpt lat="62.634322915978" lon="17.979539945012">
        <ele>91.6</ele>
        <time>2017-12-19T12:32:53Z</time>
      </trkpt>
      <trkpt lat="62.634334483" lon="17.979470459061">
        <ele>91.6</ele>
        <time>2017-12-19T12:32:54Z</time>
      </trkpt>
      <trkpt lat="62.634354180465" lon="17.979410109381">
        <ele>91.6</ele>
        <time>2017-12-19T12:32:55Z</time>
      </trkpt>
      <trkpt lat="62.634357281768" lon="17.979353447737">
        <ele>91.6</ele>
        <time>2017-12-19T12:32:56Z</time>
      </trkpt>
      <trkpt lat="62.634368681152" lon="17.979291756953">
        <ele>91.6</ele>
        <time>2017-12-19T12:32:57Z</time>
      </trkpt>
      <trkpt lat="62.634381086364" lon="17.979233754205">
        <ele>91.6</ele>
        <time>2017-12-19T12:32:58Z</time>
      </trkpt>
      <trkpt lat="62.634399275087" lon="17.979162843331">
        <ele>91.6</ele>
        <time>2017-12-19T12:32:59Z</time>
      </trkpt>
      <trkpt lat="62.634409584824" lon="17.979107355153">
        <ele>91.4</ele>
        <time>2017-12-19T12:33:00Z</time>
      </trkpt>
      <trkpt lat="62.634419559285" lon="17.9790413896">
        <ele>91.4</ele>
        <time>2017-12-19T12:33:01Z</time>
      </trkpt>
      <trkpt lat="62.634434395248" lon="17.978971400735">
        <ele>91.4</ele>
        <time>2017-12-19T12:33:02Z</time>
      </trkpt>
      <trkpt lat="62.634443615338" lon="17.978922115163">
        <ele>91.4</ele>
        <time>2017-12-19T12:33:03Z</time>
      </trkpt>
      <trkpt lat="62.634462642251" lon="17.978857993628">
        <ele>91.4</ele>
        <time>2017-12-19T12:33:04Z</time>
      </trkpt>
      <trkpt lat="62.634482926449" lon="17.978816335585">
        <ele>91.4</ele>
        <time>2017-12-19T12:33:05Z</time>
      </trkpt>
      <trkpt lat="62.634505389941" lon="17.97878490346">
        <ele>91.4</ele>
        <time>2017-12-19T12:33:06Z</time>
      </trkpt>
      <trkpt lat="62.634530703279" lon="17.97875891957">
        <ele>91.4</ele>
        <time>2017-12-19T12:33:07Z</time>
      </trkpt>
      <trkpt lat="62.634559788472" lon="17.978732181309">
        <ele>91.4</ele>
        <time>2017-12-19T12:33:08Z</time>
      </trkpt>
      <trkpt lat="62.634587532561" lon="17.97872539197">
        <ele>91.4</ele>
        <time>2017-12-19T12:33:09Z</time>
      </trkpt>
      <trkpt lat="62.634617204487" lon="17.978730085834">
        <ele>91.4</ele>
        <time>2017-12-19T12:33:10Z</time>
      </trkpt>
      <trkpt lat="62.63465131882" lon="17.978742574865">
        <ele>91.4</ele>
        <time>2017-12-19T12:33:11Z</time>
      </trkpt>
      <trkpt lat="62.634683337678" lon="17.978772079153">
        <ele>91.2</ele>
        <time>2017-12-19T12:33:12Z</time>
      </trkpt>
      <trkpt lat="62.634715943269" lon="17.978788507677">
        <ele>91.2</ele>
        <time>2017-12-19T12:33:13Z</time>
      </trkpt>
      <trkpt lat="62.634756511665" lon="17.978803427459">
        <ele>91.2</ele>
        <time>2017-12-19T12:33:14Z</time>
      </trkpt>
      <trkpt lat="62.634799343174" lon="17.978819353069">
        <ele>91.2</ele>
        <time>2017-12-19T12:33:15Z</time>
      </trkpt>
      <trkpt lat="62.634841755588" lon="17.978835697774">
        <ele>91</ele>
        <time>2017-12-19T12:33:16Z</time>
      </trkpt>
      <trkpt lat="62.634882910717" lon="17.978855898153">
        <ele>91</ele>
        <time>2017-12-19T12:33:17Z</time>
      </trkpt>
      <trkpt lat="62.634921299819" lon="17.978875930894">
        <ele>90.8</ele>
        <time>2017-12-19T12:33:18Z</time>
      </trkpt>
      <trkpt lat="62.634962035853" lon="17.978905183725">
        <ele>90.6</ele>
        <time>2017-12-19T12:33:19Z</time>
      </trkpt>
      <trkpt lat="62.635002688068" lon="17.978925887018">
        <ele>90.6</ele>
        <time>2017-12-19T12:33:20Z</time>
      </trkpt>
      <trkpt lat="62.635038646419" lon="17.9789324249">
        <ele>90.6</ele>
        <time>2017-12-19T12:33:21Z</time>
      </trkpt>
      <trkpt lat="62.635079466272" lon="17.97894248318">
        <ele>90.4</ele>
        <time>2017-12-19T12:33:22Z</time>
      </trkpt>
      <trkpt lat="62.635121459591" lon="17.978960168989">
        <ele>90.4</ele>
        <time>2017-12-19T12:33:23Z</time>
      </trkpt>
      <trkpt lat="62.635171499534" lon="17.978971568373">
        <ele>90.4</ele>
        <time>2017-12-19T12:33:24Z</time>
      </trkpt>
      <trkpt lat="62.635210978283" lon="17.978997216987">
        <ele>90.2</ele>
        <time>2017-12-19T12:33:25Z</time>
      </trkpt>
      <trkpt lat="62.635252887783" lon="17.979012723502">
        <ele>90.2</ele>
        <time>2017-12-19T12:33:26Z</time>
      </trkpt>
      <trkpt lat="62.635294462007" lon="17.979018255556">
        <ele>89.8</ele>
        <time>2017-12-19T12:33:27Z</time>
      </trkpt>
      <trkpt lat="62.635334862765" lon="17.979021356859">
        <ele>89.6</ele>
        <time>2017-12-19T12:33:28Z</time>
      </trkpt>
      <trkpt lat="62.635377778093" lon="17.979020183393">
        <ele>89.2</ele>
        <time>2017-12-19T12:33:29Z</time>
      </trkpt>
      <trkpt lat="62.635427566579" lon="17.979011298579">
        <ele>88.6</ele>
        <time>2017-12-19T12:33:30Z</time>
      </trkpt>
      <trkpt lat="62.635470901002" lon="17.979001407937">
        <ele>88</ele>
        <time>2017-12-19T12:33:31Z</time>
      </trkpt>
      <trkpt lat="62.635516917633" lon="17.979001575575">
        <ele>87.8</ele>
        <time>2017-12-19T12:33:32Z</time>
      </trkpt>
      <trkpt lat="62.635560922608" lon="17.978989757096">
        <ele>87.6</ele>
        <time>2017-12-19T12:33:33Z</time>
      </trkpt>
      <trkpt lat="62.635611716922" lon="17.978984895594">
        <ele>87.4</ele>
        <time>2017-12-19T12:33:34Z</time>
      </trkpt>
      <trkpt lat="62.635657482096" lon="17.978983135395">
        <ele>87.2</ele>
        <time>2017-12-19T12:33:35Z</time>
      </trkpt>
      <trkpt lat="62.635705929478" lon="17.978986739612">
        <ele>86.8</ele>
        <time>2017-12-19T12:33:36Z</time>
      </trkpt>
      <trkpt lat="62.635749934453" lon="17.978982883938">
        <ele>86.6</ele>
        <time>2017-12-19T12:33:37Z</time>
      </trkpt>
      <trkpt lat="62.635790502849" lon="17.978985649965">
        <ele>86.4</ele>
        <time>2017-12-19T12:33:38Z</time>
      </trkpt>
      <trkpt lat="62.635832077073" lon="17.978994199503">
        <ele>86.2</ele>
        <time>2017-12-19T12:33:39Z</time>
      </trkpt>
      <trkpt lat="62.635863676836" lon="17.979009454561">
        <ele>86.4</ele>
        <time>2017-12-19T12:33:40Z</time>
      </trkpt>
      <trkpt lat="62.635891169468" lon="17.979028062379">
        <ele>86.4</ele>
        <time>2017-12-19T12:33:41Z</time>
      </trkpt>
      <trkpt lat="62.635922517774" lon="17.979037617745">
        <ele>86.8</ele>
        <time>2017-12-19T12:33:42Z</time>
      </trkpt>
      <trkpt lat="62.635947579655" lon="17.979044407084">
        <ele>87</ele>
        <time>2017-12-19T12:33:43Z</time>
      </trkpt>
      <trkpt lat="62.635968869681" lon="17.979047843663">
        <ele>87.4</ele>
        <time>2017-12-19T12:33:44Z</time>
      </trkpt>
      <trkpt lat="62.635986220214" lon="17.979061589979">
        <ele>87.4</ele>
        <time>2017-12-19T12:33:45Z</time>
      </trkpt>
      <trkpt lat="62.636015473045" lon="17.979089250249">
        <ele>87.6</ele>
        <time>2017-12-19T12:33:47Z</time>
      </trkpt>
      <trkpt lat="62.636024441678" lon="17.97910341566">
        <ele>87.6</ele>
        <time>2017-12-19T12:33:48Z</time>
      </trkpt>
      <trkpt lat="62.636028129714" lon="17.979125795333">
        <ele>87.6</ele>
        <time>2017-12-19T12:33:49Z</time>
      </trkpt>
      <trkpt lat="62.636031231017" lon="17.97916376534">
        <ele>87.6</ele>
        <time>2017-12-19T12:33:50Z</time>
      </trkpt>
      <trkpt lat="62.636026453334" lon="17.979201400071">
        <ele>87.6</ele>
        <time>2017-12-19T12:33:51Z</time>
      </trkpt>
      <trkpt lat="62.636020753642" lon="17.979225372305">
        <ele>87.6</ele>
        <time>2017-12-19T12:33:52Z</time>
      </trkpt>
      <trkpt lat="62.636015305407" lon="17.979265521606">
        <ele>87.6</ele>
        <time>2017-12-19T12:33:53Z</time>
      </trkpt>
      <trkpt lat="62.636007342602" lon="17.979326960933">
        <ele>87.6</ele>
        <time>2017-12-19T12:33:54Z</time>
      </trkpt>
      <trkpt lat="62.635991416992" lon="17.979397033617">
        <ele>87.6</ele>
        <time>2017-12-19T12:33:55Z</time>
      </trkpt>
      <trkpt lat="62.635989489155" lon="17.979480768798">
        <ele>87.4</ele>
        <time>2017-12-19T12:33:56Z</time>
      </trkpt>
      <trkpt lat="62.635986974585" lon="17.979586883652">
        <ele>87.4</ele>
        <time>2017-12-19T12:33:57Z</time>
      </trkpt>
      <trkpt lat="62.635987561318" lon="17.979733566902">
        <ele>87</ele>
        <time>2017-12-19T12:33:58Z</time>
      </trkpt>
      <trkpt lat="62.635993680105" lon="17.979883854369">
        <ele>86.4</ele>
        <time>2017-12-19T12:33:59Z</time>
      </trkpt>
      <trkpt lat="62.63599745196" lon="17.980045625039">
        <ele>85.6</ele>
        <time>2017-12-19T12:34:00Z</time>
      </trkpt>
      <trkpt lat="62.636014299579" lon="17.980196583058">
        <ele>84.6</ele>
        <time>2017-12-19T12:34:01Z</time>
      </trkpt>
      <trkpt lat="62.636033829406" lon="17.980353324588">
        <ele>83.6</ele>
        <time>2017-12-19T12:34:02Z</time>
      </trkpt>
      <trkpt lat="62.636057466364" lon="17.980493805232">
        <ele>82.4</ele>
        <time>2017-12-19T12:34:03Z</time>
      </trkpt>
      <trkpt lat="62.636073140517" lon="17.980645601441">
        <ele>81.8</ele>
        <time>2017-12-19T12:34:04Z</time>
      </trkpt>
      <trkpt lat="62.636097867122" lon="17.980757248349">
        <ele>81.4</ele>
        <time>2017-12-19T12:34:05Z</time>
      </trkpt>
      <trkpt lat="62.636131813817" lon="17.980913235508">
        <ele>81</ele>
        <time>2017-12-19T12:34:06Z</time>
      </trkpt>
      <trkpt lat="62.636154696404" lon="17.981050950125">
        <ele>80.8</ele>
        <time>2017-12-19T12:34:07Z</time>
      </trkpt>
      <trkpt lat="62.63617598643" lon="17.981175337521">
        <ele>80.6</ele>
        <time>2017-12-19T12:34:08Z</time>
      </trkpt>
      <trkpt lat="62.636192414954" lon="17.981317159269">
        <ele>80.2</ele>
        <time>2017-12-19T12:34:09Z</time>
      </trkpt>
      <trkpt lat="62.636204317252" lon="17.981442887769">
        <ele>80</ele>
        <time>2017-12-19T12:34:10Z</time>
      </trkpt>
      <trkpt lat="62.636218482663" lon="17.98153835761">
        <ele>80</ele>
        <time>2017-12-19T12:34:11Z</time>
      </trkpt>
      <trkpt lat="62.636235414101" lon="17.981663415558">
        <ele>79.8</ele>
        <time>2017-12-19T12:34:12Z</time>
      </trkpt>
      <trkpt lat="62.636250669159" lon="17.981765590919">
        <ele>79.6</ele>
        <time>2017-12-19T12:34:13Z</time>
      </trkpt>
      <trkpt lat="62.636264666932" lon="17.98187950094">
        <ele>79.4</ele>
        <time>2017-12-19T12:34:14Z</time>
      </trkpt>
      <trkpt lat="62.636276233954" lon="17.981978239722">
        <ele>79.4</ele>
        <time>2017-12-19T12:34:15Z</time>
      </trkpt>
      <trkpt lat="62.63627824561" lon="17.982079157798">
        <ele>79.4</ele>
        <time>2017-12-19T12:34:16Z</time>
      </trkpt>
      <trkpt lat="62.636282268922" lon="17.982152164147">
        <ele>79.2</ele>
        <time>2017-12-19T12:34:17Z</time>
      </trkpt>
      <trkpt lat="62.636283358569" lon="17.982243610676">
        <ele>79.2</ele>
        <time>2017-12-19T12:34:18Z</time>
      </trkpt>
      <trkpt lat="62.636289561175" lon="17.982354838489">
        <ele>79.4</ele>
        <time>2017-12-19T12:34:19Z</time>
      </trkpt>
      <trkpt lat="62.63628411294" lon="17.98244779376">
        <ele>79.6</ele>
        <time>2017-12-19T12:34:20Z</time>
      </trkpt>
      <trkpt lat="62.636291908107" lon="17.982540665212">
        <ele>80</ele>
        <time>2017-12-19T12:34:21Z</time>
      </trkpt>
      <trkpt lat="62.636297440161" lon="17.982609732068">
        <ele>80.2</ele>
        <time>2017-12-19T12:34:22Z</time>
      </trkpt>
      <trkpt lat="62.636288722985" lon="17.982705453366">
        <ele>80.6</ele>
        <time>2017-12-19T12:34:23Z</time>
      </trkpt>
      <trkpt lat="62.636288974442" lon="17.982796899895">
        <ele>80.6</ele>
        <time>2017-12-19T12:34:24Z</time>
      </trkpt>
      <trkpt lat="62.636296601971" lon="17.982856914299">
        <ele>80.6</ele>
        <time>2017-12-19T12:34:25Z</time>
      </trkpt>
      <trkpt lat="62.636298865084" lon="17.982940565661">
        <ele>80.6</ele>
        <time>2017-12-19T12:34:26Z</time>
      </trkpt>
      <trkpt lat="62.636307498441" lon="17.983017679141">
        <ele>80.6</ele>
        <time>2017-12-19T12:34:27Z</time>
      </trkpt>
      <trkpt lat="62.636308168993" lon="17.983085907807">
        <ele>80.8</ele>
        <time>2017-12-19T12:34:28Z</time>
      </trkpt>
      <trkpt lat="62.636311857029" lon="17.983159165613">
        <ele>80.8</ele>
        <time>2017-12-19T12:34:29Z</time>
      </trkpt>
      <trkpt lat="62.636317053807" lon="17.983240218586">
        <ele>81</ele>
        <time>2017-12-19T12:34:30Z</time>
      </trkpt>
      <trkpt lat="62.63631764054" lon="17.983308028157">
        <ele>81</ele>
        <time>2017-12-19T12:34:31Z</time>
      </trkpt>
      <trkpt lat="62.636321328576" lon="17.983382962343">
        <ele>81</ele>
        <time>2017-12-19T12:34:32Z</time>
      </trkpt>
      <trkpt lat="62.636321412395" lon="17.983413472459">
        <ele>81</ele>
        <time>2017-12-19T12:34:33Z</time>
      </trkpt>
      <trkpt lat="62.636313617228" lon="17.983478013089">
        <ele>81.2</ele>
        <time>2017-12-19T12:34:34Z</time>
      </trkpt>
      <trkpt lat="62.636306408794" lon="17.983531238154">
        <ele>81</ele>
        <time>2017-12-19T12:34:35Z</time>
      </trkpt>
      <trkpt lat="62.636308168993" lon="17.983586810151">
        <ele>81.2</ele>
        <time>2017-12-19T12:34:36Z</time>
      </trkpt>
      <trkpt lat="62.636292159564" lon="17.983648668573">
        <ele>81.2</ele>
        <time>2017-12-19T12:34:37Z</time>
      </trkpt>
      <trkpt lat="62.636282855655" lon="17.983707844787">
        <ele>81.2</ele>
        <time>2017-12-19T12:34:38Z</time>
      </trkpt>
      <trkpt lat="62.63627656923" lon="17.983742964948">
        <ele>81.4</ele>
        <time>2017-12-19T12:34:39Z</time>
      </trkpt>
      <trkpt lat="62.636256285032" lon="17.983803482266">
        <ele>81.6</ele>
        <time>2017-12-19T12:34:40Z</time>
      </trkpt>
      <trkpt lat="62.636249579512" lon="17.983863748127">
        <ele>81.8</ele>
        <time>2017-12-19T12:34:41Z</time>
      </trkpt>
      <trkpt lat="62.636238683042" lon="17.983929546042">
        <ele>82</ele>
        <time>2017-12-19T12:34:42Z</time>
      </trkpt>
      <trkpt lat="62.636232899531" lon="17.983979502166">
        <ele>82.2</ele>
        <time>2017-12-19T12:34:43Z</time>
      </trkpt>
      <trkpt lat="62.636230720237" lon="17.984035660896">
        <ele>82.2</ele>
        <time>2017-12-19T12:34:44Z</time>
      </trkpt>
      <trkpt lat="62.636222422156" lon="17.984090897617">
        <ele>82.2</ele>
        <time>2017-12-19T12:34:45Z</time>
      </trkpt>
      <trkpt lat="62.636217393016" lon="17.984150073831">
        <ele>82.2</ele>
        <time>2017-12-19T12:34:46Z</time>
      </trkpt>
      <trkpt lat="62.636216973921" lon="17.984194497901">
        <ele>82.4</ele>
        <time>2017-12-19T12:34:47Z</time>
      </trkpt>
      <trkpt lat="62.636212782971" lon="17.984238921971">
        <ele>82.4</ele>
        <time>2017-12-19T12:34:48Z</time>
      </trkpt>
      <trkpt lat="62.636201215949" lon="17.984304887524">
        <ele>82.4</ele>
        <time>2017-12-19T12:34:49Z</time>
      </trkpt>
      <trkpt lat="62.636202137958" lon="17.984346461748">
        <ele>82.6</ele>
        <time>2017-12-19T12:34:50Z</time>
      </trkpt>
      <trkpt lat="62.636199288112" lon="17.984417204984">
        <ele>82.6</ele>
        <time>2017-12-19T12:34:51Z</time>
      </trkpt>
      <trkpt lat="62.636199539569" lon="17.98447872813">
        <ele>82.8</ele>
        <time>2017-12-19T12:34:52Z</time>
      </trkpt>
      <trkpt lat="62.636196270628" lon="17.984527259331">
        <ele>82.8</ele>
        <time>2017-12-19T12:34:53Z</time>
      </trkpt>
      <trkpt lat="62.636190654755" lon="17.984577383093">
        <ele>83</ele>
        <time>2017-12-19T12:34:54Z</time>
      </trkpt>
      <trkpt lat="62.636184871244" lon="17.984647791053">
        <ele>83</ele>
        <time>2017-12-19T12:34:55Z</time>
      </trkpt>
      <trkpt lat="62.636177327534" lon="17.984710236208">
        <ele>83</ele>
        <time>2017-12-19T12:34:56Z</time>
      </trkpt>
      <trkpt lat="62.636176992258" lon="17.984739489039">
        <ele>83</ele>
        <time>2017-12-19T12:34:57Z</time>
      </trkpt>
      <trkpt lat="62.636174477688" lon="17.984791708276">
        <ele>83.2</ele>
        <time>2017-12-19T12:34:58Z</time>
      </trkpt>
      <trkpt lat="62.636179758285" lon="17.984847364092">
        <ele>83.2</ele>
        <time>2017-12-19T12:34:59Z</time>
      </trkpt>
      <trkpt lat="62.636176405525" lon="17.984885501737">
        <ele>83.4</ele>
        <time>2017-12-19T12:35:00Z</time>
      </trkpt>
      <trkpt lat="62.636184955063" lon="17.984983486148">
        <ele>83.4</ele>
        <time>2017-12-19T12:35:01Z</time>
      </trkpt>
      <trkpt lat="62.63619023566" lon="17.985035202471">
        <ele>83.4</ele>
        <time>2017-12-19T12:35:02Z</time>
      </trkpt>
      <trkpt lat="62.636178584819" lon="17.985071831374">
        <ele>83.8</ele>
        <time>2017-12-19T12:35:03Z</time>
      </trkpt>
      <trkpt lat="62.636177076077" lon="17.985129666484">
        <ele>83.8</ele>
        <time>2017-12-19T12:35:04Z</time>
      </trkpt>
      <trkpt lat="62.636176992258" lon="17.985176437486">
        <ele>83.8</ele>
        <time>2017-12-19T12:35:05Z</time>
      </trkpt>
      <trkpt lat="62.636173220403" lon="17.985229159637">
        <ele>84</ele>
        <time>2017-12-19T12:35:06Z</time>
      </trkpt>
      <trkpt lat="62.636173304222" lon="17.985285988919">
        <ele>84</ele>
        <time>2017-12-19T12:35:07Z</time>
      </trkpt>
      <trkpt lat="62.636177914267" lon="17.985335106853">
        <ele>84</ele>
        <time>2017-12-19T12:35:08Z</time>
      </trkpt>
      <trkpt lat="62.636174393869" lon="17.98538564971">
        <ele>84.2</ele>
        <time>2017-12-19T12:35:09Z</time>
      </trkpt>
      <trkpt lat="62.6361701191" lon="17.985438371861">
        <ele>84.2</ele>
        <time>2017-12-19T12:35:10Z</time>
      </trkpt>
      <trkpt lat="62.636169029453" lon="17.985488914718">
        <ele>84.4</ele>
        <time>2017-12-19T12:35:11Z</time>
      </trkpt>
      <trkpt lat="62.636151511282" lon="17.985545073448">
        <ele>84.4</ele>
        <time>2017-12-19T12:35:12Z</time>
      </trkpt>
      <trkpt lat="62.63614162064" lon="17.985615481408">
        <ele>84.4</ele>
        <time>2017-12-19T12:35:13Z</time>
      </trkpt>
      <trkpt lat="62.636135082758" lon="17.985659821659">
        <ele>84.6</ele>
        <time>2017-12-19T12:35:14Z</time>
      </trkpt>
      <trkpt lat="62.636123767193" lon="17.985704245729">
        <ele>84.6</ele>
        <time>2017-12-19T12:35:15Z</time>
      </trkpt>
      <trkpt lat="62.636107590126" lon="17.985748669799">
        <ele>84.8</ele>
        <time>2017-12-19T12:35:16Z</time>
      </trkpt>
      <trkpt lat="62.636095604009" lon="17.985781191571">
        <ele>84.8</ele>
        <time>2017-12-19T12:35:17Z</time>
      </trkpt>
      <trkpt lat="62.63607875639" lon="17.98581647937">
        <ele>84.8</ele>
        <time>2017-12-19T12:35:18Z</time>
      </trkpt>
      <trkpt lat="62.63606031621" lon="17.985849587875">
        <ele>84.8</ele>
        <time>2017-12-19T12:35:19Z</time>
      </trkpt>
      <trkpt lat="62.636045480247" lon="17.985886132959">
        <ele>85</ele>
        <time>2017-12-19T12:35:20Z</time>
      </trkpt>
      <trkpt lat="62.636033997044" lon="17.98591957674">
        <ele>85</ele>
        <time>2017-12-19T12:35:21Z</time>
      </trkpt>
      <trkpt lat="62.636017652339" lon="17.985952601426">
        <ele>85.2</ele>
        <time>2017-12-19T12:35:22Z</time>
      </trkpt>
      <trkpt lat="62.635994685933" lon="17.985979758782">
        <ele>85.4</ele>
        <time>2017-12-19T12:35:23Z</time>
      </trkpt>
      <trkpt lat="62.635978927961" lon="17.985994427107">
        <ele>85.6</ele>
        <time>2017-12-19T12:35:24Z</time>
      </trkpt>
      <trkpt lat="62.635958811401" lon="17.986009765984">
        <ele>85.6</ele>
        <time>2017-12-19T12:35:25Z</time>
      </trkpt>
      <trkpt lat="62.635936347909" lon="17.986024937223">
        <ele>85.6</ele>
        <time>2017-12-19T12:35:26Z</time>
      </trkpt>
      <trkpt lat="62.635916650444" lon="17.986040527557">
        <ele>85.8</ele>
        <time>2017-12-19T12:35:27Z</time>
      </trkpt>
      <trkpt lat="62.63589184002" lon="17.986069445112">
        <ele>85.8</ele>
        <time>2017-12-19T12:35:28Z</time>
      </trkpt>
      <trkpt lat="62.63587004708" lon="17.986095764278">
        <ele>85.8</ele>
        <time>2017-12-19T12:35:29Z</time>
      </trkpt>
      <trkpt lat="62.635850349615" lon="17.986125520023">
        <ele>86</ele>
        <time>2017-12-19T12:35:30Z</time>
      </trkpt>
      <trkpt lat="62.635827047933" lon="17.986160221089">
        <ele>86</ele>
        <time>2017-12-19T12:35:31Z</time>
      </trkpt>
      <trkpt lat="62.635803913889" lon="17.986185031513">
        <ele>86</ele>
        <time>2017-12-19T12:35:32Z</time>
      </trkpt>
      <trkpt lat="62.635780109293" lon="17.986216631276">
        <ele>86.2</ele>
        <time>2017-12-19T12:35:33Z</time>
      </trkpt>
      <trkpt lat="62.635763764588" lon="17.986239681501">
        <ele>86.4</ele>
        <time>2017-12-19T12:35:34Z</time>
      </trkpt>
      <trkpt lat="62.635749515358" lon="17.986265833029">
        <ele>86.6</ele>
        <time>2017-12-19T12:35:35Z</time>
      </trkpt>
      <trkpt lat="62.635729566436" lon="17.986294080032">
        <ele>86.6</ele>
        <time>2017-12-19T12:35:36Z</time>
      </trkpt>
      <trkpt lat="62.63571582012" lon="17.986323668139">
        <ele>87</ele>
        <time>2017-12-19T12:35:37Z</time>
      </trkpt>
      <trkpt lat="62.635697296121" lon="17.98636633201">
        <ele>87</ele>
        <time>2017-12-19T12:35:38Z</time>
      </trkpt>
      <trkpt lat="62.635680783778" lon="17.986417796876">
        <ele>87.2</ele>
        <time>2017-12-19T12:35:39Z</time>
      </trkpt>
      <trkpt lat="62.635669132937" lon="17.986467753">
        <ele>87.4</ele>
        <time>2017-12-19T12:35:40Z</time>
      </trkpt>
      <trkpt lat="62.635649184015" lon="17.986520642789">
        <ele>87.4</ele>
        <time>2017-12-19T12:35:41Z</time>
      </trkpt>
      <trkpt lat="62.635634934785" lon="17.986558612796">
        <ele>87.6</ele>
        <time>2017-12-19T12:35:42Z</time>
      </trkpt>
      <trkpt lat="62.635619512089" lon="17.986605635255">
        <ele>87.6</ele>
        <time>2017-12-19T12:35:43Z</time>
      </trkpt>
      <trkpt lat="62.635603167384" lon="17.986665901116">
        <ele>87.6</ele>
        <time>2017-12-19T12:35:44Z</time>
      </trkpt>
      <trkpt lat="62.635589504887" lon="17.986709654634">
        <ele>87.6</ele>
        <time>2017-12-19T12:35:45Z</time>
      </trkpt>
      <trkpt lat="62.635578524598" lon="17.986744020424">
        <ele>87.6</ele>
        <time>2017-12-19T12:35:46Z</time>
      </trkpt>
      <trkpt lat="62.635566203205" lon="17.986780314051">
        <ele>87.8</ele>
        <time>2017-12-19T12:35:47Z</time>
      </trkpt>
      <trkpt lat="62.635546841016" lon="17.986827671786">
        <ele>87.8</ele>
        <time>2017-12-19T12:35:48Z</time>
      </trkpt>
      <trkpt lat="62.635534687261" lon="17.986866312345">
        <ele>88</ele>
        <time>2017-12-19T12:35:49Z</time>
      </trkpt>
      <trkpt lat="62.635519767479" lon="17.986911239329">
        <ele>88</ele>
        <time>2017-12-19T12:35:50Z</time>
      </trkpt>
      <trkpt lat="62.635499148005" lon="17.98695809415">
        <ele>88.2</ele>
        <time>2017-12-19T12:35:51Z</time>
      </trkpt>
      <trkpt lat="62.635485820784" lon="17.98699413632">
        <ele>88.2</ele>
        <time>2017-12-19T12:35:52Z</time>
      </trkpt>
      <trkpt lat="62.635466626233" lon="17.987039147123">
        <ele>88.4</ele>
        <time>2017-12-19T12:35:53Z</time>
      </trkpt>
      <trkpt lat="62.63544508475" lon="17.987076362759">
        <ele>88.4</ele>
        <time>2017-12-19T12:35:54Z</time>
      </trkpt>
      <trkpt lat="62.635432763357" lon="17.987118691354">
        <ele>88.4</ele>
        <time>2017-12-19T12:35:55Z</time>
      </trkpt>
      <trkpt lat="62.635414658453" lon="17.987148866194">
        <ele>88.6</ele>
        <time>2017-12-19T12:35:56Z</time>
      </trkpt>
      <trkpt lat="62.635398816662" lon="17.987176358826">
        <ele>88.6</ele>
        <time>2017-12-19T12:35:57Z</time>
      </trkpt>
      <trkpt lat="62.635385154165" lon="17.987204354372">
        <ele>88.6</ele>
        <time>2017-12-19T12:35:58Z</time>
      </trkpt>
      <trkpt lat="62.635363528863" lon="17.987247102062">
        <ele>88.8</ele>
        <time>2017-12-19T12:35:59Z</time>
      </trkpt>
      <trkpt lat="62.635341652104" lon="17.98728331187">
        <ele>89</ele>
        <time>2017-12-19T12:36:00Z</time>
      </trkpt>
      <trkpt lat="62.635328408702" lon="17.987304685715">
        <ele>89</ele>
        <time>2017-12-19T12:36:01Z</time>
      </trkpt>
      <trkpt lat="62.635314913843" lon="17.987332429804">
        <ele>89.2</ele>
        <time>2017-12-19T12:36:02Z</time>
      </trkpt>
      <trkpt lat="62.635302257174" lon="17.987369058707">
        <ele>89.2</ele>
        <time>2017-12-19T12:36:03Z</time>
      </trkpt>
      <trkpt lat="62.635289013772" lon="17.987404765601">
        <ele>89.4</ele>
        <time>2017-12-19T12:36:04Z</time>
      </trkpt>
      <trkpt lat="62.635270992687" lon="17.987455057001">
        <ele>89.4</ele>
        <time>2017-12-19T12:36:05Z</time>
      </trkpt>
      <trkpt lat="62.635252887783" lon="17.987496882682">
        <ele>89.6</ele>
        <time>2017-12-19T12:36:06Z</time>
      </trkpt>
      <trkpt lat="62.635242745684" lon="17.987522447477">
        <ele>89.6</ele>
        <time>2017-12-19T12:36:07Z</time>
      </trkpt>
      <trkpt lat="62.635223215857" lon="17.987560082208">
        <ele>89.6</ele>
        <time>2017-12-19T12:36:08Z</time>
      </trkpt>
      <trkpt lat="62.635205697686" lon="17.987594867093">
        <ele>89.8</ele>
        <time>2017-12-19T12:36:09Z</time>
      </trkpt>
      <trkpt lat="62.635186251678" lon="17.987636525136">
        <ele>89.8</ele>
        <time>2017-12-19T12:36:10Z</time>
      </trkpt>
      <trkpt lat="62.635165296928" lon="17.987664185406">
        <ele>90</ele>
        <time>2017-12-19T12:36:11Z</time>
      </trkpt>
      <trkpt lat="62.635145767101" lon="17.987690085477">
        <ele>90.2</ele>
        <time>2017-12-19T12:36:12Z</time>
      </trkpt>
      <trkpt lat="62.635134200079" lon="17.987718248661">
        <ele>90.4</ele>
        <time>2017-12-19T12:36:13Z</time>
      </trkpt>
      <trkpt lat="62.635129003301" lon="17.987742723809">
        <ele>90.4</ele>
        <time>2017-12-19T12:36:14Z</time>
      </trkpt>
      <trkpt lat="62.635114586433" lon="17.987766779862">
        <ele>90.6</ele>
        <time>2017-12-19T12:36:15Z</time>
      </trkpt>
      <trkpt lat="62.635101678307" lon="17.987798295806">
        <ele>90.6</ele>
        <time>2017-12-19T12:36:16Z</time>
      </trkpt>
      <trkpt lat="62.635084243955" lon="17.987828722103">
        <ele>90.6</ele>
        <time>2017-12-19T12:36:17Z</time>
      </trkpt>
      <trkpt lat="62.635062534834" lon="17.987866524472">
        <ele>90.8</ele>
        <time>2017-12-19T12:36:18Z</time>
      </trkpt>
      <trkpt lat="62.635049710527" lon="17.987897537502">
        <ele>90.8</ele>
        <time>2017-12-19T12:36:19Z</time>
      </trkpt>
      <trkpt lat="62.635031354166" lon="17.987919749537">
        <ele>90.8</ele>
        <time>2017-12-19T12:36:20Z</time>
      </trkpt>
      <trkpt lat="62.635012746348" lon="17.987945901065">
        <ele>91</ele>
        <time>2017-12-19T12:36:21Z</time>
      </trkpt>
      <trkpt lat="62.634995898729" lon="17.987965430892">
        <ele>91</ele>
        <time>2017-12-19T12:36:22Z</time>
      </trkpt>
      <trkpt lat="62.63497318378" lon="17.987994264628">
        <ele>91.2</ele>
        <time>2017-12-19T12:36:23Z</time>
      </trkpt>
      <trkpt lat="62.634950636469" lon="17.988015722292">
        <ele>91.4</ele>
        <time>2017-12-19T12:36:24Z</time>
      </trkpt>
      <trkpt lat="62.634928172977" lon="17.988039443069">
        <ele>91.4</ele>
        <time>2017-12-19T12:36:25Z</time>
      </trkpt>
      <trkpt lat="62.634905709485" lon="17.988059308172">
        <ele>91.8</ele>
        <time>2017-12-19T12:36:26Z</time>
      </trkpt>
      <trkpt lat="62.634890622065" lon="17.988075904334">
        <ele>91.8</ele>
        <time>2017-12-19T12:36:27Z</time>
      </trkpt>
      <trkpt lat="62.634868745306" lon="17.988089147736">
        <ele>92</ele>
        <time>2017-12-19T12:36:28Z</time>
      </trkpt>
      <trkpt lat="62.634843348149" lon="17.988106498269">
        <ele>92.2</ele>
        <time>2017-12-19T12:36:29Z</time>
      </trkpt>
      <trkpt lat="62.63482398596" lon="17.988117478558">
        <ele>92.4</ele>
        <time>2017-12-19T12:36:30Z</time>
      </trkpt>
      <trkpt lat="62.634799594631" lon="17.988126447191">
        <ele>92.4</ele>
        <time>2017-12-19T12:36:31Z</time>
      </trkpt>
      <trkpt lat="62.634780819175" lon="17.988143210991">
        <ele>92.6</ele>
        <time>2017-12-19T12:36:32Z</time>
      </trkpt>
      <trkpt lat="62.634763384823" lon="17.988152933995">
        <ele>92.8</ele>
        <time>2017-12-19T12:36:33Z</time>
      </trkpt>
      <trkpt lat="62.634736898019" lon="17.988154778013">
        <ele>92.8</ele>
        <time>2017-12-19T12:36:34Z</time>
      </trkpt>
      <trkpt lat="62.634712171414" lon="17.988153772185">
        <ele>92.6</ele>
        <time>2017-12-19T12:36:35Z</time>
      </trkpt>
      <trkpt lat="62.634693647415" lon="17.988159723334">
        <ele>92.8</ele>
        <time>2017-12-19T12:36:36Z</time>
      </trkpt>
      <trkpt lat="62.634670932466" lon="17.988158549868">
        <ele>92.8</ele>
        <time>2017-12-19T12:36:37Z</time>
      </trkpt>
      <trkpt lat="62.634647882241" lon="17.988165423026">
        <ele>93</ele>
        <time>2017-12-19T12:36:38Z</time>
      </trkpt>
      <trkpt lat="62.634626843672" lon="17.988169111062">
        <ele>93</ele>
        <time>2017-12-19T12:36:39Z</time>
      </trkpt>
      <trkpt lat="62.634600356868" lon="17.988172799098">
        <ele>93</ele>
        <time>2017-12-19T12:36:40Z</time>
      </trkpt>
      <trkpt lat="62.63458091086" lon="17.988183611749">
        <ele>93</ele>
        <time>2017-12-19T12:36:41Z</time>
      </trkpt>
      <trkpt lat="62.634562303042" lon="17.988182354464">
        <ele>93.2</ele>
        <time>2017-12-19T12:36:42Z</time>
      </trkpt>
      <trkpt lat="62.6345356486" lon="17.988187551242">
        <ele>93.2</ele>
        <time>2017-12-19T12:36:43Z</time>
      </trkpt>
      <trkpt lat="62.634517795153" lon="17.988200710825">
        <ele>93.2</ele>
        <time>2017-12-19T12:36:44Z</time>
      </trkpt>
      <trkpt lat="62.634489464331" lon="17.988201884291">
        <ele>93.4</ele>
        <time>2017-12-19T12:36:45Z</time>
      </trkpt>
      <trkpt lat="62.634462474613" lon="17.988210852924">
        <ele>93.4</ele>
        <time>2017-12-19T12:36:46Z</time>
      </trkpt>
      <trkpt lat="62.634441687501" lon="17.988211607295">
        <ele>93.6</ele>
        <time>2017-12-19T12:36:47Z</time>
      </trkpt>
      <trkpt lat="62.634412015575" lon="17.9882111882">
        <ele>93.8</ele>
        <time>2017-12-19T12:36:48Z</time>
      </trkpt>
      <trkpt lat="62.634383014201" lon="17.988220659747">
        <ele>93.8</ele>
        <time>2017-12-19T12:36:49Z</time>
      </trkpt>
      <trkpt lat="62.634362310908" lon="17.988226443258">
        <ele>93.8</ele>
        <time>2017-12-19T12:36:50Z</time>
      </trkpt>
      <trkpt lat="62.634339344502" lon="17.988230047475">
        <ele>94</ele>
        <time>2017-12-19T12:36:51Z</time>
      </trkpt>
      <trkpt lat="62.634319060304" lon="17.988236417719">
        <ele>94</ele>
        <time>2017-12-19T12:36:52Z</time>
      </trkpt>
      <trkpt lat="62.634292992595" lon="17.988236501538">
        <ele>94</ele>
        <time>2017-12-19T12:36:53Z</time>
      </trkpt>
      <trkpt lat="62.634263907402" lon="17.98823381933">
        <ele>94.2</ele>
        <time>2017-12-19T12:36:54Z</time>
      </trkpt>
      <trkpt lat="62.63424060572" lon="17.98822879019">
        <ele>94.2</ele>
        <time>2017-12-19T12:36:55Z</time>
      </trkpt>
      <trkpt lat="62.634209927966" lon="17.988205069413">
        <ele>94.2</ele>
        <time>2017-12-19T12:36:56Z</time>
      </trkpt>
      <trkpt lat="62.634183860257" lon="17.988189562898">
        <ele>94.4</ele>
        <time>2017-12-19T12:36:57Z</time>
      </trkpt>
      <trkpt lat="62.634160055661" lon="17.988184869034">
        <ele>94.4</ele>
        <time>2017-12-19T12:36:58Z</time>
      </trkpt>
      <trkpt lat="62.634129294088" lon="17.988173972564">
        <ele>94.4</ele>
        <time>2017-12-19T12:36:59Z</time>
      </trkpt>
      <trkpt lat="62.634104148388" lon="17.988162740818">
        <ele>94.4</ele>
        <time>2017-12-19T12:37:00Z</time>
      </trkpt>
      <trkpt lat="62.634076907213" lon="17.988150419425">
        <ele>94.6</ele>
        <time>2017-12-19T12:37:01Z</time>
      </trkpt>
      <trkpt lat="62.6340494984" lon="17.988142959534">
        <ele>94.6</ele>
        <time>2017-12-19T12:37:02Z</time>
      </trkpt>
      <trkpt lat="62.634025945261" lon="17.988125944277">
        <ele>94.6</ele>
        <time>2017-12-19T12:37:03Z</time>
      </trkpt>
      <trkpt lat="62.633999374638" lon="17.988109683391">
        <ele>94.6</ele>
        <time>2017-12-19T12:37:04Z</time>
      </trkpt>
      <trkpt lat="62.633977246422" lon="17.988095266523">
        <ele>94.6</ele>
        <time>2017-12-19T12:37:05Z</time>
      </trkpt>
      <trkpt lat="62.633957884233" lon="17.988085208243">
        <ele>94.8</ele>
        <time>2017-12-19T12:37:06Z</time>
      </trkpt>
      <trkpt lat="62.633937935311" lon="17.988073305945">
        <ele>94.8</ele>
        <time>2017-12-19T12:37:07Z</time>
      </trkpt>
      <trkpt lat="62.633921087692" lon="17.988061403647">
        <ele>94.8</ele>
        <time>2017-12-19T12:37:08Z</time>
      </trkpt>
      <trkpt lat="62.63390030058" lon="17.988046400046">
        <ele>95</ele>
        <time>2017-12-19T12:37:09Z</time>
      </trkpt>
      <trkpt lat="62.633878256183" lon="17.988033156644">
        <ele>95.2</ele>
        <time>2017-12-19T12:37:10Z</time>
      </trkpt>
      <trkpt lat="62.633859983641" lon="17.988025361477">
        <ele>95.2</ele>
        <time>2017-12-19T12:37:11Z</time>
      </trkpt>
      <trkpt lat="62.633839028891" lon="17.988012201894">
        <ele>95.2</ele>
        <time>2017-12-19T12:37:12Z</time>
      </trkpt>
      <trkpt lat="62.633814134648" lon="17.987989570764">
        <ele>95.4</ele>
        <time>2017-12-19T12:37:13Z</time>
      </trkpt>
      <trkpt lat="62.633794856278" lon="17.987978506656">
        <ele>95.4</ele>
        <time>2017-12-19T12:37:14Z</time>
      </trkpt>
      <trkpt lat="62.633770213492" lon="17.987957635725">
        <ele>95.4</ele>
        <time>2017-12-19T12:37:15Z</time>
      </trkpt>
      <trkpt lat="62.633742637041" lon="17.98794129102">
        <ele>95.6</ele>
        <time>2017-12-19T12:37:16Z</time>
      </trkpt>
      <trkpt lat="62.633722185205" lon="17.987930310731">
        <ele>95.6</ele>
        <time>2017-12-19T12:37:17Z</time>
      </trkpt>
      <trkpt lat="62.633689244338" lon="17.987903488651">
        <ele>95.6</ele>
        <time>2017-12-19T12:37:18Z</time>
      </trkpt>
      <trkpt lat="62.633661332611" lon="17.987876498933">
        <ele>95.8</ele>
        <time>2017-12-19T12:37:19Z</time>
      </trkpt>
      <trkpt lat="62.633640880775" lon="17.987851939966">
        <ele>96</ele>
        <time>2017-12-19T12:37:20Z</time>
      </trkpt>
      <trkpt lat="62.633622356776" lon="17.987824950248">
        <ele>96</ele>
        <time>2017-12-19T12:37:21Z</time>
      </trkpt>
      <trkpt lat="62.633604000415" lon="17.987805588059">
        <ele>96.2</ele>
        <time>2017-12-19T12:37:22Z</time>
      </trkpt>
      <trkpt lat="62.633583548579" lon="17.987788069888">
        <ele>96.2</ele>
        <time>2017-12-19T12:37:23Z</time>
      </trkpt>
      <trkpt lat="62.633569299349" lon="17.987772144278">
        <ele>96.4</ele>
        <time>2017-12-19T12:37:24Z</time>
      </trkpt>
      <trkpt lat="62.633551194445" lon="17.987738700497">
        <ele>96.6</ele>
        <time>2017-12-19T12:37:25Z</time>
      </trkpt>
      <trkpt lat="62.633528730953" lon="17.987710872589">
        <ele>96.4</ele>
        <time>2017-12-19T12:37:26Z</time>
      </trkpt>
      <trkpt lat="62.633512637705" lon="17.987694779341">
        <ele>96.8</ele>
        <time>2017-12-19T12:37:27Z</time>
      </trkpt>
      <trkpt lat="62.633486569996" lon="17.98765965918">
        <ele>97</ele>
        <time>2017-12-19T12:37:28Z</time>
      </trkpt>
      <trkpt lat="62.633461508115" lon="17.987623952286">
        <ele>97</ele>
        <time>2017-12-19T12:37:29Z</time>
      </trkpt>
      <trkpt lat="62.633442229745" lon="17.987593693627">
        <ele>97.2</ele>
        <time>2017-12-19T12:37:30Z</time>
      </trkpt>
      <trkpt lat="62.633426136497" lon="17.987567123004">
        <ele>97.2</ele>
        <time>2017-12-19T12:37:31Z</time>
      </trkpt>
      <trkpt lat="62.633412557819" lon="17.98753895982">
        <ele>97.2</ele>
        <time>2017-12-19T12:37:32Z</time>
      </trkpt>
      <trkpt lat="62.633396296933" lon="17.987505013125">
        <ele>97.2</ele>
        <time>2017-12-19T12:37:33Z</time>
      </trkpt>
      <trkpt lat="62.633381209513" lon="17.987478777778">
        <ele>97.2</ele>
        <time>2017-12-19T12:37:34Z</time>
      </trkpt>
      <trkpt lat="62.633362853152" lon="17.987442903246">
        <ele>97.6</ele>
        <time>2017-12-19T12:37:35Z</time>
      </trkpt>
      <trkpt lat="62.633345502619" lon="17.987412141673">
        <ele>98</ele>
        <time>2017-12-19T12:37:36Z</time>
      </trkpt>
      <trkpt lat="62.633326810982" lon="17.987375596589">
        <ele>98.2</ele>
        <time>2017-12-19T12:37:37Z</time>
      </trkpt>
      <trkpt lat="62.633300575635" lon="17.98733360327">
        <ele>98.2</ele>
        <time>2017-12-19T12:37:38Z</time>
      </trkpt>
      <trkpt lat="62.633278950333" lon="17.987279623834">
        <ele>98.4</ele>
        <time>2017-12-19T12:37:39Z</time>
      </trkpt>
      <trkpt lat="62.633259336687" lon="17.987224973846">
        <ele>98.4</ele>
        <time>2017-12-19T12:37:40Z</time>
      </trkpt>
      <trkpt lat="62.633241315602" lon="17.987140987208">
        <ele>98.4</ele>
        <time>2017-12-19T12:37:41Z</time>
      </trkpt>
      <trkpt lat="62.63322136668" lon="17.987035542906">
        <ele>98.4</ele>
        <time>2017-12-19T12:37:42Z</time>
      </trkpt>
      <trkpt lat="62.633204686699" lon="17.986910736415">
        <ele>97.8</ele>
        <time>2017-12-19T12:37:43Z</time>
      </trkpt>
      <trkpt lat="62.633192113849" lon="17.986797832222">
        <ele>97</ele>
        <time>2017-12-19T12:37:44Z</time>
      </trkpt>
      <trkpt lat="62.633183731949" lon="17.986691885006">
        <ele>96.4</ele>
        <time>2017-12-19T12:37:45Z</time>
      </trkpt>
      <trkpt lat="62.633178786628" lon="17.986592140396">
        <ele>95.6</ele>
        <time>2017-12-19T12:37:46Z</time>
      </trkpt>
      <trkpt lat="62.633173170755" lon="17.986501951152">
        <ele>95</ele>
        <time>2017-12-19T12:37:47Z</time>
      </trkpt>
      <trkpt lat="62.633166968149" lon="17.986412097184">
        <ele>94.8</ele>
        <time>2017-12-19T12:37:48Z</time>
      </trkpt>
      <trkpt lat="62.633163196294" lon="17.986267006495">
        <ele>94.4</ele>
        <time>2017-12-19T12:37:49Z</time>
      </trkpt>
      <trkpt lat="62.633157328964" lon="17.986148486429">
        <ele>94.4</ele>
        <time>2017-12-19T12:37:50Z</time>
      </trkpt>
      <trkpt lat="62.633157580421" lon="17.98602015954">
        <ele>94.2</ele>
        <time>2017-12-19T12:37:51Z</time>
      </trkpt>
      <trkpt lat="62.633157161326" lon="17.98590951846">
        <ele>93.8</ele>
        <time>2017-12-19T12:37:52Z</time>
      </trkpt>
      <trkpt lat="62.633156909869" lon="17.985773312585">
        <ele>93.6</ele>
        <time>2017-12-19T12:37:53Z</time>
      </trkpt>
      <trkpt lat="62.633160011172" lon="17.985660156935">
        <ele>93.2</ele>
        <time>2017-12-19T12:37:54Z</time>
      </trkpt>
      <trkpt lat="62.633166129959" lon="17.985552198063">
        <ele>92.8</ele>
        <time>2017-12-19T12:37:55Z</time>
      </trkpt>
      <trkpt lat="62.633172500203" lon="17.985441640802">
        <ele>92.6</ele>
        <time>2017-12-19T12:37:56Z</time>
      </trkpt>
      <trkpt lat="62.633179960094" lon="17.985324880935">
        <ele>92.6</ele>
        <time>2017-12-19T12:37:57Z</time>
      </trkpt>
      <trkpt lat="62.633192113849" lon="17.985181298988">
        <ele>92.4</ele>
        <time>2017-12-19T12:37:58Z</time>
      </trkpt>
      <trkpt lat="62.633211056943" lon="17.985031262978">
        <ele>92.2</ele>
        <time>2017-12-19T12:37:59Z</time>
      </trkpt>
      <trkpt lat="62.633232346969" lon="17.984896230569">
        <ele>92</ele>
        <time>2017-12-19T12:38:00Z</time>
      </trkpt>
      <trkpt lat="62.633256989755" lon="17.984766981671">
        <ele>91.4</ele>
        <time>2017-12-19T12:38:01Z</time>
      </trkpt>
      <trkpt lat="62.633284650025" lon="17.984653826021">
        <ele>91</ele>
        <time>2017-12-19T12:38:02Z</time>
      </trkpt>
      <trkpt lat="62.633310717734" lon="17.984543101122">
        <ele>90.2</ele>
        <time>2017-12-19T12:38:03Z</time>
      </trkpt>
      <trkpt lat="62.633336282529" lon="17.984442266865">
        <ele>89.6</ele>
        <time>2017-12-19T12:38:04Z</time>
      </trkpt>
      <trkpt lat="62.63335547708" lon="17.984340678237">
        <ele>89.4</ele>
        <time>2017-12-19T12:38:05Z</time>
      </trkpt>
      <trkpt lat="62.633363439885" lon="17.984254344667">
        <ele>89.2</ele>
        <time>2017-12-19T12:38:06Z</time>
      </trkpt>
      <trkpt lat="62.633369977767" lon="17.984181673594">
        <ele>89.4</ele>
        <time>2017-12-19T12:38:07Z</time>
      </trkpt>
      <trkpt lat="62.633378275848" lon="17.984116546231">
        <ele>89.4</ele>
        <time>2017-12-19T12:38:08Z</time>
      </trkpt>
      <trkpt lat="62.633386071015" lon="17.98403784019">
        <ele>90</ele>
        <time>2017-12-19T12:38:09Z</time>
      </trkpt>
      <trkpt lat="62.633390429603" lon="17.983965839669">
        <ele>90.2</ele>
        <time>2017-12-19T12:38:10Z</time>
      </trkpt>
      <trkpt lat="62.633392860354" lon="17.983887552723">
        <ele>90.6</ele>
        <time>2017-12-19T12:38:11Z</time>
      </trkpt>
      <trkpt lat="62.633404678833" lon="17.9837939269">
        <ele>90.6</ele>
        <time>2017-12-19T12:38:12Z</time>
      </trkpt>
      <trkpt lat="62.633420185348" lon="17.983709437348">
        <ele>90.6</ele>
        <time>2017-12-19T12:38:13Z</time>
      </trkpt>
      <trkpt lat="62.633435021311" lon="17.983633748791">
        <ele>90.8</ele>
        <time>2017-12-19T12:38:14Z</time>
      </trkpt>
      <trkpt lat="62.63344851617" lon="17.983570213989">
        <ele>90.6</ele>
        <time>2017-12-19T12:38:15Z</time>
      </trkpt>
      <trkpt lat="62.633456646613" lon="17.983502991151">
        <ele>90.8</ele>
        <time>2017-12-19T12:38:16Z</time>
      </trkpt>
      <trkpt lat="62.633469638558" lon="17.983429817164">
        <ele>90.8</ele>
        <time>2017-12-19T12:38:17Z</time>
      </trkpt>
      <trkpt lat="62.633485061254" lon="17.983344824698">
        <ele>91</ele>
        <time>2017-12-19T12:38:18Z</time>
      </trkpt>
      <trkpt lat="62.63349796938" lon="17.983275254928">
        <ele>91</ele>
        <time>2017-12-19T12:38:19Z</time>
      </trkpt>
      <trkpt lat="62.6335130568" lon="17.983213228868">
        <ele>91</ele>
        <time>2017-12-19T12:38:20Z</time>
      </trkpt>
      <trkpt lat="62.633519929958" lon="17.983145754573">
        <ele>91</ele>
        <time>2017-12-19T12:38:21Z</time>
      </trkpt>
      <trkpt lat="62.633536023206" lon="17.983070485111">
        <ele>91</ele>
        <time>2017-12-19T12:38:22Z</time>
      </trkpt>
      <trkpt lat="62.633549518065" lon="17.982985660283">
        <ele>91</ele>
        <time>2017-12-19T12:38:23Z</time>
      </trkpt>
      <trkpt lat="62.633566533322" lon="17.982909133536">
        <ele>91</ele>
        <time>2017-12-19T12:38:24Z</time>
      </trkpt>
      <trkpt lat="62.633582794208" lon="17.982841240146">
        <ele>91.2</ele>
        <time>2017-12-19T12:38:25Z</time>
      </trkpt>
      <trkpt lat="62.633598971275" lon="17.982775190774">
        <ele>91.2</ele>
        <time>2017-12-19T12:38:26Z</time>
      </trkpt>
      <trkpt lat="62.633612885229" lon="17.982712075067">
        <ele>91.2</ele>
        <time>2017-12-19T12:38:27Z</time>
      </trkpt>
      <trkpt lat="62.633623278785" lon="17.982649043179">
        <ele>91.2</ele>
        <time>2017-12-19T12:38:28Z</time>
      </trkpt>
      <trkpt lat="62.633634678169" lon="17.982572181156">
        <ele>91.2</ele>
        <time>2017-12-19T12:38:29Z</time>
      </trkpt>
      <trkpt lat="62.633642892431" lon="17.982492385468">
        <ele>91.2</ele>
        <time>2017-12-19T12:38:30Z</time>
      </trkpt>
      <trkpt lat="62.63364884358" lon="17.982415691083">
        <ele>91.2</ele>
        <time>2017-12-19T12:38:31Z</time>
      </trkpt>
      <trkpt lat="62.633660159145" lon="17.982345031666">
        <ele>91.2</ele>
        <time>2017-12-19T12:38:32Z</time>
      </trkpt>
      <trkpt lat="62.63367650385" lon="17.982268672557">
        <ele>91.4</ele>
        <time>2017-12-19T12:38:33Z</time>
      </trkpt>
      <trkpt lat="62.633685388664" lon="17.982196169122">
        <ele>91.4</ele>
        <time>2017-12-19T12:38:34Z</time>
      </trkpt>
      <trkpt lat="62.633687903234" lon="17.982117965995">
        <ele>91.4</ele>
        <time>2017-12-19T12:38:35Z</time>
      </trkpt>
      <trkpt lat="62.633686729768" lon="17.98204881532">
        <ele>91.4</ele>
        <time>2017-12-19T12:38:36Z</time>
      </trkpt>
      <trkpt lat="62.633689160519" lon="17.981979329369">
        <ele>91.4</ele>
        <time>2017-12-19T12:38:37Z</time>
      </trkpt>
      <trkpt lat="62.633705337586" lon="17.981917890042">
        <ele>91.4</ele>
        <time>2017-12-19T12:38:38Z</time>
      </trkpt>
      <trkpt lat="62.633713887124" lon="17.98184681153">
        <ele>91.4</ele>
        <time>2017-12-19T12:38:39Z</time>
      </trkpt>
      <trkpt lat="62.633722771938" lon="17.981788054411">
        <ele>91.6</ele>
        <time>2017-12-19T12:38:40Z</time>
      </trkpt>
      <trkpt lat="62.633729477458" lon="17.981716724442">
        <ele>91.6</ele>
        <time>2017-12-19T12:38:41Z</time>
      </trkpt>
      <trkpt lat="62.633737607901" lon="17.981647070853">
        <ele>91.6</ele>
        <time>2017-12-19T12:38:42Z</time>
      </trkpt>
      <trkpt lat="62.633740709204" lon="17.9815811053">
        <ele>91.4</ele>
        <time>2017-12-19T12:38:43Z</time>
      </trkpt>
      <trkpt lat="62.633750516027" lon="17.98149560992">
        <ele>91.4</ele>
        <time>2017-12-19T12:38:44Z</time>
      </trkpt>
      <trkpt lat="62.633752611502" lon="17.981420759553">
        <ele>91.6</ele>
        <time>2017-12-19T12:38:45Z</time>
      </trkpt>
      <trkpt lat="62.633759568479" lon="17.981351189783">
        <ele>91.6</ele>
        <time>2017-12-19T12:38:46Z</time>
      </trkpt>
      <trkpt lat="62.633771722234" lon="17.98129779708">
        <ele>91.8</ele>
        <time>2017-12-19T12:38:47Z</time>
      </trkpt>
      <trkpt lat="62.633782870161" lon="17.981233591726">
        <ele>91.8</ele>
        <time>2017-12-19T12:38:48Z</time>
      </trkpt>
      <trkpt lat="62.633794940097" lon="17.98117123039">
        <ele>92</ele>
        <time>2017-12-19T12:38:49Z</time>
      </trkpt>
      <trkpt lat="62.633810530431" lon="17.981122866827">
        <ele>91.6</ele>
        <time>2017-12-19T12:38:50Z</time>
      </trkpt>
      <trkpt lat="62.633829222068" lon="17.981085064458">
        <ele>91.8</ele>
        <time>2017-12-19T12:38:51Z</time>
      </trkpt>
      <trkpt lat="62.633842130194" lon="17.981047513546">
        <ele>91.8</ele>
        <time>2017-12-19T12:38:52Z</time>
      </trkpt>
      <trkpt lat="62.63386258203" lon="17.980997892698">
        <ele>91.8</ele>
        <time>2017-12-19T12:38:53Z</time>
      </trkpt>
      <trkpt lat="62.633881692762" lon="17.98094491909">
        <ele>92</ele>
        <time>2017-12-19T12:38:54Z</time>
      </trkpt>
      <trkpt lat="62.633896444906" lon="17.98089127493">
        <ele>92.2</ele>
        <time>2017-12-19T12:38:55Z</time>
      </trkpt>
      <trkpt lat="62.633914968905" lon="17.980843246643">
        <ele>92.4</ele>
        <time>2017-12-19T12:38:56Z</time>
      </trkpt>
      <trkpt lat="62.633934331094" lon="17.980792033234">
        <ele>92.4</ele>
        <time>2017-12-19T12:38:57Z</time>
      </trkpt>
      <trkpt lat="62.633948161229" lon="17.980747022431">
        <ele>92.4</ele>
        <time>2017-12-19T12:38:58Z</time>
      </trkpt>
      <trkpt lat="62.63397154673" lon="17.980686588932">
        <ele>92.4</ele>
        <time>2017-12-19T12:38:59Z</time>
      </trkpt>
      <trkpt lat="62.633986969426" lon="17.980638812102">
        <ele>92.4</ele>
        <time>2017-12-19T12:39:00Z</time>
      </trkpt>
      <trkpt lat="62.634006499253" lon="17.980576618404">
        <ele>92.6</ele>
        <time>2017-12-19T12:39:01Z</time>
      </trkpt>
      <trkpt lat="62.634017395723" lon="17.980523728615">
        <ele>92.6</ele>
        <time>2017-12-19T12:39:02Z</time>
      </trkpt>
      <trkpt lat="62.634033908066" lon="17.980462624564">
        <ele>92.8</ele>
        <time>2017-12-19T12:39:03Z</time>
      </trkpt>
      <trkpt lat="62.634055030454" lon="17.98041350663">
        <ele>92.8</ele>
        <time>2017-12-19T12:39:04Z</time>
      </trkpt>
      <trkpt lat="62.634073386815" lon="17.980361790307">
        <ele>93</ele>
        <time>2017-12-19T12:39:05Z</time>
      </trkpt>
      <trkpt lat="62.634098616334" lon="17.980303955197">
        <ele>93</ele>
        <time>2017-12-19T12:39:06Z</time>
      </trkpt>
      <trkpt lat="62.634120828369" lon="17.980266907199">
        <ele>93.2</ele>
        <time>2017-12-19T12:39:07Z</time>
      </trkpt>
      <trkpt lat="62.634143962413" lon="17.980213011582">
        <ele>93.2</ele>
        <time>2017-12-19T12:39:08Z</time>
      </trkpt>
      <trkpt lat="62.634168018466" lon="17.980157774861">
        <ele>93.2</ele>
        <time>2017-12-19T12:39:09Z</time>
      </trkpt>
      <trkpt lat="62.634191571605" lon="17.980109495117">
        <ele>93.2</ele>
        <time>2017-12-19T12:39:10Z</time>
      </trkpt>
      <trkpt lat="62.634218309866" lon="17.980048558704">
        <ele>93.4</ele>
        <time>2017-12-19T12:39:11Z</time>
      </trkpt>
      <trkpt lat="62.634236666227" lon="17.979986700282">
        <ele>93.2</ele>
        <time>2017-12-19T12:39:12Z</time>
      </trkpt>
      <trkpt lat="62.634260554642" lon="17.979918387797">
        <ele>93</ele>
        <time>2017-12-19T12:39:13Z</time>
      </trkpt>
      <trkpt lat="62.634283269591" lon="17.979861390877">
        <ele>93</ele>
        <time>2017-12-19T12:39:14Z</time>
      </trkpt>
      <trkpt lat="62.634297267364" lon="17.979805567423">
        <ele>93</ele>
        <time>2017-12-19T12:39:15Z</time>
      </trkpt>
      <trkpt lat="62.634315959001" lon="17.979727448115">
        <ele>93</ele>
        <time>2017-12-19T12:39:16Z</time>
      </trkpt>
      <trkpt lat="62.634328783308" lon="17.97966332658">
        <ele>93</ele>
        <time>2017-12-19T12:39:17Z</time>
      </trkpt>
      <trkpt lat="62.634344625099" lon="17.979578753209">
        <ele>93.2</ele>
        <time>2017-12-19T12:39:18Z</time>
      </trkpt>
      <trkpt lat="62.634359461062" lon="17.979498957521">
        <ele>93</ele>
        <time>2017-12-19T12:39:19Z</time>
      </trkpt>
      <trkpt lat="62.63437555431" lon="17.97943114795">
        <ele>93</ele>
        <time>2017-12-19T12:39:20Z</time>
      </trkpt>
      <trkpt lat="62.634389719721" lon="17.979362248732">
        <ele>93</ele>
        <time>2017-12-19T12:39:21Z</time>
      </trkpt>
      <trkpt lat="62.634401789657" lon="17.979296869912">
        <ele>93</ele>
        <time>2017-12-19T12:39:22Z</time>
      </trkpt>
      <trkpt lat="62.634408830453" lon="17.979237190784">
        <ele>93</ele>
        <time>2017-12-19T12:39:23Z</time>
      </trkpt>
      <trkpt lat="62.634424253149" lon="17.979180780597">
        <ele>93</ele>
        <time>2017-12-19T12:39:24Z</time>
      </trkpt>
      <trkpt lat="62.634436658361" lon="17.979134009595">
        <ele>93</ele>
        <time>2017-12-19T12:39:25Z</time>
      </trkpt>
      <trkpt lat="62.634452332514" lon="17.979066702938">
        <ele>93</ele>
        <time>2017-12-19T12:39:26Z</time>
      </trkpt>
      <trkpt lat="62.634464234812" lon="17.97900367105">
        <ele>93.2</ele>
        <time>2017-12-19T12:39:27Z</time>
      </trkpt>
      <trkpt lat="62.634492397996" lon="17.978890012486">
        <ele>93.2</ele>
        <time>2017-12-19T12:39:29Z</time>
      </trkpt>
      <trkpt lat="62.634512682194" lon="17.978847851529">
        <ele>93.2</ele>
        <time>2017-12-19T12:39:30Z</time>
      </trkpt>
      <trkpt lat="62.634537827894" lon="17.978811641721">
        <ele>93.2</ele>
        <time>2017-12-19T12:39:31Z</time>
      </trkpt>
      <trkpt lat="62.634560626662" lon="17.978786160745">
        <ele>93</ele>
        <time>2017-12-19T12:39:32Z</time>
      </trkpt>
      <trkpt lat="62.634587448742" lon="17.978760512131">
        <ele>93.2</ele>
        <time>2017-12-19T12:39:33Z</time>
      </trkpt>
      <trkpt lat="62.634610750424" lon="17.978756069724">
        <ele>93</ele>
        <time>2017-12-19T12:39:34Z</time>
      </trkpt>
      <trkpt lat="62.634639835617" lon="17.978766798556">
        <ele>93</ele>
        <time>2017-12-19T12:39:35Z</time>
      </trkpt>
      <trkpt lat="62.634670094276" lon="17.978777275931">
        <ele>93</ele>
        <time>2017-12-19T12:39:36Z</time>
      </trkpt>
      <trkpt lat="62.634697670727" lon="17.978790100238">
        <ele>92.8</ele>
        <time>2017-12-19T12:39:37Z</time>
      </trkpt>
      <trkpt lat="62.63473178506" lon="17.978806780219">
        <ele>92.8</ele>
        <time>2017-12-19T12:39:38Z</time>
      </trkpt>
      <trkpt lat="62.634767659592" lon="17.97881675468">
        <ele>92.8</ele>
        <time>2017-12-19T12:39:39Z</time>
      </trkpt>
      <trkpt lat="62.634804037038" lon="17.97883016572">
        <ele>92.8</ele>
        <time>2017-12-19T12:39:40Z</time>
      </trkpt>
      <trkpt lat="62.634845108348" lon="17.978843995855">
        <ele>92.8</ele>
        <time>2017-12-19T12:39:41Z</time>
      </trkpt>
      <trkpt lat="62.634879474138" lon="17.978857323076">
        <ele>92.6</ele>
        <time>2017-12-19T12:39:42Z</time>
      </trkpt>
      <trkpt lat="62.634916689774" lon="17.97887207522">
        <ele>92.4</ele>
        <time>2017-12-19T12:39:43Z</time>
      </trkpt>
      <trkpt lat="62.634947702804" lon="17.978888755201">
        <ele>92.2</ele>
        <time>2017-12-19T12:39:44Z</time>
      </trkpt>
      <trkpt lat="62.634981314223" lon="17.978906273372">
        <ele>92</ele>
        <time>2017-12-19T12:39:45Z</time>
      </trkpt>
      <trkpt lat="62.635009393588" lon="17.97891985205">
        <ele>92</ele>
        <time>2017-12-19T12:39:46Z</time>
      </trkpt>
      <trkpt lat="62.635040322799" lon="17.97893493947">
        <ele>92</ele>
        <time>2017-12-19T12:39:47Z</time>
      </trkpt>
      <trkpt lat="62.635081142652" lon="17.978955978039">
        <ele>92</ele>
        <time>2017-12-19T12:39:48Z</time>
      </trkpt>
      <trkpt lat="62.63511735246" lon="17.978968634708">
        <ele>92</ele>
        <time>2017-12-19T12:39:49Z</time>
      </trkpt>
      <trkpt lat="62.635153226992" lon="17.978982381024">
        <ele>92</ele>
        <time>2017-12-19T12:39:50Z</time>
      </trkpt>
      <trkpt lat="62.635193292474" lon="17.978995875883">
        <ele>91.8</ele>
        <time>2017-12-19T12:39:51Z</time>
      </trkpt>
      <trkpt lat="62.635223718771" lon="17.979003335774">
        <ele>91.8</ele>
        <time>2017-12-19T12:39:52Z</time>
      </trkpt>
      <trkpt lat="62.635265544452" lon="17.97901121476">
        <ele>91.6</ele>
        <time>2017-12-19T12:39:53Z</time>
      </trkpt>
      <trkpt lat="62.635303849735" lon="17.979015154253">
        <ele>91.4</ele>
        <time>2017-12-19T12:39:54Z</time>
      </trkpt>
      <trkpt lat="62.635342490294" lon="17.979019429022">
        <ele>91.2</ele>
        <time>2017-12-19T12:39:55Z</time>
      </trkpt>
      <trkpt lat="62.635381298491" lon="17.979026050723">
        <ele>91.2</ele>
        <time>2017-12-19T12:39:56Z</time>
      </trkpt>
      <trkpt lat="62.635419017041" lon="17.979030576949">
        <ele>91</ele>
        <time>2017-12-19T12:39:57Z</time>
      </trkpt>
      <trkpt lat="62.635461932369" lon="17.979028900569">
        <ele>91</ele>
        <time>2017-12-19T12:39:58Z</time>
      </trkpt>
      <trkpt lat="62.635505182973" lon="17.979022195049">
        <ele>90.8</ele>
        <time>2017-12-19T12:39:59Z</time>
      </trkpt>
      <trkpt lat="62.63554734393" lon="17.979012974959">
        <ele>90.6</ele>
        <time>2017-12-19T12:40:00Z</time>
      </trkpt>
      <trkpt lat="62.635589588706" lon="17.979007778181">
        <ele>90.4</ele>
        <time>2017-12-19T12:40:01Z</time>
      </trkpt>
      <trkpt lat="62.635627474894" lon="17.97900870019">
        <ele>90.2</ele>
        <time>2017-12-19T12:40:02Z</time>
      </trkpt>
      <trkpt lat="62.635673994439" lon="17.97901037657">
        <ele>90</ele>
        <time>2017-12-19T12:40:03Z</time>
      </trkpt>
      <trkpt lat="62.635711126256" lon="17.979011633855">
        <ele>89.6</ele>
        <time>2017-12-19T12:40:04Z</time>
      </trkpt>
      <trkpt lat="62.635750102091" lon="17.979013561692">
        <ele>89.4</ele>
        <time>2017-12-19T12:40:05Z</time>
      </trkpt>
      <trkpt lat="62.635786144261" lon="17.979010879484">
        <ele>89.2</ele>
        <time>2017-12-19T12:40:06Z</time>
      </trkpt>
      <trkpt lat="62.635816905834" lon="17.979015908624">
        <ele>89</ele>
        <time>2017-12-19T12:40:07Z</time>
      </trkpt>
      <trkpt lat="62.635849762882" lon="17.979013142597">
        <ele>89</ele>
        <time>2017-12-19T12:40:08Z</time>
      </trkpt>
      <trkpt lat="62.635878512799" lon="17.979021440678">
        <ele>88.8</ele>
        <time>2017-12-19T12:40:09Z</time>
      </trkpt>
      <trkpt lat="62.635902233576" lon="17.97902965494">
        <ele>88.6</ele>
        <time>2017-12-19T12:40:10Z</time>
      </trkpt>
      <trkpt lat="62.635921260489" lon="17.979035857546">
        <ele>88.6</ele>
        <time>2017-12-19T12:40:11Z</time>
      </trkpt>
      <trkpt lat="62.635940203583" lon="17.979041641057">
        <ele>88.6</ele>
        <time>2017-12-19T12:40:12Z</time>
      </trkpt>
      <trkpt lat="62.635959314315" lon="17.979046586378">
        <ele>88.8</ele>
        <time>2017-12-19T12:40:13Z</time>
      </trkpt>
      <trkpt lat="62.635973898821" lon="17.979049352405">
        <ele>88.8</ele>
        <time>2017-12-19T12:40:14Z</time>
      </trkpt>
      <trkpt lat="62.635991919906" lon="17.979053543355">
        <ele>89</ele>
        <time>2017-12-19T12:40:15Z</time>
      </trkpt>
      <trkpt lat="62.636008180792" lon="17.97905982978">
        <ele>89</ele>
        <time>2017-12-19T12:40:16Z</time>
      </trkpt>
      <trkpt lat="62.636021424194" lon="17.979066870576">
        <ele>89</ele>
        <time>2017-12-19T12:40:17Z</time>
      </trkpt>
      <trkpt lat="62.636034416139" lon="17.979075001019">
        <ele>89</ele>
        <time>2017-12-19T12:40:18Z</time>
      </trkpt>
      <trkpt lat="62.636031733931" lon="17.979084053471">
        <ele>89.2</ele>
        <time>2017-12-19T12:40:19Z</time>
      </trkpt>
      <trkpt lat="62.636035086691" lon="17.979092267733">
        <ele>89.2</ele>
        <time>2017-12-19T12:40:20Z</time>
      </trkpt>
      <trkpt lat="62.636036427795" lon="17.979107774248">
        <ele>89.2</ele>
        <time>2017-12-19T12:40:22Z</time>
      </trkpt>
      <trkpt lat="62.636039026184" lon="17.979127890808">
        <ele>89.2</ele>
        <time>2017-12-19T12:40:23Z</time>
      </trkpt>
      <trkpt lat="62.636038607089" lon="17.979166950462">
        <ele>89.2</ele>
        <time>2017-12-19T12:40:24Z</time>
      </trkpt>
      <trkpt lat="62.636031985388" lon="17.979213470007">
        <ele>89.2</ele>
        <time>2017-12-19T12:40:25Z</time>
      </trkpt>
      <trkpt lat="62.636022346203" lon="17.97927189185">
        <ele>89</ele>
        <time>2017-12-19T12:40:26Z</time>
      </trkpt>
      <trkpt lat="62.636016059778" lon="17.979330984245">
        <ele>88.8</ele>
        <time>2017-12-19T12:40:27Z</time>
      </trkpt>
      <trkpt lat="62.636014551036" lon="17.979397117436">
        <ele>89</ele>
        <time>2017-12-19T12:40:28Z</time>
      </trkpt>
      <trkpt lat="62.63600499567" lon="17.979481271712">
        <ele>89</ele>
        <time>2017-12-19T12:40:29Z</time>
      </trkpt>
      <trkpt lat="62.635992506639" lon="17.979599205045">
        <ele>89</ele>
        <time>2017-12-19T12:40:30Z</time>
      </trkpt>
      <trkpt lat="62.635986974585" lon="17.97974295463">
        <ele>88.8</ele>
        <time>2017-12-19T12:40:31Z</time>
      </trkpt>
      <trkpt lat="62.635982029264" lon="17.979876645935">
        <ele>88.4</ele>
        <time>2017-12-19T12:40:32Z</time>
      </trkpt>
      <trkpt lat="62.635988315689" lon="17.980027603954">
        <ele>87.6</ele>
        <time>2017-12-19T12:40:33Z</time>
      </trkpt>
      <trkpt lat="62.636005330946" lon="17.980165150933">
        <ele>86.8</ele>
        <time>2017-12-19T12:40:34Z</time>
      </trkpt>
      <trkpt lat="62.636026956248" lon="17.980322311558">
        <ele>85.8</ele>
        <time>2017-12-19T12:40:35Z</time>
      </trkpt>
      <trkpt lat="62.636049671197" lon="17.980461786374">
        <ele>84.8</ele>
        <time>2017-12-19T12:40:36Z</time>
      </trkpt>
      <trkpt lat="62.636071799413" lon="17.98058785015">
        <ele>84.2</ele>
        <time>2017-12-19T12:40:37Z</time>
      </trkpt>
      <trkpt lat="62.636100716968" lon="17.980732521744">
        <ele>83.4</ele>
        <time>2017-12-19T12:40:38Z</time>
      </trkpt>
      <trkpt lat="62.6361282096" lon="17.980870990732">
        <ele>82.8</ele>
        <time>2017-12-19T12:40:39Z</time>
      </trkpt>
      <trkpt lat="62.636147990884" lon="17.981000155811">
        <ele>82.4</ele>
        <time>2017-12-19T12:40:40Z</time>
      </trkpt>
      <trkpt lat="62.636168358901" lon="17.981129069433">
        <ele>82.2</ele>
        <time>2017-12-19T12:40:41Z</time>
      </trkpt>
      <trkpt lat="62.63618604471" lon="17.981234681373">
        <ele>82</ele>
        <time>2017-12-19T12:40:42Z</time>
      </trkpt>
      <trkpt lat="62.636201886501" lon="17.981355548371">
        <ele>81.8</ele>
        <time>2017-12-19T12:40:43Z</time>
      </trkpt>
      <trkpt lat="62.636212615333" lon="17.981465770356">
        <ele>81.4</ele>
        <time>2017-12-19T12:40:44Z</time>
      </trkpt>
      <trkpt lat="62.636225774916" lon="17.981568197174">
        <ele>81.2</ele>
        <time>2017-12-19T12:40:45Z</time>
      </trkpt>
      <trkpt lat="62.636233234807" lon="17.981661906816">
        <ele>81</ele>
        <time>2017-12-19T12:40:46Z</time>
      </trkpt>
      <trkpt lat="62.636239353594" lon="17.98175628701">
        <ele>80.8</ele>
        <time>2017-12-19T12:40:47Z</time>
      </trkpt>
      <trkpt lat="62.636244131277" lon="17.981883943347">
        <ele>80.8</ele>
        <time>2017-12-19T12:40:48Z</time>
      </trkpt>
      <trkpt lat="62.636252596996" lon="17.981993243323">
        <ele>80.8</ele>
        <time>2017-12-19T12:40:49Z</time>
      </trkpt>
      <trkpt lat="62.636264750751" lon="17.982095837779">
        <ele>81</ele>
        <time>2017-12-19T12:40:50Z</time>
      </trkpt>
      <trkpt lat="62.63627405466" lon="17.982190301792">
        <ele>81.2</ele>
        <time>2017-12-19T12:40:51Z</time>
      </trkpt>
      <trkpt lat="62.636281682189" lon="17.982275210439">
        <ele>81.4</ele>
        <time>2017-12-19T12:40:52Z</time>
      </trkpt>
      <trkpt lat="62.636292075745" lon="17.982371434651">
        <ele>81.6</ele>
        <time>2017-12-19T12:40:53Z</time>
      </trkpt>
      <trkpt lat="62.636294255039" lon="17.982467407406">
        <ele>81.8</ele>
        <time>2017-12-19T12:40:54Z</time>
      </trkpt>
      <trkpt lat="62.636296266695" lon="17.982557177555">
        <ele>81.8</ele>
        <time>2017-12-19T12:40:55Z</time>
      </trkpt>
      <trkpt lat="62.63629333303" lon="17.982637643795">
        <ele>81.8</ele>
        <time>2017-12-19T12:40:56Z</time>
      </trkpt>
      <trkpt lat="62.636287968614" lon="17.982717271845">
        <ele>81.8</ele>
        <time>2017-12-19T12:40:57Z</time>
      </trkpt>
      <trkpt lat="62.636289225899" lon="17.982801761397">
        <ele>81.6</ele>
        <time>2017-12-19T12:40:58Z</time>
      </trkpt>
      <trkpt lat="62.636288890623" lon="17.982883736379">
        <ele>81.8</ele>
        <time>2017-12-19T12:40:59Z</time>
      </trkpt>
      <trkpt lat="62.636290064089" lon="17.982959844031">
        <ele>81.8</ele>
        <time>2017-12-19T12:41:00Z</time>
      </trkpt>
      <trkpt lat="62.636292578659" lon="17.983031844552">
        <ele>81.8</ele>
        <time>2017-12-19T12:41:01Z</time>
      </trkpt>
      <trkpt lat="62.636290483184" lon="17.983102001055">
        <ele>81.8</ele>
        <time>2017-12-19T12:41:02Z</time>
      </trkpt>
      <trkpt lat="62.636289309718" lon="17.983181964381">
        <ele>82</ele>
        <time>2017-12-19T12:41:03Z</time>
      </trkpt>
      <trkpt lat="62.63629752398" lon="17.983246002097">
        <ele>82</ele>
        <time>2017-12-19T12:41:04Z</time>
      </trkpt>
      <trkpt lat="62.636300290007" lon="17.983318505532">
        <ele>82.2</ele>
        <time>2017-12-19T12:41:05Z</time>
      </trkpt>
      <trkpt lat="62.636300792921" lon="17.983385225456">
        <ele>82.2</ele>
        <time>2017-12-19T12:41:06Z</time>
      </trkpt>
      <trkpt lat="62.636300290007" lon="17.983440126901">
        <ele>82.2</ele>
        <time>2017-12-19T12:41:07Z</time>
      </trkpt>
      <trkpt lat="62.63629500941" lon="17.983504835169">
        <ele>82.2</ele>
        <time>2017-12-19T12:41:08Z</time>
      </trkpt>
      <trkpt lat="62.636287298062" lon="17.98356929198">
        <ele>82.2</ele>
        <time>2017-12-19T12:41:09Z</time>
      </trkpt>
      <trkpt lat="62.636285705501" lon="17.983616062982">
        <ele>82.2</ele>
        <time>2017-12-19T12:41:10Z</time>
      </trkpt>
      <trkpt lat="62.636280005809" lon="17.983678843413">
        <ele>82.4</ele>
        <time>2017-12-19T12:41:11Z</time>
      </trkpt>
      <trkpt lat="62.636269779891" lon="17.983741623844">
        <ele>82.6</ele>
        <time>2017-12-19T12:41:12Z</time>
      </trkpt>
      <trkpt lat="62.636260056887" lon="17.983799542773">
        <ele>82.8</ele>
        <time>2017-12-19T12:41:13Z</time>
      </trkpt>
      <trkpt lat="62.636252094082" lon="17.983858551349">
        <ele>83</ele>
        <time>2017-12-19T12:41:14Z</time>
      </trkpt>
      <trkpt lat="62.63624387982" lon="17.983903981247">
        <ele>83</ele>
        <time>2017-12-19T12:41:15Z</time>
      </trkpt>
      <trkpt lat="62.636236419929" lon="17.983948656774">
        <ele>83.2</ele>
        <time>2017-12-19T12:41:16Z</time>
      </trkpt>
      <trkpt lat="62.63622711602" lon="17.984003222943">
        <ele>83</ele>
        <time>2017-12-19T12:41:17Z</time>
      </trkpt>
      <trkpt lat="62.636218315025" lon="17.98405963313">
        <ele>83.2</ele>
        <time>2017-12-19T12:41:18Z</time>
      </trkpt>
      <trkpt lat="62.636211860962" lon="17.984113193471">
        <ele>83.2</ele>
        <time>2017-12-19T12:41:19Z</time>
      </trkpt>
      <trkpt lat="62.63621286679" lon="17.984165664165">
        <ele>83.2</ele>
        <time>2017-12-19T12:41:20Z</time>
      </trkpt>
      <trkpt lat="62.636209178754" lon="17.984216961393">
        <ele>83.4</ele>
        <time>2017-12-19T12:41:21Z</time>
      </trkpt>
      <trkpt lat="62.636203311424" lon="17.984266582241">
        <ele>83.4</ele>
        <time>2017-12-19T12:41:22Z</time>
      </trkpt>
      <trkpt lat="62.636201635044" lon="17.984321735143">
        <ele>83.6</ele>
        <time>2017-12-19T12:41:23Z</time>
      </trkpt>
      <trkpt lat="62.636197695551" lon="17.984382755375">
        <ele>83.6</ele>
        <time>2017-12-19T12:41:24Z</time>
      </trkpt>
      <trkpt lat="62.636194761886" lon="17.98443681863">
        <ele>83.8</ele>
        <time>2017-12-19T12:41:25Z</time>
      </trkpt>
      <trkpt lat="62.63619945575" lon="17.984488618772">
        <ele>83.8</ele>
        <time>2017-12-19T12:41:26Z</time>
      </trkpt>
      <trkpt lat="62.63619777937" lon="17.984541089466">
        <ele>84</ele>
        <time>2017-12-19T12:41:27Z</time>
      </trkpt>
      <trkpt lat="62.636197024999" lon="17.984595655635">
        <ele>84</ele>
        <time>2017-12-19T12:41:28Z</time>
      </trkpt>
      <trkpt lat="62.636192666411" lon="17.984653658383">
        <ele>84</ele>
        <time>2017-12-19T12:41:29Z</time>
      </trkpt>
      <trkpt lat="62.636186799081" lon="17.984705542344">
        <ele>84</ele>
        <time>2017-12-19T12:41:30Z</time>
      </trkpt>
      <trkpt lat="62.636187134357" lon="17.984750469328">
        <ele>84.2</ele>
        <time>2017-12-19T12:41:31Z</time>
      </trkpt>
      <trkpt lat="62.636185290339" lon="17.984801515099">
        <ele>84.2</ele>
        <time>2017-12-19T12:41:32Z</time>
      </trkpt>
      <trkpt lat="62.636183278683" lon="17.984864882263">
        <ele>84.4</ele>
        <time>2017-12-19T12:41:33Z</time>
      </trkpt>
      <trkpt lat="62.636180428837" lon="17.984909222514">
        <ele>84.6</ele>
        <time>2017-12-19T12:41:34Z</time>
      </trkpt>
      <trkpt lat="62.636177578991" lon="17.984964626873">
        <ele>84.8</ele>
        <time>2017-12-19T12:41:35Z</time>
      </trkpt>
      <trkpt lat="62.636177830448" lon="17.985014750635">
        <ele>84.8</ele>
        <time>2017-12-19T12:41:36Z</time>
      </trkpt>
      <trkpt lat="62.636173974774" lon="17.985057498325">
        <ele>85</ele>
        <time>2017-12-19T12:41:37Z</time>
      </trkpt>
      <trkpt lat="62.636169616186" lon="17.985107286811">
        <ele>85</ele>
        <time>2017-12-19T12:41:38Z</time>
      </trkpt>
      <trkpt lat="62.636169700005" lon="17.985163696998">
        <ele>85</ele>
        <time>2017-12-19T12:41:39Z</time>
      </trkpt>
      <trkpt lat="62.636170370557" lon="17.985205857955">
        <ele>85</ele>
        <time>2017-12-19T12:41:40Z</time>
      </trkpt>
      <trkpt lat="62.636169364729" lon="17.98526495035">
        <ele>85</ele>
        <time>2017-12-19T12:41:41Z</time>
      </trkpt>
      <trkpt lat="62.636165509055" lon="17.985315074112">
        <ele>85</ele>
        <time>2017-12-19T12:41:42Z</time>
      </trkpt>
      <trkpt lat="62.636162994485" lon="17.985372741584">
        <ele>85.2</ele>
        <time>2017-12-19T12:41:43Z</time>
      </trkpt>
      <trkpt lat="62.636161066648" lon="17.985416411283">
        <ele>85.2</ele>
        <time>2017-12-19T12:41:44Z</time>
      </trkpt>
      <trkpt lat="62.636157797707" lon="17.985476593325">
        <ele>85.4</ele>
        <time>2017-12-19T12:41:45Z</time>
      </trkpt>
      <trkpt lat="62.63615503168" lon="17.985538535566">
        <ele>85.4</ele>
        <time>2017-12-19T12:41:46Z</time>
      </trkpt>
      <trkpt lat="62.636147655608" lon="17.985596203038">
        <ele>85.4</ele>
        <time>2017-12-19T12:41:47Z</time>
      </trkpt>
      <trkpt lat="62.63613407693" lon="17.98565554689">
        <ele>85.6</ele>
        <time>2017-12-19T12:41:48Z</time>
      </trkpt>
      <trkpt lat="62.636125527392" lon="17.985694271268">
        <ele>85.6</ele>
        <time>2017-12-19T12:41:49Z</time>
      </trkpt>
      <trkpt lat="62.636114128008" lon="17.985731738361">
        <ele>85.6</ele>
        <time>2017-12-19T12:41:50Z</time>
      </trkpt>
      <trkpt lat="62.636100465511" lon="17.98576870254">
        <ele>85.8</ele>
        <time>2017-12-19T12:41:51Z</time>
      </trkpt>
      <trkpt lat="62.636087808842" lon="17.985809606212">
        <ele>85.8</ele>
        <time>2017-12-19T12:41:52Z</time>
      </trkpt>
      <trkpt lat="62.636073475793" lon="17.985842211803">
        <ele>85.8</ele>
        <time>2017-12-19T12:41:53Z</time>
      </trkpt>
      <trkpt lat="62.636057885459" lon="17.98586844715">
        <ele>86</ele>
        <time>2017-12-19T12:41:54Z</time>
      </trkpt>
      <trkpt lat="62.636039026184" lon="17.985886468235">
        <ele>86</ele>
        <time>2017-12-19T12:41:55Z</time>
      </trkpt>
      <trkpt lat="62.636016897968" lon="17.985911111021">
        <ele>86.2</ele>
        <time>2017-12-19T12:41:56Z</time>
      </trkpt>
      <trkpt lat="62.636001894367" lon="17.985937094911">
        <ele>86.2</ele>
        <time>2017-12-19T12:41:57Z</time>
      </trkpt>
      <trkpt lat="62.635982448359" lon="17.985957714385">
        <ele>86.4</ele>
        <time>2017-12-19T12:41:58Z</time>
      </trkpt>
      <trkpt lat="62.635965768378" lon="17.985975903108">
        <ele>86.4</ele>
        <time>2017-12-19T12:41:59Z</time>
      </trkpt>
      <trkpt lat="62.635952692614" lon="17.98599166108">
        <ele>86.6</ele>
        <time>2017-12-19T12:42:00Z</time>
      </trkpt>
      <trkpt lat="62.635934420072" lon="17.986008927794">
        <ele>86.6</ele>
        <time>2017-12-19T12:42:01Z</time>
      </trkpt>
      <trkpt lat="62.635910699295" lon="17.986035498417">
        <ele>86.6</ele>
        <time>2017-12-19T12:42:02Z</time>
      </trkpt>
      <trkpt lat="62.635889576907" lon="17.986067014361">
        <ele>86.8</ele>
        <time>2017-12-19T12:42:03Z</time>
      </trkpt>
      <trkpt lat="62.635867197234" lon="17.986096602468">
        <ele>86.8</ele>
        <time>2017-12-19T12:42:04Z</time>
      </trkpt>
      <trkpt lat="62.635839453145" lon="17.986134069561">
        <ele>86.8</ele>
        <time>2017-12-19T12:42:05Z</time>
      </trkpt>
      <trkpt lat="62.635811541418" lon="17.986169608817">
        <ele>87</ele>
        <time>2017-12-19T12:42:06Z</time>
      </trkpt>
      <trkpt lat="62.635790502849" lon="17.986199029286">
        <ele>87</ele>
        <time>2017-12-19T12:42:07Z</time>
      </trkpt>
      <trkpt lat="62.635773739049" lon="17.98622803066">
        <ele>87.2</ele>
        <time>2017-12-19T12:42:08Z</time>
      </trkpt>
      <trkpt lat="62.635758400172" lon="17.986249488324">
        <ele>87.4</ele>
        <time>2017-12-19T12:42:09Z</time>
      </trkpt>
      <trkpt lat="62.635743396571" lon="17.986269437246">
        <ele>87.4</ele>
        <time>2017-12-19T12:42:10Z</time>
      </trkpt>
      <trkpt lat="62.635730404626" lon="17.986298857715">
        <ele>87.6</ele>
        <time>2017-12-19T12:42:11Z</time>
      </trkpt>
      <trkpt lat="62.635715317206" lon="17.986328529641">
        <ele>87.8</ele>
        <time>2017-12-19T12:42:12Z</time>
      </trkpt>
      <trkpt lat="62.635697882854" lon="17.986358955938">
        <ele>88</ele>
        <time>2017-12-19T12:42:13Z</time>
      </trkpt>
      <trkpt lat="62.635684723271" lon="17.986388208769">
        <ele>88.2</ele>
        <time>2017-12-19T12:42:14Z</time>
      </trkpt>
      <trkpt lat="62.635669887308" lon="17.9864258435">
        <ele>88.2</ele>
        <time>2017-12-19T12:42:15Z</time>
      </trkpt>
      <trkpt lat="62.635656979182" lon="17.986469094104">
        <ele>88.4</ele>
        <time>2017-12-19T12:42:16Z</time>
      </trkpt>
      <trkpt lat="62.635639796287" lon="17.986504381903">
        <ele>88.4</ele>
        <time>2017-12-19T12:42:17Z</time>
      </trkpt>
      <trkpt lat="62.635618841537" lon="17.986552577828">
        <ele>88.4</ele>
        <time>2017-12-19T12:42:18Z</time>
      </trkpt>
      <trkpt lat="62.63560350266" lon="17.986595409337">
        <ele>88.4</ele>
        <time>2017-12-19T12:42:19Z</time>
      </trkpt>
      <trkpt lat="62.635589756344" lon="17.986636313009">
        <ele>88.4</ele>
        <time>2017-12-19T12:42:20Z</time>
      </trkpt>
      <trkpt lat="62.63557416601" lon="17.986684676572">
        <ele>88.6</ele>
        <time>2017-12-19T12:42:21Z</time>
      </trkpt>
      <trkpt lat="62.635564191549" lon="17.98672675371">
        <ele>88.4</ele>
        <time>2017-12-19T12:42:22Z</time>
      </trkpt>
      <trkpt lat="62.635550780509" lon="17.986778972947">
        <ele>88.6</ele>
        <time>2017-12-19T12:42:23Z</time>
      </trkpt>
      <trkpt lat="62.635539381125" lon="17.986816356221">
        <ele>88.6</ele>
        <time>2017-12-19T12:42:24Z</time>
      </trkpt>
      <trkpt lat="62.635522868782" lon="17.986855918789">
        <ele>88.6</ele>
        <time>2017-12-19T12:42:25Z</time>
      </trkpt>
      <trkpt lat="62.635502668403" lon="17.986898079746">
        <ele>88.8</ele>
        <time>2017-12-19T12:42:26Z</time>
      </trkpt>
      <trkpt lat="62.635492442485" lon="17.986940911255">
        <ele>89</ele>
        <time>2017-12-19T12:42:27Z</time>
      </trkpt>
      <trkpt lat="62.635479031445" lon="17.986985586782">
        <ele>89.2</ele>
        <time>2017-12-19T12:42:28Z</time>
      </trkpt>
      <trkpt lat="62.635465285129" lon="17.987019701115">
        <ele>89.4</ele>
        <time>2017-12-19T12:42:29Z</time>
      </trkpt>
      <trkpt lat="62.635454053383" lon="17.987051049421">
        <ele>89.4</ele>
        <time>2017-12-19T12:42:30Z</time>
      </trkpt>
      <trkpt lat="62.635437708678" lon="17.987084325564">
        <ele>89.4</ele>
        <time>2017-12-19T12:42:31Z</time>
      </trkpt>
      <trkpt lat="62.635422537439" lon="17.987113578395">
        <ele>89.4</ele>
        <time>2017-12-19T12:42:32Z</time>
      </trkpt>
      <trkpt lat="62.635410383684" lon="17.987143753235">
        <ele>89.6</ele>
        <time>2017-12-19T12:42:33Z</time>
      </trkpt>
      <trkpt lat="62.635397978472" lon="17.987177029378">
        <ele>89.6</ele>
        <time>2017-12-19T12:42:34Z</time>
      </trkpt>
      <trkpt lat="62.635381214672" lon="17.987218184507">
        <ele>89.6</ele>
        <time>2017-12-19T12:42:35Z</time>
      </trkpt>
      <trkpt lat="62.635368390365" lon="17.98725062246">
        <ele>89.6</ele>
        <time>2017-12-19T12:42:36Z</time>
      </trkpt>
      <trkpt lat="62.635351626565" lon="17.987287335182">
        <ele>89.6</ele>
        <time>2017-12-19T12:42:37Z</time>
      </trkpt>
      <trkpt lat="62.635337377335" lon="17.987336788392">
        <ele>89.6</ele>
        <time>2017-12-19T12:42:38Z</time>
      </trkpt>
      <trkpt lat="62.635328241064" lon="17.987368388155">
        <ele>89.8</ele>
        <time>2017-12-19T12:42:39Z</time>
      </trkpt>
      <trkpt lat="62.635314578567" lon="17.987391941294">
        <ele>90</ele>
        <time>2017-12-19T12:42:40Z</time>
      </trkpt>
      <trkpt lat="62.635296222206" lon="17.987431420043">
        <ele>90</ele>
        <time>2017-12-19T12:42:41Z</time>
      </trkpt>
      <trkpt lat="62.635280045139" lon="17.987460421417">
        <ele>90</ele>
        <time>2017-12-19T12:42:42Z</time>
      </trkpt>
      <trkpt lat="62.635255150896" lon="17.987500486899">
        <ele>90.2</ele>
        <time>2017-12-19T12:42:43Z</time>
      </trkpt>
      <trkpt lat="62.635236459259" lon="17.987555304525">
        <ele>90.4</ele>
        <time>2017-12-19T12:42:44Z</time>
      </trkpt>
      <trkpt lat="62.635219444002" lon="17.987589921772">
        <ele>90.4</ele>
        <time>2017-12-19T12:42:45Z</time>
      </trkpt>
      <trkpt lat="62.635201422917" lon="17.987623784648">
        <ele>90.6</ele>
        <time>2017-12-19T12:42:46Z</time>
      </trkpt>
      <trkpt lat="62.635190694085" lon="17.987646080502">
        <ele>90.6</ele>
        <time>2017-12-19T12:42:47Z</time>
      </trkpt>
      <trkpt lat="62.635177199226" lon="17.987674830419">
        <ele>90.8</ele>
        <time>2017-12-19T12:42:48Z</time>
      </trkpt>
      <trkpt lat="62.635159345779" lon="17.987710537313">
        <ele>91</ele>
        <time>2017-12-19T12:42:49Z</time>
      </trkpt>
      <trkpt lat="62.635142330522" lon="17.987740628334">
        <ele>91</ele>
        <time>2017-12-19T12:42:50Z</time>
      </trkpt>
      <trkpt lat="62.635126237274" lon="17.987768456242">
        <ele>91.2</ele>
        <time>2017-12-19T12:42:51Z</time>
      </trkpt>
      <trkpt lat="62.635106623628" lon="17.987799217815">
        <ele>91.2</ele>
        <time>2017-12-19T12:42:52Z</time>
      </trkpt>
      <trkpt lat="62.635091955303" lon="17.987831571949">
        <ele>91.4</ele>
        <time>2017-12-19T12:42:53Z</time>
      </trkpt>
      <trkpt lat="62.635080388281" lon="17.987856214735">
        <ele>91.4</ele>
        <time>2017-12-19T12:42:54Z</time>
      </trkpt>
      <trkpt lat="62.63506287011" lon="17.987883875005">
        <ele>91.6</ele>
        <time>2017-12-19T12:42:55Z</time>
      </trkpt>
      <trkpt lat="62.63504610631" lon="17.987917318786">
        <ele>91.6</ele>
        <time>2017-12-19T12:42:56Z</time>
      </trkpt>
      <trkpt lat="62.635034539288" lon="17.987938022079">
        <ele>91.8</ele>
        <time>2017-12-19T12:42:57Z</time>
      </trkpt>
      <trkpt lat="62.635014506547" lon="17.987964005969">
        <ele>91.8</ele>
        <time>2017-12-19T12:42:58Z</time>
      </trkpt>
      <trkpt lat="62.63499832948" lon="17.987994432266">
        <ele>91.8</ele>
        <time>2017-12-19T12:42:59Z</time>
      </trkpt>
      <trkpt lat="62.634976871816" lon="17.98802427183">
        <ele>91.8</ele>
        <time>2017-12-19T12:43:00Z</time>
      </trkpt>
      <trkpt lat="62.634949798279" lon="17.988052099738">
        <ele>92</ele>
        <time>2017-12-19T12:43:01Z</time>
      </trkpt>
      <trkpt lat="62.63492708333" lon="17.988068779719">
        <ele>92</ele>
        <time>2017-12-19T12:43:02Z</time>
      </trkpt>
      <trkpt lat="62.634910990082" lon="17.988086884623">
        <ele>92.2</ele>
        <time>2017-12-19T12:43:03Z</time>
      </trkpt>
      <trkpt lat="62.634896992309" lon="17.988101133853">
        <ele>92.2</ele>
        <time>2017-12-19T12:43:04Z</time>
      </trkpt>
      <trkpt lat="62.634871176057" lon="17.988121166594">
        <ele>92.4</ele>
        <time>2017-12-19T12:43:05Z</time>
      </trkpt>
      <trkpt lat="62.634847622918" lon="17.98813491291">
        <ele>92.8</ele>
        <time>2017-12-19T12:43:06Z</time>
      </trkpt>
      <trkpt lat="62.63483152967" lon="17.988144300638">
        <ele>92.8</ele>
        <time>2017-12-19T12:43:07Z</time>
      </trkpt>
      <trkpt lat="62.634807054522" lon="17.988150419425">
        <ele>93</ele>
        <time>2017-12-19T12:43:08Z</time>
      </trkpt>
      <trkpt lat="62.634783585202" lon="17.988159136601">
        <ele>93.2</ele>
        <time>2017-12-19T12:43:09Z</time>
      </trkpt>
      <trkpt lat="62.634762881909" lon="17.988159555696">
        <ele>93.2</ele>
        <time>2017-12-19T12:43:10Z</time>
      </trkpt>
      <trkpt lat="62.634739831684" lon="17.988163076094">
        <ele>93.2</ele>
        <time>2017-12-19T12:43:11Z</time>
      </trkpt>
      <trkpt lat="62.634717452011" lon="17.988170703623">
        <ele>93.4</ele>
        <time>2017-12-19T12:43:12Z</time>
      </trkpt>
      <trkpt lat="62.634697335451" lon="17.988179923713">
        <ele>93.4</ele>
        <time>2017-12-19T12:43:13Z</time>
      </trkpt>
      <trkpt lat="62.634670429552" lon="17.98818101336">
        <ele>93.4</ele>
        <time>2017-12-19T12:43:14Z</time>
      </trkpt>
      <trkpt lat="62.6346446133" lon="17.988191574554">
        <ele>93.4</ele>
        <time>2017-12-19T12:43:15Z</time>
      </trkpt>
      <trkpt lat="62.63461527665" lon="17.988192161287">
        <ele>93.6</ele>
        <time>2017-12-19T12:43:16Z</time>
      </trkpt>
      <trkpt lat="62.634588538389" lon="17.988196687513">
        <ele>93.6</ele>
        <time>2017-12-19T12:43:17Z</time>
      </trkpt>
      <trkpt lat="62.634571020218" lon="17.988215798245">
        <ele>93.6</ele>
        <time>2017-12-19T12:43:18Z</time>
      </trkpt>
      <trkpt lat="62.634552160943" lon="17.988229125466">
        <ele>93.8</ele>
        <time>2017-12-19T12:43:19Z</time>
      </trkpt>
      <trkpt lat="62.634534558953" lon="17.988242117411">
        <ele>94</ele>
        <time>2017-12-19T12:43:20Z</time>
      </trkpt>
      <trkpt lat="62.634515448221" lon="17.988254690261">
        <ele>94</ele>
        <time>2017-12-19T12:43:21Z</time>
      </trkpt>
      <trkpt lat="62.63449122453" lon="17.988259887039">
        <ele>94</ele>
        <time>2017-12-19T12:43:22Z</time>
      </trkpt>
      <trkpt lat="62.634460714414" lon="17.988271454061">
        <ele>94.2</ele>
        <time>2017-12-19T12:43:23Z</time>
      </trkpt>
      <trkpt lat="62.634440514035" lon="17.988281093246">
        <ele>94.2</ele>
        <time>2017-12-19T12:43:24Z</time>
      </trkpt>
      <trkpt lat="62.634413859593" lon="17.988272292251">
        <ele>94.2</ele>
        <time>2017-12-19T12:43:25Z</time>
      </trkpt>
      <trkpt lat="62.634385193495" lon="17.988264916179">
        <ele>94.2</ele>
        <time>2017-12-19T12:43:26Z</time>
      </trkpt>
      <trkpt lat="62.634366753315" lon="17.988264329446">
        <ele>94.4</ele>
        <time>2017-12-19T12:43:27Z</time>
      </trkpt>
      <trkpt lat="62.634340098873" lon="17.988263575075">
        <ele>94.4</ele>
        <time>2017-12-19T12:43:28Z</time>
      </trkpt>
      <trkpt lat="62.634314701716" lon="17.988267849844">
        <ele>94.6</ele>
        <time>2017-12-19T12:43:29Z</time>
      </trkpt>
      <trkpt lat="62.634291483853" lon="17.988262904523">
        <ele>94.8</ele>
        <time>2017-12-19T12:43:30Z</time>
      </trkpt>
      <trkpt lat="62.634261392832" lon="17.988260557591">
        <ele>94.8</ele>
        <time>2017-12-19T12:43:31Z</time>
      </trkpt>
      <trkpt lat="62.634238845521" lon="17.988257372469">
        <ele>95</ele>
        <time>2017-12-19T12:43:32Z</time>
      </trkpt>
      <trkpt lat="62.634209341233" lon="17.988251002225">
        <ele>95</ele>
        <time>2017-12-19T12:43:33Z</time>
      </trkpt>
      <trkpt lat="62.634185117542" lon="17.988242620325">
        <ele>95</ele>
        <time>2017-12-19T12:43:34Z</time>
      </trkpt>
      <trkpt lat="62.63415427215" lon="17.988230718027">
        <ele>95</ele>
        <time>2017-12-19T12:43:35Z</time>
      </trkpt>
      <trkpt lat="62.634126779518" lon="17.988219905376">
        <ele>95.2</ele>
        <time>2017-12-19T12:43:36Z</time>
      </trkpt>
      <trkpt lat="62.634098700153" lon="17.98820783544">
        <ele>95.2</ele>
        <time>2017-12-19T12:43:37Z</time>
      </trkpt>
      <trkpt lat="62.63407045315" lon="17.988193753848">
        <ele>95.2</ele>
        <time>2017-12-19T12:43:38Z</time>
      </trkpt>
      <trkpt lat="62.63404027831" lon="17.988177744419">
        <ele>95.2</ele>
        <time>2017-12-19T12:43:39Z</time>
      </trkpt>
      <trkpt lat="62.634014797334" lon="17.988158633687">
        <ele>95.2</ele>
        <time>2017-12-19T12:43:40Z</time>
      </trkpt>
      <trkpt lat="62.633983113752" lon="17.988135332005">
        <ele>95.2</ele>
        <time>2017-12-19T12:43:41Z</time>
      </trkpt>
      <trkpt lat="62.633962159002" lon="17.988121837146">
        <ele>95.2</ele>
        <time>2017-12-19T12:43:42Z</time>
      </trkpt>
      <trkpt lat="62.633934917827" lon="17.988100714758">
        <ele>95.4</ele>
        <time>2017-12-19T12:43:43Z</time>
      </trkpt>
      <trkpt lat="62.633909185394" lon="17.988087471356">
        <ele>95.6</ele>
        <time>2017-12-19T12:43:44Z</time>
      </trkpt>
      <trkpt lat="62.633889655567" lon="17.988079340913">
        <ele>95.6</ele>
        <time>2017-12-19T12:43:45Z</time>
      </trkpt>
      <trkpt lat="62.633867192075" lon="17.98806450495">
        <ele>95.6</ele>
        <time>2017-12-19T12:43:46Z</time>
      </trkpt>
      <trkpt lat="62.633843722755" lon="17.98804103563">
        <ele>95.8</ele>
        <time>2017-12-19T12:43:47Z</time>
      </trkpt>
      <trkpt lat="62.633815894847" lon="17.988012034256">
        <ele>95.8</ele>
        <time>2017-12-19T12:43:48Z</time>
      </trkpt>
      <trkpt lat="62.633789743319" lon="17.987987559108">
        <ele>95.8</ele>
        <time>2017-12-19T12:43:49Z</time>
      </trkpt>
      <trkpt lat="62.633766022542" lon="17.987967777824">
        <ele>95.8</ele>
        <time>2017-12-19T12:43:50Z</time>
      </trkpt>
      <trkpt lat="62.633748755828" lon="17.987955875526">
        <ele>95.8</ele>
        <time>2017-12-19T12:43:51Z</time>
      </trkpt>
      <trkpt lat="62.633727130526" lon="17.987931651835">
        <ele>96</ele>
        <time>2017-12-19T12:43:52Z</time>
      </trkpt>
      <trkpt lat="62.633701481912" lon="17.987897369864">
        <ele>96</ele>
        <time>2017-12-19T12:43:53Z</time>
      </trkpt>
      <trkpt lat="62.633677509678" lon="17.987884629376">
        <ele>96</ele>
        <time>2017-12-19T12:43:54Z</time>
      </trkpt>
      <trkpt lat="62.633656554928" lon="17.987866524472">
        <ele>96.2</ele>
        <time>2017-12-19T12:43:55Z</time>
      </trkpt>
      <trkpt lat="62.63364046168" lon="17.987840456763">
        <ele>96.4</ele>
        <time>2017-12-19T12:43:56Z</time>
      </trkpt>
      <trkpt lat="62.633624368432" lon="17.987817490357">
        <ele>96.4</ele>
        <time>2017-12-19T12:43:57Z</time>
      </trkpt>
      <trkpt lat="62.633607520813" lon="17.9877920932">
        <ele>96.6</ele>
        <time>2017-12-19T12:43:58Z</time>
      </trkpt>
      <trkpt lat="62.633588158624" lon="17.987767198957">
        <ele>96.8</ele>
        <time>2017-12-19T12:43:59Z</time>
      </trkpt>
      <trkpt lat="62.633570808091" lon="17.987744232551">
        <ele>97</ele>
        <time>2017-12-19T12:44:00Z</time>
      </trkpt>
      <trkpt lat="62.633557145594" lon="17.987719086851">
        <ele>97.2</ele>
        <time>2017-12-19T12:44:01Z</time>
      </trkpt>
      <trkpt lat="62.63353987888" lon="17.987695114617">
        <ele>97.2</ele>
        <time>2017-12-19T12:44:02Z</time>
      </trkpt>
      <trkpt lat="62.633520935786" lon="17.98767223203">
        <ele>97.4</ele>
        <time>2017-12-19T12:44:03Z</time>
      </trkpt>
      <trkpt lat="62.633498891389" lon="17.987639123525">
        <ele>97.6</ele>
        <time>2017-12-19T12:44:04Z</time>
      </trkpt>
      <trkpt lat="62.633476930811" lon="17.987604925373">
        <ele>97.6</ele>
        <time>2017-12-19T12:44:05Z</time>
      </trkpt>
      <trkpt lat="62.633457568622" lon="17.98757751656">
        <ele>97.6</ele>
        <time>2017-12-19T12:44:06Z</time>
      </trkpt>
      <trkpt lat="62.633439882813" lon="17.987550275385">
        <ele>97.6</ele>
        <time>2017-12-19T12:44:07Z</time>
      </trkpt>
      <trkpt lat="62.633421526452" lon="17.987518675622">
        <ele>97.6</ele>
        <time>2017-12-19T12:44:08Z</time>
      </trkpt>
      <trkpt lat="62.633406103756" lon="17.987492524094">
        <ele>97.6</ele>
        <time>2017-12-19T12:44:09Z</time>
      </trkpt>
      <trkpt lat="62.633391016336" lon="17.987463438901">
        <ele>97.8</ele>
        <time>2017-12-19T12:44:10Z</time>
      </trkpt>
      <trkpt lat="62.633377772934" lon="17.987427061455">
        <ele>98.2</ele>
        <time>2017-12-19T12:44:11Z</time>
      </trkpt>
      <trkpt lat="62.633362853152" lon="17.987388504715">
        <ele>98.2</ele>
        <time>2017-12-19T12:44:12Z</time>
      </trkpt>
      <trkpt lat="62.633344915886" lon="17.987351791993">
        <ele>98.6</ele>
        <time>2017-12-19T12:44:13Z</time>
      </trkpt>
      <trkpt lat="62.633326056611" lon="17.987298315471">
        <ele>98.8</ele>
        <time>2017-12-19T12:44:14Z</time>
      </trkpt>
      <trkpt lat="62.63330518568" lon="17.987269397916">
        <ele>98.8</ele>
        <time>2017-12-19T12:44:15Z</time>
      </trkpt>
      <trkpt lat="62.633281045808" lon="17.987209634969">
        <ele>98.8</ele>
        <time>2017-12-19T12:44:16Z</time>
      </trkpt>
      <trkpt lat="62.633255648651" lon="17.987133778774">
        <ele>98.6</ele>
        <time>2017-12-19T12:44:17Z</time>
      </trkpt>
      <trkpt lat="62.633228826571" lon="17.987012241224">
        <ele>98.4</ele>
        <time>2017-12-19T12:44:18Z</time>
      </trkpt>
      <trkpt lat="62.633205860165" lon="17.986915178822">
        <ele>98</ele>
        <time>2017-12-19T12:44:19Z</time>
      </trkpt>
      <trkpt lat="62.633194376962" lon="17.986819960438">
        <ele>97.2</ele>
        <time>2017-12-19T12:44:20Z</time>
      </trkpt>
      <trkpt lat="62.633179960094" lon="17.986690040988">
        <ele>96.6</ele>
        <time>2017-12-19T12:44:21Z</time>
      </trkpt>
      <trkpt lat="62.633170740004" lon="17.986583590858">
        <ele>96</ele>
        <time>2017-12-19T12:44:22Z</time>
      </trkpt>
      <trkpt lat="62.633163028656" lon="17.98649038413">
        <ele>95.8</ele>
        <time>2017-12-19T12:44:23Z</time>
      </trkpt>
      <trkpt lat="62.633153724747" lon="17.986385694199">
        <ele>95.6</ele>
        <time>2017-12-19T12:44:24Z</time>
      </trkpt>
      <trkpt lat="62.633145678123" lon="17.986267174133">
        <ele>95.8</ele>
        <time>2017-12-19T12:44:25Z</time>
      </trkpt>
      <trkpt lat="62.633142409182" lon="17.986134823932">
        <ele>96</ele>
        <time>2017-12-19T12:44:26Z</time>
      </trkpt>
      <trkpt lat="62.633145259028" lon="17.986010520355">
        <ele>95.8</ele>
        <time>2017-12-19T12:44:27Z</time>
      </trkpt>
      <trkpt lat="62.633147270684" lon="17.985881522914">
        <ele>95.4</ele>
        <time>2017-12-19T12:44:28Z</time>
      </trkpt>
      <trkpt lat="62.633148611788" lon="17.985738276243">
        <ele>94.8</ele>
        <time>2017-12-19T12:44:29Z</time>
      </trkpt>
      <trkpt lat="62.633156071679" lon="17.985613469752">
        <ele>94.2</ele>
        <time>2017-12-19T12:44:30Z</time>
      </trkpt>
      <trkpt lat="62.633162190466" lon="17.985488160347">
        <ele>93.8</ele>
        <time>2017-12-19T12:44:31Z</time>
      </trkpt>
      <trkpt lat="62.633164621217" lon="17.985379950018">
        <ele>93.4</ele>
        <time>2017-12-19T12:44:32Z</time>
      </trkpt>
      <trkpt lat="62.633175936782" lon="17.985236787166">
        <ele>93.4</ele>
        <time>2017-12-19T12:44:33Z</time>
      </trkpt>
      <trkpt lat="62.633191778573" lon="17.985112315951">
        <ele>93.4</ele>
        <time>2017-12-19T12:44:34Z</time>
      </trkpt>
      <trkpt lat="62.633219103567" lon="17.984966387072">
        <ele>93</ele>
        <time>2017-12-19T12:44:35Z</time>
      </trkpt>
      <trkpt lat="62.633251876796" lon="17.984845939169">
        <ele>92.2</ele>
        <time>2017-12-19T12:44:36Z</time>
      </trkpt>
      <trkpt lat="62.63328423093" lon="17.984737058288">
        <ele>91.6</ele>
        <time>2017-12-19T12:44:37Z</time>
      </trkpt>
      <trkpt lat="62.633316585064" lon="17.98461702948">
        <ele>90.8</ele>
        <time>2017-12-19T12:44:38Z</time>
      </trkpt>
      <trkpt lat="62.633344999705" lon="17.984509573522">
        <ele>90</ele>
        <time>2017-12-19T12:44:39Z</time>
      </trkpt>
      <trkpt lat="62.63336721174" lon="17.984418797545">
        <ele>89.8</ele>
        <time>2017-12-19T12:44:40Z</time>
      </trkpt>
      <trkpt lat="62.633383388807" lon="17.984304552248">
        <ele>89.8</ele>
        <time>2017-12-19T12:44:41Z</time>
      </trkpt>
      <trkpt lat="62.633396464571" lon="17.984206986932">
        <ele>89.8</ele>
        <time>2017-12-19T12:44:42Z</time>
      </trkpt>
      <trkpt lat="62.633406187575" lon="17.984103721924">
        <ele>89.8</ele>
        <time>2017-12-19T12:44:43Z</time>
      </trkpt>
      <trkpt lat="62.633416497312" lon="17.984017220716">
        <ele>90</ele>
        <time>2017-12-19T12:44:44Z</time>
      </trkpt>
      <trkpt lat="62.63342504685" lon="17.98390456798">
        <ele>90.2</ele>
        <time>2017-12-19T12:44:45Z</time>
      </trkpt>
      <trkpt lat="62.633431920008" lon="17.983818737324">
        <ele>90.6</ele>
        <time>2017-12-19T12:44:46Z</time>
      </trkpt>
      <trkpt lat="62.633442481202" lon="17.98374531188">
        <ele>91</ele>
        <time>2017-12-19T12:44:47Z</time>
      </trkpt>
      <trkpt lat="62.633461172839" lon="17.983656631378">
        <ele>91.2</ele>
        <time>2017-12-19T12:44:48Z</time>
      </trkpt>
      <trkpt lat="62.63347030911" lon="17.983584044124">
        <ele>91.4</ele>
        <time>2017-12-19T12:44:49Z</time>
      </trkpt>
      <trkpt lat="62.633485899444" lon="17.98349553126">
        <ele>91.4</ele>
        <time>2017-12-19T12:44:50Z</time>
      </trkpt>
      <trkpt lat="62.633498304656" lon="17.983419339789">
        <ele>91.6</ele>
        <time>2017-12-19T12:44:51Z</time>
      </trkpt>
      <trkpt lat="62.633508279117" lon="17.983351111123">
        <ele>91.4</ele>
        <time>2017-12-19T12:44:52Z</time>
      </trkpt>
      <trkpt lat="62.633521271062" lon="17.983268800865">
        <ele>91.4</ele>
        <time>2017-12-19T12:44:53Z</time>
      </trkpt>
      <trkpt lat="62.63353401155" lon="17.983201410389">
        <ele>91.2</ele>
        <time>2017-12-19T12:44:54Z</time>
      </trkpt>
      <trkpt lat="62.633548009323" lon="17.983137875587">
        <ele>91.4</ele>
        <time>2017-12-19T12:44:55Z</time>
      </trkpt>
      <trkpt lat="62.633564940761" lon="17.983072748224">
        <ele>91.4</ele>
        <time>2017-12-19T12:44:56Z</time>
      </trkpt>
      <trkpt lat="62.633580363457" lon="17.983006112119">
        <ele>91.4</ele>
        <time>2017-12-19T12:44:57Z</time>
      </trkpt>
      <trkpt lat="62.633595786153" lon="17.98293394396">
        <ele>91.6</ele>
        <time>2017-12-19T12:44:58Z</time>
      </trkpt>
      <trkpt lat="62.633602659311" lon="17.982850544055">
        <ele>91.6</ele>
        <time>2017-12-19T12:44:59Z</time>
      </trkpt>
      <trkpt lat="62.633611544125" lon="17.982784410864">
        <ele>91.8</ele>
        <time>2017-12-19T12:45:00Z</time>
      </trkpt>
      <trkpt lat="62.633623530242" lon="17.982700675683">
        <ele>91.8</ele>
        <time>2017-12-19T12:45:01Z</time>
      </trkpt>
      <trkpt lat="62.633633923798" lon="17.982621382909">
        <ele>91.6</ele>
        <time>2017-12-19T12:45:02Z</time>
      </trkpt>
      <trkpt lat="62.633644568811" lon="17.982531780398">
        <ele>91.6</ele>
        <time>2017-12-19T12:45:03Z</time>
      </trkpt>
      <trkpt lat="62.633657560756" lon="17.982456762393">
        <ele>91.6</ele>
        <time>2017-12-19T12:45:04Z</time>
      </trkpt>
      <trkpt lat="62.633671726167" lon="17.982361879285">
        <ele>91.6</ele>
        <time>2017-12-19T12:45:05Z</time>
      </trkpt>
      <trkpt lat="62.633679353696" lon="17.982276970638">
        <ele>91.6</ele>
        <time>2017-12-19T12:45:06Z</time>
      </trkpt>
      <trkpt lat="62.633683712284" lon="17.982203964289">
        <ele>91.6</ele>
        <time>2017-12-19T12:45:07Z</time>
      </trkpt>
      <trkpt lat="62.633683963741" lon="17.982127269904">
        <ele>91.6</ele>
        <time>2017-12-19T12:45:08Z</time>
      </trkpt>
      <trkpt lat="62.633687316501" lon="17.982054012098">
        <ele>91.6</ele>
        <time>2017-12-19T12:45:09Z</time>
      </trkpt>
      <trkpt lat="62.633691004537" lon="17.981995254979">
        <ele>91.8</ele>
        <time>2017-12-19T12:45:10Z</time>
      </trkpt>
      <trkpt lat="62.633693016193" lon="17.981932390729">
        <ele>91.8</ele>
        <time>2017-12-19T12:45:11Z</time>
      </trkpt>
      <trkpt lat="62.63369578222" lon="17.981870532307">
        <ele>91.8</ele>
        <time>2017-12-19T12:45:12Z</time>
      </trkpt>
      <trkpt lat="62.633698967342" lon="17.981802974193">
        <ele>91.8</ele>
        <time>2017-12-19T12:45:13Z</time>
      </trkpt>
      <trkpt lat="62.633703409749" lon="17.981740193762">
        <ele>92</ele>
        <time>2017-12-19T12:45:14Z</time>
      </trkpt>
      <trkpt lat="62.633712126925" lon="17.981655620391">
        <ele>92</ele>
        <time>2017-12-19T12:45:15Z</time>
      </trkpt>
      <trkpt lat="62.633725621784" lon="17.981579093644">
        <ele>92</ele>
        <time>2017-12-19T12:45:16Z</time>
      </trkpt>
      <trkpt lat="62.633747917638" lon="17.981497370119">
        <ele>92</ele>
        <time>2017-12-19T12:45:17Z</time>
      </trkpt>
      <trkpt lat="62.633767531284" lon="17.981415646594">
        <ele>92</ele>
        <time>2017-12-19T12:45:18Z</time>
      </trkpt>
      <trkpt lat="62.633777757202" lon="17.981352363249">
        <ele>92</ele>
        <time>2017-12-19T12:45:19Z</time>
      </trkpt>
      <trkpt lat="62.633788737491" lon="17.981273321932">
        <ele>92</ele>
        <time>2017-12-19T12:45:20Z</time>
      </trkpt>
      <trkpt lat="62.633803657273" lon="17.981192352778">
        <ele>92</ele>
        <time>2017-12-19T12:45:21Z</time>
      </trkpt>
      <trkpt lat="62.633815727209" lon="17.981134685306">
        <ele>92</ele>
        <time>2017-12-19T12:45:22Z</time>
      </trkpt>
      <trkpt lat="62.633835089398" lon="17.981061678957">
        <ele>92.2</ele>
        <time>2017-12-19T12:45:23Z</time>
      </trkpt>
      <trkpt lat="62.633856798519" lon="17.981003508571">
        <ele>92.2</ele>
        <time>2017-12-19T12:45:24Z</time>
      </trkpt>
      <trkpt lat="62.633879262011" lon="17.980947182203">
        <ele>92.4</ele>
        <time>2017-12-19T12:45:25Z</time>
      </trkpt>
      <trkpt lat="62.633902731331" lon="17.980888927998">
        <ele>92.6</ele>
        <time>2017-12-19T12:45:26Z</time>
      </trkpt>
      <trkpt lat="62.633923266986" lon="17.980831931078">
        <ele>92.6</ele>
        <time>2017-12-19T12:45:27Z</time>
      </trkpt>
      <trkpt lat="62.633944473193" lon="17.980762612765">
        <ele>92.8</ele>
        <time>2017-12-19T12:45:28Z</time>
      </trkpt>
      <trkpt lat="62.633967271961" lon="17.980694970832">
        <ele>92.8</ele>
        <time>2017-12-19T12:45:29Z</time>
      </trkpt>
      <trkpt lat="62.633988478168" lon="17.980641829586">
        <ele>93</ele>
        <time>2017-12-19T12:45:30Z</time>
      </trkpt>
      <trkpt lat="62.63400088338" lon="17.980585503218">
        <ele>93</ele>
        <time>2017-12-19T12:45:31Z</time>
      </trkpt>
      <trkpt lat="62.634019155922" lon="17.980526243185">
        <ele>93.2</ele>
        <time>2017-12-19T12:45:32Z</time>
      </trkpt>
      <trkpt lat="62.634041619414" lon="17.980458936528">
        <ele>93.2</ele>
        <time>2017-12-19T12:45:33Z</time>
      </trkpt>
      <trkpt lat="62.6340578803" lon="17.980415685924">
        <ele>93.4</ele>
        <time>2017-12-19T12:45:34Z</time>
      </trkpt>
      <trkpt lat="62.634081265801" lon="17.980360197746">
        <ele>93.4</ele>
        <time>2017-12-19T12:45:35Z</time>
      </trkpt>
      <trkpt lat="62.634107249691" lon="17.980307475595">
        <ele>93.6</ele>
        <time>2017-12-19T12:45:36Z</time>
      </trkpt>
      <trkpt lat="62.634126863337" lon="17.980275708194">
        <ele>93.6</ele>
        <time>2017-12-19T12:45:37Z</time>
      </trkpt>
      <trkpt lat="62.634151254666" lon="17.980236313264">
        <ele>93.6</ele>
        <time>2017-12-19T12:45:38Z</time>
      </trkpt>
      <trkpt lat="62.634176735642" lon="17.980178729611">
        <ele>93.6</ele>
        <time>2017-12-19T12:45:39Z</time>
      </trkpt>
      <trkpt lat="62.634196014012" lon="17.980125253089">
        <ele>93.6</ele>
        <time>2017-12-19T12:45:40Z</time>
      </trkpt>
      <trkpt lat="62.634223255187" lon="17.98005727588">
        <ele>93.6</ele>
        <time>2017-12-19T12:45:41Z</time>
      </trkpt>
      <trkpt lat="62.634244880489" lon="17.979993908716">
        <ele>93.6</ele>
        <time>2017-12-19T12:45:42Z</time>
      </trkpt>
      <trkpt lat="62.634264829411" lon="17.979928865172">
        <ele>93.6</ele>
        <time>2017-12-19T12:45:43Z</time>
      </trkpt>
      <trkpt lat="62.634288550188" lon="17.979862145248">
        <ele>93.6</ele>
        <time>2017-12-19T12:45:44Z</time>
      </trkpt>
      <trkpt lat="62.634304475798" lon="17.979808752545">
        <ele>93.6</ele>
        <time>2017-12-19T12:45:45Z</time>
      </trkpt>
      <trkpt lat="62.634318725028" lon="17.979741781164">
        <ele>93.6</ele>
        <time>2017-12-19T12:45:46Z</time>
      </trkpt>
      <trkpt lat="62.634336578475" lon="17.979670367376">
        <ele>93.4</ele>
        <time>2017-12-19T12:45:47Z</time>
      </trkpt>
      <trkpt lat="62.634354348103" lon="17.979587805661">
        <ele>93.6</ele>
        <time>2017-12-19T12:45:48Z</time>
      </trkpt>
      <trkpt lat="62.634370692808" lon="17.979512368561">
        <ele>93.6</ele>
        <time>2017-12-19T12:45:49Z</time>
      </trkpt>
      <trkpt lat="62.634389384445" lon="17.97943952985">
        <ele>93.6</ele>
        <time>2017-12-19T12:45:50Z</time>
      </trkpt>
      <trkpt lat="62.634402627847" lon="17.979368786614">
        <ele>93.6</ele>
        <time>2017-12-19T12:45:51Z</time>
      </trkpt>
      <trkpt lat="62.634414362507" lon="17.9793012285">
        <ele>93.8</ele>
        <time>2017-12-19T12:45:52Z</time>
      </trkpt>
      <trkpt lat="62.634431461583" lon="17.979214392016">
        <ele>93.6</ele>
        <time>2017-12-19T12:45:53Z</time>
      </trkpt>
      <trkpt lat="62.634441938958" lon="17.979144906065">
        <ele>93.6</ele>
        <time>2017-12-19T12:45:54Z</time>
      </trkpt>
      <trkpt lat="62.634453338342" lon="17.979076677399">
        <ele>93.6</ele>
        <time>2017-12-19T12:45:55Z</time>
      </trkpt>
      <trkpt lat="62.634463648079" lon="17.979011047122">
        <ele>93.6</ele>
        <time>2017-12-19T12:45:56Z</time>
      </trkpt>
      <trkpt lat="62.634477059119" lon="17.978954134021">
        <ele>93.6</ele>
        <time>2017-12-19T12:45:57Z</time>
      </trkpt>
      <trkpt lat="62.634499354973" lon="17.978908536485">
        <ele>93.4</ele>
        <time>2017-12-19T12:45:58Z</time>
      </trkpt>
      <trkpt lat="62.63452559032" lon="17.978875092704">
        <ele>93.4</ele>
        <time>2017-12-19T12:45:59Z</time>
      </trkpt>
      <trkpt lat="62.634546796527" lon="17.978849863185">
        <ele>93.6</ele>
        <time>2017-12-19T12:46:00Z</time>
      </trkpt>
      <trkpt lat="62.634565236707" lon="17.978829495168">
        <ele>93.4</ele>
        <time>2017-12-19T12:46:01Z</time>
      </trkpt>
      <trkpt lat="62.634580827041" lon="17.978816419404">
        <ele>93.4</ele>
        <time>2017-12-19T12:46:02Z</time>
      </trkpt>
      <trkpt lat="62.634596082099" lon="17.97880837278">
        <ele>93.6</ele>
        <time>2017-12-19T12:46:03Z</time>
      </trkpt>
      <trkpt lat="62.6346110857" lon="17.978803678916">
        <ele>93.6</ele>
        <time>2017-12-19T12:46:04Z</time>
      </trkpt>
      <trkpt lat="62.634633549192" lon="17.978805690572">
        <ele>93.6</ele>
        <time>2017-12-19T12:46:05Z</time>
      </trkpt>
      <trkpt lat="62.634660287453" lon="17.978816922318">
        <ele>93.6</ele>
        <time>2017-12-19T12:46:06Z</time>
      </trkpt>
      <trkpt lat="62.634686187524" lon="17.978830417177">
        <ele>93.6</ele>
        <time>2017-12-19T12:46:07Z</time>
      </trkpt>
      <trkpt lat="62.634716530002" lon="17.978848941176">
        <ele>93.6</ele>
        <time>2017-12-19T12:46:08Z</time>
      </trkpt>
      <trkpt lat="62.634742178616" lon="17.978865704976">
        <ele>93.4</ele>
        <time>2017-12-19T12:46:09Z</time>
      </trkpt>
      <trkpt lat="62.634774616569" lon="17.97888129531">
        <ele>93.4</ele>
        <time>2017-12-19T12:46:10Z</time>
      </trkpt>
      <trkpt lat="62.634804120857" lon="17.97889722092">
        <ele>93.2</ele>
        <time>2017-12-19T12:46:11Z</time>
      </trkpt>
      <trkpt lat="62.634830020928" lon="17.978907865933">
        <ele>93</ele>
        <time>2017-12-19T12:46:12Z</time>
      </trkpt>
      <trkpt lat="62.634856759189" lon="17.978919097679">
        <ele>92.8</ele>
        <time>2017-12-19T12:46:13Z</time>
      </trkpt>
      <trkpt lat="62.634880060871" lon="17.978927311941">
        <ele>92.6</ele>
        <time>2017-12-19T12:46:14Z</time>
      </trkpt>
      <trkpt lat="62.634902356725" lon="17.978934855651">
        <ele>92.6</ele>
        <time>2017-12-19T12:46:15Z</time>
      </trkpt>
      <trkpt lat="62.634920796905" lon="17.978943405189">
        <ele>92.6</ele>
        <time>2017-12-19T12:46:16Z</time>
      </trkpt>
      <trkpt lat="62.634940326732" lon="17.978950362166">
        <ele>92.6</ele>
        <time>2017-12-19T12:46:17Z</time>
      </trkpt>
      <trkpt lat="62.634963712233" lon="17.978966120138">
        <ele>92.6</ele>
        <time>2017-12-19T12:46:18Z</time>
      </trkpt>
      <trkpt lat="62.634982655327" lon="17.978979531178">
        <ele>92.6</ele>
        <time>2017-12-19T12:46:19Z</time>
      </trkpt>
      <trkpt lat="62.63500000586" lon="17.978990008553">
        <ele>92.6</ele>
        <time>2017-12-19T12:46:20Z</time>
      </trkpt>
      <trkpt lat="62.635017021117" lon="17.979000234471">
        <ele>92.6</ele>
        <time>2017-12-19T12:46:21Z</time>
      </trkpt>
      <trkpt lat="62.635047698871" lon="17.97901959666">
        <ele>92.4</ele>
        <time>2017-12-19T12:46:23Z</time>
      </trkpt>
      <trkpt lat="62.635067312517" lon="17.979019345203">
        <ele>92.6</ele>
        <time>2017-12-19T12:46:24Z</time>
      </trkpt>
      <trkpt lat="62.635091536208" lon="17.979015321891">
        <ele>92.4</ele>
        <time>2017-12-19T12:46:25Z</time>
      </trkpt>
      <trkpt lat="62.635118777383" lon="17.979014986615">
        <ele>92.4</ele>
        <time>2017-12-19T12:46:26Z</time>
      </trkpt>
      <trkpt lat="62.635138893943" lon="17.979014818977">
        <ele>92.4</ele>
        <time>2017-12-19T12:46:27Z</time>
      </trkpt>
      <trkpt lat="62.635169236421" lon="17.979017501185">
        <ele>92.4</ele>
        <time>2017-12-19T12:46:28Z</time>
      </trkpt>
      <trkpt lat="62.635201674374" lon="17.979030241673">
        <ele>92.2</ele>
        <time>2017-12-19T12:46:29Z</time>
      </trkpt>
      <trkpt lat="62.635238219458" lon="17.979040216134">
        <ele>92.2</ele>
        <time>2017-12-19T12:46:30Z</time>
      </trkpt>
      <trkpt lat="62.635277111474" lon="17.97904390417">
        <ele>92</ele>
        <time>2017-12-19T12:46:31Z</time>
      </trkpt>
      <trkpt lat="62.63532019444" lon="17.979067624947">
        <ele>92</ele>
        <time>2017-12-19T12:46:32Z</time>
      </trkpt>
      <trkpt lat="62.635367468356" lon="17.979081203625">
        <ele>91.8</ele>
        <time>2017-12-19T12:46:33Z</time>
      </trkpt>
      <trkpt lat="62.635411221874" lon="17.979086232765">
        <ele>91.6</ele>
        <time>2017-12-19T12:46:34Z</time>
      </trkpt>
      <trkpt lat="62.63545179027" lon="17.979080030159">
        <ele>91.6</ele>
        <time>2017-12-19T12:46:35Z</time>
      </trkpt>
      <trkpt lat="62.635497387806" lon="17.979074162829">
        <ele>91.2</ele>
        <time>2017-12-19T12:46:36Z</time>
      </trkpt>
      <trkpt lat="62.635541392781" lon="17.979067289671">
        <ele>90.8</ele>
        <time>2017-12-19T12:46:37Z</time>
      </trkpt>
      <trkpt lat="62.63559092981" lon="17.979066116205">
        <ele>90.4</ele>
        <time>2017-12-19T12:46:38Z</time>
      </trkpt>
      <trkpt lat="62.635637449355" lon="17.97906569711">
        <ele>89.8</ele>
        <time>2017-12-19T12:46:39Z</time>
      </trkpt>
      <trkpt lat="62.635684387995" lon="17.979065529472">
        <ele>89.2</ele>
        <time>2017-12-19T12:46:40Z</time>
      </trkpt>
      <trkpt lat="62.6357342603" lon="17.979064356006">
        <ele>88.8</ele>
        <time>2017-12-19T12:46:41Z</time>
      </trkpt>
      <trkpt lat="62.635776421257" lon="17.979061003246">
        <ele>88.4</ele>
        <time>2017-12-19T12:46:42Z</time>
      </trkpt>
      <trkpt lat="62.635820510051" lon="17.979068546956">
        <ele>88.2</ele>
        <time>2017-12-19T12:46:43Z</time>
      </trkpt>
      <trkpt lat="62.635856971316" lon="17.979077347951">
        <ele>88.2</ele>
        <time>2017-12-19T12:46:44Z</time>
      </trkpt>
      <trkpt lat="62.63589267821" lon="17.979088412059">
        <ele>88.2</ele>
        <time>2017-12-19T12:46:45Z</time>
      </trkpt>
      <trkpt lat="62.635924613249" lon="17.979098135063">
        <ele>88.2</ele>
        <time>2017-12-19T12:46:46Z</time>
      </trkpt>
      <trkpt lat="62.635951770605" lon="17.97910341566">
        <ele>88.4</ele>
        <time>2017-12-19T12:46:47Z</time>
      </trkpt>
      <trkpt lat="62.635975742839" lon="17.979106600782">
        <ele>88.6</ele>
        <time>2017-12-19T12:46:48Z</time>
      </trkpt>
      <trkpt lat="62.636000217987" lon="17.979115317958">
        <ele>89</ele>
        <time>2017-12-19T12:46:49Z</time>
      </trkpt>
      <trkpt lat="62.636018490529" lon="17.979129567188">
        <ele>89.2</ele>
        <time>2017-12-19T12:46:50Z</time>
      </trkpt>
      <trkpt lat="62.636033326492" lon="17.979152952689">
        <ele>89.6</ele>
        <time>2017-12-19T12:46:51Z</time>
      </trkpt>
      <trkpt lat="62.636037014528" lon="17.97918136733">
        <ele>89.8</ele>
        <time>2017-12-19T12:46:52Z</time>
      </trkpt>
      <trkpt lat="62.636037517442" lon="17.979223947382">
        <ele>89.8</ele>
        <time>2017-12-19T12:46:53Z</time>
      </trkpt>
      <trkpt lat="62.636034164682" lon="17.979259570457">
        <ele>90</ele>
        <time>2017-12-19T12:46:54Z</time>
      </trkpt>
      <trkpt lat="62.636029051723" lon="17.979286224899">
        <ele>90</ele>
        <time>2017-12-19T12:46:55Z</time>
      </trkpt>
      <trkpt lat="62.636023519669" lon="17.979305838545">
        <ele>90</ele>
        <time>2017-12-19T12:46:56Z</time>
      </trkpt>
      <trkpt lat="62.636018741986" lon="17.979322099431">
        <ele>90</ele>
        <time>2017-12-19T12:46:58Z</time>
      </trkpt>
      <trkpt lat="62.636016897968" lon="17.979341042525">
        <ele>90</ele>
        <time>2017-12-19T12:46:59Z</time>
      </trkpt>
      <trkpt lat="62.636012120285" lon="17.979371887917">
        <ele>89.8</ele>
        <time>2017-12-19T12:47:00Z</time>
      </trkpt>
      <trkpt lat="62.636009018982" lon="17.979415138521">
        <ele>89.8</ele>
        <time>2017-12-19T12:47:01Z</time>
      </trkpt>
      <trkpt lat="62.636005163308" lon="17.979470878156">
        <ele>89.6</ele>
        <time>2017-12-19T12:47:02Z</time>
      </trkpt>
      <trkpt lat="62.636009018982" lon="17.979565845083">
        <ele>89.4</ele>
        <time>2017-12-19T12:47:03Z</time>
      </trkpt>
      <trkpt lat="62.636009940991" lon="17.979672127575">
        <ele>89.4</ele>
        <time>2017-12-19T12:47:04Z</time>
      </trkpt>
      <trkpt lat="62.636008851344" lon="17.97981755354">
        <ele>89.2</ele>
        <time>2017-12-19T12:47:05Z</time>
      </trkpt>
      <trkpt lat="62.636012036466" lon="17.979965829351">
        <ele>88.4</ele>
        <time>2017-12-19T12:47:06Z</time>
      </trkpt>
      <trkpt lat="62.636022765298" lon="17.980100358846">
        <ele>87.4</ele>
        <time>2017-12-19T12:47:07Z</time>
      </trkpt>
      <trkpt lat="62.636039193822" lon="17.980242683508">
        <ele>86.2</ele>
        <time>2017-12-19T12:47:08Z</time>
      </trkpt>
      <trkpt lat="62.636062495504" lon="17.980411327336">
        <ele>85.6</ele>
        <time>2017-12-19T12:47:09Z</time>
      </trkpt>
      <trkpt lat="62.636080768046" lon="17.980548203763">
        <ele>84.8</ele>
        <time>2017-12-19T12:47:10Z</time>
      </trkpt>
      <trkpt lat="62.636107171031" lon="17.98068927114">
        <ele>84.2</ele>
        <time>2017-12-19T12:47:11Z</time>
      </trkpt>
      <trkpt lat="62.636131059446" lon="17.980813993812">
        <ele>83.8</ele>
        <time>2017-12-19T12:47:12Z</time>
      </trkpt>
      <trkpt lat="62.636158635897" lon="17.980952378981">
        <ele>83.4</ele>
        <time>2017-12-19T12:47:13Z</time>
      </trkpt>
      <trkpt lat="62.63618353014" lon="17.981082130793">
        <ele>83</ele>
        <time>2017-12-19T12:47:14Z</time>
      </trkpt>
      <trkpt lat="62.636201886501" lon="17.981201740506">
        <ele>82.8</ele>
        <time>2017-12-19T12:47:15Z</time>
      </trkpt>
      <trkpt lat="62.636214794627" lon="17.981310872844">
        <ele>82.4</ele>
        <time>2017-12-19T12:47:16Z</time>
      </trkpt>
      <trkpt lat="62.636224852907" lon="17.981432410394">
        <ele>82</ele>
        <time>2017-12-19T12:47:17Z</time>
      </trkpt>
      <trkpt lat="62.636236168472" lon="17.981553025935">
        <ele>81.8</ele>
        <time>2017-12-19T12:47:18Z</time>
      </trkpt>
      <trkpt lat="62.636243293087" lon="17.981664337567">
        <ele>81.6</ele>
        <time>2017-12-19T12:47:19Z</time>
      </trkpt>
      <trkpt lat="62.636248154589" lon="17.981771625887">
        <ele>81.4</ele>
        <time>2017-12-19T12:47:20Z</time>
      </trkpt>
      <trkpt lat="62.636257709955" lon="17.981877573103">
        <ele>81.6</ele>
        <time>2017-12-19T12:47:21Z</time>
      </trkpt>
      <trkpt lat="62.636271623909" lon="17.981973797315">
        <ele>81.8</ele>
        <time>2017-12-19T12:47:22Z</time>
      </trkpt>
      <trkpt lat="62.636295093229" lon="17.982093490847">
        <ele>82.2</ele>
        <time>2017-12-19T12:47:23Z</time>
      </trkpt>
      <trkpt lat="62.636306660251" lon="17.98220220409">
        <ele>82.4</ele>
        <time>2017-12-19T12:47:24Z</time>
      </trkpt>
      <trkpt lat="62.636312359943" lon="17.982304630908">
        <ele>82.6</ele>
        <time>2017-12-19T12:47:25Z</time>
      </trkpt>
      <trkpt lat="62.6363293752" lon="17.982410997219">
        <ele>82.8</ele>
        <time>2017-12-19T12:47:26Z</time>
      </trkpt>
      <trkpt lat="62.636336248358" lon="17.982495235314">
        <ele>82.8</ele>
        <time>2017-12-19T12:47:27Z</time>
      </trkpt>
      <trkpt lat="62.636337086548" lon="17.982574276631">
        <ele>82.8</ele>
        <time>2017-12-19T12:47:28Z</time>
      </trkpt>
      <trkpt lat="62.63634530081" lon="17.982665639341">
        <ele>82.6</ele>
        <time>2017-12-19T12:47:29Z</time>
      </trkpt>
      <trkpt lat="62.636348988846" lon="17.982763539933">
        <ele>82.8</ele>
        <time>2017-12-19T12:47:30Z</time>
      </trkpt>
      <trkpt lat="62.636347647742" lon="17.98285599229">
        <ele>83</ele>
        <time>2017-12-19T12:47:31Z</time>
      </trkpt>
      <trkpt lat="62.636346390457" lon="17.982937883453">
        <ele>83</ele>
        <time>2017-12-19T12:47:32Z</time>
      </trkpt>
      <trkpt lat="62.636347480104" lon="17.983019858435">
        <ele>83.2</ele>
        <time>2017-12-19T12:47:33Z</time>
      </trkpt>
      <trkpt lat="62.636348737389" lon="17.983088254739">
        <ele>83.4</ele>
        <time>2017-12-19T12:47:34Z</time>
      </trkpt>
      <trkpt lat="62.636352509244" lon="17.983161261088">
        <ele>83.2</ele>
        <time>2017-12-19T12:47:35Z</time>
      </trkpt>
      <trkpt lat="62.636350832864" lon="17.983229657392">
        <ele>83.2</ele>
        <time>2017-12-19T12:47:36Z</time>
      </trkpt>
      <trkpt lat="62.636346390457" lon="17.983307441424">
        <ele>83.2</ele>
        <time>2017-12-19T12:47:37Z</time>
      </trkpt>
      <trkpt lat="62.636341445136" lon="17.983393104442">
        <ele>83.2</ele>
        <time>2017-12-19T12:47:38Z</time>
      </trkpt>
      <trkpt lat="62.636334571978" lon="17.983455801054">
        <ele>83.2</ele>
        <time>2017-12-19T12:47:39Z</time>
      </trkpt>
      <trkpt lat="62.63632769882" lon="17.983517575657">
        <ele>83.4</ele>
        <time>2017-12-19T12:47:40Z</time>
      </trkpt>
      <trkpt lat="62.636316467074" lon="17.983579601717">
        <ele>83.4</ele>
        <time>2017-12-19T12:47:41Z</time>
      </trkpt>
      <trkpt lat="62.636307330803" lon="17.983630647488">
        <ele>83.4</ele>
        <time>2017-12-19T12:47:42Z</time>
      </trkpt>
      <trkpt lat="62.636296937247" lon="17.983689404607">
        <ele>83.6</ele>
        <time>2017-12-19T12:47:43Z</time>
      </trkpt>
      <trkpt lat="62.636287130424" lon="17.983741037111">
        <ele>83.6</ele>
        <time>2017-12-19T12:47:44Z</time>
      </trkpt>
      <trkpt lat="62.636277491239" lon="17.983803314628">
        <ele>83.8</ele>
        <time>2017-12-19T12:47:45Z</time>
      </trkpt>
      <trkpt lat="62.636266008036" lon="17.983867184706">
        <ele>84</ele>
        <time>2017-12-19T12:47:46Z</time>
      </trkpt>
      <trkpt lat="62.636260559801" lon="17.983918314296">
        <ele>84</ele>
        <time>2017-12-19T12:47:47Z</time>
      </trkpt>
      <trkpt lat="62.636249160417" lon="17.983989811903">
        <ele>84.2</ele>
        <time>2017-12-19T12:47:48Z</time>
      </trkpt>
      <trkpt lat="62.636241449069" lon="17.98404286933">
        <ele>84.4</ele>
        <time>2017-12-19T12:47:49Z</time>
      </trkpt>
      <trkpt lat="62.636236084653" lon="17.984091400531">
        <ele>84.4</ele>
        <time>2017-12-19T12:47:50Z</time>
      </trkpt>
      <trkpt lat="62.636231055513" lon="17.984149654736">
        <ele>84.4</ele>
        <time>2017-12-19T12:47:51Z</time>
      </trkpt>
      <trkpt lat="62.636222170699" lon="17.984207489846">
        <ele>84.4</ele>
        <time>2017-12-19T12:47:52Z</time>
      </trkpt>
      <trkpt lat="62.636219823767" lon="17.984264822042">
        <ele>84.4</ele>
        <time>2017-12-19T12:47:53Z</time>
      </trkpt>
      <trkpt lat="62.636215046084" lon="17.984325423179">
        <ele>84.6</ele>
        <time>2017-12-19T12:47:54Z</time>
      </trkpt>
      <trkpt lat="62.636213453523" lon="17.984378648244">
        <ele>84.6</ele>
        <time>2017-12-19T12:47:55Z</time>
      </trkpt>
      <trkpt lat="62.63620867584" lon="17.984448218014">
        <ele>84.6</ele>
        <time>2017-12-19T12:47:56Z</time>
      </trkpt>
      <trkpt lat="62.636204987804" lon="17.984504544382">
        <ele>84.8</ele>
        <time>2017-12-19T12:47:57Z</time>
      </trkpt>
      <trkpt lat="62.636199204293" lon="17.984563720596">
        <ele>84.8</ele>
        <time>2017-12-19T12:47:58Z</time>
      </trkpt>
      <trkpt lat="62.636196354447" lon="17.984626501027">
        <ele>85</ele>
        <time>2017-12-19T12:47:59Z</time>
      </trkpt>
      <trkpt lat="62.636193336963" lon="17.984672433839">
        <ele>85</ele>
        <time>2017-12-19T12:48:00Z</time>
      </trkpt>
      <trkpt lat="62.63619191204" lon="17.98472515599">
        <ele>85.2</ele>
        <time>2017-12-19T12:48:01Z</time>
      </trkpt>
      <trkpt lat="62.636190654755" lon="17.984779386883">
        <ele>85.2</ele>
        <time>2017-12-19T12:48:02Z</time>
      </trkpt>
      <trkpt lat="62.636189816565" lon="17.984846442083">
        <ele>85.4</ele>
        <time>2017-12-19T12:48:03Z</time>
      </trkpt>
      <trkpt lat="62.636186631443" lon="17.984909893066">
        <ele>85.4</ele>
        <time>2017-12-19T12:48:04Z</time>
      </trkpt>
      <trkpt lat="62.636185960891" lon="17.984979379017">
        <ele>85.6</ele>
        <time>2017-12-19T12:48:05Z</time>
      </trkpt>
      <trkpt lat="62.63618772109" lon="17.985038974326">
        <ele>85.6</ele>
        <time>2017-12-19T12:48:06Z</time>
      </trkpt>
      <trkpt lat="62.636187972547" lon="17.98508809226">
        <ele>85.8</ele>
        <time>2017-12-19T12:48:07Z</time>
      </trkpt>
      <trkpt lat="62.636183111045" lon="17.985144921542">
        <ele>85.8</ele>
        <time>2017-12-19T12:48:08Z</time>
      </trkpt>
      <trkpt lat="62.63618436833" lon="17.985186411947">
        <ele>86</ele>
        <time>2017-12-19T12:48:09Z</time>
      </trkpt>
      <trkpt lat="62.636181686122" lon="17.985222705574">
        <ele>86.2</ele>
        <time>2017-12-19T12:48:10Z</time>
      </trkpt>
      <trkpt lat="62.636177578991" lon="17.985274924811">
        <ele>86.2</ele>
        <time>2017-12-19T12:48:11Z</time>
      </trkpt>
      <trkpt lat="62.636171376385" lon="17.985325886763">
        <ele>86.2</ele>
        <time>2017-12-19T12:48:12Z</time>
      </trkpt>
      <trkpt lat="62.636167772168" lon="17.98537056229">
        <ele>86.2</ele>
        <time>2017-12-19T12:48:13Z</time>
      </trkpt>
      <trkpt lat="62.636160563734" lon="17.985419764043">
        <ele>86.2</ele>
        <time>2017-12-19T12:48:14Z</time>
      </trkpt>
      <trkpt lat="62.636154109671" lon="17.98548623251">
        <ele>86.2</ele>
        <time>2017-12-19T12:48:15Z</time>
      </trkpt>
      <trkpt lat="62.63615419349" lon="17.985538870842">
        <ele>86.2</ele>
        <time>2017-12-19T12:48:16Z</time>
      </trkpt>
      <trkpt lat="62.636147990884" lon="17.985592347364">
        <ele>86.2</ele>
        <time>2017-12-19T12:48:17Z</time>
      </trkpt>
      <trkpt lat="62.636131143265" lon="17.985665186075">
        <ele>86.2</ele>
        <time>2017-12-19T12:48:18Z</time>
      </trkpt>
      <trkpt lat="62.636117229311" lon="17.985720590434">
        <ele>86.2</ele>
        <time>2017-12-19T12:48:19Z</time>
      </trkpt>
      <trkpt lat="62.636102393348" lon="17.985759985364">
        <ele>86.4</ele>
        <time>2017-12-19T12:48:20Z</time>
      </trkpt>
      <trkpt lat="62.636088479394" lon="17.985797368638">
        <ele>86.6</ele>
        <time>2017-12-19T12:48:21Z</time>
      </trkpt>
      <trkpt lat="62.636076744734" lon="17.985833494627">
        <ele>86.8</ele>
        <time>2017-12-19T12:48:22Z</time>
      </trkpt>
      <trkpt lat="62.636050174111" lon="17.985873811566">
        <ele>86.8</ele>
        <time>2017-12-19T12:48:23Z</time>
      </trkpt>
      <trkpt lat="62.636032320664" lon="17.98591287122">
        <ele>87</ele>
        <time>2017-12-19T12:48:24Z</time>
      </trkpt>
      <trkpt lat="62.636013293751" lon="17.985940363852">
        <ele>87.2</ele>
        <time>2017-12-19T12:48:25Z</time>
      </trkpt>
      <trkpt lat="62.635979095599" lon="17.985970454873">
        <ele>87.4</ele>
        <time>2017-12-19T12:48:26Z</time>
      </trkpt>
      <trkpt lat="62.635950178044" lon="17.985999456247">
        <ele>87.2</ele>
        <time>2017-12-19T12:48:27Z</time>
      </trkpt>
      <trkpt lat="62.635928888018" lon="17.986021668282">
        <ele>87.4</ele>
        <time>2017-12-19T12:48:28Z</time>
      </trkpt>
      <trkpt lat="62.635910950752" lon="17.986043042127">
        <ele>87.6</ele>
        <time>2017-12-19T12:48:29Z</time>
      </trkpt>
      <trkpt lat="62.635890415097" lon="17.98606709818">
        <ele>87.6</ele>
        <time>2017-12-19T12:48:30Z</time>
      </trkpt>
      <trkpt lat="62.635869125071" lon="17.986088639663">
        <ele>87.8</ele>
        <time>2017-12-19T12:48:31Z</time>
      </trkpt>
      <trkpt lat="62.635846913036" lon="17.98610649311">
        <ele>88</ele>
        <time>2017-12-19T12:48:32Z</time>
      </trkpt>
      <trkpt lat="62.635820929146" lon="17.986133901923">
        <ele>88</ele>
        <time>2017-12-19T12:48:33Z</time>
      </trkpt>
      <trkpt lat="62.635796621636" lon="17.986171285197">
        <ele>88</ele>
        <time>2017-12-19T12:48:34Z</time>
      </trkpt>
      <trkpt lat="62.635772230307" lon="17.986206740634">
        <ele>88</ele>
        <time>2017-12-19T12:48:35Z</time>
      </trkpt>
      <trkpt lat="62.635750772643" lon="17.98624060351">
        <ele>88.2</ele>
        <time>2017-12-19T12:48:36Z</time>
      </trkpt>
      <trkpt lat="62.635735182309" lon="17.986263150821">
        <ele>88</ele>
        <time>2017-12-19T12:48:37Z</time>
      </trkpt>
      <trkpt lat="62.635718837604" lon="17.98629005672">
        <ele>88.2</ele>
        <time>2017-12-19T12:48:38Z</time>
      </trkpt>
      <trkpt lat="62.635703498727" lon="17.986320818293">
        <ele>88.2</ele>
        <time>2017-12-19T12:48:39Z</time>
      </trkpt>
      <trkpt lat="62.635681957244" lon="17.986360297042">
        <ele>88.4</ele>
        <time>2017-12-19T12:48:40Z</time>
      </trkpt>
      <trkpt lat="62.635672569516" lon="17.986400194886">
        <ele>88.6</ele>
        <time>2017-12-19T12:48:41Z</time>
      </trkpt>
      <trkpt lat="62.635663517064" lon="17.986433219572">
        <ele>88.8</ele>
        <time>2017-12-19T12:48:42Z</time>
      </trkpt>
      <trkpt lat="62.635645579798" lon="17.986477308366">
        <ele>89</ele>
        <time>2017-12-19T12:48:43Z</time>
      </trkpt>
      <trkpt lat="62.635632084939" lon="17.986524330825">
        <ele>89.2</ele>
        <time>2017-12-19T12:48:44Z</time>
      </trkpt>
      <trkpt lat="62.63562194284" lon="17.986570515094">
        <ele>89.4</ele>
        <time>2017-12-19T12:48:45Z</time>
      </trkpt>
      <trkpt lat="62.635608867076" lon="17.9866102453">
        <ele>89.4</ele>
        <time>2017-12-19T12:48:46Z</time>
      </trkpt>
      <trkpt lat="62.635598808796" lon="17.986641174511">
        <ele>89.6</ele>
        <time>2017-12-19T12:48:47Z</time>
      </trkpt>
      <trkpt lat="62.635584056652" lon="17.986688867522">
        <ele>89.6</ele>
        <time>2017-12-19T12:48:48Z</time>
      </trkpt>
      <trkpt lat="62.635570729431" lon="17.986732788678">
        <ele>89.6</ele>
        <time>2017-12-19T12:48:49Z</time>
      </trkpt>
      <trkpt lat="62.635555558192" lon="17.986768998486">
        <ele>89.6</ele>
        <time>2017-12-19T12:48:50Z</time>
      </trkpt>
      <trkpt lat="62.635544996998" lon="17.986798754231">
        <ele>89.8</ele>
        <time>2017-12-19T12:48:51Z</time>
      </trkpt>
      <trkpt lat="62.635532172691" lon="17.986840160817">
        <ele>89.8</ele>
        <time>2017-12-19T12:48:52Z</time>
      </trkpt>
      <trkpt lat="62.635512475226" lon="17.986883914335">
        <ele>90</ele>
        <time>2017-12-19T12:48:53Z</time>
      </trkpt>
      <trkpt lat="62.635496046702" lon="17.986926745844">
        <ele>90.2</ele>
        <time>2017-12-19T12:48:54Z</time>
      </trkpt>
      <trkpt lat="62.635476181599" lon="17.986980809099">
        <ele>90.2</ele>
        <time>2017-12-19T12:48:55Z</time>
      </trkpt>
      <trkpt lat="62.635458328152" lon="17.987025736083">
        <ele>90.6</ele>
        <time>2017-12-19T12:48:56Z</time>
      </trkpt>
      <trkpt lat="62.635441480533" lon="17.987056413837">
        <ele>90.4</ele>
        <time>2017-12-19T12:48:57Z</time>
      </trkpt>
      <trkpt lat="62.635425219647" lon="17.987091533998">
        <ele>90.4</ele>
        <time>2017-12-19T12:48:58Z</time>
      </trkpt>
      <trkpt lat="62.63541071896" lon="17.987130006919">
        <ele>90.6</ele>
        <time>2017-12-19T12:48:59Z</time>
      </trkpt>
      <trkpt lat="62.63539982249" lon="17.987161019949">
        <ele>90.6</ele>
        <time>2017-12-19T12:49:00Z</time>
      </trkpt>
      <trkpt lat="62.635392027323" lon="17.98720200744">
        <ele>90.6</ele>
        <time>2017-12-19T12:49:01Z</time>
      </trkpt>
      <trkpt lat="62.635378700102" lon="17.98723721142">
        <ele>90.8</ele>
        <time>2017-12-19T12:49:02Z</time>
      </trkpt>
      <trkpt lat="62.635357410076" lon="17.987280881119">
        <ele>91</ele>
        <time>2017-12-19T12:49:03Z</time>
      </trkpt>
      <trkpt lat="62.635337042059" lon="17.987325891922">
        <ele>91</ele>
        <time>2017-12-19T12:49:04Z</time>
      </trkpt>
      <trkpt lat="62.635315500576" lon="17.987361934092">
        <ele>91.2</ele>
        <time>2017-12-19T12:49:05Z</time>
      </trkpt>
      <trkpt lat="62.635300245518" lon="17.987390432552">
        <ele>91.2</ele>
        <time>2017-12-19T12:49:06Z</time>
      </trkpt>
      <trkpt lat="62.635283230261" lon="17.987412309311">
        <ele>91.4</ele>
        <time>2017-12-19T12:49:07Z</time>
      </trkpt>
      <trkpt lat="62.635262275511" lon="17.987441059228">
        <ele>91.4</ele>
        <time>2017-12-19T12:49:08Z</time>
      </trkpt>
      <trkpt lat="62.635240314933" lon="17.987472658991">
        <ele>91.4</ele>
        <time>2017-12-19T12:49:09Z</time>
      </trkpt>
      <trkpt lat="62.635222377667" lon="17.987504761668">
        <ele>91.6</ele>
        <time>2017-12-19T12:49:10Z</time>
      </trkpt>
      <trkpt lat="62.635206954971" lon="17.987538456906">
        <ele>91.6</ele>
        <time>2017-12-19T12:49:11Z</time>
      </trkpt>
      <trkpt lat="62.635187257506" lon="17.987567793556">
        <ele>91.6</ele>
        <time>2017-12-19T12:49:12Z</time>
      </trkpt>
      <trkpt lat="62.635170912801" lon="17.987604422459">
        <ele>91.8</ele>
        <time>2017-12-19T12:49:13Z</time>
      </trkpt>
      <trkpt lat="62.635151131517" lon="17.987644655579">
        <ele>91.8</ele>
        <time>2017-12-19T12:49:14Z</time>
      </trkpt>
      <trkpt lat="62.635134870631" lon="17.987680027197">
        <ele>92</ele>
        <time>2017-12-19T12:49:15Z</time>
      </trkpt>
      <trkpt lat="62.635116346632" lon="17.987707687467">
        <ele>92</ele>
        <time>2017-12-19T12:49:16Z</time>
      </trkpt>
      <trkpt lat="62.635097738814" lon="17.987736856479">
        <ele>92.2</ele>
        <time>2017-12-19T12:49:17Z</time>
      </trkpt>
      <trkpt lat="62.635082316118" lon="17.98776359474">
        <ele>92.2</ele>
        <time>2017-12-19T12:49:18Z</time>
      </trkpt>
      <trkpt lat="62.635066725784" lon="17.987791925562">
        <ele>92.4</ele>
        <time>2017-12-19T12:49:19Z</time>
      </trkpt>
      <trkpt lat="62.635050213441" lon="17.987818663823">
        <ele>92.6</ele>
        <time>2017-12-19T12:49:20Z</time>
      </trkpt>
      <trkpt lat="62.635038478781" lon="17.987848922482">
        <ele>92.6</ele>
        <time>2017-12-19T12:49:21Z</time>
      </trkpt>
      <trkpt lat="62.635023391361" lon="17.987876582752">
        <ele>92.8</ele>
        <time>2017-12-19T12:49:22Z</time>
      </trkpt>
      <trkpt lat="62.635001598421" lon="17.987909607438">
        <ele>92.8</ele>
        <time>2017-12-19T12:49:23Z</time>
      </trkpt>
      <trkpt lat="62.634988606476" lon="17.987937770622">
        <ele>93</ele>
        <time>2017-12-19T12:49:24Z</time>
      </trkpt>
      <trkpt lat="62.634966813536" lon="17.987966101444">
        <ele>93</ele>
        <time>2017-12-19T12:49:25Z</time>
      </trkpt>
      <trkpt lat="62.634946780795" lon="17.987997365931">
        <ele>93</ele>
        <time>2017-12-19T12:49:26Z</time>
      </trkpt>
      <trkpt lat="62.634933705031" lon="17.988021170527">
        <ele>93.2</ele>
        <time>2017-12-19T12:49:27Z</time>
      </trkpt>
      <trkpt lat="62.634919707258" lon="17.988042544372">
        <ele>93.4</ele>
        <time>2017-12-19T12:49:28Z</time>
      </trkpt>
      <trkpt lat="62.634897914318" lon="17.98805779943">
        <ele>93.6</ele>
        <time>2017-12-19T12:49:29Z</time>
      </trkpt>
      <trkpt lat="62.634871595152" lon="17.98807456323">
        <ele>93.8</ele>
        <time>2017-12-19T12:49:30Z</time>
      </trkpt>
      <trkpt lat="62.634847036185" lon="17.988087303718">
        <ele>93.8</ele>
        <time>2017-12-19T12:49:31Z</time>
      </trkpt>
      <trkpt lat="62.634818789182" lon="17.988104570432">
        <ele>93.8</ele>
        <time>2017-12-19T12:49:32Z</time>
      </trkpt>
      <trkpt lat="62.634785261582" lon="17.988122004784">
        <ele>94</ele>
        <time>2017-12-19T12:49:33Z</time>
      </trkpt>
      <trkpt lat="62.634764139194" lon="17.988130386684">
        <ele>94.2</ele>
        <time>2017-12-19T12:49:34Z</time>
      </trkpt>
      <trkpt lat="62.634745866652" lon="17.98813658929">
        <ele>94.2</ele>
        <time>2017-12-19T12:49:35Z</time>
      </trkpt>
      <trkpt lat="62.634723989893" lon="17.988133320349">
        <ele>94.4</ele>
        <time>2017-12-19T12:49:36Z</time>
      </trkpt>
      <trkpt lat="62.634705633532" lon="17.98812988377">
        <ele>94.4</ele>
        <time>2017-12-19T12:49:37Z</time>
      </trkpt>
      <trkpt lat="62.634688366818" lon="17.988127788295">
        <ele>94.4</ele>
        <time>2017-12-19T12:49:38Z</time>
      </trkpt>
      <trkpt lat="62.634665316593" lon="17.988131643969">
        <ele>94.6</ele>
        <time>2017-12-19T12:49:39Z</time>
      </trkpt>
      <trkpt lat="62.634642685463" lon="17.988138181851">
        <ele>94.6</ele>
        <time>2017-12-19T12:49:40Z</time>
      </trkpt>
      <trkpt lat="62.634618713229" lon="17.988145641742">
        <ele>94.8</ele>
        <time>2017-12-19T12:49:41Z</time>
      </trkpt>
      <trkpt lat="62.634596165918" lon="17.988154442737">
        <ele>94.8</ele>
        <time>2017-12-19T12:49:42Z</time>
      </trkpt>
      <trkpt lat="62.634575714082" lon="17.988162908456">
        <ele>95</ele>
        <time>2017-12-19T12:49:43Z</time>
      </trkpt>
      <trkpt lat="62.63455408878" lon="17.988167267044">
        <ele>95</ele>
        <time>2017-12-19T12:49:44Z</time>
      </trkpt>
      <trkpt lat="62.634534056039" lon="17.988178414971">
        <ele>95.2</ele>
        <time>2017-12-19T12:49:45Z</time>
      </trkpt>
      <trkpt lat="62.634512933651" lon="17.988181683912">
        <ele>95.4</ele>
        <time>2017-12-19T12:49:46Z</time>
      </trkpt>
      <trkpt lat="62.63449122453" lon="17.988193837667">
        <ele>95.4</ele>
        <time>2017-12-19T12:49:47Z</time>
      </trkpt>
      <trkpt lat="62.63446775521" lon="17.988200040273">
        <ele>95.4</ele>
        <time>2017-12-19T12:49:48Z</time>
      </trkpt>
      <trkpt lat="62.634439843483" lon="17.988211942571">
        <ele>95.6</ele>
        <time>2017-12-19T12:49:49Z</time>
      </trkpt>
      <trkpt lat="62.634416122706" lon="17.988213367494">
        <ele>95.8</ele>
        <time>2017-12-19T12:49:50Z</time>
      </trkpt>
      <trkpt lat="62.634390306454" lon="17.988212194028">
        <ele>95.8</ele>
        <time>2017-12-19T12:49:51Z</time>
      </trkpt>
      <trkpt lat="62.634365998944" lon="17.988211523476">
        <ele>96</ele>
        <time>2017-12-19T12:49:52Z</time>
      </trkpt>
      <trkpt lat="62.63433867395" lon="17.988211272019">
        <ele>96</ele>
        <time>2017-12-19T12:49:53Z</time>
      </trkpt>
      <trkpt lat="62.634313947345" lon="17.988207919259">
        <ele>96</ele>
        <time>2017-12-19T12:49:54Z</time>
      </trkpt>
      <trkpt lat="62.634288214912" lon="17.988204063585">
        <ele>96.2</ele>
        <time>2017-12-19T12:49:55Z</time>
      </trkpt>
      <trkpt lat="62.634261811927" lon="17.988207751621">
        <ele>96.2</ele>
        <time>2017-12-19T12:49:56Z</time>
      </trkpt>
      <trkpt lat="62.634235828037" lon="17.98821202639">
        <ele>96.2</ele>
        <time>2017-12-19T12:49:57Z</time>
      </trkpt>
      <trkpt lat="62.634202132799" lon="17.988214205684">
        <ele>96.2</ele>
        <time>2017-12-19T12:49:58Z</time>
      </trkpt>
      <trkpt lat="62.634171455045" lon="17.988205823784">
        <ele>96.2</ele>
        <time>2017-12-19T12:49:59Z</time>
      </trkpt>
      <trkpt lat="62.634143124223" lon="17.988194256762">
        <ele>96.2</ele>
        <time>2017-12-19T12:50:00Z</time>
      </trkpt>
      <trkpt lat="62.634113033202" lon="17.988181767731">
        <ele>96.4</ele>
        <time>2017-12-19T12:50:01Z</time>
      </trkpt>
      <trkpt lat="62.634090066796" lon="17.988180426627">
        <ele>96.4</ele>
        <time>2017-12-19T12:50:02Z</time>
      </trkpt>
      <trkpt lat="62.63405704211" lon="17.988176235677">
        <ele>96.4</ele>
        <time>2017-12-19T12:50:03Z</time>
      </trkpt>
      <trkpt lat="62.634027202546" lon="17.988165758302">
        <ele>96.4</ele>
        <time>2017-12-19T12:50:04Z</time>
      </trkpt>
      <trkpt lat="62.634003984683" lon="17.988152933995">
        <ele>96.4</ele>
        <time>2017-12-19T12:50:05Z</time>
      </trkpt>
      <trkpt lat="62.63397992863" lon="17.988133990901">
        <ele>96.4</ele>
        <time>2017-12-19T12:50:06Z</time>
      </trkpt>
      <trkpt lat="62.633955285844" lon="17.98812234006">
        <ele>96.4</ele>
        <time>2017-12-19T12:50:07Z</time>
      </trkpt>
      <trkpt lat="62.633934582551" lon="17.988106833545">
        <ele>96.6</ele>
        <time>2017-12-19T12:50:08Z</time>
      </trkpt>
      <trkpt lat="62.633911364688" lon="17.988088896279">
        <ele>96.6</ele>
        <time>2017-12-19T12:50:09Z</time>
      </trkpt>
      <trkpt lat="62.633888733558" lon="17.988074144135">
        <ele>96.8</ele>
        <time>2017-12-19T12:50:10Z</time>
      </trkpt>
      <trkpt lat="62.633868868455" lon="17.988058218525">
        <ele>97</ele>
        <time>2017-12-19T12:50:11Z</time>
      </trkpt>
      <trkpt lat="62.633849254809" lon="17.988040029802">
        <ele>97</ele>
        <time>2017-12-19T12:50:12Z</time>
      </trkpt>
      <trkpt lat="62.633826456041" lon="17.98801421355">
        <ele>97</ele>
        <time>2017-12-19T12:50:13Z</time>
      </trkpt>
      <trkpt lat="62.633808351137" lon="17.987986637099">
        <ele>97.2</ele>
        <time>2017-12-19T12:50:14Z</time>
      </trkpt>
      <trkpt lat="62.633784378903" lon="17.987955456431">
        <ele>97.2</ele>
        <time>2017-12-19T12:50:15Z</time>
      </trkpt>
      <trkpt lat="62.633760239031" lon="17.987928047618">
        <ele>97.4</ele>
        <time>2017-12-19T12:50:16Z</time>
      </trkpt>
      <trkpt lat="62.633741966489" lon="17.98790776342">
        <ele>97.4</ele>
        <time>2017-12-19T12:50:17Z</time>
      </trkpt>
      <trkpt lat="62.633715479685" lon="17.98788094134">
        <ele>97.6</ele>
        <time>2017-12-19T12:50:18Z</time>
      </trkpt>
      <trkpt lat="62.633689831071" lon="17.987857304382">
        <ele>97.8</ele>
        <time>2017-12-19T12:50:19Z</time>
      </trkpt>
      <trkpt lat="62.633668876321" lon="17.987832074863">
        <ele>97.8</ele>
        <time>2017-12-19T12:50:20Z</time>
      </trkpt>
      <trkpt lat="62.633650268503" lon="17.987804917507">
        <ele>97.8</ele>
        <time>2017-12-19T12:50:21Z</time>
      </trkpt>
      <trkpt lat="62.633634510531" lon="17.987782705472">
        <ele>97.8</ele>
        <time>2017-12-19T12:50:22Z</time>
      </trkpt>
      <trkpt lat="62.633614729247" lon="17.98776108017">
        <ele>97.8</ele>
        <time>2017-12-19T12:50:23Z</time>
      </trkpt>
      <trkpt lat="62.633597294895" lon="17.987745908931">
        <ele>98</ele>
        <time>2017-12-19T12:50:24Z</time>
      </trkpt>
      <trkpt lat="62.633580782552" lon="17.987730150959">
        <ele>98</ele>
        <time>2017-12-19T12:50:25Z</time>
      </trkpt>
      <trkpt lat="62.633563432019" lon="17.987704837621">
        <ele>98.2</ele>
        <time>2017-12-19T12:50:26Z</time>
      </trkpt>
      <trkpt lat="62.633542309631" lon="17.987675836247">
        <ele>98.4</ele>
        <time>2017-12-19T12:50:27Z</time>
      </trkpt>
      <trkpt lat="62.633521271062" lon="17.987648511253">
        <ele>98.6</ele>
        <time>2017-12-19T12:50:28Z</time>
      </trkpt>
      <trkpt lat="62.633498137018" lon="17.987616743852">
        <ele>98.6</ele>
        <time>2017-12-19T12:50:29Z</time>
      </trkpt>
      <trkpt lat="62.633473326594" lon="17.987577768017">
        <ele>99</ele>
        <time>2017-12-19T12:50:30Z</time>
      </trkpt>
      <trkpt lat="62.633453712948" lon="17.987544575693">
        <ele>99</ele>
        <time>2017-12-19T12:50:31Z</time>
      </trkpt>
      <trkpt lat="62.633436865329" lon="17.987519932907">
        <ele>99.2</ele>
        <time>2017-12-19T12:50:32Z</time>
      </trkpt>
      <trkpt lat="62.633416162036" lon="17.987485483298">
        <ele>99.2</ele>
        <time>2017-12-19T12:50:33Z</time>
      </trkpt>
      <trkpt lat="62.63339738658" lon="17.987460756693">
        <ele>99.4</ele>
        <time>2017-12-19T12:50:34Z</time>
      </trkpt>
      <trkpt lat="62.633382047703" lon="17.987434102251">
        <ele>99.4</ele>
        <time>2017-12-19T12:50:35Z</time>
      </trkpt>
      <trkpt lat="62.633366792645" lon="17.987398562995">
        <ele>99.6</ele>
        <time>2017-12-19T12:50:36Z</time>
      </trkpt>
      <trkpt lat="62.633351202311" lon="17.987364448662">
        <ele>99.8</ele>
        <time>2017-12-19T12:50:37Z</time>
      </trkpt>
      <trkpt lat="62.633332678312" lon="17.987330501967">
        <ele>100</ele>
        <time>2017-12-19T12:50:38Z</time>
      </trkpt>
      <trkpt lat="62.633309795725" lon="17.987285323526">
        <ele>100.2</ele>
        <time>2017-12-19T12:50:39Z</time>
      </trkpt>
      <trkpt lat="62.633288673337" lon="17.987246934424">
        <ele>100.2</ele>
        <time>2017-12-19T12:50:40Z</time>
      </trkpt>
      <trkpt lat="62.633266209845" lon="17.987195218101">
        <ele>100.4</ele>
        <time>2017-12-19T12:50:41Z</time>
      </trkpt>
      <trkpt lat="62.633241315602" lon="17.987115338594">
        <ele>100.4</ele>
        <time>2017-12-19T12:50:42Z</time>
      </trkpt>
      <trkpt lat="62.633219606481" lon="17.987001260935">
        <ele>99.8</ele>
        <time>2017-12-19T12:50:43Z</time>
      </trkpt>
      <trkpt lat="62.633204686699" lon="17.986889781665">
        <ele>99.2</ele>
        <time>2017-12-19T12:50:44Z</time>
      </trkpt>
      <trkpt lat="62.633192952039" lon="17.986768160296">
        <ele>98.8</ele>
        <time>2017-12-19T12:50:45Z</time>
      </trkpt>
      <trkpt lat="62.633185659786" lon="17.986657016302">
        <ele>98</ele>
        <time>2017-12-19T12:50:46Z</time>
      </trkpt>
      <trkpt lat="62.633179540999" lon="17.986551739638">
        <ele>97.4</ele>
        <time>2017-12-19T12:50:47Z</time>
      </trkpt>
      <trkpt lat="62.63317694261" lon="17.986437745798">
        <ele>96.8</ele>
        <time>2017-12-19T12:50:48Z</time>
      </trkpt>
      <trkpt lat="62.633173841307" lon="17.986320902112">
        <ele>96.4</ele>
        <time>2017-12-19T12:50:49Z</time>
      </trkpt>
      <trkpt lat="62.633169063624" lon="17.986175643785">
        <ele>96.4</ele>
        <time>2017-12-19T12:50:50Z</time>
      </trkpt>
      <trkpt lat="62.63317023709" lon="17.986048909457">
        <ele>96.2</ele>
        <time>2017-12-19T12:50:51Z</time>
      </trkpt>
      <trkpt lat="62.633173254574" lon="17.985948745752">
        <ele>96</ele>
        <time>2017-12-19T12:50:52Z</time>
      </trkpt>
      <trkpt lat="62.633174930954" lon="17.985799631751">
        <ele>95.6</ele>
        <time>2017-12-19T12:50:53Z</time>
      </trkpt>
      <trkpt lat="62.633173841307" lon="17.985624701498">
        <ele>95.2</ele>
        <time>2017-12-19T12:50:54Z</time>
      </trkpt>
      <trkpt lat="62.633177194067" lon="17.985489082356">
        <ele>94.8</ele>
        <time>2017-12-19T12:50:55Z</time>
      </trkpt>
      <trkpt lat="62.633182055569" lon="17.985385398253">
        <ele>95</ele>
        <time>2017-12-19T12:50:56Z</time>
      </trkpt>
      <trkpt lat="62.633190102193" lon="17.985277020286">
        <ele>95</ele>
        <time>2017-12-19T12:50:57Z</time>
      </trkpt>
      <trkpt lat="62.633215415531" lon="17.985149699225">
        <ele>95.2</ele>
        <time>2017-12-19T12:50:58Z</time>
      </trkpt>
      <trkpt lat="62.633241902335" lon="17.984989856392">
        <ele>94.8</ele>
        <time>2017-12-19T12:50:59Z</time>
      </trkpt>
      <trkpt lat="62.633261767438" lon="17.984838982192">
        <ele>94.4</ele>
        <time>2017-12-19T12:51:00Z</time>
      </trkpt>
      <trkpt lat="62.63329261283" lon="17.98471090676">
        <ele>93.4</ele>
        <time>2017-12-19T12:51:01Z</time>
      </trkpt>
      <trkpt lat="62.633311639743" lon="17.984608899037">
        <ele>93</ele>
        <time>2017-12-19T12:51:02Z</time>
      </trkpt>
      <trkpt lat="62.633340976393" lon="17.9844728608">
        <ele>91.8</ele>
        <time>2017-12-19T12:51:03Z</time>
      </trkpt>
      <trkpt lat="62.633359835668" lon="17.98438149809">
        <ele>91.6</ele>
        <time>2017-12-19T12:51:04Z</time>
      </trkpt>
      <trkpt lat="62.633377689115" lon="17.984270270277">
        <ele>91.2</ele>
        <time>2017-12-19T12:51:05Z</time>
      </trkpt>
      <trkpt lat="62.63339151925" lon="17.984170441848">
        <ele>91.2</ele>
        <time>2017-12-19T12:51:06Z</time>
      </trkpt>
      <trkpt lat="62.633399565874" lon="17.984096262033">
        <ele>91</ele>
        <time>2017-12-19T12:51:07Z</time>
      </trkpt>
      <trkpt lat="62.633410378525" lon="17.983977155234">
        <ele>91</ele>
        <time>2017-12-19T12:51:08Z</time>
      </trkpt>
      <trkpt lat="62.633414234199" lon="17.983889229103">
        <ele>91.2</ele>
        <time>2017-12-19T12:51:09Z</time>
      </trkpt>
      <trkpt lat="62.633424460117" lon="17.983804488094">
        <ele>91.6</ele>
        <time>2017-12-19T12:51:10Z</time>
      </trkpt>
      <trkpt lat="62.633437452062" lon="17.983705749312">
        <ele>91.8</ele>
        <time>2017-12-19T12:51:11Z</time>
      </trkpt>
      <trkpt lat="62.633443738487" lon="17.983632240049">
        <ele>92.2</ele>
        <time>2017-12-19T12:51:12Z</time>
      </trkpt>
      <trkpt lat="62.633453880586" lon="17.983539033321">
        <ele>92.6</ele>
        <time>2017-12-19T12:51:13Z</time>
      </trkpt>
      <trkpt lat="62.633463435952" lon="17.983471978121">
        <ele>92.6</ele>
        <time>2017-12-19T12:51:14Z</time>
      </trkpt>
      <trkpt lat="62.633472488404" lon="17.983419675065">
        <ele>92.8</ele>
        <time>2017-12-19T12:51:15Z</time>
      </trkpt>
      <trkpt lat="62.633486653815" lon="17.983342561585">
        <ele>92.8</ele>
        <time>2017-12-19T12:51:16Z</time>
      </trkpt>
      <trkpt lat="62.633499059027" lon="17.983273327091">
        <ele>92.8</ele>
        <time>2017-12-19T12:51:17Z</time>
      </trkpt>
      <trkpt lat="62.633516828655" lon="17.983191184471">
        <ele>92.6</ele>
        <time>2017-12-19T12:51:18Z</time>
      </trkpt>
      <trkpt lat="62.633532502808" lon="17.983118010484">
        <ele>92.8</ele>
        <time>2017-12-19T12:51:19Z</time>
      </trkpt>
      <trkpt lat="62.633546752038" lon="17.983043076298">
        <ele>92.8</ele>
        <time>2017-12-19T12:51:20Z</time>
      </trkpt>
      <trkpt lat="62.633560330716" lon="17.982979792953">
        <ele>93</ele>
        <time>2017-12-19T12:51:21Z</time>
      </trkpt>
      <trkpt lat="62.633572233014" lon="17.982915419961">
        <ele>93</ele>
        <time>2017-12-19T12:51:22Z</time>
      </trkpt>
      <trkpt lat="62.633581117828" lon="17.982850879331">
        <ele>93</ele>
        <time>2017-12-19T12:51:23Z</time>
      </trkpt>
      <trkpt lat="62.633601150569" lon="17.982760606268">
        <ele>93</ele>
        <time>2017-12-19T12:51:24Z</time>
      </trkpt>
      <trkpt lat="62.633614645428" lon="17.982678798924">
        <ele>93</ele>
        <time>2017-12-19T12:51:25Z</time>
      </trkpt>
      <trkpt lat="62.633620596577" lon="17.982614006837">
        <ele>93</ele>
        <time>2017-12-19T12:51:26Z</time>
      </trkpt>
      <trkpt lat="62.633632331237" lon="17.982552902786">
        <ele>92.8</ele>
        <time>2017-12-19T12:51:27Z</time>
      </trkpt>
      <trkpt lat="62.633643395345" lon="17.982478052419">
        <ele>92.8</ele>
        <time>2017-12-19T12:51:28Z</time>
      </trkpt>
      <trkpt lat="62.633657979851" lon="17.982398927283">
        <ele>92.8</ele>
        <time>2017-12-19T12:51:29Z</time>
      </trkpt>
      <trkpt lat="62.633669211597" lon="17.982325250382">
        <ele>92.8</ele>
        <time>2017-12-19T12:51:30Z</time>
      </trkpt>
      <trkpt lat="62.633673905461" lon="17.982259536286">
        <ele>93</ele>
        <time>2017-12-19T12:51:31Z</time>
      </trkpt>
      <trkpt lat="62.6336806948" lon="17.982194241285">
        <ele>93</ele>
        <time>2017-12-19T12:51:32Z</time>
      </trkpt>
      <trkpt lat="62.6336890767" lon="17.982114864692">
        <ele>93</ele>
        <time>2017-12-19T12:51:33Z</time>
      </trkpt>
      <trkpt lat="62.6336974586" lon="17.982049569691">
        <ele>93</ele>
        <time>2017-12-19T12:51:34Z</time>
      </trkpt>
      <trkpt lat="62.633703745025" lon="17.981968432899">
        <ele>93.2</ele>
        <time>2017-12-19T12:51:35Z</time>
      </trkpt>
      <trkpt lat="62.633707600699" lon="17.981899785138">
        <ele>93</ele>
        <time>2017-12-19T12:51:36Z</time>
      </trkpt>
      <trkpt lat="62.633707433061" lon="17.981839938372">
        <ele>93.2</ele>
        <time>2017-12-19T12:51:37Z</time>
      </trkpt>
      <trkpt lat="62.633708941803" lon="17.981775146285">
        <ele>93</ele>
        <time>2017-12-19T12:51:38Z</time>
      </trkpt>
      <trkpt lat="62.633710785821" lon="17.981726698903">
        <ele>93.2</ele>
        <time>2017-12-19T12:51:39Z</time>
      </trkpt>
      <trkpt lat="62.633714390038" lon="17.981666516861">
        <ele>93.2</ele>
        <time>2017-12-19T12:51:40Z</time>
      </trkpt>
      <trkpt lat="62.633721933748" lon="17.981592756141">
        <ele>93.4</ele>
        <time>2017-12-19T12:51:41Z</time>
      </trkpt>
      <trkpt lat="62.633733836046" lon="17.981511032616">
        <ele>93.4</ele>
        <time>2017-12-19T12:51:42Z</time>
      </trkpt>
      <trkpt lat="62.633742972317" lon="17.981431320747">
        <ele>93.4</ele>
        <time>2017-12-19T12:51:43Z</time>
      </trkpt>
      <trkpt lat="62.633749091104" lon="17.981367869764">
        <ele>93.6</ele>
        <time>2017-12-19T12:51:44Z</time>
      </trkpt>
      <trkpt lat="62.633759065565" lon="17.981298886727">
        <ele>93.6</ele>
        <time>2017-12-19T12:51:45Z</time>
      </trkpt>
      <trkpt lat="62.633771554596" lon="17.981227221482">
        <ele>93.6</ele>
        <time>2017-12-19T12:51:46Z</time>
      </trkpt>
      <trkpt lat="62.63378211579" lon="17.981175253702">
        <ele>93.6</ele>
        <time>2017-12-19T12:51:47Z</time>
      </trkpt>
      <trkpt lat="62.633800053056" lon="17.981111970357">
        <ele>93.4</ele>
        <time>2017-12-19T12:51:48Z</time>
      </trkpt>
      <trkpt lat="62.633812542087" lon="17.98105053103">
        <ele>93.4</ele>
        <time>2017-12-19T12:51:49Z</time>
      </trkpt>
      <trkpt lat="62.633822181272" lon="17.980998144155">
        <ele>93.2</ele>
        <time>2017-12-19T12:51:50Z</time>
      </trkpt>
      <trkpt lat="62.633836765778" lon="17.980949612954">
        <ele>93.4</ele>
        <time>2017-12-19T12:51:51Z</time>
      </trkpt>
      <trkpt lat="62.633855625053" lon="17.98090552416">
        <ele>93.4</ele>
        <time>2017-12-19T12:51:52Z</time>
      </trkpt>
      <trkpt lat="62.633874232871" lon="17.980850790353">
        <ele>93.6</ele>
        <time>2017-12-19T12:51:53Z</time>
      </trkpt>
      <trkpt lat="62.633890326119" lon="17.980807372111">
        <ele>93.8</ele>
        <time>2017-12-19T12:51:54Z</time>
      </trkpt>
      <trkpt lat="62.63391035886" lon="17.980754063227">
        <ele>94</ele>
        <time>2017-12-19T12:51:55Z</time>
      </trkpt>
      <trkpt lat="62.633925194823" lon="17.980709806795">
        <ele>94</ele>
        <time>2017-12-19T12:51:56Z</time>
      </trkpt>
      <trkpt lat="62.633938186768" lon="17.980668903123">
        <ele>94</ele>
        <time>2017-12-19T12:51:57Z</time>
      </trkpt>
      <trkpt lat="62.633960734079" lon="17.980610062185">
        <ele>94</ele>
        <time>2017-12-19T12:51:58Z</time>
      </trkpt>
      <trkpt lat="62.633980599182" lon="17.980549377229">
        <ele>94.2</ele>
        <time>2017-12-19T12:51:59Z</time>
      </trkpt>
      <trkpt lat="62.633997782077" lon="17.980493469956">
        <ele>94.2</ele>
        <time>2017-12-19T12:52:00Z</time>
      </trkpt>
      <trkpt lat="62.634019658836" lon="17.980460109994">
        <ele>94.4</ele>
        <time>2017-12-19T12:52:01Z</time>
      </trkpt>
      <trkpt lat="62.634033824247" lon="17.9804244031">
        <ele>94.2</ele>
        <time>2017-12-19T12:52:02Z</time>
      </trkpt>
      <trkpt lat="62.634057125929" lon="17.980375033709">
        <ele>94.4</ele>
        <time>2017-12-19T12:52:03Z</time>
      </trkpt>
      <trkpt lat="62.634082271629" lon="17.980323987938">
        <ele>94.4</ele>
        <time>2017-12-19T12:52:04Z</time>
      </trkpt>
      <trkpt lat="62.634107165872" lon="17.980280821153">
        <ele>94.4</ele>
        <time>2017-12-19T12:52:05Z</time>
      </trkpt>
      <trkpt lat="62.63413164102" lon="17.980227176993">
        <ele>94.4</ele>
        <time>2017-12-19T12:52:06Z</time>
      </trkpt>
      <trkpt lat="62.634145471155" lon="17.980175712127">
        <ele>94.4</ele>
        <time>2017-12-19T12:52:07Z</time>
      </trkpt>
      <trkpt lat="62.634169694846" lon="17.980111590592">
        <ele>94.4</ele>
        <time>2017-12-19T12:52:08Z</time>
      </trkpt>
      <trkpt lat="62.634191068691" lon="17.98004386484">
        <ele>94.4</ele>
        <time>2017-12-19T12:52:09Z</time>
      </trkpt>
      <trkpt lat="62.634216633486" lon="17.98000446991">
        <ele>94.4</ele>
        <time>2017-12-19T12:52:10Z</time>
      </trkpt>
      <trkpt lat="62.634244042299" lon="17.979945461334">
        <ele>94.4</ele>
        <time>2017-12-19T12:52:11Z</time>
      </trkpt>
      <trkpt lat="62.634258626805" lon="17.979888632052">
        <ele>94.4</ele>
        <time>2017-12-19T12:52:12Z</time>
      </trkpt>
      <trkpt lat="62.634273546587" lon="17.979817385902">
        <ele>94.4</ele>
        <time>2017-12-19T12:52:13Z</time>
      </trkpt>
      <trkpt lat="62.634294668975" lon="17.979746391209">
        <ele>94.6</ele>
        <time>2017-12-19T12:52:14Z</time>
      </trkpt>
      <trkpt lat="62.634310846042" lon="17.979682018217">
        <ele>94.4</ele>
        <time>2017-12-19T12:52:15Z</time>
      </trkpt>
      <trkpt lat="62.634328783308" lon="17.979605994384">
        <ele>94.6</ele>
        <time>2017-12-19T12:52:16Z</time>
      </trkpt>
      <trkpt lat="62.63434118852" lon="17.979546985808">
        <ele>94.4</ele>
        <time>2017-12-19T12:52:17Z</time>
      </trkpt>
      <trkpt lat="62.634353426094" lon="17.979470626699">
        <ele>94.4</ele>
        <time>2017-12-19T12:52:18Z</time>
      </trkpt>
      <trkpt lat="62.634369267885" lon="17.979403655318">
        <ele>94.4</ele>
        <time>2017-12-19T12:52:19Z</time>
      </trkpt>
      <trkpt lat="62.634381337821" lon="17.979344898199">
        <ele>94.4</ele>
        <time>2017-12-19T12:52:20Z</time>
      </trkpt>
      <trkpt lat="62.634393910671" lon="17.979283961786">
        <ele>94.4</ele>
        <time>2017-12-19T12:52:21Z</time>
      </trkpt>
      <trkpt lat="62.634406232064" lon="17.979215481663">
        <ele>94.4</ele>
        <time>2017-12-19T12:52:22Z</time>
      </trkpt>
      <trkpt lat="62.634419559285" lon="17.979155970173">
        <ele>94.4</ele>
        <time>2017-12-19T12:52:23Z</time>
      </trkpt>
      <trkpt lat="62.634430791031" lon="17.979092351552">
        <ele>94.4</ele>
        <time>2017-12-19T12:52:24Z</time>
      </trkpt>
      <trkpt lat="62.634441016949" lon="17.979028649112">
        <ele>94.4</ele>
        <time>2017-12-19T12:52:25Z</time>
      </trkpt>
      <trkpt lat="62.634456523464" lon="17.978963018835">
        <ele>94.6</ele>
        <time>2017-12-19T12:52:26Z</time>
      </trkpt>
      <trkpt lat="62.634468844857" lon="17.978908871761">
        <ele>94.6</ele>
        <time>2017-12-19T12:52:27Z</time>
      </trkpt>
      <trkpt lat="62.634485776295" lon="17.978856233429">
        <ele>94.6</ele>
        <time>2017-12-19T12:52:28Z</time>
      </trkpt>
      <trkpt lat="62.634508239787" lon="17.978825471856">
        <ele>94.6</ele>
        <time>2017-12-19T12:52:29Z</time>
      </trkpt>
      <trkpt lat="62.634549646373" lon="17.978786328383">
        <ele>94.6</ele>
        <time>2017-12-19T12:52:31Z</time>
      </trkpt>
      <trkpt lat="62.634562135404" lon="17.978777443569">
        <ele>94.4</ele>
        <time>2017-12-19T12:52:32Z</time>
      </trkpt>
      <trkpt lat="62.634575965539" lon="17.978777275931">
        <ele>94.4</ele>
        <time>2017-12-19T12:52:33Z</time>
      </trkpt>
      <trkpt lat="62.63458929276" lon="17.978775934827">
        <ele>94.4</ele>
        <time>2017-12-19T12:52:34Z</time>
      </trkpt>
      <trkpt lat="62.634604799275" lon="17.978774593723">
        <ele>94.4</ele>
        <time>2017-12-19T12:52:35Z</time>
      </trkpt>
      <trkpt lat="62.63462952588" lon="17.978785909288">
        <ele>94.4</ele>
        <time>2017-12-19T12:52:36Z</time>
      </trkpt>
      <trkpt lat="62.634656683236" lon="17.978800409975">
        <ele>94.6</ele>
        <time>2017-12-19T12:52:37Z</time>
      </trkpt>
      <trkpt lat="62.634687444809" lon="17.978818263422">
        <ele>94.6</ele>
        <time>2017-12-19T12:52:38Z</time>
      </trkpt>
      <trkpt lat="62.634716362364" lon="17.978837793249">
        <ele>94.4</ele>
        <time>2017-12-19T12:52:39Z</time>
      </trkpt>
      <trkpt lat="62.634749303231" lon="17.978859670008">
        <ele>94.4</ele>
        <time>2017-12-19T12:52:40Z</time>
      </trkpt>
      <trkpt lat="62.634789284894" lon="17.978870566478">
        <ele>94.2</ele>
        <time>2017-12-19T12:52:41Z</time>
      </trkpt>
      <trkpt lat="62.634828428367" lon="17.978886911183">
        <ele>94.2</ele>
        <time>2017-12-19T12:52:42Z</time>
      </trkpt>
      <trkpt lat="62.63487260098" lon="17.978897556196">
        <ele>94</ele>
        <time>2017-12-19T12:52:43Z</time>
      </trkpt>
      <trkpt lat="62.634908726969" lon="17.978904932268">
        <ele>93.8</ele>
        <time>2017-12-19T12:52:44Z</time>
      </trkpt>
      <trkpt lat="62.634942589845" lon="17.978917756575">
        <ele>93.6</ele>
        <time>2017-12-19T12:52:45Z</time>
      </trkpt>
      <trkpt lat="62.63497066921" lon="17.978932676357">
        <ele>93.4</ele>
        <time>2017-12-19T12:52:46Z</time>
      </trkpt>
      <trkpt lat="62.634999083851" lon="17.978950697442">
        <ele>93.4</ele>
        <time>2017-12-19T12:52:47Z</time>
      </trkpt>
      <trkpt lat="62.635033114365" lon="17.978960588084">
        <ele>93.4</ele>
        <time>2017-12-19T12:52:48Z</time>
      </trkpt>
      <trkpt lat="62.635064378852" lon="17.978975843142">
        <ele>93.4</ele>
        <time>2017-12-19T12:52:49Z</time>
      </trkpt>
      <trkpt lat="62.63510058866" lon="17.978985398508">
        <ele>93.4</ele>
        <time>2017-12-19T12:52:50Z</time>
      </trkpt>
      <trkpt lat="62.635143001074" lon="17.979002497584">
        <ele>93.4</ele>
        <time>2017-12-19T12:52:51Z</time>
      </trkpt>
      <trkpt lat="62.635182060728" lon="17.979009622199">
        <ele>93.4</ele>
        <time>2017-12-19T12:52:52Z</time>
      </trkpt>
      <trkpt lat="62.635227742083" lon="17.979019931936">
        <ele>93.2</ele>
        <time>2017-12-19T12:52:53Z</time>
      </trkpt>
      <trkpt lat="62.635278704035" lon="17.979032420967">
        <ele>93</ele>
        <time>2017-12-19T12:52:54Z</time>
      </trkpt>
      <trkpt lat="62.635321116449" lon="17.979040719048">
        <ele>92.8</ele>
        <time>2017-12-19T12:52:55Z</time>
      </trkpt>
      <trkpt lat="62.635362439216" lon="17.979047759844">
        <ele>92.6</ele>
        <time>2017-12-19T12:52:56Z</time>
      </trkpt>
      <trkpt lat="62.635400828318" lon="17.979050693509">
        <ele>92.4</ele>
        <time>2017-12-19T12:52:57Z</time>
      </trkpt>
      <trkpt lat="62.635441899628" lon="17.979051615518">
        <ele>92</ele>
        <time>2017-12-19T12:52:58Z</time>
      </trkpt>
      <trkpt lat="62.635489844096" lon="17.979045915826">
        <ele>91.6</ele>
        <time>2017-12-19T12:52:59Z</time>
      </trkpt>
      <trkpt lat="62.635535441632" lon="17.979039377944">
        <ele>91.4</ele>
        <time>2017-12-19T12:53:00Z</time>
      </trkpt>
      <trkpt lat="62.635581793539" lon="17.979031750415">
        <ele>91</ele>
        <time>2017-12-19T12:53:01Z</time>
      </trkpt>
      <trkpt lat="62.635620098822" lon="17.979030744587">
        <ele>90.8</ele>
        <time>2017-12-19T12:53:02Z</time>
      </trkpt>
      <trkpt lat="62.635673156249" lon="17.979028313836">
        <ele>90.4</ele>
        <time>2017-12-19T12:53:03Z</time>
      </trkpt>
      <trkpt lat="62.635717412681" lon="17.979028146198">
        <ele>90.2</ele>
        <time>2017-12-19T12:53:04Z</time>
      </trkpt>
      <trkpt lat="62.635766195339" lon="17.979028146198">
        <ele>89.6</ele>
        <time>2017-12-19T12:53:05Z</time>
      </trkpt>
      <trkpt lat="62.635811289961" lon="17.979033510614">
        <ele>89.4</ele>
        <time>2017-12-19T12:53:06Z</time>
      </trkpt>
      <trkpt lat="62.635851439262" lon="17.979045245274">
        <ele>89.2</ele>
        <time>2017-12-19T12:53:07Z</time>
      </trkpt>
      <trkpt lat="62.635890834192" lon="17.979061841436">
        <ele>89</ele>
        <time>2017-12-19T12:53:08Z</time>
      </trkpt>
      <trkpt lat="62.635923020688" lon="17.9790749172">
        <ele>89</ele>
        <time>2017-12-19T12:53:09Z</time>
      </trkpt>
      <trkpt lat="62.635952441157" lon="17.979085143118">
        <ele>89</ele>
        <time>2017-12-19T12:53:10Z</time>
      </trkpt>
      <trkpt lat="62.635978005952" lon="17.979096542502">
        <ele>89.4</ele>
        <time>2017-12-19T12:53:11Z</time>
      </trkpt>
      <trkpt lat="62.63599661377" lon="17.979104840583">
        <ele>89.6</ele>
        <time>2017-12-19T12:53:12Z</time>
      </trkpt>
      <trkpt lat="62.636018825805" lon="17.979118419261">
        <ele>90</ele>
        <time>2017-12-19T12:53:13Z</time>
      </trkpt>
      <trkpt lat="62.636036176338" lon="17.979132417034">
        <ele>90.2</ele>
        <time>2017-12-19T12:53:14Z</time>
      </trkpt>
      <trkpt lat="62.63604941974" lon="17.97915454525">
        <ele>90.4</ele>
        <time>2017-12-19T12:53:15Z</time>
      </trkpt>
      <trkpt lat="62.636057047269" lon="17.97917969095">
        <ele>90.6</ele>
        <time>2017-12-19T12:53:16Z</time>
      </trkpt>
      <trkpt lat="62.636057298726" lon="17.979215565482">
        <ele>90.6</ele>
        <time>2017-12-19T12:53:17Z</time>
      </trkpt>
      <trkpt lat="62.636052604862" lon="17.979256301516">
        <ele>90.6</ele>
        <time>2017-12-19T12:53:18Z</time>
      </trkpt>
      <trkpt lat="62.636045061152" lon="17.979282285406">
        <ele>90.8</ele>
        <time>2017-12-19T12:53:19Z</time>
      </trkpt>
      <trkpt lat="62.636038104175" lon="17.979316483558">
        <ele>90.6</ele>
        <time>2017-12-19T12:53:21Z</time>
      </trkpt>
      <trkpt lat="62.6360360087" lon="17.97933391791">
        <ele>90.6</ele>
        <time>2017-12-19T12:53:22Z</time>
      </trkpt>
      <trkpt lat="62.636035841062" lon="17.979371720279">
        <ele>90.6</ele>
        <time>2017-12-19T12:53:23Z</time>
      </trkpt>
      <trkpt lat="62.636030057551" lon="17.979423939516">
        <ele>90.4</ele>
        <time>2017-12-19T12:53:24Z</time>
      </trkpt>
      <trkpt lat="62.636021088918" lon="17.979485797938">
        <ele>90.4</ele>
        <time>2017-12-19T12:53:25Z</time>
      </trkpt>
      <trkpt lat="62.636013712846" lon="17.979562659961">
        <ele>90.2</ele>
        <time>2017-12-19T12:53:26Z</time>
      </trkpt>
      <trkpt lat="62.636009689534" lon="17.979651759558">
        <ele>90</ele>
        <time>2017-12-19T12:53:27Z</time>
      </trkpt>
      <trkpt lat="62.636004408937" lon="17.979763322647">
        <ele>89.8</ele>
        <time>2017-12-19T12:53:28Z</time>
      </trkpt>
      <trkpt lat="62.636005414765" lon="17.979917465788">
        <ele>89.2</ele>
        <time>2017-12-19T12:53:29Z</time>
      </trkpt>
      <trkpt lat="62.636012874656" lon="17.980065154866">
        <ele>88.4</ele>
        <time>2017-12-19T12:53:30Z</time>
      </trkpt>
      <trkpt lat="62.636029135542" lon="17.98019725361">
        <ele>87.4</ele>
        <time>2017-12-19T12:53:31Z</time>
      </trkpt>
      <trkpt lat="62.636049252102" lon="17.980331280191">
        <ele>86.6</ele>
        <time>2017-12-19T12:53:32Z</time>
      </trkpt>
      <trkpt lat="62.636074397802" lon="17.980489111368">
        <ele>85.6</ele>
        <time>2017-12-19T12:53:33Z</time>
      </trkpt>
      <trkpt lat="62.63609552019" lon="17.980616180972">
        <ele>84.8</ele>
        <time>2017-12-19T12:53:34Z</time>
      </trkpt>
      <trkpt lat="62.636119408605" lon="17.980741322739">
        <ele>84.2</ele>
        <time>2017-12-19T12:53:35Z</time>
      </trkpt>
      <trkpt lat="62.636146314504" lon="17.9808602619">
        <ele>83.8</ele>
        <time>2017-12-19T12:53:36Z</time>
      </trkpt>
      <trkpt lat="62.636172130756" lon="17.980976183577">
        <ele>83.4</ele>
        <time>2017-12-19T12:53:37Z</time>
      </trkpt>
      <trkpt lat="62.636193336963" lon="17.981116161307">
        <ele>83.2</ele>
        <time>2017-12-19T12:53:38Z</time>
      </trkpt>
      <trkpt lat="62.636209597849" lon="17.981243985282">
        <ele>83</ele>
        <time>2017-12-19T12:53:39Z</time>
      </trkpt>
      <trkpt lat="62.636217644473" lon="17.98136569047">
        <ele>82.8</ele>
        <time>2017-12-19T12:53:40Z</time>
      </trkpt>
      <trkpt lat="62.636226194011" lon="17.981480606319">
        <ele>82.6</ele>
        <time>2017-12-19T12:53:41Z</time>
      </trkpt>
      <trkpt lat="62.636238515404" lon="17.981581608214">
        <ele>82.4</ele>
        <time>2017-12-19T12:53:42Z</time>
      </trkpt>
      <trkpt lat="62.636252177901" lon="17.981682358652">
        <ele>82.2</ele>
        <time>2017-12-19T12:53:43Z</time>
      </trkpt>
      <trkpt lat="62.636260895077" lon="17.981786880945">
        <ele>82.2</ele>
        <time>2017-12-19T12:53:44Z</time>
      </trkpt>
      <trkpt lat="62.63626567276" lon="17.98188033913">
        <ele>82.2</ele>
        <time>2017-12-19T12:53:45Z</time>
      </trkpt>
      <trkpt lat="62.636270282805" lon="17.981974970781">
        <ele>82.2</ele>
        <time>2017-12-19T12:53:46Z</time>
      </trkpt>
      <trkpt lat="62.636283190931" lon="17.982067590776">
        <ele>82.6</ele>
        <time>2017-12-19T12:53:47Z</time>
      </trkpt>
      <trkpt lat="62.636294338858" lon="17.982180243512">
        <ele>82.8</ele>
        <time>2017-12-19T12:53:48Z</time>
      </trkpt>
      <trkpt lat="62.636298278351" lon="17.982287196556">
        <ele>83.2</ele>
        <time>2017-12-19T12:53:49Z</time>
      </trkpt>
      <trkpt lat="62.636304648595" lon="17.98237319485">
        <ele>83.6</ele>
        <time>2017-12-19T12:53:50Z</time>
      </trkpt>
      <trkpt lat="62.636301966387" lon="17.982460282791">
        <ele>83.8</ele>
        <time>2017-12-19T12:53:51Z</time>
      </trkpt>
      <trkpt lat="62.636302720758" lon="17.982542006316">
        <ele>83.8</ele>
        <time>2017-12-19T12:53:52Z</time>
      </trkpt>
      <trkpt lat="62.636298948903" lon="17.982632111741">
        <ele>83.8</ele>
        <time>2017-12-19T12:53:53Z</time>
      </trkpt>
      <trkpt lat="62.636298948903" lon="17.982709141402">
        <ele>83.8</ele>
        <time>2017-12-19T12:53:54Z</time>
      </trkpt>
      <trkpt lat="62.636304564776" lon="17.982785249054">
        <ele>83.8</ele>
        <time>2017-12-19T12:53:55Z</time>
      </trkpt>
      <trkpt lat="62.63630171493" lon="17.982868648959">
        <ele>83.8</ele>
        <time>2017-12-19T12:53:56Z</time>
      </trkpt>
      <trkpt lat="62.636296015238" lon="17.982947522638">
        <ele>83.8</ele>
        <time>2017-12-19T12:53:57Z</time>
      </trkpt>
      <trkpt lat="62.636296853428" lon="17.983012230906">
        <ele>83.8</ele>
        <time>2017-12-19T12:53:58Z</time>
      </trkpt>
      <trkpt lat="62.636294003582" lon="17.983079202287">
        <ele>84</ele>
        <time>2017-12-19T12:53:59Z</time>
      </trkpt>
      <trkpt lat="62.636291405193" lon="17.983149023514">
        <ele>84</ele>
        <time>2017-12-19T12:54:00Z</time>
      </trkpt>
      <trkpt lat="62.63629081846" lon="17.983216916904">
        <ele>84</ele>
        <time>2017-12-19T12:54:01Z</time>
      </trkpt>
      <trkpt lat="62.636289393537" lon="17.983284977932">
        <ele>84</ele>
        <time>2017-12-19T12:54:02Z</time>
      </trkpt>
      <trkpt lat="62.636293165392" lon="17.983369551303">
        <ele>84</ele>
        <time>2017-12-19T12:54:03Z</time>
      </trkpt>
      <trkpt lat="62.636291069917" lon="17.983436774141">
        <ele>84</ele>
        <time>2017-12-19T12:54:04Z</time>
      </trkpt>
      <trkpt lat="62.636284280578" lon="17.983500979495">
        <ele>84</ele>
        <time>2017-12-19T12:54:05Z</time>
      </trkpt>
      <trkpt lat="62.636278999981" lon="17.983562251184">
        <ele>84</ele>
        <time>2017-12-19T12:54:06Z</time>
      </trkpt>
      <trkpt lat="62.636275563402" lon="17.983606842892">
        <ele>84.2</ele>
        <time>2017-12-19T12:54:07Z</time>
      </trkpt>
      <trkpt lat="62.636269193158" lon="17.983664091269">
        <ele>84.4</ele>
        <time>2017-12-19T12:54:08Z</time>
      </trkpt>
      <trkpt lat="62.636264080199" lon="17.983735085962">
        <ele>84.4</ele>
        <time>2017-12-19T12:54:09Z</time>
      </trkpt>
      <trkpt lat="62.636261062715" lon="17.983794513633">
        <ele>84.6</ele>
        <time>2017-12-19T12:54:10Z</time>
      </trkpt>
      <trkpt lat="62.636256536489" lon="17.983855617684">
        <ele>84.8</ele>
        <time>2017-12-19T12:54:11Z</time>
      </trkpt>
      <trkpt lat="62.63624974715" lon="17.983918398115">
        <ele>84.8</ele>
        <time>2017-12-19T12:54:12Z</time>
      </trkpt>
      <trkpt lat="62.636247316399" lon="17.983975730311">
        <ele>84.8</ele>
        <time>2017-12-19T12:54:13Z</time>
      </trkpt>
      <trkpt lat="62.636241616707" lon="17.984029206833">
        <ele>85</ele>
        <time>2017-12-19T12:54:14Z</time>
      </trkpt>
      <trkpt lat="62.636233737721" lon="17.984081928984">
        <ele>84.8</ele>
        <time>2017-12-19T12:54:15Z</time>
      </trkpt>
      <trkpt lat="62.636226780744" lon="17.984134148221">
        <ele>85</ele>
        <time>2017-12-19T12:54:16Z</time>
      </trkpt>
      <trkpt lat="62.636218063568" lon="17.9841878762">
        <ele>85</ele>
        <time>2017-12-19T12:54:17Z</time>
      </trkpt>
      <trkpt lat="62.63620951403" lon="17.984252333011">
        <ele>85.2</ele>
        <time>2017-12-19T12:54:18Z</time>
      </trkpt>
      <trkpt lat="62.636200629216" lon="17.984304971343">
        <ele>85.2</ele>
        <time>2017-12-19T12:54:19Z</time>
      </trkpt>
      <trkpt lat="62.636197947008" lon="17.984358112589">
        <ele>85.2</ele>
        <time>2017-12-19T12:54:20Z</time>
      </trkpt>
      <trkpt lat="62.636192331135" lon="17.984422317943">
        <ele>85.4</ele>
        <time>2017-12-19T12:54:21Z</time>
      </trkpt>
      <trkpt lat="62.636191409126" lon="17.984486523297">
        <ele>85.4</ele>
        <time>2017-12-19T12:54:22Z</time>
      </trkpt>
      <trkpt lat="62.636192834049" lon="17.984539413086">
        <ele>85.6</ele>
        <time>2017-12-19T12:54:23Z</time>
      </trkpt>
      <trkpt lat="62.636191576764" lon="17.984586770821">
        <ele>85.8</ele>
        <time>2017-12-19T12:54:24Z</time>
      </trkpt>
      <trkpt lat="62.63618772109" lon="17.984637816592">
        <ele>85.8</ele>
        <time>2017-12-19T12:54:25Z</time>
      </trkpt>
      <trkpt lat="62.636186631443" lon="17.984683917042">
        <ele>86</ele>
        <time>2017-12-19T12:54:26Z</time>
      </trkpt>
      <trkpt lat="62.636183446321" lon="17.984729179302">
        <ele>86</ele>
        <time>2017-12-19T12:54:27Z</time>
      </trkpt>
      <trkpt lat="62.636179758285" lon="17.984785421851">
        <ele>86.2</ele>
        <time>2017-12-19T12:54:28Z</time>
      </trkpt>
      <trkpt lat="62.636178836276" lon="17.984833450138">
        <ele>86.2</ele>
        <time>2017-12-19T12:54:29Z</time>
      </trkpt>
      <trkpt lat="62.636176992258" lon="17.984875946371">
        <ele>86.2</ele>
        <time>2017-12-19T12:54:30Z</time>
      </trkpt>
      <trkpt lat="62.636172466032" lon="17.984928752341">
        <ele>86.2</ele>
        <time>2017-12-19T12:54:31Z</time>
      </trkpt>
      <trkpt lat="62.63616592815" lon="17.984975858619">
        <ele>86.2</ele>
        <time>2017-12-19T12:54:32Z</time>
      </trkpt>
      <trkpt lat="62.636163916494" lon="17.985022797259">
        <ele>86.4</ele>
        <time>2017-12-19T12:54:33Z</time>
      </trkpt>
      <trkpt lat="62.636163245942" lon="17.985083817491">
        <ele>86.4</ele>
        <time>2017-12-19T12:54:34Z</time>
      </trkpt>
      <trkpt lat="62.636162491571" lon="17.985141484963">
        <ele>86.6</ele>
        <time>2017-12-19T12:54:35Z</time>
      </trkpt>
      <trkpt lat="62.636163748856" lon="17.985184819386">
        <ele>86.8</ele>
        <time>2017-12-19T12:54:36Z</time>
      </trkpt>
      <trkpt lat="62.636159809363" lon="17.985229662551">
        <ele>86.8</ele>
        <time>2017-12-19T12:54:37Z</time>
      </trkpt>
      <trkpt lat="62.636152852386" lon="17.985287665299">
        <ele>86.8</ele>
        <time>2017-12-19T12:54:38Z</time>
      </trkpt>
      <trkpt lat="62.636155534594" lon="17.985340219812">
        <ele>86.8</ele>
        <time>2017-12-19T12:54:39Z</time>
      </trkpt>
      <trkpt lat="62.636155283137" lon="17.985386655538">
        <ele>86.8</ele>
        <time>2017-12-19T12:54:40Z</time>
      </trkpt>
      <trkpt lat="62.636151930377" lon="17.985439880603">
        <ele>87</ele>
        <time>2017-12-19T12:54:41Z</time>
      </trkpt>
      <trkpt lat="62.636148745255" lon="17.985478102067">
        <ele>87</ele>
        <time>2017-12-19T12:54:42Z</time>
      </trkpt>
      <trkpt lat="62.636141285364" lon="17.985531746227">
        <ele>87.2</ele>
        <time>2017-12-19T12:54:43Z</time>
      </trkpt>
      <trkpt lat="62.636131394722" lon="17.985587737319">
        <ele>87.2</ele>
        <time>2017-12-19T12:54:44Z</time>
      </trkpt>
      <trkpt lat="62.636126365582" lon="17.985628221896">
        <ele>87.2</ele>
        <time>2017-12-19T12:54:45Z</time>
      </trkpt>
      <trkpt lat="62.636117480768" lon="17.985673819432">
        <ele>87.2</ele>
        <time>2017-12-19T12:54:46Z</time>
      </trkpt>
      <trkpt lat="62.636106249022" lon="17.985709358688">
        <ele>87.4</ele>
        <time>2017-12-19T12:54:47Z</time>
      </trkpt>
      <trkpt lat="62.636097280389" lon="17.985746741962">
        <ele>87.4</ele>
        <time>2017-12-19T12:54:48Z</time>
      </trkpt>
      <trkpt lat="62.636086551557" lon="17.98577792263">
        <ele>87.4</ele>
        <time>2017-12-19T12:54:49Z</time>
      </trkpt>
      <trkpt lat="62.636070961223" lon="17.985811701687">
        <ele>87.6</ele>
        <time>2017-12-19T12:54:50Z</time>
      </trkpt>
      <trkpt lat="62.636052521043" lon="17.985843469088">
        <ele>87.8</ele>
        <time>2017-12-19T12:54:51Z</time>
      </trkpt>
      <trkpt lat="62.636043803867" lon="17.985864088562">
        <ele>87.8</ele>
        <time>2017-12-19T12:54:52Z</time>
      </trkpt>
      <trkpt lat="62.636031231017" lon="17.985884456579">
        <ele>88</ele>
        <time>2017-12-19T12:54:53Z</time>
      </trkpt>
      <trkpt lat="62.636010108629" lon="17.985902058569">
        <ele>88</ele>
        <time>2017-12-19T12:54:54Z</time>
      </trkpt>
      <trkpt lat="62.635990914078" lon="17.985917145989">
        <ele>88.2</ele>
        <time>2017-12-19T12:54:55Z</time>
      </trkpt>
      <trkpt lat="62.635978005952" lon="17.985930557029">
        <ele>88.2</ele>
        <time>2017-12-19T12:54:56Z</time>
      </trkpt>
      <trkpt lat="62.635957805573" lon="17.985948829571">
        <ele>88.4</ele>
        <time>2017-12-19T12:54:57Z</time>
      </trkpt>
      <trkpt lat="62.635937269918" lon="17.98597070633">
        <ele>88.4</ele>
        <time>2017-12-19T12:54:58Z</time>
      </trkpt>
      <trkpt lat="62.635911788942" lon="17.985992666908">
        <ele>88.4</ele>
        <time>2017-12-19T12:54:59Z</time>
      </trkpt>
      <trkpt lat="62.635875830591" lon="17.986027619431">
        <ele>88.6</ele>
        <time>2017-12-19T12:55:00Z</time>
      </trkpt>
      <trkpt lat="62.635846913036" lon="17.986053519502">
        <ele>88.6</ele>
        <time>2017-12-19T12:55:01Z</time>
      </trkpt>
      <trkpt lat="62.63582310844" lon="17.986089394034">
        <ele>88.6</ele>
        <time>2017-12-19T12:55:02Z</time>
      </trkpt>
      <trkpt lat="62.63579712455" lon="17.986118898322">
        <ele>88.8</ele>
        <time>2017-12-19T12:55:03Z</time>
      </trkpt>
      <trkpt lat="62.63577030247" lon="17.986150246628">
        <ele>88.8</ele>
        <time>2017-12-19T12:55:04Z</time>
      </trkpt>
      <trkpt lat="62.635748928625" lon="17.986186875531">
        <ele>88.8</ele>
        <time>2017-12-19T12:55:05Z</time>
      </trkpt>
      <trkpt lat="62.635729734074" lon="17.986223672072">
        <ele>89</ele>
        <time>2017-12-19T12:55:06Z</time>
      </trkpt>
      <trkpt lat="62.635716909767" lon="17.986257115853">
        <ele>89</ele>
        <time>2017-12-19T12:55:07Z</time>
      </trkpt>
      <trkpt lat="62.635701906166" lon="17.98628921853">
        <ele>89.2</ele>
        <time>2017-12-19T12:55:08Z</time>
      </trkpt>
      <trkpt lat="62.635686567289" lon="17.986325176881">
        <ele>89.4</ele>
        <time>2017-12-19T12:55:09Z</time>
      </trkpt>
      <trkpt lat="62.635674245896" lon="17.986360967594">
        <ele>89.6</ele>
        <time>2017-12-19T12:55:10Z</time>
      </trkpt>
      <trkpt lat="62.635656895363" lon="17.98639818323">
        <ele>89.8</ele>
        <time>2017-12-19T12:55:11Z</time>
      </trkpt>
      <trkpt lat="62.635640047744" lon="17.986445457146">
        <ele>90</ele>
        <time>2017-12-19T12:55:12Z</time>
      </trkpt>
      <trkpt lat="62.63562278103" lon="17.986496838193">
        <ele>90.2</ele>
        <time>2017-12-19T12:55:13Z</time>
      </trkpt>
      <trkpt lat="62.63560769361" lon="17.986538663874">
        <ele>90.2</ele>
        <time>2017-12-19T12:55:14Z</time>
      </trkpt>
      <trkpt lat="62.635594617846" lon="17.986580824831">
        <ele>90.2</ele>
        <time>2017-12-19T12:55:15Z</time>
      </trkpt>
      <trkpt lat="62.635573830734" lon="17.986625081263">
        <ele>90.2</ele>
        <time>2017-12-19T12:55:16Z</time>
      </trkpt>
      <trkpt lat="62.635554803821" lon="17.986668834781">
        <ele>90.4</ele>
        <time>2017-12-19T12:55:17Z</time>
      </trkpt>
      <trkpt lat="62.635538542935" lon="17.986716192516">
        <ele>90.4</ele>
        <time>2017-12-19T12:55:18Z</time>
      </trkpt>
      <trkpt lat="62.635525299533" lon="17.986759778396">
        <ele>90.4</ele>
        <time>2017-12-19T12:55:19Z</time>
      </trkpt>
      <trkpt lat="62.635510044475" lon="17.986800346792">
        <ele>90.6</ele>
        <time>2017-12-19T12:55:20Z</time>
      </trkpt>
      <trkpt lat="62.635497136349" lon="17.986845525233">
        <ele>90.6</ele>
        <time>2017-12-19T12:55:21Z</time>
      </trkpt>
      <trkpt lat="62.63547609778" lon="17.986891625683">
        <ele>90.6</ele>
        <time>2017-12-19T12:55:22Z</time>
      </trkpt>
      <trkpt lat="62.635453885745" lon="17.986939989246">
        <ele>90.8</ele>
        <time>2017-12-19T12:55:23Z</time>
      </trkpt>
      <trkpt lat="62.635442653999" lon="17.98697988709">
        <ele>90.8</ele>
        <time>2017-12-19T12:55:24Z</time>
      </trkpt>
      <trkpt lat="62.63542999733" lon="17.987016264536">
        <ele>91</ele>
        <time>2017-12-19T12:55:25Z</time>
      </trkpt>
      <trkpt lat="62.635414658453" lon="17.987055408009">
        <ele>91.2</ele>
        <time>2017-12-19T12:55:26Z</time>
      </trkpt>
      <trkpt lat="62.63540066068" lon="17.987086672496">
        <ele>91.4</ele>
        <time>2017-12-19T12:55:27Z</time>
      </trkpt>
      <trkpt lat="62.635389848029" lon="17.987117685526">
        <ele>91.4</ele>
        <time>2017-12-19T12:55:28Z</time>
      </trkpt>
      <trkpt lat="62.635379622111" lon="17.987159511207">
        <ele>91.6</ele>
        <time>2017-12-19T12:55:29Z</time>
      </trkpt>
      <trkpt lat="62.635363277406" lon="17.987200414879">
        <ele>91.8</ele>
        <time>2017-12-19T12:55:30Z</time>
      </trkpt>
      <trkpt lat="62.63534282557" lon="17.987229500072">
        <ele>91.6</ele>
        <time>2017-12-19T12:55:31Z</time>
      </trkpt>
      <trkpt lat="62.635328911616" lon="17.987256741247">
        <ele>91.8</ele>
        <time>2017-12-19T12:55:32Z</time>
      </trkpt>
      <trkpt lat="62.635304855563" lon="17.987298147833">
        <ele>91.8</ele>
        <time>2017-12-19T12:55:33Z</time>
      </trkpt>
      <trkpt lat="62.635285912469" lon="17.987331591614">
        <ele>91.8</ele>
        <time>2017-12-19T12:55:34Z</time>
      </trkpt>
      <trkpt lat="62.635273423438" lon="17.987365119214">
        <ele>91.8</ele>
        <time>2017-12-19T12:55:35Z</time>
      </trkpt>
      <trkpt lat="62.635252468688" lon="17.987408453637">
        <ele>92.2</ele>
        <time>2017-12-19T12:55:36Z</time>
      </trkpt>
      <trkpt lat="62.635233693232" lon="17.987437790287">
        <ele>92.2</ele>
        <time>2017-12-19T12:55:37Z</time>
      </trkpt>
      <trkpt lat="62.635220030735" lon="17.987465031462">
        <ele>92.2</ele>
        <time>2017-12-19T12:55:38Z</time>
      </trkpt>
      <trkpt lat="62.635201003822" lon="17.987499648709">
        <ele>92.2</ele>
        <time>2017-12-19T12:55:39Z</time>
      </trkpt>
      <trkpt lat="62.635182647461" lon="17.987535774698">
        <ele>92.4</ele>
        <time>2017-12-19T12:55:40Z</time>
      </trkpt>
      <trkpt lat="62.635169571697" lon="17.987564440796">
        <ele>92.4</ele>
        <time>2017-12-19T12:55:41Z</time>
      </trkpt>
      <trkpt lat="62.635154400458" lon="17.987590424686">
        <ele>92.6</ele>
        <time>2017-12-19T12:55:42Z</time>
      </trkpt>
      <trkpt lat="62.635138474848" lon="17.987618839327">
        <ele>92.6</ele>
        <time>2017-12-19T12:55:43Z</time>
      </trkpt>
      <trkpt lat="62.635122046324" lon="17.987648678891">
        <ele>92.8</ele>
        <time>2017-12-19T12:55:44Z</time>
      </trkpt>
      <trkpt lat="62.635106036895" lon="17.987675081876">
        <ele>93</ele>
        <time>2017-12-19T12:55:45Z</time>
      </trkpt>
      <trkpt lat="62.635081058833" lon="17.987714392987">
        <ele>93.2</ele>
        <time>2017-12-19T12:55:46Z</time>
      </trkpt>
      <trkpt lat="62.635063792119" lon="17.987745908931">
        <ele>93.2</ele>
        <time>2017-12-19T12:55:47Z</time>
      </trkpt>
      <trkpt lat="62.635048034147" lon="17.987772982468">
        <ele>93.2</ele>
        <time>2017-12-19T12:55:48Z</time>
      </trkpt>
      <trkpt lat="62.635027414673" lon="17.987798044349">
        <ele>93.4</ele>
        <time>2017-12-19T12:55:49Z</time>
      </trkpt>
      <trkpt lat="62.635005705552" lon="17.987826961904">
        <ele>93.6</ele>
        <time>2017-12-19T12:55:50Z</time>
      </trkpt>
      <trkpt lat="62.63499246215" lon="17.987853532527">
        <ele>93.6</ele>
        <time>2017-12-19T12:55:51Z</time>
      </trkpt>
      <trkpt lat="62.63497402197" lon="17.987885299928">
        <ele>93.8</ele>
        <time>2017-12-19T12:55:52Z</time>
      </trkpt>
      <trkpt lat="62.634953737772" lon="17.987912457284">
        <ele>93.8</ele>
        <time>2017-12-19T12:55:53Z</time>
      </trkpt>
      <trkpt lat="62.634940997284" lon="17.987933831129">
        <ele>94</ele>
        <time>2017-12-19T12:55:54Z</time>
      </trkpt>
      <trkpt lat="62.634924233484" lon="17.987951014024">
        <ele>94.2</ele>
        <time>2017-12-19T12:55:55Z</time>
      </trkpt>
      <trkpt lat="62.634904284562" lon="17.9879681131">
        <ele>94.2</ele>
        <time>2017-12-19T12:55:56Z</time>
      </trkpt>
      <trkpt lat="62.634883665088" lon="17.987995270456">
        <ele>94.4</ele>
        <time>2017-12-19T12:55:57Z</time>
      </trkpt>
      <trkpt lat="62.634866566012" lon="17.988013626817">
        <ele>94.4</ele>
        <time>2017-12-19T12:55:58Z</time>
      </trkpt>
      <trkpt lat="62.634848209651" lon="17.988027205495">
        <ele>94.6</ele>
        <time>2017-12-19T12:55:59Z</time>
      </trkpt>
      <trkpt lat="62.634834630973" lon="17.988042460553">
        <ele>94.6</ele>
        <time>2017-12-19T12:56:00Z</time>
      </trkpt>
      <trkpt lat="62.63481392768" lon="17.988051345367">
        <ele>95</ele>
        <time>2017-12-19T12:56:01Z</time>
      </trkpt>
      <trkpt lat="62.634795738957" lon="17.988054949584">
        <ele>95</ele>
        <time>2017-12-19T12:56:02Z</time>
      </trkpt>
      <trkpt lat="62.634777382596" lon="17.988060146362">
        <ele>95.2</ele>
        <time>2017-12-19T12:56:03Z</time>
      </trkpt>
      <trkpt lat="62.634753326543" lon="17.98806618133">
        <ele>95.2</ele>
        <time>2017-12-19T12:56:04Z</time>
      </trkpt>
      <trkpt lat="62.634730192499" lon="17.988064421131">
        <ele>95.4</ele>
        <time>2017-12-19T12:56:05Z</time>
      </trkpt>
      <trkpt lat="62.634711165586" lon="17.988070539918">
        <ele>95.4</ele>
        <time>2017-12-19T12:56:06Z</time>
      </trkpt>
      <trkpt lat="62.634690965207" lon="17.988069953185">
        <ele>95.4</ele>
        <time>2017-12-19T12:56:07Z</time>
      </trkpt>
      <trkpt lat="62.634665819507" lon="17.988068025348">
        <ele>95.6</ele>
        <time>2017-12-19T12:56:08Z</time>
      </trkpt>
      <trkpt lat="62.634647882241" lon="17.988071964841">
        <ele>95.6</ele>
        <time>2017-12-19T12:56:09Z</time>
      </trkpt>
      <trkpt lat="62.634627765681" lon="17.988080514379">
        <ele>95.6</ele>
        <time>2017-12-19T12:56:10Z</time>
      </trkpt>
      <trkpt lat="62.634604212542" lon="17.988083028949">
        <ele>95.6</ele>
        <time>2017-12-19T12:56:11Z</time>
      </trkpt>
      <trkpt lat="62.634584682715" lon="17.988088225727">
        <ele>95.8</ele>
        <time>2017-12-19T12:56:12Z</time>
      </trkpt>
      <trkpt lat="62.634560459024" lon="17.988113371427">
        <ele>95.8</ele>
        <time>2017-12-19T12:56:13Z</time>
      </trkpt>
      <trkpt lat="62.634536989704" lon="17.988116975644">
        <ele>96</ele>
        <time>2017-12-19T12:56:14Z</time>
      </trkpt>
      <trkpt lat="62.634519806809" lon="17.98812317825">
        <ele>96</ele>
        <time>2017-12-19T12:56:15Z</time>
      </trkpt>
      <trkpt lat="62.634500360801" lon="17.988130302865">
        <ele>96</ele>
        <time>2017-12-19T12:56:16Z</time>
      </trkpt>
      <trkpt lat="62.634475634196" lon="17.98814078024">
        <ele>96.2</ele>
        <time>2017-12-19T12:56:17Z</time>
      </trkpt>
      <trkpt lat="62.634450488496" lon="17.988155700022">
        <ele>96.4</ele>
        <time>2017-12-19T12:56:18Z</time>
      </trkpt>
      <trkpt lat="62.63442752209" lon="17.988162489361">
        <ele>96.4</ele>
        <time>2017-12-19T12:56:19Z</time>
      </trkpt>
      <trkpt lat="62.634410925928" lon="17.988169865433">
        <ele>96.4</ele>
        <time>2017-12-19T12:56:20Z</time>
      </trkpt>
      <trkpt lat="62.634391228463" lon="17.988179420799">
        <ele>96.4</ele>
        <time>2017-12-19T12:56:21Z</time>
      </trkpt>
      <trkpt lat="62.634366166582" lon="17.988182773559">
        <ele>96.6</ele>
        <time>2017-12-19T12:56:22Z</time>
      </trkpt>
      <trkpt lat="62.634338422493" lon="17.988182270645">
        <ele>96.6</ele>
        <time>2017-12-19T12:56:23Z</time>
      </trkpt>
      <trkpt lat="62.634311516594" lon="17.988186629233">
        <ele>96.6</ele>
        <time>2017-12-19T12:56:24Z</time>
      </trkpt>
      <trkpt lat="62.634286119437" lon="17.988179169342">
        <ele>96.6</ele>
        <time>2017-12-19T12:56:25Z</time>
      </trkpt>
      <trkpt lat="62.63426239866" lon="17.988170368347">
        <ele>96.8</ele>
        <time>2017-12-19T12:56:26Z</time>
      </trkpt>
      <trkpt lat="62.634235995675" lon="17.988168943424">
        <ele>97</ele>
        <time>2017-12-19T12:56:27Z</time>
      </trkpt>
      <trkpt lat="62.634204647369" lon="17.988170787442">
        <ele>97.2</ele>
        <time>2017-12-19T12:56:28Z</time>
      </trkpt>
      <trkpt lat="62.634173131425" lon="17.988166596492">
        <ele>97.2</ele>
        <time>2017-12-19T12:56:29Z</time>
      </trkpt>
      <trkpt lat="62.634147818087" lon="17.988163914284">
        <ele>97.2</ele>
        <time>2017-12-19T12:56:30Z</time>
      </trkpt>
      <trkpt lat="62.634119822541" lon="17.988156119117">
        <ele>97.4</ele>
        <time>2017-12-19T12:56:31Z</time>
      </trkpt>
      <trkpt lat="62.634097610506" lon="17.988149329778">
        <ele>97.2</ele>
        <time>2017-12-19T12:56:32Z</time>
      </trkpt>
      <trkpt lat="62.634069112046" lon="17.988132649797">
        <ele>97.4</ele>
        <time>2017-12-19T12:56:33Z</time>
      </trkpt>
      <trkpt lat="62.634046648554" lon="17.98812150187">
        <ele>97.4</ele>
        <time>2017-12-19T12:56:34Z</time>
      </trkpt>
      <trkpt lat="62.634022341044" lon="17.988105995355">
        <ele>97.4</ele>
        <time>2017-12-19T12:56:35Z</time>
      </trkpt>
      <trkpt lat="62.633995267507" lon="17.988091997582">
        <ele>97.6</ele>
        <time>2017-12-19T12:56:36Z</time>
      </trkpt>
      <trkpt lat="62.633972636377" lon="17.98808043056">
        <ele>97.6</ele>
        <time>2017-12-19T12:56:37Z</time>
      </trkpt>
      <trkpt lat="62.633945479021" lon="17.988060565457">
        <ele>97.6</ele>
        <time>2017-12-19T12:56:38Z</time>
      </trkpt>
      <trkpt lat="62.633917567294" lon="17.988049836625">
        <ele>97.6</ele>
        <time>2017-12-19T12:56:39Z</time>
      </trkpt>
      <trkpt lat="62.633889990843" lon="17.988034749205">
        <ele>97.8</ele>
        <time>2017-12-19T12:56:40Z</time>
      </trkpt>
      <trkpt lat="62.633860318917" lon="17.988011028428">
        <ele>98</ele>
        <time>2017-12-19T12:56:41Z</time>
      </trkpt>
      <trkpt lat="62.633835089398" lon="17.987997701207">
        <ele>98</ele>
        <time>2017-12-19T12:56:42Z</time>
      </trkpt>
      <trkpt lat="62.63380474692" lon="17.98797146586">
        <ele>98.4</ele>
        <time>2017-12-19T12:56:43Z</time>
      </trkpt>
      <trkpt lat="62.633776499917" lon="17.987942632124">
        <ele>98.4</ele>
        <time>2017-12-19T12:56:44Z</time>
      </trkpt>
      <trkpt lat="62.633748755828" lon="17.987931735654">
        <ele>98.4</ele>
        <time>2017-12-19T12:56:45Z</time>
      </trkpt>
      <trkpt lat="62.633721095558" lon="17.987904829755">
        <ele>98.4</ele>
        <time>2017-12-19T12:56:46Z</time>
      </trkpt>
      <trkpt lat="62.633694189659" lon="17.987867697938">
        <ele>98.4</ele>
        <time>2017-12-19T12:56:47Z</time>
      </trkpt>
      <trkpt lat="62.633664685371" lon="17.987824279696">
        <ele>98.6</ele>
        <time>2017-12-19T12:56:48Z</time>
      </trkpt>
      <trkpt lat="62.633637779472" lon="17.987788656621">
        <ele>98.6</ele>
        <time>2017-12-19T12:56:49Z</time>
      </trkpt>
      <trkpt lat="62.633615232161" lon="17.987763343283">
        <ele>98.6</ele>
        <time>2017-12-19T12:56:50Z</time>
      </trkpt>
      <trkpt lat="62.633595367058" lon="17.987741717981">
        <ele>98.6</ele>
        <time>2017-12-19T12:56:51Z</time>
      </trkpt>
      <trkpt lat="62.633576088688" lon="17.987722774887">
        <ele>98.8</ele>
        <time>2017-12-19T12:56:52Z</time>
      </trkpt>
      <trkpt lat="62.633551781178" lon="17.987701903956">
        <ele>99</ele>
        <time>2017-12-19T12:56:53Z</time>
      </trkpt>
      <trkpt lat="62.633529652962" lon="17.987682374129">
        <ele>99.2</ele>
        <time>2017-12-19T12:56:54Z</time>
      </trkpt>
      <trkpt lat="62.633502327968" lon="17.987649014167">
        <ele>99.4</ele>
        <time>2017-12-19T12:56:55Z</time>
      </trkpt>
      <trkpt lat="62.633473829508" lon="17.987616408576">
        <ele>99.6</ele>
        <time>2017-12-19T12:56:56Z</time>
      </trkpt>
      <trkpt lat="62.633451449835" lon="17.987591179057">
        <ele>99.8</ele>
        <time>2017-12-19T12:56:57Z</time>
      </trkpt>
      <trkpt lat="62.633431081818" lon="17.987559244018">
        <ele>99.8</ele>
        <time>2017-12-19T12:56:58Z</time>
      </trkpt>
      <trkpt lat="62.633412390181" lon="17.987531248472">
        <ele>99.8</ele>
        <time>2017-12-19T12:56:59Z</time>
      </trkpt>
      <trkpt lat="62.63339487201" lon="17.987509120256">
        <ele>100</ele>
        <time>2017-12-19T12:57:00Z</time>
      </trkpt>
      <trkpt lat="62.633375845097" lon="17.987482381995">
        <ele>100.2</ele>
        <time>2017-12-19T12:57:01Z</time>
      </trkpt>
      <trkpt lat="62.633358662202" lon="17.987452290974">
        <ele>100.4</ele>
        <time>2017-12-19T12:57:02Z</time>
      </trkpt>
      <trkpt lat="62.633335863434" lon="17.987405352334">
        <ele>100.6</ele>
        <time>2017-12-19T12:57:03Z</time>
      </trkpt>
      <trkpt lat="62.633308789897" lon="17.987369896897">
        <ele>100.8</ele>
        <time>2017-12-19T12:57:04Z</time>
      </trkpt>
      <trkpt lat="62.633280794351" lon="17.987312899977">
        <ele>101</ele>
        <time>2017-12-19T12:57:05Z</time>
      </trkpt>
      <trkpt lat="62.633260007239" lon="17.987239642171">
        <ele>101</ele>
        <time>2017-12-19T12:57:06Z</time>
      </trkpt>
      <trkpt lat="62.633239136308" lon="17.98715925975">
        <ele>101</ele>
        <time>2017-12-19T12:57:07Z</time>
      </trkpt>
      <trkpt lat="62.633219774119" lon="17.987065969203">
        <ele>101</ele>
        <time>2017-12-19T12:57:08Z</time>
      </trkpt>
      <trkpt lat="62.633207704183" lon="17.986986005877">
        <ele>100.6</ele>
        <time>2017-12-19T12:57:09Z</time>
      </trkpt>
      <trkpt lat="62.633197226808" lon="17.98690109723">
        <ele>100</ele>
        <time>2017-12-19T12:57:10Z</time>
      </trkpt>
      <trkpt lat="62.633186581795" lon="17.986779056766">
        <ele>99.4</ele>
        <time>2017-12-19T12:57:11Z</time>
      </trkpt>
      <trkpt lat="62.633177529343" lon="17.986676043215">
        <ele>99</ele>
        <time>2017-12-19T12:57:12Z</time>
      </trkpt>
      <trkpt lat="62.633164705036" lon="17.986554170389">
        <ele>98.4</ele>
        <time>2017-12-19T12:57:13Z</time>
      </trkpt>
      <trkpt lat="62.633152802738" lon="17.986438667807">
        <ele>97.8</ele>
        <time>2017-12-19T12:57:14Z</time>
      </trkpt>
      <trkpt lat="62.633143834105" lon="17.986303216303">
        <ele>97.8</ele>
        <time>2017-12-19T12:57:15Z</time>
      </trkpt>
      <trkpt lat="62.633136038938" lon="17.986174051224">
        <ele>97.8</ele>
        <time>2017-12-19T12:57:16Z</time>
      </trkpt>
      <trkpt lat="62.633140481345" lon="17.986062488135">
        <ele>97.6</ele>
        <time>2017-12-19T12:57:17Z</time>
      </trkpt>
      <trkpt lat="62.633146935408" lon="17.985917648903">
        <ele>97.4</ele>
        <time>2017-12-19T12:57:18Z</time>
      </trkpt>
      <trkpt lat="62.633150455806" lon="17.985788986738">
        <ele>97</ele>
        <time>2017-12-19T12:57:19Z</time>
      </trkpt>
      <trkpt lat="62.633153724747" lon="17.985647332628">
        <ele>96.2</ele>
        <time>2017-12-19T12:57:20Z</time>
      </trkpt>
      <trkpt lat="62.633155904041" lon="17.985535182806">
        <ele>96</ele>
        <time>2017-12-19T12:57:21Z</time>
      </trkpt>
      <trkpt lat="62.633162190466" lon="17.985418422939">
        <ele>96</ele>
        <time>2017-12-19T12:57:22Z</time>
      </trkpt>
      <trkpt lat="62.633178786628" lon="17.985248773283">
        <ele>95.8</ele>
        <time>2017-12-19T12:57:23Z</time>
      </trkpt>
      <trkpt lat="62.633202423586" lon="17.985072082831">
        <ele>95.6</ele>
        <time>2017-12-19T12:57:24Z</time>
      </trkpt>
      <trkpt lat="62.633225054716" lon="17.984929003798">
        <ele>95</ele>
        <time>2017-12-19T12:57:25Z</time>
      </trkpt>
      <trkpt lat="62.633253134081" lon="17.984791121543">
        <ele>94</ele>
        <time>2017-12-19T12:57:26Z</time>
      </trkpt>
      <trkpt lat="62.633283811835" lon="17.984673523486">
        <ele>93.2</ele>
        <time>2017-12-19T12:57:27Z</time>
      </trkpt>
      <trkpt lat="62.63331272939" lon="17.984554081411">
        <ele>92.6</ele>
        <time>2017-12-19T12:57:28Z</time>
      </trkpt>
      <trkpt lat="62.633336533986" lon="17.984438830286">
        <ele>92.2</ele>
        <time>2017-12-19T12:57:29Z</time>
      </trkpt>
      <trkpt lat="62.633348017189" lon="17.984334978545">
        <ele>92</ele>
        <time>2017-12-19T12:57:30Z</time>
      </trkpt>
      <trkpt lat="62.633363272247" lon="17.984236155944">
        <ele>92</ele>
        <time>2017-12-19T12:57:31Z</time>
      </trkpt>
      <trkpt lat="62.633375928916" lon="17.98414512851">
        <ele>92</ele>
        <time>2017-12-19T12:57:32Z</time>
      </trkpt>
      <trkpt lat="62.633387579757" lon="17.984031553765">
        <ele>92.4</ele>
        <time>2017-12-19T12:57:33Z</time>
      </trkpt>
      <trkpt lat="62.633392860354" lon="17.983931641517">
        <ele>92.8</ele>
        <time>2017-12-19T12:57:34Z</time>
      </trkpt>
      <trkpt lat="62.633401661349" lon="17.983846229956">
        <ele>93</ele>
        <time>2017-12-19T12:57:35Z</time>
      </trkpt>
      <trkpt lat="62.63341163581" lon="17.98374698826">
        <ele>93.4</ele>
        <time>2017-12-19T12:57:36Z</time>
      </trkpt>
      <trkpt lat="62.633425130669" lon="17.983660822328">
        <ele>93.8</ele>
        <time>2017-12-19T12:57:37Z</time>
      </trkpt>
      <trkpt lat="62.63344683979" lon="17.983573818206">
        <ele>94</ele>
        <time>2017-12-19T12:57:38Z</time>
      </trkpt>
      <trkpt lat="62.633467040169" lon="17.98349134031">
        <ele>94</ele>
        <time>2017-12-19T12:57:39Z</time>
      </trkpt>
      <trkpt lat="62.63348120558" lon="17.983415651753">
        <ele>94</ele>
        <time>2017-12-19T12:57:40Z</time>
      </trkpt>
      <trkpt lat="62.633503333796" lon="17.983340298472">
        <ele>94</ele>
        <time>2017-12-19T12:57:41Z</time>
      </trkpt>
      <trkpt lat="62.633517918302" lon="17.983268717046">
        <ele>94</ele>
        <time>2017-12-19T12:57:42Z</time>
      </trkpt>
      <trkpt lat="62.633529652962" lon="17.983182802571">
        <ele>93.8</ele>
        <time>2017-12-19T12:57:43Z</time>
      </trkpt>
      <trkpt lat="62.633535352654" lon="17.983106275824">
        <ele>93.8</ele>
        <time>2017-12-19T12:57:44Z</time>
      </trkpt>
      <trkpt lat="62.633547254952" lon="17.983035281131">
        <ele>93.6</ele>
        <time>2017-12-19T12:57:45Z</time>
      </trkpt>
      <trkpt lat="62.633551948816" lon="17.982958000013">
        <ele>93.6</ele>
        <time>2017-12-19T12:57:46Z</time>
      </trkpt>
      <trkpt lat="62.633558067603" lon="17.982887089139">
        <ele>93.8</ele>
        <time>2017-12-19T12:57:47Z</time>
      </trkpt>
      <trkpt lat="62.633570472815" lon="17.982797821904">
        <ele>94</ele>
        <time>2017-12-19T12:57:48Z</time>
      </trkpt>
      <trkpt lat="62.633582375113" lon="17.982734957654">
        <ele>94.2</ele>
        <time>2017-12-19T12:57:49Z</time>
      </trkpt>
      <trkpt lat="62.633595702334" lon="17.982669243558">
        <ele>94</ele>
        <time>2017-12-19T12:57:50Z</time>
      </trkpt>
      <trkpt lat="62.633608442822" lon="17.982594644648">
        <ele>94</ele>
        <time>2017-12-19T12:57:51Z</time>
      </trkpt>
      <trkpt lat="62.63361531598" lon="17.982528930552">
        <ele>94.2</ele>
        <time>2017-12-19T12:57:52Z</time>
      </trkpt>
      <trkpt lat="62.633625793355" lon="17.982444860095">
        <ele>94</ele>
        <time>2017-12-19T12:57:53Z</time>
      </trkpt>
      <trkpt lat="62.633633253246" lon="17.982364393855">
        <ele>94</ele>
        <time>2017-12-19T12:57:54Z</time>
      </trkpt>
      <trkpt lat="62.633637779472" lon="17.982286190728">
        <ele>94</ele>
        <time>2017-12-19T12:57:55Z</time>
      </trkpt>
      <trkpt lat="62.633644820268" lon="17.982211759456">
        <ele>94</ele>
        <time>2017-12-19T12:57:56Z</time>
      </trkpt>
      <trkpt lat="62.633648173028" lon="17.982150320129">
        <ele>94.2</ele>
        <time>2017-12-19T12:57:57Z</time>
      </trkpt>
      <trkpt lat="62.633648759761" lon="17.982081420911">
        <ele>94.2</ele>
        <time>2017-12-19T12:57:58Z</time>
      </trkpt>
      <trkpt lat="62.633652531616" lon="17.982011683503">
        <ele>94</ele>
        <time>2017-12-19T12:57:59Z</time>
      </trkpt>
      <trkpt lat="62.633656303471" lon="17.981951836737">
        <ele>94</ele>
        <time>2017-12-19T12:58:00Z</time>
      </trkpt>
      <trkpt lat="62.633662589896" lon="17.981886877012">
        <ele>94</ele>
        <time>2017-12-19T12:58:01Z</time>
      </trkpt>
      <trkpt lat="62.633668541045" lon="17.981826862608">
        <ele>94.2</ele>
        <time>2017-12-19T12:58:02Z</time>
      </trkpt>
      <trkpt lat="62.633673654004" lon="17.98176131615">
        <ele>94.2</ele>
        <time>2017-12-19T12:58:03Z</time>
      </trkpt>
      <trkpt lat="62.633682957913" lon="17.981695602054">
        <ele>94.4</ele>
        <time>2017-12-19T12:58:04Z</time>
      </trkpt>
      <trkpt lat="62.633691339813" lon="17.981636258202">
        <ele>94.6</ele>
        <time>2017-12-19T12:58:05Z</time>
      </trkpt>
      <trkpt lat="62.633701817188" lon="17.98156853245">
        <ele>94.6</ele>
        <time>2017-12-19T12:58:06Z</time>
      </trkpt>
      <trkpt lat="62.633712629839" lon="17.981501896345">
        <ele>94.6</ele>
        <time>2017-12-19T12:58:07Z</time>
      </trkpt>
      <trkpt lat="62.633719335359" lon="17.981426710702">
        <ele>94.6</ele>
        <time>2017-12-19T12:58:08Z</time>
      </trkpt>
      <trkpt lat="62.633732411123" lon="17.981360074597">
        <ele>94.4</ele>
        <time>2017-12-19T12:58:09Z</time>
      </trkpt>
      <trkpt lat="62.633746744172" lon="17.981297126528">
        <ele>94.4</ele>
        <time>2017-12-19T12:58:10Z</time>
      </trkpt>
      <trkpt lat="62.633755545167" lon="17.981236441572">
        <ele>94.4</ele>
        <time>2017-12-19T12:58:11Z</time>
      </trkpt>
      <trkpt lat="62.633771806053" lon="17.981186820724">
        <ele>94.6</ele>
        <time>2017-12-19T12:58:12Z</time>
      </trkpt>
      <trkpt lat="62.633789575681" lon="17.981145665595">
        <ele>94.6</ele>
        <time>2017-12-19T12:58:13Z</time>
      </trkpt>
      <trkpt lat="62.63380474692" lon="17.981111886538">
        <ele>94.8</ele>
        <time>2017-12-19T12:58:14Z</time>
      </trkpt>
      <trkpt lat="62.633822013634" lon="17.981078358938">
        <ele>94.8</ele>
        <time>2017-12-19T12:58:15Z</time>
      </trkpt>
      <trkpt lat="62.633843890393" lon="17.981025301511">
        <ele>95</ele>
        <time>2017-12-19T12:58:16Z</time>
      </trkpt>
      <trkpt lat="62.63386090565" lon="17.980972411722">
        <ele>95.2</ele>
        <time>2017-12-19T12:58:17Z</time>
      </trkpt>
      <trkpt lat="62.633882195676" lon="17.980908709282">
        <ele>95.2</ele>
        <time>2017-12-19T12:58:18Z</time>
      </trkpt>
      <trkpt lat="62.633901641684" lon="17.980852802009">
        <ele>95.2</ele>
        <time>2017-12-19T12:58:19Z</time>
      </trkpt>
      <trkpt lat="62.633933492904" lon="17.980788931931">
        <ele>95.4</ele>
        <time>2017-12-19T12:58:20Z</time>
      </trkpt>
      <trkpt lat="62.633958303328" lon="17.980723972206">
        <ele>95.4</ele>
        <time>2017-12-19T12:58:21Z</time>
      </trkpt>
      <trkpt lat="62.633977162603" lon="17.980670495684">
        <ele>95.6</ele>
        <time>2017-12-19T12:58:22Z</time>
      </trkpt>
      <trkpt lat="62.633994429317" lon="17.980603189027">
        <ele>95.6</ele>
        <time>2017-12-19T12:58:23Z</time>
      </trkpt>
      <trkpt lat="62.63401764718" lon="17.980536804379">
        <ele>95.6</ele>
        <time>2017-12-19T12:58:24Z</time>
      </trkpt>
      <trkpt lat="62.634037009369" lon="17.980498415277">
        <ele>95.6</ele>
        <time>2017-12-19T12:58:25Z</time>
      </trkpt>
      <trkpt lat="62.634058131757" lon="17.980455499949">
        <ele>95.6</ele>
        <time>2017-12-19T12:58:26Z</time>
      </trkpt>
      <trkpt lat="62.634079086507" lon="17.980403532169">
        <ele>95.8</ele>
        <time>2017-12-19T12:58:27Z</time>
      </trkpt>
      <trkpt lat="62.634096856135" lon="17.980345780878">
        <ele>95.8</ele>
        <time>2017-12-19T12:58:28Z</time>
      </trkpt>
      <trkpt lat="62.634122588568" lon="17.980289203053">
        <ele>96</ele>
        <time>2017-12-19T12:58:29Z</time>
      </trkpt>
      <trkpt lat="62.634147482811" lon="17.980249053752">
        <ele>96</ele>
        <time>2017-12-19T12:58:30Z</time>
      </trkpt>
      <trkpt lat="62.634176819461" lon="17.980201612198">
        <ele>96</ele>
        <time>2017-12-19T12:58:31Z</time>
      </trkpt>
      <trkpt lat="62.634203222446" lon="17.980153500092">
        <ele>96</ele>
        <time>2017-12-19T12:58:32Z</time>
      </trkpt>
      <trkpt lat="62.634220992074" lon="17.9801058909">
        <ele>96</ele>
        <time>2017-12-19T12:58:33Z</time>
      </trkpt>
      <trkpt lat="62.634242198281" lon="17.980039925347">
        <ele>96</ele>
        <time>2017-12-19T12:58:34Z</time>
      </trkpt>
      <trkpt lat="62.634264410316" lon="17.97996842774">
        <ele>96</ele>
        <time>2017-12-19T12:58:35Z</time>
      </trkpt>
      <trkpt lat="62.634281425573" lon="17.979902965101">
        <ele>96</ele>
        <time>2017-12-19T12:58:36Z</time>
      </trkpt>
      <trkpt lat="62.634298692287" lon="17.979830377847">
        <ele>96</ele>
        <time>2017-12-19T12:58:37Z</time>
      </trkpt>
      <trkpt lat="62.634310510766" lon="17.97975720386">
        <ele>96</ele>
        <time>2017-12-19T12:58:38Z</time>
      </trkpt>
      <trkpt lat="62.634326436376" lon="17.979695010162">
        <ele>96</ele>
        <time>2017-12-19T12:58:39Z</time>
      </trkpt>
      <trkpt lat="62.634340098873" lon="17.979628457876">
        <ele>96</ele>
        <time>2017-12-19T12:58:40Z</time>
      </trkpt>
      <trkpt lat="62.634356695035" lon="17.979559307201">
        <ele>96</ele>
        <time>2017-12-19T12:58:41Z</time>
      </trkpt>
      <trkpt lat="62.634371866274" lon="17.979494179838">
        <ele>96</ele>
        <time>2017-12-19T12:58:42Z</time>
      </trkpt>
      <trkpt lat="62.634387372789" lon="17.979432405235">
        <ele>96</ele>
        <time>2017-12-19T12:58:43Z</time>
      </trkpt>
      <trkpt lat="62.634400616191" lon="17.979371804098">
        <ele>96</ele>
        <time>2017-12-19T12:58:44Z</time>
      </trkpt>
      <trkpt lat="62.634413943412" lon="17.979308520753">
        <ele>96</ele>
        <time>2017-12-19T12:58:45Z</time>
      </trkpt>
      <trkpt lat="62.634426097167" lon="17.979256217697">
        <ele>95.8</ele>
        <time>2017-12-19T12:58:46Z</time>
      </trkpt>
      <trkpt lat="62.634441100768" lon="17.979184049538">
        <ele>95.8</ele>
        <time>2017-12-19T12:58:47Z</time>
      </trkpt>
      <trkpt lat="62.634456188188" lon="17.979109450628">
        <ele>96</ele>
        <time>2017-12-19T12:58:48Z</time>
      </trkpt>
      <trkpt lat="62.634467839029" lon="17.979057818124">
        <ele>95.8</ele>
        <time>2017-12-19T12:58:49Z</time>
      </trkpt>
      <trkpt lat="62.634484938105" lon="17.979011466217">
        <ele>95.8</ele>
        <time>2017-12-19T12:58:50Z</time>
      </trkpt>
      <trkpt lat="62.634506982502" lon="17.978975843142">
        <ele>95.8</ele>
        <time>2017-12-19T12:58:51Z</time>
      </trkpt>
      <trkpt lat="62.634544114319" lon="17.978941393533">
        <ele>95.6</ele>
        <time>2017-12-19T12:58:53Z</time>
      </trkpt>
      <trkpt lat="62.634562386861" lon="17.97892655757">
        <ele>95.6</ele>
        <time>2017-12-19T12:58:54Z</time>
      </trkpt>
      <trkpt lat="62.634577893376" lon="17.97891649929">
        <ele>95.6</ele>
        <time>2017-12-19T12:58:55Z</time>
      </trkpt>
      <trkpt lat="62.634596752651" lon="17.978909290856">
        <ele>95.6</ele>
        <time>2017-12-19T12:58:56Z</time>
      </trkpt>
      <trkpt lat="62.634613097356" lon="17.978912895073">
        <ele>95.6</ele>
        <time>2017-12-19T12:58:57Z</time>
      </trkpt>
      <trkpt lat="62.634646373499" lon="17.978925970837">
        <ele>95.8</ele>
        <time>2017-12-19T12:58:58Z</time>
      </trkpt>
      <trkpt lat="62.634676715977" lon="17.97893913042">
        <ele>95.8</ele>
        <time>2017-12-19T12:58:59Z</time>
      </trkpt>
      <trkpt lat="62.634713847794" lon="17.978954301659">
        <ele>95.8</ele>
        <time>2017-12-19T12:59:00Z</time>
      </trkpt>
      <trkpt lat="62.634748465041" lon="17.978973580029">
        <ele>95.8</ele>
        <time>2017-12-19T12:59:01Z</time>
      </trkpt>
      <trkpt lat="62.634779980985" lon="17.978987242526">
        <ele>95.6</ele>
        <time>2017-12-19T12:59:02Z</time>
      </trkpt>
      <trkpt lat="62.634830020928" lon="17.978998474272">
        <ele>95.4</ele>
        <time>2017-12-19T12:59:03Z</time>
      </trkpt>
      <trkpt lat="62.634871343695" lon="17.97900283286">
        <ele>95.4</ele>
        <time>2017-12-19T12:59:04Z</time>
      </trkpt>
      <trkpt lat="62.634877294844" lon="17.97901289114">
        <ele>95.2</ele>
        <time>2017-12-19T12:59:05Z</time>
      </trkpt>
      <trkpt lat="62.634949798279" lon="17.979016998271">
        <ele>95</ele>
        <time>2017-12-19T12:59:06Z</time>
      </trkpt>
      <trkpt lat="62.634985002259" lon="17.979027475646">
        <ele>94.8</ele>
        <time>2017-12-19T12:59:07Z</time>
      </trkpt>
      <trkpt lat="62.6350217988" lon="17.979027894741">
        <ele>94.8</ele>
        <time>2017-12-19T12:59:08Z</time>
      </trkpt>
      <trkpt lat="62.635056918961" lon="17.979039294125">
        <ele>94.8</ele>
        <time>2017-12-19T12:59:09Z</time>
      </trkpt>
      <trkpt lat="62.635090949475" lon="17.979049855319">
        <ele>94.8</ele>
        <time>2017-12-19T12:59:10Z</time>
      </trkpt>
      <trkpt lat="62.635126991645" lon="17.979060919427">
        <ele>94.8</ele>
        <time>2017-12-19T12:59:11Z</time>
      </trkpt>
      <trkpt lat="62.635160519245" lon="17.979068379318">
        <ele>94.8</ele>
        <time>2017-12-19T12:59:12Z</time>
      </trkpt>
      <trkpt lat="62.635198405433" lon="17.979075923028">
        <ele>94.6</ele>
        <time>2017-12-19T12:59:13Z</time>
      </trkpt>
      <trkpt lat="62.635234112327" lon="17.979082209453">
        <ele>94.2</ele>
        <time>2017-12-19T12:59:14Z</time>
      </trkpt>
      <trkpt lat="62.635266466461" lon="17.979080952168">
        <ele>94</ele>
        <time>2017-12-19T12:59:15Z</time>
      </trkpt>
      <trkpt lat="62.635300329337" lon="17.979083047643">
        <ele>93.8</ele>
        <time>2017-12-19T12:59:16Z</time>
      </trkpt>
      <trkpt lat="62.63533528186" lon="17.979085729851">
        <ele>93.4</ele>
        <time>2017-12-19T12:59:17Z</time>
      </trkpt>
      <trkpt lat="62.635376939903" lon="17.979089920801">
        <ele>93.2</ele>
        <time>2017-12-19T12:59:18Z</time>
      </trkpt>
      <trkpt lat="62.635416670109" lon="17.979086735679">
        <ele>93</ele>
        <time>2017-12-19T12:59:19Z</time>
      </trkpt>
      <trkpt lat="62.63545681941" lon="17.979083047643">
        <ele>92.8</ele>
        <time>2017-12-19T12:59:20Z</time>
      </trkpt>
      <trkpt lat="62.635498477453" lon="17.97907407901">
        <ele>92.6</ele>
        <time>2017-12-19T12:59:21Z</time>
      </trkpt>
      <trkpt lat="62.635539548763" lon="17.979068714594">
        <ele>92.4</ele>
        <time>2017-12-19T12:59:22Z</time>
      </trkpt>
      <trkpt lat="62.63559009162" lon="17.97906234435">
        <ele>92.2</ele>
        <time>2017-12-19T12:59:23Z</time>
      </trkpt>
      <trkpt lat="62.635633928957" lon="17.97906318254">
        <ele>91.8</ele>
        <time>2017-12-19T12:59:24Z</time>
      </trkpt>
      <trkpt lat="62.635678604484" lon="17.979059410685">
        <ele>91.6</ele>
        <time>2017-12-19T12:59:25Z</time>
      </trkpt>
      <trkpt lat="62.635723615287" lon="17.97904725693">
        <ele>91.2</ele>
        <time>2017-12-19T12:59:26Z</time>
      </trkpt>
      <trkpt lat="62.635764267502" lon="17.979042730704">
        <ele>91</ele>
        <time>2017-12-19T12:59:27Z</time>
      </trkpt>
      <trkpt lat="62.635806177002" lon="17.979043317437">
        <ele>90.8</ele>
        <time>2017-12-19T12:59:28Z</time>
      </trkpt>
      <trkpt lat="62.635848505597" lon="17.979049687681">
        <ele>90.6</ele>
        <time>2017-12-19T12:59:29Z</time>
      </trkpt>
      <trkpt lat="62.635883122844" lon="17.979059913599">
        <ele>90.4</ele>
        <time>2017-12-19T12:59:30Z</time>
      </trkpt>
      <trkpt lat="62.63591782391" lon="17.979063517816">
        <ele>90.4</ele>
        <time>2017-12-19T12:59:31Z</time>
      </trkpt>
      <trkpt lat="62.635944310714" lon="17.979071145345">
        <ele>90.4</ele>
        <time>2017-12-19T12:59:32Z</time>
      </trkpt>
      <trkpt lat="62.635972809174" lon="17.979079359607">
        <ele>90.8</ele>
        <time>2017-12-19T12:59:33Z</time>
      </trkpt>
      <trkpt lat="62.635990997897" lon="17.979086232765">
        <ele>91</ele>
        <time>2017-12-19T12:59:34Z</time>
      </trkpt>
      <trkpt lat="62.63601170119" lon="17.979094363208">
        <ele>91.4</ele>
        <time>2017-12-19T12:59:35Z</time>
      </trkpt>
      <trkpt lat="62.636028800266" lon="17.979103834755">
        <ele>91.6</ele>
        <time>2017-12-19T12:59:36Z</time>
      </trkpt>
      <trkpt lat="62.63604522879" lon="17.979116323786">
        <ele>91.8</ele>
        <time>2017-12-19T12:59:37Z</time>
      </trkpt>
      <trkpt lat="62.636057466364" lon="17.979146414807">
        <ele>92</ele>
        <time>2017-12-19T12:59:38Z</time>
      </trkpt>
      <trkpt lat="62.6360611544" lon="17.97918555828">
        <ele>92</ele>
        <time>2017-12-19T12:59:39Z</time>
      </trkpt>
      <trkpt lat="62.636057717821" lon="17.979225204667">
        <ele>92</ele>
        <time>2017-12-19T12:59:40Z</time>
      </trkpt>
      <trkpt lat="62.636052269586" lon="17.979257726439">
        <ele>92</ele>
        <time>2017-12-19T12:59:41Z</time>
      </trkpt>
      <trkpt lat="62.636047575722" lon="17.979279603198">
        <ele>92.2</ele>
        <time>2017-12-19T12:59:42Z</time>
      </trkpt>
      <trkpt lat="62.636044222962" lon="17.979295025894">
        <ele>92</ele>
        <time>2017-12-19T12:59:43Z</time>
      </trkpt>
      <trkpt lat="62.63604019965" lon="17.979301647595">
        <ele>92</ele>
        <time>2017-12-19T12:59:44Z</time>
      </trkpt>
      <trkpt lat="62.636041121659" lon="17.979299887396">
        <ele>91.8</ele>
        <time>2017-12-19T12:59:46Z</time>
      </trkpt>
      <trkpt lat="62.636018574348" lon="17.979531144017">
        <ele>91.8</ele>
        <time>2017-12-19T12:59:51Z</time>
      </trkpt>
      <trkpt lat="62.636014634855" lon="17.979625943306">
        <ele>91.8</ele>
        <time>2017-12-19T12:59:52Z</time>
      </trkpt>
      <trkpt lat="62.636009521896" lon="17.979776649868">
        <ele>91.6</ele>
        <time>2017-12-19T12:59:53Z</time>
      </trkpt>
      <trkpt lat="62.636008013154" lon="17.979930457733">
        <ele>90.8</ele>
        <time>2017-12-19T12:59:54Z</time>
      </trkpt>
      <trkpt lat="62.636013545208" lon="17.980066915065">
        <ele>90</ele>
        <time>2017-12-19T12:59:55Z</time>
      </trkpt>
      <trkpt lat="62.636025782782" lon="17.980216699618">
        <ele>88.6</ele>
        <time>2017-12-19T12:59:56Z</time>
      </trkpt>
      <trkpt lat="62.636046486075" lon="17.980359946289">
        <ele>87.4</ele>
        <time>2017-12-19T12:59:57Z</time>
      </trkpt>
      <trkpt lat="62.636070458309" lon="17.980499924019">
        <ele>86.4</ele>
        <time>2017-12-19T12:59:58Z</time>
      </trkpt>
      <trkpt lat="62.636097028932" lon="17.980637806274">
        <ele>85.6</ele>
        <time>2017-12-19T12:59:59Z</time>
      </trkpt>
      <trkpt lat="62.636123348098" lon="17.980771329941">
        <ele>85</ele>
        <time>2017-12-19T13:00:00Z</time>
      </trkpt>
      <trkpt lat="62.636145141038" lon="17.980897058441">
        <ele>84.6</ele>
        <time>2017-12-19T13:00:01Z</time>
      </trkpt>
      <trkpt lat="62.636167436892" lon="17.981011052281">
        <ele>84.4</ele>
        <time>2017-12-19T13:00:02Z</time>
      </trkpt>
      <trkpt lat="62.636194510429" lon="17.981149605088">
        <ele>84.2</ele>
        <time>2017-12-19T13:00:03Z</time>
      </trkpt>
      <trkpt lat="62.636207921469" lon="17.981269717715">
        <ele>84</ele>
        <time>2017-12-19T13:00:04Z</time>
      </trkpt>
      <trkpt lat="62.636217644473" lon="17.981403241382">
        <ele>83.6</ele>
        <time>2017-12-19T13:00:05Z</time>
      </trkpt>
      <trkpt lat="62.63622795421" lon="17.981527042045">
        <ele>83.4</ele>
        <time>2017-12-19T13:00:06Z</time>
      </trkpt>
      <trkpt lat="62.636240191784" lon="17.981637431668">
        <ele>83.2</ele>
        <time>2017-12-19T13:00:07Z</time>
      </trkpt>
      <trkpt lat="62.636254524833" lon="17.981758131028">
        <ele>83.2</ele>
        <time>2017-12-19T13:00:08Z</time>
      </trkpt>
      <trkpt lat="62.636259973068" lon="17.981872124868">
        <ele>83</ele>
        <time>2017-12-19T13:00:09Z</time>
      </trkpt>
      <trkpt lat="62.636265002208" lon="17.981967007976">
        <ele>83</ele>
        <time>2017-12-19T13:00:10Z</time>
      </trkpt>
      <trkpt lat="62.636271037176" lon="17.982062310179">
        <ele>83</ele>
        <time>2017-12-19T13:00:11Z</time>
      </trkpt>
      <trkpt lat="62.636296937247" lon="17.982139675116">
        <ele>83.2</ele>
        <time>2017-12-19T13:00:12Z</time>
      </trkpt>
      <trkpt lat="62.63631093502" lon="17.982236905156">
        <ele>83.6</ele>
        <time>2017-12-19T13:00:13Z</time>
      </trkpt>
      <trkpt lat="62.636313701047" lon="17.982329273694">
        <ele>83.8</ele>
        <time>2017-12-19T13:00:14Z</time>
      </trkpt>
      <trkpt lat="62.636317724359" lon="17.982409991391">
        <ele>84.2</ele>
        <time>2017-12-19T13:00:15Z</time>
      </trkpt>
      <trkpt lat="62.636315796522" lon="17.982492385468">
        <ele>84.6</ele>
        <time>2017-12-19T13:00:16Z</time>
      </trkpt>
      <trkpt lat="62.636317053807" lon="17.982549550026">
        <ele>84.6</ele>
        <time>2017-12-19T13:00:17Z</time>
      </trkpt>
      <trkpt lat="62.636322166766" lon="17.982619706529">
        <ele>84.8</ele>
        <time>2017-12-19T13:00:18Z</time>
      </trkpt>
      <trkpt lat="62.636322166766" lon="17.98270511809">
        <ele>84.8</ele>
        <time>2017-12-19T13:00:19Z</time>
      </trkpt>
      <trkpt lat="62.636322250585" lon="17.982787009253">
        <ele>85</ele>
        <time>2017-12-19T13:00:20Z</time>
      </trkpt>
      <trkpt lat="62.636319484558" lon="17.982861775801">
        <ele>85</ele>
        <time>2017-12-19T13:00:21Z</time>
      </trkpt>
      <trkpt lat="62.636315042151" lon="17.982934446874">
        <ele>85</ele>
        <time>2017-12-19T13:00:22Z</time>
      </trkpt>
      <trkpt lat="62.636322250585" lon="17.983003346092">
        <ele>85</ele>
        <time>2017-12-19T13:00:23Z</time>
      </trkpt>
      <trkpt lat="62.636324848974" lon="17.983068808731">
        <ele>85</ele>
        <time>2017-12-19T13:00:24Z</time>
      </trkpt>
      <trkpt lat="62.63632183149" lon="17.983127984945">
        <ele>85</ele>
        <time>2017-12-19T13:00:25Z</time>
      </trkpt>
      <trkpt lat="62.636318814006" lon="17.983199901647">
        <ele>85</ele>
        <time>2017-12-19T13:00:26Z</time>
      </trkpt>
      <trkpt lat="62.636313701047" lon="17.983284642656">
        <ele>85.2</ele>
        <time>2017-12-19T13:00:27Z</time>
      </trkpt>
      <trkpt lat="62.636308168993" lon="17.983372149692">
        <ele>85</ele>
        <time>2017-12-19T13:00:28Z</time>
      </trkpt>
      <trkpt lat="62.636304397138" lon="17.983449933724">
        <ele>85</ele>
        <time>2017-12-19T13:00:29Z</time>
      </trkpt>
      <trkpt lat="62.636303139853" lon="17.983524532634">
        <ele>85.2</ele>
        <time>2017-12-19T13:00:30Z</time>
      </trkpt>
      <trkpt lat="62.636293165392" lon="17.983590917282">
        <ele>85.2</ele>
        <time>2017-12-19T13:00:31Z</time>
      </trkpt>
      <trkpt lat="62.636286711329" lon="17.983641124863">
        <ele>85.2</ele>
        <time>2017-12-19T13:00:32Z</time>
      </trkpt>
      <trkpt lat="62.636283358569" lon="17.983704408208">
        <ele>85.4</ele>
        <time>2017-12-19T13:00:33Z</time>
      </trkpt>
      <trkpt lat="62.636275395764" lon="17.983766518087">
        <ele>85.6</ele>
        <time>2017-12-19T13:00:34Z</time>
      </trkpt>
      <trkpt lat="62.636267684416" lon="17.983827538319">
        <ele>85.6</ele>
        <time>2017-12-19T13:00:35Z</time>
      </trkpt>
      <trkpt lat="62.636261230353" lon="17.983875398968">
        <ele>85.8</ele>
        <time>2017-12-19T13:00:36Z</time>
      </trkpt>
      <trkpt lat="62.636250417702" lon="17.983932982621">
        <ele>85.8</ele>
        <time>2017-12-19T13:00:37Z</time>
      </trkpt>
      <trkpt lat="62.636241281431" lon="17.983997774708">
        <ele>85.8</ele>
        <time>2017-12-19T13:00:38Z</time>
      </trkpt>
      <trkpt lat="62.636239185956" lon="17.984045802995">
        <ele>86</ele>
        <time>2017-12-19T13:00:39Z</time>
      </trkpt>
      <trkpt lat="62.636230720237" lon="17.984101877906">
        <ele>86</ele>
        <time>2017-12-19T13:00:40Z</time>
      </trkpt>
      <trkpt lat="62.636225691097" lon="17.9841627305">
        <ele>86</ele>
        <time>2017-12-19T13:00:41Z</time>
      </trkpt>
      <trkpt lat="62.636223511803" lon="17.984212016072">
        <ele>86.2</ele>
        <time>2017-12-19T13:00:42Z</time>
      </trkpt>
      <trkpt lat="62.63621705774" lon="17.984269935001">
        <ele>86.2</ele>
        <time>2017-12-19T13:00:43Z</time>
      </trkpt>
      <trkpt lat="62.636217560654" lon="17.984326680464">
        <ele>86.4</ele>
        <time>2017-12-19T13:00:44Z</time>
      </trkpt>
      <trkpt lat="62.636213034428" lon="17.984379905529">
        <ele>86.4</ele>
        <time>2017-12-19T13:00:45Z</time>
      </trkpt>
      <trkpt lat="62.636211106591" lon="17.984433801146">
        <ele>86.6</ele>
        <time>2017-12-19T13:00:46Z</time>
      </trkpt>
      <trkpt lat="62.636209765487" lon="17.98447872813">
        <ele>86.6</ele>
        <time>2017-12-19T13:00:47Z</time>
      </trkpt>
      <trkpt lat="62.636205909813" lon="17.984540921828">
        <ele>86.8</ele>
        <time>2017-12-19T13:00:48Z</time>
      </trkpt>
      <trkpt lat="62.636209597849" lon="17.984597667291">
        <ele>86.8</ele>
        <time>2017-12-19T13:00:49Z</time>
      </trkpt>
      <trkpt lat="62.636208256745" lon="17.98464720432">
        <ele>86.8</ele>
        <time>2017-12-19T13:00:50Z</time>
      </trkpt>
      <trkpt lat="62.636202473234" lon="17.984697328082">
        <ele>86.8</ele>
        <time>2017-12-19T13:00:51Z</time>
      </trkpt>
      <trkpt lat="62.63619694118" lon="17.984746278378">
        <ele>87</ele>
        <time>2017-12-19T13:00:52Z</time>
      </trkpt>
      <trkpt lat="62.636194761886" lon="17.984796234502">
        <ele>87</ele>
        <time>2017-12-19T13:00:53Z</time>
      </trkpt>
      <trkpt lat="62.636195851533" lon="17.984837976364">
        <ele>87.2</ele>
        <time>2017-12-19T13:00:54Z</time>
      </trkpt>
      <trkpt lat="62.636187804909" lon="17.984934954947">
        <ele>87.4</ele>
        <time>2017-12-19T13:00:56Z</time>
      </trkpt>
      <trkpt lat="62.636182021398" lon="17.98496823109">
        <ele>87.6</ele>
        <time>2017-12-19T13:00:57Z</time>
      </trkpt>
      <trkpt lat="62.636180764113" lon="17.985018857766">
        <ele>87.6</ele>
        <time>2017-12-19T13:00:58Z</time>
      </trkpt>
      <trkpt lat="62.636177914267" lon="17.985072585745">
        <ele>87.4</ele>
        <time>2017-12-19T13:00:59Z</time>
      </trkpt>
      <trkpt lat="62.636177243715" lon="17.985116339263">
        <ele>87.6</ele>
        <time>2017-12-19T13:01:00Z</time>
      </trkpt>
      <trkpt lat="62.636174226231" lon="17.985170989251">
        <ele>87.4</ele>
        <time>2017-12-19T13:01:01Z</time>
      </trkpt>
      <trkpt lat="62.636167353073" lon="17.985223962859">
        <ele>87.4</ele>
        <time>2017-12-19T13:01:02Z</time>
      </trkpt>
      <trkpt lat="62.636166347245" lon="17.985277942295">
        <ele>87.6</ele>
        <time>2017-12-19T13:01:03Z</time>
      </trkpt>
      <trkpt lat="62.636162910666" lon="17.98532697641">
        <ele>87.8</ele>
        <time>2017-12-19T13:01:04Z</time>
      </trkpt>
      <trkpt lat="62.636153858214" lon="17.985379698561">
        <ele>87.8</ele>
        <time>2017-12-19T13:01:05Z</time>
      </trkpt>
      <trkpt lat="62.636152014196" lon="17.985418590577">
        <ele>88</ele>
        <time>2017-12-19T13:01:06Z</time>
      </trkpt>
      <trkpt lat="62.636147404151" lon="17.985466199769">
        <ele>88</ele>
        <time>2017-12-19T13:01:07Z</time>
      </trkpt>
      <trkpt lat="62.636136423862" lon="17.98552478925">
        <ele>88.2</ele>
        <time>2017-12-19T13:01:08Z</time>
      </trkpt>
      <trkpt lat="62.636132232912" lon="17.985566028198">
        <ele>88.2</ele>
        <time>2017-12-19T13:01:09Z</time>
      </trkpt>
      <trkpt lat="62.636123431917" lon="17.985618917987">
        <ele>88.2</ele>
        <time>2017-12-19T13:01:10Z</time>
      </trkpt>
      <trkpt lat="62.636111613438" lon="17.985663509695">
        <ele>88.4</ele>
        <time>2017-12-19T13:01:11Z</time>
      </trkpt>
      <trkpt lat="62.636101974253" lon="17.985692259612">
        <ele>88.4</ele>
        <time>2017-12-19T13:01:12Z</time>
      </trkpt>
      <trkpt lat="62.636089149946" lon="17.985725871031">
        <ele>88.2</ele>
        <time>2017-12-19T13:01:13Z</time>
      </trkpt>
      <trkpt lat="62.636074062526" lon="17.985759398631">
        <ele>88.4</ele>
        <time>2017-12-19T13:01:14Z</time>
      </trkpt>
      <trkpt lat="62.636059980934" lon="17.985792758593">
        <ele>88.6</ele>
        <time>2017-12-19T13:01:15Z</time>
      </trkpt>
      <trkpt lat="62.636044725876" lon="17.985821592329">
        <ele>88.8</ele>
        <time>2017-12-19T13:01:16Z</time>
      </trkpt>
      <trkpt lat="62.636023016755" lon="17.985851264255">
        <ele>89</ele>
        <time>2017-12-19T13:01:17Z</time>
      </trkpt>
      <trkpt lat="62.636004660394" lon="17.985881522914">
        <ele>89.2</ele>
        <time>2017-12-19T13:01:18Z</time>
      </trkpt>
      <trkpt lat="62.6359940992" lon="17.985900968922">
        <ele>89.2</ele>
        <time>2017-12-19T13:01:19Z</time>
      </trkpt>
      <trkpt lat="62.635973731183" lon="17.985917145989">
        <ele>89.2</ele>
        <time>2017-12-19T13:01:20Z</time>
      </trkpt>
      <trkpt lat="62.635960403962" lon="17.985927791002">
        <ele>89.2</ele>
        <time>2017-12-19T13:01:21Z</time>
      </trkpt>
      <trkpt lat="62.635946238551" lon="17.985936843454">
        <ele>89.2</ele>
        <time>2017-12-19T13:01:22Z</time>
      </trkpt>
      <trkpt lat="62.63592369124" lon="17.985951679417">
        <ele>89.2</ele>
        <time>2017-12-19T13:01:23Z</time>
      </trkpt>
      <trkpt lat="62.635900557196" lon="17.985959642222">
        <ele>89.2</ele>
        <time>2017-12-19T13:01:24Z</time>
      </trkpt>
      <trkpt lat="62.635881195007" lon="17.985981938076">
        <ele>89.2</ele>
        <time>2017-12-19T13:01:25Z</time>
      </trkpt>
      <trkpt lat="62.635853534737" lon="17.986004904482">
        <ele>89.4</ele>
        <time>2017-12-19T13:01:26Z</time>
      </trkpt>
      <trkpt lat="62.635831993254" lon="17.986038683539">
        <ele>89.4</ele>
        <time>2017-12-19T13:01:27Z</time>
      </trkpt>
      <trkpt lat="62.635805925545" lon="17.986082353238">
        <ele>89.6</ele>
        <time>2017-12-19T13:01:28Z</time>
      </trkpt>
      <trkpt lat="62.635780779845" lon="17.986128118412">
        <ele>89.6</ele>
        <time>2017-12-19T13:01:29Z</time>
      </trkpt>
      <trkpt lat="62.635760411828" lon="17.986160807822">
        <ele>89.8</ele>
        <time>2017-12-19T13:01:30Z</time>
      </trkpt>
      <trkpt lat="62.635750269729" lon="17.9861911503">
        <ele>89.8</ele>
        <time>2017-12-19T13:01:31Z</time>
      </trkpt>
      <trkpt lat="62.635739037983" lon="17.986213613792">
        <ele>90</ele>
        <time>2017-12-19T13:01:32Z</time>
      </trkpt>
      <trkpt lat="62.635729314979" lon="17.986233814171">
        <ele>90</ele>
        <time>2017-12-19T13:01:33Z</time>
      </trkpt>
      <trkpt lat="62.635713389369" lon="17.986270526893">
        <ele>90.2</ele>
        <time>2017-12-19T13:01:34Z</time>
      </trkpt>
      <trkpt lat="62.63569905632" lon="17.986302378113">
        <ele>90.4</ele>
        <time>2017-12-19T13:01:35Z</time>
      </trkpt>
      <trkpt lat="62.635683465986" lon="17.986339258473">
        <ele>90.4</ele>
        <time>2017-12-19T13:01:36Z</time>
      </trkpt>
      <trkpt lat="62.63567055786" lon="17.986365829096">
        <ele>90.8</ele>
        <time>2017-12-19T13:01:37Z</time>
      </trkpt>
      <trkpt lat="62.635652369137" lon="17.986405643121">
        <ele>91</ele>
        <time>2017-12-19T13:01:38Z</time>
      </trkpt>
      <trkpt lat="62.635634850966" lon="17.986451492114">
        <ele>91</ele>
        <time>2017-12-19T13:01:39Z</time>
      </trkpt>
      <trkpt lat="62.635622948668" lon="17.986496922012">
        <ele>91</ele>
        <time>2017-12-19T13:01:40Z</time>
      </trkpt>
      <trkpt lat="62.635606436325" lon="17.986552661647">
        <ele>91.2</ele>
        <time>2017-12-19T13:01:41Z</time>
      </trkpt>
      <trkpt lat="62.635589756344" lon="17.986599600287">
        <ele>91</ele>
        <time>2017-12-19T13:01:42Z</time>
      </trkpt>
      <trkpt lat="62.635575507114" lon="17.986640503959">
        <ele>91</ele>
        <time>2017-12-19T13:01:43Z</time>
      </trkpt>
      <trkpt lat="62.635558743314" lon="17.986683838382">
        <ele>91.2</ele>
        <time>2017-12-19T13:01:44Z</time>
      </trkpt>
      <trkpt lat="62.635542817704" lon="17.986720467285">
        <ele>91.2</ele>
        <time>2017-12-19T13:01:45Z</time>
      </trkpt>
      <trkpt lat="62.63553225651" lon="17.986755587446">
        <ele>91.2</ele>
        <time>2017-12-19T13:01:46Z</time>
      </trkpt>
      <trkpt lat="62.635522784963" lon="17.986794228005">
        <ele>91.4</ele>
        <time>2017-12-19T13:01:47Z</time>
      </trkpt>
      <trkpt lat="62.635509122466" lon="17.986846782518">
        <ele>91.6</ele>
        <time>2017-12-19T13:01:48Z</time>
      </trkpt>
      <trkpt lat="62.635497136349" lon="17.986888775837">
        <ele>91.6</ele>
        <time>2017-12-19T13:01:49Z</time>
      </trkpt>
      <trkpt lat="62.635478025617" lon="17.986937055581">
        <ele>91.6</ele>
        <time>2017-12-19T13:01:50Z</time>
      </trkpt>
      <trkpt lat="62.63545933398" lon="17.986976366692">
        <ele>91.8</ele>
        <time>2017-12-19T13:01:51Z</time>
      </trkpt>
      <trkpt lat="62.635447012587" lon="17.987006457713">
        <ele>91.8</ele>
        <time>2017-12-19T13:01:52Z</time>
      </trkpt>
      <trkpt lat="62.635430164968" lon="17.987039566218">
        <ele>91.8</ele>
        <time>2017-12-19T13:01:53Z</time>
      </trkpt>
      <trkpt lat="62.635415496643" lon="17.987080302252">
        <ele>92</ele>
        <time>2017-12-19T13:01:54Z</time>
      </trkpt>
      <trkpt lat="62.635403594345" lon="17.987107543427">
        <ele>92</ele>
        <time>2017-12-19T13:01:55Z</time>
      </trkpt>
      <trkpt lat="62.635393619884" lon="17.987133024403">
        <ele>92</ele>
        <time>2017-12-19T13:01:56Z</time>
      </trkpt>
      <trkpt lat="62.635372748953" lon="17.987172335514">
        <ele>92.2</ele>
        <time>2017-12-19T13:01:57Z</time>
      </trkpt>
      <trkpt lat="62.63536126575" lon="17.987209383512">
        <ele>92.4</ele>
        <time>2017-12-19T13:01:58Z</time>
      </trkpt>
      <trkpt lat="62.635348357624" lon="17.987239977447">
        <ele>92.4</ele>
        <time>2017-12-19T13:01:59Z</time>
      </trkpt>
      <trkpt lat="62.635330336539" lon="17.987282557499">
        <ele>92.4</ele>
        <time>2017-12-19T13:02:00Z</time>
      </trkpt>
      <trkpt lat="62.635317176956" lon="17.987321700972">
        <ele>92.6</ele>
        <time>2017-12-19T13:02:01Z</time>
      </trkpt>
      <trkpt lat="62.635301502803" lon="17.98735036707">
        <ele>92.6</ele>
        <time>2017-12-19T13:02:02Z</time>
      </trkpt>
      <trkpt lat="62.635280631872" lon="17.987385151955">
        <ele>92.8</ele>
        <time>2017-12-19T13:02:03Z</time>
      </trkpt>
      <trkpt lat="62.635267472289" lon="17.987417673727">
        <ele>92.8</ele>
        <time>2017-12-19T13:02:04Z</time>
      </trkpt>
      <trkpt lat="62.635249283566" lon="17.987448938214">
        <ele>93</ele>
        <time>2017-12-19T13:02:05Z</time>
      </trkpt>
      <trkpt lat="62.635233777051" lon="17.987482884909">
        <ele>93.2</ele>
        <time>2017-12-19T13:02:06Z</time>
      </trkpt>
      <trkpt lat="62.63522212621" lon="17.987509706989">
        <ele>93.2</ele>
        <time>2017-12-19T13:02:07Z</time>
      </trkpt>
      <trkpt lat="62.635203183116" lon="17.987540133286">
        <ele>93.6</ele>
        <time>2017-12-19T13:02:08Z</time>
      </trkpt>
      <trkpt lat="62.635182815099" lon="17.987571062497">
        <ele>93.8</ele>
        <time>2017-12-19T13:02:09Z</time>
      </trkpt>
      <trkpt lat="62.63516848205" lon="17.98760182407">
        <ele>93.8</ele>
        <time>2017-12-19T13:02:10Z</time>
      </trkpt>
      <trkpt lat="62.635151885888" lon="17.987631831272">
        <ele>93.8</ele>
        <time>2017-12-19T13:02:11Z</time>
      </trkpt>
      <trkpt lat="62.635129338577" lon="17.9876663647">
        <ele>93.6</ele>
        <time>2017-12-19T13:02:12Z</time>
      </trkpt>
      <trkpt lat="62.635108886741" lon="17.987697629187">
        <ele>93.8</ele>
        <time>2017-12-19T13:02:13Z</time>
      </trkpt>
      <trkpt lat="62.635092877312" lon="17.987722355792">
        <ele>94</ele>
        <time>2017-12-19T13:02:14Z</time>
      </trkpt>
      <trkpt lat="62.635079130996" lon="17.987755045202">
        <ele>94</ele>
        <time>2017-12-19T13:02:15Z</time>
      </trkpt>
      <trkpt lat="62.63506119373" lon="17.987791674105">
        <ele>94.2</ele>
        <time>2017-12-19T13:02:16Z</time>
      </trkpt>
      <trkpt lat="62.635047698871" lon="17.987820424022">
        <ele>94.2</ele>
        <time>2017-12-19T13:02:17Z</time>
      </trkpt>
      <trkpt lat="62.635026995578" lon="17.987848754844">
        <ele>94.4</ele>
        <time>2017-12-19T13:02:18Z</time>
      </trkpt>
      <trkpt lat="62.635004532086" lon="17.987876918028">
        <ele>94.4</ele>
        <time>2017-12-19T13:02:19Z</time>
      </trkpt>
      <trkpt lat="62.634985672811" lon="17.987899632977">
        <ele>94.4</ele>
        <time>2017-12-19T13:02:20Z</time>
      </trkpt>
      <trkpt lat="62.634969998658" lon="17.987924862496">
        <ele>94.4</ele>
        <time>2017-12-19T13:02:21Z</time>
      </trkpt>
      <trkpt lat="62.634952564306" lon="17.987948918549">
        <ele>94.6</ele>
        <time>2017-12-19T13:02:22Z</time>
      </trkpt>
      <trkpt lat="62.634927334787" lon="17.98796643672">
        <ele>94.6</ele>
        <time>2017-12-19T13:02:23Z</time>
      </trkpt>
      <trkpt lat="62.634908726969" lon="17.987981943235">
        <ele>94.8</ele>
        <time>2017-12-19T13:02:24Z</time>
      </trkpt>
      <trkpt lat="62.634885844382" lon="17.987997701207">
        <ele>95</ele>
        <time>2017-12-19T13:02:25Z</time>
      </trkpt>
      <trkpt lat="62.634862458881" lon="17.988013459179">
        <ele>95.2</ele>
        <time>2017-12-19T13:02:26Z</time>
      </trkpt>
      <trkpt lat="62.634847790556" lon="17.988030725893">
        <ele>95.2</ele>
        <time>2017-12-19T13:02:27Z</time>
      </trkpt>
      <trkpt lat="62.634831362032" lon="17.988037850508">
        <ele>95.4</ele>
        <time>2017-12-19T13:02:28Z</time>
      </trkpt>
      <trkpt lat="62.634807473617" lon="17.98804438839">
        <ele>95.4</ele>
        <time>2017-12-19T13:02:29Z</time>
      </trkpt>
      <trkpt lat="62.634791464188" lon="17.988057547973">
        <ele>95.6</ele>
        <time>2017-12-19T13:02:30Z</time>
      </trkpt>
      <trkpt lat="62.634763971556" lon="17.988063582941">
        <ele>95.8</ele>
        <time>2017-12-19T13:02:31Z</time>
      </trkpt>
      <trkpt lat="62.634739664046" lon="17.98806450495">
        <ele>95.6</ele>
        <time>2017-12-19T13:02:32Z</time>
      </trkpt>
      <trkpt lat="62.634713763975" lon="17.988068192986">
        <ele>95.8</ele>
        <time>2017-12-19T13:02:33Z</time>
      </trkpt>
      <trkpt lat="62.634691719578" lon="17.988079089456">
        <ele>96</ele>
        <time>2017-12-19T13:02:34Z</time>
      </trkpt>
      <trkpt lat="62.634670681009" lon="17.988089483012">
        <ele>96</ele>
        <time>2017-12-19T13:02:35Z</time>
      </trkpt>
      <trkpt lat="62.634646876413" lon="17.988096020894">
        <ele>96</ele>
        <time>2017-12-19T13:02:36Z</time>
      </trkpt>
      <trkpt lat="62.63462868769" lon="17.988102894052">
        <ele>96</ele>
        <time>2017-12-19T13:02:37Z</time>
      </trkpt>
      <trkpt lat="62.634604631637" lon="17.988117730015">
        <ele>96.4</ele>
        <time>2017-12-19T13:02:38Z</time>
      </trkpt>
      <trkpt lat="62.634581581412" lon="17.988123932621">
        <ele>96.4</ele>
        <time>2017-12-19T13:02:39Z</time>
      </trkpt>
      <trkpt lat="62.634562805956" lon="17.988131643969">
        <ele>96.4</ele>
        <time>2017-12-19T13:02:40Z</time>
      </trkpt>
      <trkpt lat="62.634543611405" lon="17.988138936222">
        <ele>96.6</ele>
        <time>2017-12-19T13:02:41Z</time>
      </trkpt>
      <trkpt lat="62.634515280583" lon="17.988143881543">
        <ele>96.8</ele>
        <time>2017-12-19T13:02:42Z</time>
      </trkpt>
      <trkpt lat="62.634490218702" lon="17.988157963135">
        <ele>96.8</ele>
        <time>2017-12-19T13:02:43Z</time>
      </trkpt>
      <trkpt lat="62.634469263952" lon="17.988171709451">
        <ele>96.8</ele>
        <time>2017-12-19T13:02:44Z</time>
      </trkpt>
      <trkpt lat="62.634447219555" lon="17.988177325324">
        <ele>96.8</ele>
        <time>2017-12-19T13:02:45Z</time>
      </trkpt>
      <trkpt lat="62.634423666416" lon="17.988178414971">
        <ele>96.8</ele>
        <time>2017-12-19T13:02:46Z</time>
      </trkpt>
      <trkpt lat="62.63439986182" lon="17.988184869034">
        <ele>96.8</ele>
        <time>2017-12-19T13:02:47Z</time>
      </trkpt>
      <trkpt lat="62.634372285369" lon="17.988183695568">
        <ele>97</ele>
        <time>2017-12-19T13:02:48Z</time>
      </trkpt>
      <trkpt lat="62.634347474945" lon="17.988174978392">
        <ele>97</ele>
        <time>2017-12-19T13:02:49Z</time>
      </trkpt>
      <trkpt lat="62.634322832159" lon="17.988176570953">
        <ele>97.2</ele>
        <time>2017-12-19T13:02:50Z</time>
      </trkpt>
      <trkpt lat="62.634302883237" lon="17.988178666428">
        <ele>97.2</ele>
        <time>2017-12-19T13:02:51Z</time>
      </trkpt>
      <trkpt lat="62.634280419745" lon="17.988172128546">
        <ele>97.4</ele>
        <time>2017-12-19T13:02:52Z</time>
      </trkpt>
      <trkpt lat="62.634255776959" lon="17.988165842121">
        <ele>97.4</ele>
        <time>2017-12-19T13:02:53Z</time>
      </trkpt>
      <trkpt lat="62.634227865232" lon="17.988160729162">
        <ele>97.6</ele>
        <time>2017-12-19T13:02:54Z</time>
      </trkpt>
      <trkpt lat="62.634203473903" lon="17.988158549868">
        <ele>97.6</ele>
        <time>2017-12-19T13:02:55Z</time>
      </trkpt>
      <trkpt lat="62.634171957959" lon="17.988147737217">
        <ele>97.8</ele>
        <time>2017-12-19T13:02:56Z</time>
      </trkpt>
      <trkpt lat="62.634146644621" lon="17.988145893199">
        <ele>97.8</ele>
        <time>2017-12-19T13:02:57Z</time>
      </trkpt>
      <trkpt lat="62.63411403903" lon="17.988139439136">
        <ele>97.8</ele>
        <time>2017-12-19T13:02:58Z</time>
      </trkpt>
      <trkpt lat="62.634084115647" lon="17.988129799951">
        <ele>97.8</ele>
        <time>2017-12-19T13:02:59Z</time>
      </trkpt>
      <trkpt lat="62.634062238888" lon="17.988125776639">
        <ele>97.8</ele>
        <time>2017-12-19T13:03:00Z</time>
      </trkpt>
      <trkpt lat="62.634039104844" lon="17.988113539065">
        <ele>97.8</ele>
        <time>2017-12-19T13:03:01Z</time>
      </trkpt>
      <trkpt lat="62.634013037135" lon="17.988099206016">
        <ele>97.8</ele>
        <time>2017-12-19T13:03:02Z</time>
      </trkpt>
      <trkpt lat="62.633984790132" lon="17.988080095284">
        <ele>98</ele>
        <time>2017-12-19T13:03:03Z</time>
      </trkpt>
      <trkpt lat="62.633959979708" lon="17.988055955412">
        <ele>98</ele>
        <time>2017-12-19T13:03:04Z</time>
      </trkpt>
      <trkpt lat="62.633939192596" lon="17.98804941753">
        <ele>98.2</ele>
        <time>2017-12-19T13:03:05Z</time>
      </trkpt>
      <trkpt lat="62.633912286697" lon="17.988040867992">
        <ele>98.2</ele>
        <time>2017-12-19T13:03:06Z</time>
      </trkpt>
      <trkpt lat="62.633891331947" lon="17.988028295142">
        <ele>98.2</ele>
        <time>2017-12-19T13:03:07Z</time>
      </trkpt>
      <trkpt lat="62.633872388853" lon="17.988017817767">
        <ele>98.2</ele>
        <time>2017-12-19T13:03:08Z</time>
      </trkpt>
      <trkpt lat="62.633850931189" lon="17.987998455578">
        <ele>98.2</ele>
        <time>2017-12-19T13:03:09Z</time>
      </trkpt>
      <trkpt lat="62.633834418846" lon="17.987967610186">
        <ele>98.4</ele>
        <time>2017-12-19T13:03:10Z</time>
      </trkpt>
      <trkpt lat="62.633813212639" lon="17.987935507509">
        <ele>98.4</ele>
        <time>2017-12-19T13:03:11Z</time>
      </trkpt>
      <trkpt lat="62.633788150758" lon="17.987911032361">
        <ele>98.4</ele>
        <time>2017-12-19T13:03:12Z</time>
      </trkpt>
      <trkpt lat="62.633761412497" lon="17.987885467566">
        <ele>98.4</ele>
        <time>2017-12-19T13:03:13Z</time>
      </trkpt>
      <trkpt lat="62.633742134127" lon="17.987874152001">
        <ele>98.6</ele>
        <time>2017-12-19T13:03:14Z</time>
      </trkpt>
      <trkpt lat="62.633721011739" lon="17.987858477848">
        <ele>98.6</ele>
        <time>2017-12-19T13:03:15Z</time>
      </trkpt>
      <trkpt lat="62.633697123324" lon="17.987839702392">
        <ele>98.6</ele>
        <time>2017-12-19T13:03:16Z</time>
      </trkpt>
      <trkpt lat="62.633676587669" lon="17.987824866429">
        <ele>98.6</ele>
        <time>2017-12-19T13:03:17Z</time>
      </trkpt>
      <trkpt lat="62.633656135833" lon="17.987807264439">
        <ele>98.8</ele>
        <time>2017-12-19T13:03:18Z</time>
      </trkpt>
      <trkpt lat="62.633640294042" lon="17.987787483155">
        <ele>98.8</ele>
        <time>2017-12-19T13:03:19Z</time>
      </trkpt>
      <trkpt lat="62.633623865518" lon="17.987767450414">
        <ele>99</ele>
        <time>2017-12-19T13:03:20Z</time>
      </trkpt>
      <trkpt lat="62.633607939908" lon="17.987749094053">
        <ele>99.2</ele>
        <time>2017-12-19T13:03:21Z</time>
      </trkpt>
      <trkpt lat="62.633591259927" lon="17.987732162615">
        <ele>99.2</ele>
        <time>2017-12-19T13:03:22Z</time>
      </trkpt>
      <trkpt lat="62.633571981557" lon="17.987714392987">
        <ele>99.6</ele>
        <time>2017-12-19T13:03:23Z</time>
      </trkpt>
      <trkpt lat="62.63355077535" lon="17.987687067993">
        <ele>99.8</ele>
        <time>2017-12-19T13:03:24Z</time>
      </trkpt>
      <trkpt lat="62.633531580799" lon="17.987656641696">
        <ele>100</ele>
        <time>2017-12-19T13:03:25Z</time>
      </trkpt>
      <trkpt lat="62.633513559714" lon="17.987633926747">
        <ele>100</ele>
        <time>2017-12-19T13:03:26Z</time>
      </trkpt>
      <trkpt lat="62.633489838937" lon="17.987601656432">
        <ele>100.2</ele>
        <time>2017-12-19T13:03:27Z</time>
      </trkpt>
      <trkpt lat="62.633465699065" lon="17.987565278986">
        <ele>100.2</ele>
        <time>2017-12-19T13:03:28Z</time>
      </trkpt>
      <trkpt lat="62.633444911953" lon="17.987532589576">
        <ele>100.4</ele>
        <time>2017-12-19T13:03:29Z</time>
      </trkpt>
      <trkpt lat="62.633425717402" lon="17.987501744184">
        <ele>100.4</ele>
        <time>2017-12-19T13:03:30Z</time>
      </trkpt>
      <trkpt lat="62.633410462344" lon="17.987475173561">
        <ele>100.4</ele>
        <time>2017-12-19T13:03:31Z</time>
      </trkpt>
      <trkpt lat="62.633397135123" lon="17.98745346444">
        <ele>100.4</ele>
        <time>2017-12-19T13:03:32Z</time>
      </trkpt>
      <trkpt lat="62.633379197857" lon="17.987426809998">
        <ele>100.6</ele>
        <time>2017-12-19T13:03:33Z</time>
      </trkpt>
      <trkpt lat="62.633362601695" lon="17.987396132244">
        <ele>100.8</ele>
        <time>2017-12-19T13:03:34Z</time>
      </trkpt>
      <trkpt lat="62.633347849551" lon="17.987361347359">
        <ele>101</ele>
        <time>2017-12-19T13:03:35Z</time>
      </trkpt>
      <trkpt lat="62.633330499018" lon="17.987325472827">
        <ele>101.2</ele>
        <time>2017-12-19T13:03:36Z</time>
      </trkpt>
      <trkpt lat="62.633308370802" lon="17.987300494765">
        <ele>101.4</ele>
        <time>2017-12-19T13:03:37Z</time>
      </trkpt>
      <trkpt lat="62.633285236758" lon="17.987254561953">
        <ele>101.6</ele>
        <time>2017-12-19T13:03:38Z</time>
      </trkpt>
      <trkpt lat="62.633260091058" lon="17.987160684673">
        <ele>101.6</ele>
        <time>2017-12-19T13:03:39Z</time>
      </trkpt>
      <trkpt lat="62.633239220127" lon="17.987069238144">
        <ele>101.4</ele>
        <time>2017-12-19T13:03:40Z</time>
      </trkpt>
      <trkpt lat="62.633221785775" lon="17.986963626204">
        <ele>101</ele>
        <time>2017-12-19T13:03:41Z</time>
      </trkpt>
      <trkpt lat="62.633208207097" lon="17.986864133051">
        <ele>100.4</ele>
        <time>2017-12-19T13:03:42Z</time>
      </trkpt>
      <trkpt lat="62.633194963695" lon="17.986750893582">
        <ele>99.4</ele>
        <time>2017-12-19T13:03:43Z</time>
      </trkpt>
      <trkpt lat="62.633188174356" lon="17.986647460936">
        <ele>98.6</ele>
        <time>2017-12-19T13:03:44Z</time>
      </trkpt>
      <trkpt lat="62.633180714465" lon="17.986556265864">
        <ele>98</ele>
        <time>2017-12-19T13:03:45Z</time>
      </trkpt>
      <trkpt lat="62.633168644529" lon="17.986460879842">
        <ele>97.8</ele>
        <time>2017-12-19T13:03:46Z</time>
      </trkpt>
      <trkpt lat="62.633162777199" lon="17.986384269276">
        <ele>98</ele>
        <time>2017-12-19T13:03:47Z</time>
      </trkpt>
      <trkpt lat="62.633159172982" lon="17.986269688703">
        <ele>98</ele>
        <time>2017-12-19T13:03:48Z</time>
      </trkpt>
      <trkpt lat="62.633156658412" lon="17.986145301307">
        <ele>98.2</ele>
        <time>2017-12-19T13:03:49Z</time>
      </trkpt>
      <trkpt lat="62.633157328964" lon="17.986023679938">
        <ele>98.4</ele>
        <time>2017-12-19T13:03:50Z</time>
      </trkpt>
      <trkpt lat="62.633160094991" lon="17.985902561483">
        <ele>97.8</ele>
        <time>2017-12-19T13:03:51Z</time>
      </trkpt>
      <trkpt lat="62.633161939009" lon="17.985791082213">
        <ele>97.4</ele>
        <time>2017-12-19T13:03:52Z</time>
      </trkpt>
      <trkpt lat="62.633162944837" lon="17.985669879939">
        <ele>96.6</ele>
        <time>2017-12-19T13:03:53Z</time>
      </trkpt>
      <trkpt lat="62.633164118303" lon="17.985556891927">
        <ele>95.8</ele>
        <time>2017-12-19T13:03:54Z</time>
      </trkpt>
      <trkpt lat="62.633169734176" lon="17.985454046014">
        <ele>95.4</ele>
        <time>2017-12-19T13:03:55Z</time>
      </trkpt>
      <trkpt lat="62.633175182411" lon="17.985328820428">
        <ele>95.4</ele>
        <time>2017-12-19T13:03:56Z</time>
      </trkpt>
      <trkpt lat="62.6331861627" lon="17.98520376248">
        <ele>95.4</ele>
        <time>2017-12-19T13:03:57Z</time>
      </trkpt>
      <trkpt lat="62.633201836853" lon="17.985050122253">
        <ele>95.4</ele>
        <time>2017-12-19T13:03:58Z</time>
      </trkpt>
      <trkpt lat="62.633219187386" lon="17.984896062931">
        <ele>95</ele>
        <time>2017-12-19T13:03:59Z</time>
      </trkpt>
      <trkpt lat="62.633244249267" lon="17.984764802377">
        <ele>94.6</ele>
        <time>2017-12-19T13:04:00Z</time>
      </trkpt>
      <trkpt lat="62.63327165808" lon="17.984640247343">
        <ele>94</ele>
        <time>2017-12-19T13:04:01Z</time>
      </trkpt>
      <trkpt lat="62.633290349717" lon="17.984542598208">
        <ele>93.2</ele>
        <time>2017-12-19T13:04:02Z</time>
      </trkpt>
      <trkpt lat="62.633313399942" lon="17.984433633508">
        <ele>92.8</ele>
        <time>2017-12-19T13:04:03Z</time>
      </trkpt>
      <trkpt lat="62.633334270873" lon="17.984334727088">
        <ele>92.4</ele>
        <time>2017-12-19T13:04:04Z</time>
      </trkpt>
      <trkpt lat="62.633349945026" lon="17.98421805104">
        <ele>92.2</ele>
        <time>2017-12-19T13:04:05Z</time>
      </trkpt>
      <trkpt lat="62.633361847324" lon="17.98412249738">
        <ele>92</ele>
        <time>2017-12-19T13:04:06Z</time>
      </trkpt>
      <trkpt lat="62.63336637355" lon="17.984036918181">
        <ele>92.4</ele>
        <time>2017-12-19T13:04:07Z</time>
      </trkpt>
      <trkpt lat="62.63337810821" lon="17.983935413372">
        <ele>92.6</ele>
        <time>2017-12-19T13:04:08Z</time>
      </trkpt>
      <trkpt lat="62.63338649011" lon="17.983843883024">
        <ele>93.2</ele>
        <time>2017-12-19T13:04:09Z</time>
      </trkpt>
      <trkpt lat="62.633394452915" lon="17.983762997689">
        <ele>93.4</ele>
        <time>2017-12-19T13:04:10Z</time>
      </trkpt>
      <trkpt lat="62.633406271394" lon="17.983676496481">
        <ele>93.8</ele>
        <time>2017-12-19T13:04:11Z</time>
      </trkpt>
      <trkpt lat="62.633417000226" lon="17.983600724105">
        <ele>94</ele>
        <time>2017-12-19T13:04:12Z</time>
      </trkpt>
      <trkpt lat="62.633432171465" lon="17.983523694444">
        <ele>94</ele>
        <time>2017-12-19T13:04:13Z</time>
      </trkpt>
      <trkpt lat="62.633449186722" lon="17.983459740547">
        <ele>94</ele>
        <time>2017-12-19T13:04:14Z</time>
      </trkpt>
      <trkpt lat="62.633461005201" lon="17.983405258197">
        <ele>94</ele>
        <time>2017-12-19T13:04:15Z</time>
      </trkpt>
      <trkpt lat="62.633474835336" lon="17.983345746707">
        <ele>94</ele>
        <time>2017-12-19T13:04:16Z</time>
      </trkpt>
      <trkpt lat="62.633484809797" lon="17.983282714819">
        <ele>94</ele>
        <time>2017-12-19T13:04:17Z</time>
      </trkpt>
      <trkpt lat="62.633495203353" lon="17.983215072886">
        <ele>94</ele>
        <time>2017-12-19T13:04:18Z</time>
      </trkpt>
      <trkpt lat="62.633506099823" lon="17.983154052654">
        <ele>94</ele>
        <time>2017-12-19T13:04:19Z</time>
      </trkpt>
      <trkpt lat="62.633513811171" lon="17.983085153436">
        <ele>94.2</ele>
        <time>2017-12-19T13:04:20Z</time>
      </trkpt>
      <trkpt lat="62.633525881107" lon="17.983023211195">
        <ele>94</ele>
        <time>2017-12-19T13:04:21Z</time>
      </trkpt>
      <trkpt lat="62.633538286319" lon="17.982951043036">
        <ele>94</ele>
        <time>2017-12-19T13:04:22Z</time>
      </trkpt>
      <trkpt lat="62.633552535549" lon="17.982875857393">
        <ele>94</ele>
        <time>2017-12-19T13:04:23Z</time>
      </trkpt>
      <trkpt lat="62.633572149195" lon="17.982813496057">
        <ele>94.2</ele>
        <time>2017-12-19T13:04:24Z</time>
      </trkpt>
      <trkpt lat="62.633580279638" lon="17.982755744766">
        <ele>94</ele>
        <time>2017-12-19T13:04:25Z</time>
      </trkpt>
      <trkpt lat="62.633595450877" lon="17.982691623231">
        <ele>94</ele>
        <time>2017-12-19T13:04:26Z</time>
      </trkpt>
      <trkpt lat="62.633607604632" lon="17.982620041805">
        <ele>94</ele>
        <time>2017-12-19T13:04:27Z</time>
      </trkpt>
      <trkpt lat="62.633619423111" lon="17.982555165899">
        <ele>94</ele>
        <time>2017-12-19T13:04:28Z</time>
      </trkpt>
      <trkpt lat="62.633629984305" lon="17.982460031334">
        <ele>94</ele>
        <time>2017-12-19T13:04:29Z</time>
      </trkpt>
      <trkpt lat="62.633640042585" lon="17.982380654741">
        <ele>94</ele>
        <time>2017-12-19T13:04:30Z</time>
      </trkpt>
      <trkpt lat="62.633649849408" lon="17.982310498238">
        <ele>94</ele>
        <time>2017-12-19T13:04:31Z</time>
      </trkpt>
      <trkpt lat="62.633659237136" lon="17.982244365047">
        <ele>94</ele>
        <time>2017-12-19T13:04:32Z</time>
      </trkpt>
      <trkpt lat="62.633667954312" lon="17.982166078101">
        <ele>94</ele>
        <time>2017-12-19T13:04:33Z</time>
      </trkpt>
      <trkpt lat="62.633678431687" lon="17.982099441996">
        <ele>94</ele>
        <time>2017-12-19T13:04:34Z</time>
      </trkpt>
      <trkpt lat="62.633685640121" lon="17.982036493927">
        <ele>94</ele>
        <time>2017-12-19T13:04:35Z</time>
      </trkpt>
      <trkpt lat="62.633693016193" lon="17.981977988265">
        <ele>94.2</ele>
        <time>2017-12-19T13:04:36Z</time>
      </trkpt>
      <trkpt lat="62.633694441116" lon="17.981919063508">
        <ele>94</ele>
        <time>2017-12-19T13:04:37Z</time>
      </trkpt>
      <trkpt lat="62.633696871867" lon="17.981851086299">
        <ele>94.2</ele>
        <time>2017-12-19T13:04:38Z</time>
      </trkpt>
      <trkpt lat="62.633702823016" lon="17.981777325579">
        <ele>94</ele>
        <time>2017-12-19T13:04:39Z</time>
      </trkpt>
      <trkpt lat="62.63370919326" lon="17.981717646451">
        <ele>94</ele>
        <time>2017-12-19T13:04:40Z</time>
      </trkpt>
      <trkpt lat="62.633713468029" lon="17.981640868247">
        <ele>94</ele>
        <time>2017-12-19T13:04:41Z</time>
      </trkpt>
      <trkpt lat="62.633716988427" lon="17.981570711744">
        <ele>94</ele>
        <time>2017-12-19T13:04:42Z</time>
      </trkpt>
      <trkpt lat="62.633726040879" lon="17.981508350408">
        <ele>94.2</ele>
        <time>2017-12-19T13:04:43Z</time>
      </trkpt>
      <trkpt lat="62.633739116643" lon="17.981441798122">
        <ele>94</ele>
        <time>2017-12-19T13:04:44Z</time>
      </trkpt>
      <trkpt lat="62.633751521855" lon="17.981369378506">
        <ele>94</ele>
        <time>2017-12-19T13:04:45Z</time>
      </trkpt>
      <trkpt lat="62.633762166868" lon="17.981287906438">
        <ele>94</ele>
        <time>2017-12-19T13:04:46Z</time>
      </trkpt>
      <trkpt lat="62.633773314795" lon="17.981219593953">
        <ele>94</ele>
        <time>2017-12-19T13:04:47Z</time>
      </trkpt>
      <trkpt lat="62.633788486034" lon="17.981146419966">
        <ele>94.2</ele>
        <time>2017-12-19T13:04:48Z</time>
      </trkpt>
      <trkpt lat="62.633802567626" lon="17.981094284548">
        <ele>94.2</ele>
        <time>2017-12-19T13:04:49Z</time>
      </trkpt>
      <trkpt lat="62.633821762177" lon="17.981041227121">
        <ele>94.4</ele>
        <time>2017-12-19T13:04:50Z</time>
      </trkpt>
      <trkpt lat="62.633840705271" lon="17.980994120843">
        <ele>94.4</ele>
        <time>2017-12-19T13:04:51Z</time>
      </trkpt>
      <trkpt lat="62.633855289777" lon="17.980954222999">
        <ele>94.6</ele>
        <time>2017-12-19T13:04:52Z</time>
      </trkpt>
      <trkpt lat="62.633878759097" lon="17.980903680142">
        <ele>94.8</ele>
        <time>2017-12-19T13:04:53Z</time>
      </trkpt>
      <trkpt lat="62.633896277268" lon="17.980842408453">
        <ele>95</ele>
        <time>2017-12-19T13:04:54Z</time>
      </trkpt>
      <trkpt lat="62.633907089919" lon="17.980795050718">
        <ele>95</ele>
        <time>2017-12-19T13:04:55Z</time>
      </trkpt>
      <trkpt lat="62.633924105176" lon="17.980752722123">
        <ele>95.2</ele>
        <time>2017-12-19T13:04:56Z</time>
      </trkpt>
      <trkpt lat="62.633941790985" lon="17.980717015229">
        <ele>95.2</ele>
        <time>2017-12-19T13:04:57Z</time>
      </trkpt>
      <trkpt lat="62.633944137917" lon="17.980707292225">
        <ele>95.2</ele>
        <time>2017-12-19T13:04:58Z</time>
      </trkpt>
      <trkpt lat="62.633974983309" lon="17.980620120465">
        <ele>95.4</ele>
        <time>2017-12-19T13:04:59Z</time>
      </trkpt>
      <trkpt lat="62.633991747109" lon="17.980570667255">
        <ele>95.2</ele>
        <time>2017-12-19T13:05:00Z</time>
      </trkpt>
      <trkpt lat="62.634011863669" lon="17.98052414771">
        <ele>95.2</ele>
        <time>2017-12-19T13:05:01Z</time>
      </trkpt>
      <trkpt lat="62.634028376012" lon="17.980483579314">
        <ele>95.4</ele>
        <time>2017-12-19T13:05:02Z</time>
      </trkpt>
      <trkpt lat="62.634047486744" lon="17.980417446123">
        <ele>95.4</ele>
        <time>2017-12-19T13:05:03Z</time>
      </trkpt>
      <trkpt lat="62.634066848933" lon="17.980370926578">
        <ele>95.4</ele>
        <time>2017-12-19T13:05:04Z</time>
      </trkpt>
      <trkpt lat="62.634085121475" lon="17.980328765621">
        <ele>95.4</ele>
        <time>2017-12-19T13:05:05Z</time>
      </trkpt>
      <trkpt lat="62.634103310198" lon="17.980265817552">
        <ele>95.4</ele>
        <time>2017-12-19T13:05:06Z</time>
      </trkpt>
      <trkpt lat="62.634125438414" lon="17.980209491184">
        <ele>95.4</ele>
        <time>2017-12-19T13:05:07Z</time>
      </trkpt>
      <trkpt lat="62.634155361797" lon="17.980145956382">
        <ele>95.4</ele>
        <time>2017-12-19T13:05:08Z</time>
      </trkpt>
      <trkpt lat="62.634183105886" lon="17.980085439064">
        <ele>95.4</ele>
        <time>2017-12-19T13:05:09Z</time>
      </trkpt>
      <trkpt lat="62.634198025668" lon="17.980029950886">
        <ele>95.4</ele>
        <time>2017-12-19T13:05:10Z</time>
      </trkpt>
      <trkpt lat="62.634221662626" lon="17.979974630346">
        <ele>95.4</ele>
        <time>2017-12-19T13:05:11Z</time>
      </trkpt>
      <trkpt lat="62.634243623204" lon="17.97992400367">
        <ele>95.4</ele>
        <time>2017-12-19T13:05:12Z</time>
      </trkpt>
      <trkpt lat="62.634263991221" lon="17.979867509664">
        <ele>95.4</ele>
        <time>2017-12-19T13:05:13Z</time>
      </trkpt>
      <trkpt lat="62.634284443057" lon="17.979814284599">
        <ele>95.6</ele>
        <time>2017-12-19T13:05:14Z</time>
      </trkpt>
      <trkpt lat="62.634304056703" lon="17.979756198032">
        <ele>95.6</ele>
        <time>2017-12-19T13:05:15Z</time>
      </trkpt>
      <trkpt lat="62.634325346729" lon="17.979690232479">
        <ele>95.8</ele>
        <time>2017-12-19T13:05:16Z</time>
      </trkpt>
      <trkpt lat="62.634341020882" lon="17.97963231355">
        <ele>95.8</ele>
        <time>2017-12-19T13:05:17Z</time>
      </trkpt>
      <trkpt lat="62.634358287596" lon="17.979561570314">
        <ele>95.6</ele>
        <time>2017-12-19T13:05:18Z</time>
      </trkpt>
      <trkpt lat="62.63437220155" lon="17.979487809594">
        <ele>95.6</ele>
        <time>2017-12-19T13:05:19Z</time>
      </trkpt>
      <trkpt lat="62.634385361133" lon="17.979416144349">
        <ele>95.6</ele>
        <time>2017-12-19T13:05:20Z</time>
      </trkpt>
      <trkpt lat="62.634398688354" lon="17.979346574579">
        <ele>95.6</ele>
        <time>2017-12-19T13:05:21Z</time>
      </trkpt>
      <trkpt lat="62.634410925928" lon="17.979290751125">
        <ele>95.6</ele>
        <time>2017-12-19T13:05:22Z</time>
      </trkpt>
      <trkpt lat="62.63442500752" lon="17.979231491092">
        <ele>95.4</ele>
        <time>2017-12-19T13:05:23Z</time>
      </trkpt>
      <trkpt lat="62.634440430216" lon="17.979169045937">
        <ele>95.4</ele>
        <time>2017-12-19T13:05:24Z</time>
      </trkpt>
      <trkpt lat="62.63445099141" lon="17.979110372637">
        <ele>95.4</ele>
        <time>2017-12-19T13:05:25Z</time>
      </trkpt>
      <trkpt lat="62.634462055518" lon="17.97904641874">
        <ele>95.4</ele>
        <time>2017-12-19T13:05:26Z</time>
      </trkpt>
      <trkpt lat="62.634472532893" lon="17.978991265838">
        <ele>95.4</ele>
        <time>2017-12-19T13:05:27Z</time>
      </trkpt>
      <trkpt lat="62.634489631969" lon="17.978924378276">
        <ele>95.4</ele>
        <time>2017-12-19T13:05:28Z</time>
      </trkpt>
      <trkpt lat="62.634504132656" lon="17.978873583962">
        <ele>95.4</ele>
        <time>2017-12-19T13:05:29Z</time>
      </trkpt>
      <trkpt lat="62.634537660256" lon="17.97880334364">
        <ele>95.2</ele>
        <time>2017-12-19T13:05:31Z</time>
      </trkpt>
      <trkpt lat="62.634553082952" lon="17.978788507677">
        <ele>95.2</ele>
        <time>2017-12-19T13:05:32Z</time>
      </trkpt>
      <trkpt lat="62.634572193684" lon="17.978771576239">
        <ele>95.2</ele>
        <time>2017-12-19T13:05:33Z</time>
      </trkpt>
      <trkpt lat="62.63458594" lon="17.978760679769">
        <ele>95.2</ele>
        <time>2017-12-19T13:05:34Z</time>
      </trkpt>
      <trkpt lat="62.634602200886" lon="17.978753219878">
        <ele>95.2</ele>
        <time>2017-12-19T13:05:35Z</time>
      </trkpt>
      <trkpt lat="62.634618042677" lon="17.978744251245">
        <ele>95.2</ele>
        <time>2017-12-19T13:05:36Z</time>
      </trkpt>
      <trkpt lat="62.634635644667" lon="17.978745927625">
        <ele>95.2</ele>
        <time>2017-12-19T13:05:37Z</time>
      </trkpt>
      <trkpt lat="62.634659784539" lon="17.978754812439">
        <ele>95.4</ele>
        <time>2017-12-19T13:05:38Z</time>
      </trkpt>
      <trkpt lat="62.634686941895" lon="17.978768055841">
        <ele>95.4</ele>
        <time>2017-12-19T13:05:39Z</time>
      </trkpt>
      <trkpt lat="62.634710327396" lon="17.978783143261">
        <ele>95.2</ele>
        <time>2017-12-19T13:05:40Z</time>
      </trkpt>
      <trkpt lat="62.634745028462" lon="17.978804768563">
        <ele>95.2</ele>
        <time>2017-12-19T13:05:41Z</time>
      </trkpt>
      <trkpt lat="62.634774784207" lon="17.978820442716">
        <ele>95</ele>
        <time>2017-12-19T13:05:42Z</time>
      </trkpt>
      <trkpt lat="62.634812083662" lon="17.978833099385">
        <ele>94.8</ele>
        <time>2017-12-19T13:05:43Z</time>
      </trkpt>
      <trkpt lat="62.634853574067" lon="17.978862100759">
        <ele>94.8</ele>
        <time>2017-12-19T13:05:44Z</time>
      </trkpt>
      <trkpt lat="62.634890957341" lon="17.978889174296">
        <ele>94.8</ele>
        <time>2017-12-19T13:05:45Z</time>
      </trkpt>
      <trkpt lat="62.634924065846" lon="17.978901495689">
        <ele>94.6</ele>
        <time>2017-12-19T13:05:46Z</time>
      </trkpt>
      <trkpt lat="62.634956503799" lon="17.978919097679">
        <ele>94.6</ele>
        <time>2017-12-19T13:05:47Z</time>
      </trkpt>
      <trkpt lat="62.634990618132" lon="17.978939465696">
        <ele>94.4</ele>
        <time>2017-12-19T13:05:48Z</time>
      </trkpt>
      <trkpt lat="62.635016350565" lon="17.978956564772">
        <ele>94.2</ele>
        <time>2017-12-19T13:05:49Z</time>
      </trkpt>
      <trkpt lat="62.635044346111" lon="17.978969724355">
        <ele>94.2</ele>
        <time>2017-12-19T13:05:50Z</time>
      </trkpt>
      <trkpt lat="62.635068821259" lon="17.9789743344">
        <ele>94</ele>
        <time>2017-12-19T13:05:51Z</time>
      </trkpt>
      <trkpt lat="62.635096481529" lon="17.978981207558">
        <ele>94</ele>
        <time>2017-12-19T13:05:52Z</time>
      </trkpt>
      <trkpt lat="62.635132272242" lon="17.978992942218">
        <ele>94</ele>
        <time>2017-12-19T13:05:53Z</time>
      </trkpt>
      <trkpt lat="62.635168649688" lon="17.979003503412">
        <ele>94</ele>
        <time>2017-12-19T13:05:54Z</time>
      </trkpt>
      <trkpt lat="62.635202512564" lon="17.979011801493">
        <ele>93.8</ele>
        <time>2017-12-19T13:05:55Z</time>
      </trkpt>
      <trkpt lat="62.63523805182" lon="17.979019177565">
        <ele>93.6</ele>
        <time>2017-12-19T13:05:56Z</time>
      </trkpt>
      <trkpt lat="62.635270154497" lon="17.979023033239">
        <ele>93.2</ele>
        <time>2017-12-19T13:05:57Z</time>
      </trkpt>
      <trkpt lat="62.635304687925" lon="17.979025212533">
        <ele>92.8</ele>
        <time>2017-12-19T13:05:58Z</time>
      </trkpt>
      <trkpt lat="62.635340059543" lon="17.979027391827">
        <ele>92.4</ele>
        <time>2017-12-19T13:05:59Z</time>
      </trkpt>
      <trkpt lat="62.635372246039" lon="17.979024541981">
        <ele>92</ele>
        <time>2017-12-19T13:06:00Z</time>
      </trkpt>
      <trkpt lat="62.635408036752" lon="17.979015992443">
        <ele>91.8</ele>
        <time>2017-12-19T13:06:01Z</time>
      </trkpt>
      <trkpt lat="62.63544340837" lon="17.979009706018">
        <ele>91.8</ele>
        <time>2017-12-19T13:06:02Z</time>
      </trkpt>
      <trkpt lat="62.635485988422" lon="17.978997719901">
        <ele>91.6</ele>
        <time>2017-12-19T13:06:03Z</time>
      </trkpt>
      <trkpt lat="62.635524377524" lon="17.978987913078">
        <ele>91.4</ele>
        <time>2017-12-19T13:06:04Z</time>
      </trkpt>
      <trkpt lat="62.635570142698" lon="17.978980285549">
        <ele>91.4</ele>
        <time>2017-12-19T13:06:05Z</time>
      </trkpt>
      <trkpt lat="62.635615488777" lon="17.978974082943">
        <ele>91.2</ele>
        <time>2017-12-19T13:06:06Z</time>
      </trkpt>
      <trkpt lat="62.635657733553" lon="17.978968886165">
        <ele>91</ele>
        <time>2017-12-19T13:06:07Z</time>
      </trkpt>
      <trkpt lat="62.635703582546" lon="17.978957989695">
        <ele>90.6</ele>
        <time>2017-12-19T13:06:08Z</time>
      </trkpt>
      <trkpt lat="62.635747084607" lon="17.978953714926">
        <ele>90.4</ele>
        <time>2017-12-19T13:06:09Z</time>
      </trkpt>
      <trkpt lat="62.63578538989" lon="17.978955558944">
        <ele>90</ele>
        <time>2017-12-19T13:06:10Z</time>
      </trkpt>
      <trkpt lat="62.635826293562" lon="17.978963186473">
        <ele>89.8</ele>
        <time>2017-12-19T13:06:11Z</time>
      </trkpt>
      <trkpt lat="62.635859653524" lon="17.978973580029">
        <ele>89.6</ele>
        <time>2017-12-19T13:06:12Z</time>
      </trkpt>
      <trkpt lat="62.635890247459" lon="17.978986823431">
        <ele>89.4</ele>
        <time>2017-12-19T13:06:13Z</time>
      </trkpt>
      <trkpt lat="62.635919332652" lon="17.978998725729">
        <ele>89.6</ele>
        <time>2017-12-19T13:06:14Z</time>
      </trkpt>
      <trkpt lat="62.635940287402" lon="17.979006939991">
        <ele>89.8</ele>
        <time>2017-12-19T13:06:15Z</time>
      </trkpt>
      <trkpt lat="62.635959146677" lon="17.979014064606">
        <ele>90</ele>
        <time>2017-12-19T13:06:16Z</time>
      </trkpt>
      <trkpt lat="62.635974485554" lon="17.97902211123">
        <ele>90.4</ele>
        <time>2017-12-19T13:06:17Z</time>
      </trkpt>
      <trkpt lat="62.63599242282" lon="17.979032253329">
        <ele>90.8</ele>
        <time>2017-12-19T13:06:18Z</time>
      </trkpt>
      <trkpt lat="62.636008264611" lon="17.97904390417">
        <ele>91</ele>
        <time>2017-12-19T13:06:19Z</time>
      </trkpt>
      <trkpt lat="62.636023184393" lon="17.979059494504">
        <ele>91</ele>
        <time>2017-12-19T13:06:20Z</time>
      </trkpt>
      <trkpt lat="62.636032153026" lon="17.979084724023">
        <ele>91.2</ele>
        <time>2017-12-19T13:06:21Z</time>
      </trkpt>
      <trkpt lat="62.636036343976" lon="17.979112300474">
        <ele>91.2</ele>
        <time>2017-12-19T13:06:22Z</time>
      </trkpt>
      <trkpt lat="62.6360360087" lon="17.979144151694">
        <ele>91.2</ele>
        <time>2017-12-19T13:06:23Z</time>
      </trkpt>
      <trkpt lat="62.636032320664" lon="17.979175164724">
        <ele>91.2</ele>
        <time>2017-12-19T13:06:24Z</time>
      </trkpt>
      <trkpt lat="62.636029973732" lon="17.979192766714">
        <ele>91.4</ele>
        <time>2017-12-19T13:06:25Z</time>
      </trkpt>
      <trkpt lat="62.63602678861" lon="17.979204752831">
        <ele>91.4</ele>
        <time>2017-12-19T13:06:26Z</time>
      </trkpt>
      <trkpt lat="62.636026118058" lon="17.97920567484">
        <ele>91.2</ele>
        <time>2017-12-19T13:06:28Z</time>
      </trkpt>
      <trkpt lat="62.636032488302" lon="17.979223193011">
        <ele>91.2</ele>
        <time>2017-12-19T13:06:29Z</time>
      </trkpt>
      <trkpt lat="62.635998793064" lon="17.979606916393">
        <ele>90.6</ele>
        <time>2017-12-19T13:06:36Z</time>
      </trkpt>
      <trkpt lat="62.635994434476" lon="17.97974211644">
        <ele>90</ele>
        <time>2017-12-19T13:06:37Z</time>
      </trkpt>
      <trkpt lat="62.635996697589" lon="17.979885027835">
        <ele>89.6</ele>
        <time>2017-12-19T13:06:38Z</time>
      </trkpt>
      <trkpt lat="62.636008096973" lon="17.980060544821">
        <ele>88.6</ele>
        <time>2017-12-19T13:06:39Z</time>
      </trkpt>
      <trkpt lat="62.636021424194" lon="17.98018635714">
        <ele>88</ele>
        <time>2017-12-19T13:06:40Z</time>
      </trkpt>
      <trkpt lat="62.636045312609" lon="17.980349385095">
        <ele>86.8</ele>
        <time>2017-12-19T13:06:41Z</time>
      </trkpt>
      <trkpt lat="62.636065932083" lon="17.980483244038">
        <ele>86</ele>
        <time>2017-12-19T13:06:42Z</time>
      </trkpt>
      <trkpt lat="62.636088730851" lon="17.98062724508">
        <ele>85.4</ele>
        <time>2017-12-19T13:06:43Z</time>
      </trkpt>
      <trkpt lat="62.636115050017" lon="17.980758170358">
        <ele>84.8</ele>
        <time>2017-12-19T13:06:44Z</time>
      </trkpt>
      <trkpt lat="62.636145224857" lon="17.980885156143">
        <ele>84.4</ele>
        <time>2017-12-19T13:06:45Z</time>
      </trkpt>
      <trkpt lat="62.636168610358" lon="17.981008789168">
        <ele>84.2</ele>
        <time>2017-12-19T13:06:46Z</time>
      </trkpt>
      <trkpt lat="62.636187637271" lon="17.981132422193">
        <ele>84</ele>
        <time>2017-12-19T13:06:47Z</time>
      </trkpt>
      <trkpt lat="62.636207670012" lon="17.981305005514">
        <ele>83.8</ele>
        <time>2017-12-19T13:06:48Z</time>
      </trkpt>
      <trkpt lat="62.636213453523" lon="17.981426375426">
        <ele>83.4</ele>
        <time>2017-12-19T13:06:49Z</time>
      </trkpt>
      <trkpt lat="62.63622124869" lon="17.981541794189">
        <ele>83.2</ele>
        <time>2017-12-19T13:06:50Z</time>
      </trkpt>
      <trkpt lat="62.636230720237" lon="17.981643382817">
        <ele>83</ele>
        <time>2017-12-19T13:06:51Z</time>
      </trkpt>
      <trkpt lat="62.63624052706" lon="17.981740277581">
        <ele>82.8</ele>
        <time>2017-12-19T13:06:52Z</time>
      </trkpt>
      <trkpt lat="62.636252094082" lon="17.981854690516">
        <ele>82.6</ele>
        <time>2017-12-19T13:06:53Z</time>
      </trkpt>
      <trkpt lat="62.636260056887" lon="17.981951920556">
        <ele>82.4</ele>
        <time>2017-12-19T13:06:54Z</time>
      </trkpt>
      <trkpt lat="62.636264499294" lon="17.982048312406">
        <ele>82.6</ele>
        <time>2017-12-19T13:06:55Z</time>
      </trkpt>
      <trkpt lat="62.636273635565" lon="17.982139256021">
        <ele>82.8</ele>
        <time>2017-12-19T13:06:56Z</time>
      </trkpt>
      <trkpt lat="62.636282939474" lon="17.982219889899">
        <ele>83.2</ele>
        <time>2017-12-19T13:06:57Z</time>
      </trkpt>
      <trkpt lat="62.636289309718" lon="17.982320137423">
        <ele>83.4</ele>
        <time>2017-12-19T13:06:58Z</time>
      </trkpt>
      <trkpt lat="62.636293752125" lon="17.982409404658">
        <ele>83.8</ele>
        <time>2017-12-19T13:06:59Z</time>
      </trkpt>
      <trkpt lat="62.636295931419" lon="17.982494480943">
        <ele>84</ele>
        <time>2017-12-19T13:07:00Z</time>
      </trkpt>
      <trkpt lat="62.636300457645" lon="17.982589615508">
        <ele>84</ele>
        <time>2017-12-19T13:07:01Z</time>
      </trkpt>
      <trkpt lat="62.636304397138" lon="17.982674356517">
        <ele>84</ele>
        <time>2017-12-19T13:07:02Z</time>
      </trkpt>
      <trkpt lat="62.636307163165" lon="17.982757504965">
        <ele>84</ele>
        <time>2017-12-19T13:07:03Z</time>
      </trkpt>
      <trkpt lat="62.636308839545" lon="17.982844592906">
        <ele>83.8</ele>
        <time>2017-12-19T13:07:04Z</time>
      </trkpt>
      <trkpt lat="62.63630758226" lon="17.982918437445">
        <ele>84</ele>
        <time>2017-12-19T13:07:05Z</time>
      </trkpt>
      <trkpt lat="62.6363042295" lon="17.982996472934">
        <ele>84</ele>
        <time>2017-12-19T13:07:06Z</time>
      </trkpt>
      <trkpt lat="62.636304145681" lon="17.983061181202">
        <ele>84</ele>
        <time>2017-12-19T13:07:07Z</time>
      </trkpt>
      <trkpt lat="62.636306576432" lon="17.983127901126">
        <ele>84</ele>
        <time>2017-12-19T13:07:08Z</time>
      </trkpt>
      <trkpt lat="62.636306408794" lon="17.983196800344">
        <ele>84.2</ele>
        <time>2017-12-19T13:07:09Z</time>
      </trkpt>
      <trkpt lat="62.636305654423" lon="17.983276596032">
        <ele>84.2</ele>
        <time>2017-12-19T13:07:10Z</time>
      </trkpt>
      <trkpt lat="62.636306995527" lon="17.983349518562">
        <ele>84.2</ele>
        <time>2017-12-19T13:07:11Z</time>
      </trkpt>
      <trkpt lat="62.636302720758" lon="17.983411879898">
        <ele>84.2</ele>
        <time>2017-12-19T13:07:12Z</time>
      </trkpt>
      <trkpt lat="62.63629500941" lon="17.983483126048">
        <ele>84</ele>
        <time>2017-12-19T13:07:13Z</time>
      </trkpt>
      <trkpt lat="62.636281430732" lon="17.983555294207">
        <ele>84</ele>
        <time>2017-12-19T13:07:14Z</time>
      </trkpt>
      <trkpt lat="62.636283107112" lon="17.983620589208">
        <ele>84</ele>
        <time>2017-12-19T13:07:15Z</time>
      </trkpt>
      <trkpt lat="62.636271623909" lon="17.983678005223">
        <ele>84</ele>
        <time>2017-12-19T13:07:16Z</time>
      </trkpt>
      <trkpt lat="62.636265169846" lon="17.983729470089">
        <ele>84.2</ele>
        <time>2017-12-19T13:07:17Z</time>
      </trkpt>
      <trkpt lat="62.636261649448" lon="17.983778336566">
        <ele>84.4</ele>
        <time>2017-12-19T13:07:18Z</time>
      </trkpt>
      <trkpt lat="62.636249411874" lon="17.983851007639">
        <ele>84.6</ele>
        <time>2017-12-19T13:07:19Z</time>
      </trkpt>
      <trkpt lat="62.636242622535" lon="17.983907334007">
        <ele>84.8</ele>
        <time>2017-12-19T13:07:20Z</time>
      </trkpt>
      <trkpt lat="62.636238515404" lon="17.98395569757">
        <ele>84.8</ele>
        <time>2017-12-19T13:07:21Z</time>
      </trkpt>
      <trkpt lat="62.63622627783" lon="17.984009006454">
        <ele>85</ele>
        <time>2017-12-19T13:07:22Z</time>
      </trkpt>
      <trkpt lat="62.636220494319" lon="17.984065081365">
        <ele>85</ele>
        <time>2017-12-19T13:07:23Z</time>
      </trkpt>
      <trkpt lat="62.636214124075" lon="17.984121240095">
        <ele>85.2</ele>
        <time>2017-12-19T13:07:24Z</time>
      </trkpt>
      <trkpt lat="62.636211358048" lon="17.984163065776">
        <ele>85.2</ele>
        <time>2017-12-19T13:07:25Z</time>
      </trkpt>
      <trkpt lat="62.636202976148" lon="17.984227941682">
        <ele>85.4</ele>
        <time>2017-12-19T13:07:26Z</time>
      </trkpt>
      <trkpt lat="62.63620113213" lon="17.984274377408">
        <ele>85.4</ele>
        <time>2017-12-19T13:07:27Z</time>
      </trkpt>
      <trkpt lat="62.636195600076" lon="17.98431863384">
        <ele>85.6</ele>
        <time>2017-12-19T13:07:28Z</time>
      </trkpt>
      <trkpt lat="62.636188726918" lon="17.984375127846">
        <ele>85.6</ele>
        <time>2017-12-19T13:07:29Z</time>
      </trkpt>
      <trkpt lat="62.636187050538" lon="17.98443598044">
        <ele>85.8</ele>
        <time>2017-12-19T13:07:30Z</time>
      </trkpt>
      <trkpt lat="62.636187385814" lon="17.984490211333">
        <ele>85.8</ele>
        <time>2017-12-19T13:07:31Z</time>
      </trkpt>
      <trkpt lat="62.636187469633" lon="17.98454745971">
        <ele>85.8</ele>
        <time>2017-12-19T13:07:32Z</time>
      </trkpt>
      <trkpt lat="62.63618855928" lon="17.9845985893">
        <ele>86</ele>
        <time>2017-12-19T13:07:33Z</time>
      </trkpt>
      <trkpt lat="62.636186296167" lon="17.984668745803">
        <ele>86</ele>
        <time>2017-12-19T13:07:34Z</time>
      </trkpt>
      <trkpt lat="62.636188726918" lon="17.984719540117">
        <ele>86.2</ele>
        <time>2017-12-19T13:07:35Z</time>
      </trkpt>
      <trkpt lat="62.636181686122" lon="17.984785338032">
        <ele>86.2</ele>
        <time>2017-12-19T13:07:36Z</time>
      </trkpt>
      <trkpt lat="62.636192331135" lon="17.984830097378">
        <ele>86.4</ele>
        <time>2017-12-19T13:07:37Z</time>
      </trkpt>
      <trkpt lat="62.636187888728" lon="17.984889105954">
        <ele>86.4</ele>
        <time>2017-12-19T13:07:38Z</time>
      </trkpt>
      <trkpt lat="62.636185038882" lon="17.984931769825">
        <ele>86.6</ele>
        <time>2017-12-19T13:07:39Z</time>
      </trkpt>
      <trkpt lat="62.63618101557" lon="17.984992706238">
        <ele>86.6</ele>
        <time>2017-12-19T13:07:40Z</time>
      </trkpt>
      <trkpt lat="62.636177578991" lon="17.985034280462">
        <ele>86.8</ele>
        <time>2017-12-19T13:07:41Z</time>
      </trkpt>
      <trkpt lat="62.636174226231" lon="17.985080297093">
        <ele>87</ele>
        <time>2017-12-19T13:07:42Z</time>
      </trkpt>
      <trkpt lat="62.636176489344" lon="17.985133270701">
        <ele>87</ele>
        <time>2017-12-19T13:07:43Z</time>
      </trkpt>
      <trkpt lat="62.636173555679" lon="17.985178532961">
        <ele>87</ele>
        <time>2017-12-19T13:07:44Z</time>
      </trkpt>
      <trkpt lat="62.636167520711" lon="17.985230836017">
        <ele>87</ele>
        <time>2017-12-19T13:07:45Z</time>
      </trkpt>
      <trkpt lat="62.636171376385" lon="17.985276098277">
        <ele>87.2</ele>
        <time>2017-12-19T13:07:46Z</time>
      </trkpt>
      <trkpt lat="62.636169113272" lon="17.985340219812">
        <ele>87.2</ele>
        <time>2017-12-19T13:07:47Z</time>
      </trkpt>
      <trkpt lat="62.636169783824" lon="17.985406688279">
        <ele>87.2</ele>
        <time>2017-12-19T13:07:48Z</time>
      </trkpt>
      <trkpt lat="62.636162156295" lon="17.985461841181">
        <ele>87.4</ele>
        <time>2017-12-19T13:07:49Z</time>
      </trkpt>
      <trkpt lat="62.636155199318" lon="17.985523699603">
        <ele>87.6</ele>
        <time>2017-12-19T13:07:50Z</time>
      </trkpt>
      <trkpt lat="62.636146901237" lon="17.985572314623">
        <ele>87.6</ele>
        <time>2017-12-19T13:07:51Z</time>
      </trkpt>
      <trkpt lat="62.636139692803" lon="17.985614056485">
        <ele>87.6</ele>
        <time>2017-12-19T13:07:52Z</time>
      </trkpt>
      <trkpt lat="62.636126700858" lon="17.985670885767">
        <ele>87.8</ele>
        <time>2017-12-19T13:07:53Z</time>
      </trkpt>
      <trkpt lat="62.636115385293" lon="17.985730648714">
        <ele>87.8</ele>
        <time>2017-12-19T13:07:54Z</time>
      </trkpt>
      <trkpt lat="62.6361114458" lon="17.985784460512">
        <ele>88</ele>
        <time>2017-12-19T13:07:55Z</time>
      </trkpt>
      <trkpt lat="62.636100884606" lon="17.985813545705">
        <ele>87.8</ele>
        <time>2017-12-19T13:07:56Z</time>
      </trkpt>
      <trkpt lat="62.636084539901" lon="17.985834165179">
        <ele>88</ele>
        <time>2017-12-19T13:07:57Z</time>
      </trkpt>
      <trkpt lat="62.636066937911" lon="17.985860987259">
        <ele>88</ele>
        <time>2017-12-19T13:07:58Z</time>
      </trkpt>
      <trkpt lat="62.636050928482" lon="17.985905746605">
        <ele>88</ele>
        <time>2017-12-19T13:07:59Z</time>
      </trkpt>
      <trkpt lat="62.636035421967" lon="17.985929299744">
        <ele>88</ele>
        <time>2017-12-19T13:08:00Z</time>
      </trkpt>
      <trkpt lat="62.636015389226" lon="17.98594639882">
        <ele>88.2</ele>
        <time>2017-12-19T13:08:01Z</time>
      </trkpt>
      <trkpt lat="62.635991836087" lon="17.985977328031">
        <ele>88.2</ele>
        <time>2017-12-19T13:08:02Z</time>
      </trkpt>
      <trkpt lat="62.63597398264" lon="17.985993672736">
        <ele>88.2</ele>
        <time>2017-12-19T13:08:03Z</time>
      </trkpt>
      <trkpt lat="62.635957470297" lon="17.98602099773">
        <ele>88.2</ele>
        <time>2017-12-19T13:08:04Z</time>
      </trkpt>
      <trkpt lat="62.63593374952" lon="17.98602518868">
        <ele>88.4</ele>
        <time>2017-12-19T13:08:05Z</time>
      </trkpt>
      <trkpt lat="62.635912040399" lon="17.986054441511">
        <ele>88.4</ele>
        <time>2017-12-19T13:08:06Z</time>
      </trkpt>
      <trkpt lat="62.635886391785" lon="17.986082437057">
        <ele>88.6</ele>
        <time>2017-12-19T13:08:07Z</time>
      </trkpt>
      <trkpt lat="62.635852528909" lon="17.986113282449">
        <ele>88.6</ele>
        <time>2017-12-19T13:08:08Z</time>
      </trkpt>
      <trkpt lat="62.635832663806" lon="17.986152928836">
        <ele>88.8</ele>
        <time>2017-12-19T13:08:09Z</time>
      </trkpt>
      <trkpt lat="62.635806093183" lon="17.986187210807">
        <ele>88.8</ele>
        <time>2017-12-19T13:08:10Z</time>
      </trkpt>
      <trkpt lat="62.635775415429" lon="17.986222750063">
        <ele>89</ele>
        <time>2017-12-19T13:08:11Z</time>
      </trkpt>
      <trkpt lat="62.635759322181" lon="17.986247811944">
        <ele>89</ele>
        <time>2017-12-19T13:08:12Z</time>
      </trkpt>
      <trkpt lat="62.635742390743" lon="17.986273209101">
        <ele>89.2</ele>
        <time>2017-12-19T13:08:13Z</time>
      </trkpt>
      <trkpt lat="62.635722777097" lon="17.986307239615">
        <ele>89.4</ele>
        <time>2017-12-19T13:08:14Z</time>
      </trkpt>
      <trkpt lat="62.635707019125" lon="17.986330792754">
        <ele>89.6</ele>
        <time>2017-12-19T13:08:15Z</time>
      </trkpt>
      <trkpt lat="62.635688746583" lon="17.986359542671">
        <ele>89.8</ele>
        <time>2017-12-19T13:08:16Z</time>
      </trkpt>
      <trkpt lat="62.635676341371" lon="17.986388879321">
        <ele>90</ele>
        <time>2017-12-19T13:08:17Z</time>
      </trkpt>
      <trkpt lat="62.635659242295" lon="17.986433973943">
        <ele>90.2</ele>
        <time>2017-12-19T13:08:18Z</time>
      </trkpt>
      <trkpt lat="62.63563283931" lon="17.986495497089">
        <ele>90.2</ele>
        <time>2017-12-19T13:08:19Z</time>
      </trkpt>
      <trkpt lat="62.635610040542" lon="17.986541765177">
        <ele>90.2</ele>
        <time>2017-12-19T13:08:20Z</time>
      </trkpt>
      <trkpt lat="62.635589756344" lon="17.986585770152">
        <ele>90.2</ele>
        <time>2017-12-19T13:08:21Z</time>
      </trkpt>
      <trkpt lat="62.635573830734" lon="17.986637486475">
        <ele>90.2</ele>
        <time>2017-12-19T13:08:22Z</time>
      </trkpt>
      <trkpt lat="62.635557737486" lon="17.986682832554">
        <ele>90.2</ele>
        <time>2017-12-19T13:08:23Z</time>
      </trkpt>
      <trkpt lat="62.635545164636" lon="17.986728681547">
        <ele>90.2</ele>
        <time>2017-12-19T13:08:24Z</time>
      </trkpt>
      <trkpt lat="62.635535106356" lon="17.986771429237">
        <ele>90.4</ele>
        <time>2017-12-19T13:08:25Z</time>
      </trkpt>
      <trkpt lat="62.635522617325" lon="17.986815098936">
        <ele>90.6</ele>
        <time>2017-12-19T13:08:26Z</time>
      </trkpt>
      <trkpt lat="62.635508451914" lon="17.986850219097">
        <ele>90.6</ele>
        <time>2017-12-19T13:08:27Z</time>
      </trkpt>
      <trkpt lat="62.635505853525" lon="17.986885003982">
        <ele>90.8</ele>
        <time>2017-12-19T13:08:28Z</time>
      </trkpt>
      <trkpt lat="62.635495459969" lon="17.986921716704">
        <ele>90.8</ele>
        <time>2017-12-19T13:08:29Z</time>
      </trkpt>
      <trkpt lat="62.635479031445" lon="17.986971840466">
        <ele>91</ele>
        <time>2017-12-19T13:08:30Z</time>
      </trkpt>
      <trkpt lat="62.635465285129" lon="17.987012492681">
        <ele>91</ele>
        <time>2017-12-19T13:08:31Z</time>
      </trkpt>
      <trkpt lat="62.635455310668" lon="17.987042667521">
        <ele>91</ele>
        <time>2017-12-19T13:08:32Z</time>
      </trkpt>
      <trkpt lat="62.63543502647" lon="17.987094048568">
        <ele>91.2</ele>
        <time>2017-12-19T13:08:33Z</time>
      </trkpt>
      <trkpt lat="62.63541490991" lon="17.987123552856">
        <ele>91.2</ele>
        <time>2017-12-19T13:08:34Z</time>
      </trkpt>
      <trkpt lat="62.635399403395" lon="17.987158589198">
        <ele>91.2</ele>
        <time>2017-12-19T13:08:35Z</time>
      </trkpt>
      <trkpt lat="62.635382136681" lon="17.987193457902">
        <ele>91.4</ele>
        <time>2017-12-19T13:08:36Z</time>
      </trkpt>
      <trkpt lat="62.63536880946" lon="17.987222207819">
        <ele>91.6</ele>
        <time>2017-12-19T13:08:37Z</time>
      </trkpt>
      <trkpt lat="62.635357996809" lon="17.987258417627">
        <ele>91.6</ele>
        <time>2017-12-19T13:08:38Z</time>
      </trkpt>
      <trkpt lat="62.635338215525" lon="17.987300243308">
        <ele>91.8</ele>
        <time>2017-12-19T13:08:39Z</time>
      </trkpt>
      <trkpt lat="62.635325475037" lon="17.987329999053">
        <ele>92</ele>
        <time>2017-12-19T13:08:40Z</time>
      </trkpt>
      <trkpt lat="62.635308795056" lon="17.987366208861">
        <ele>92</ele>
        <time>2017-12-19T13:08:41Z</time>
      </trkpt>
      <trkpt lat="62.635287169754" lon="17.987402753945">
        <ele>92</ele>
        <time>2017-12-19T13:08:42Z</time>
      </trkpt>
      <trkpt lat="62.635265292995" lon="17.987442819427">
        <ele>92</ele>
        <time>2017-12-19T13:08:43Z</time>
      </trkpt>
      <trkpt lat="62.635246768996" lon="17.987479113054">
        <ele>92.2</ele>
        <time>2017-12-19T13:08:44Z</time>
      </trkpt>
      <trkpt lat="62.635227071531" lon="17.987510293722">
        <ele>92.2</ele>
        <time>2017-12-19T13:08:45Z</time>
      </trkpt>
      <trkpt lat="62.635209888636" lon="17.987539378915">
        <ele>92.4</ele>
        <time>2017-12-19T13:08:46Z</time>
      </trkpt>
      <trkpt lat="62.635199411261" lon="17.987567542099">
        <ele>92.4</ele>
        <time>2017-12-19T13:08:47Z</time>
      </trkpt>
      <trkpt lat="62.635183150375" lon="17.987603835726">
        <ele>92.6</ele>
        <time>2017-12-19T13:08:48Z</time>
      </trkpt>
      <trkpt lat="62.635166554213" lon="17.987643230656">
        <ele>92.6</ele>
        <time>2017-12-19T13:08:49Z</time>
      </trkpt>
      <trkpt lat="62.635142414341" lon="17.987680111016">
        <ele>92.8</ele>
        <time>2017-12-19T13:08:50Z</time>
      </trkpt>
      <trkpt lat="62.635124393256" lon="17.987705005259">
        <ele>93</ele>
        <time>2017-12-19T13:08:51Z</time>
      </trkpt>
      <trkpt lat="62.63511148513" lon="17.987732916986">
        <ele>93</ele>
        <time>2017-12-19T13:08:52Z</time>
      </trkpt>
      <trkpt lat="62.635091284751" lon="17.98777113845">
        <ele>93.2</ele>
        <time>2017-12-19T13:08:53Z</time>
      </trkpt>
      <trkpt lat="62.635070916734" lon="17.98779879872">
        <ele>93.4</ele>
        <time>2017-12-19T13:08:54Z</time>
      </trkpt>
      <trkpt lat="62.635058595341" lon="17.987819418194">
        <ele>93.4</ele>
        <time>2017-12-19T13:08:55Z</time>
      </trkpt>
      <trkpt lat="62.635042334455" lon="17.987850179767">
        <ele>93.6</ele>
        <time>2017-12-19T13:08:56Z</time>
      </trkpt>
      <trkpt lat="62.635028001406" lon="17.987881695711">
        <ele>93.6</ele>
        <time>2017-12-19T13:08:57Z</time>
      </trkpt>
      <trkpt lat="62.63501593147" lon="17.987900638805">
        <ele>93.8</ele>
        <time>2017-12-19T13:08:58Z</time>
      </trkpt>
      <trkpt lat="62.634989696123" lon="17.987927544704">
        <ele>94</ele>
        <time>2017-12-19T13:08:59Z</time>
      </trkpt>
      <trkpt lat="62.634975949807" lon="17.987948918549">
        <ele>94.2</ele>
        <time>2017-12-19T13:09:00Z</time>
      </trkpt>
      <trkpt lat="62.634961365301" lon="17.987967358729">
        <ele>94.4</ele>
        <time>2017-12-19T13:09:01Z</time>
      </trkpt>
      <trkpt lat="62.634944182406" lon="17.987990995687">
        <ele>94.4</ele>
        <time>2017-12-19T13:09:02Z</time>
      </trkpt>
      <trkpt lat="62.634919707258" lon="17.9880184045">
        <ele>94.6</ele>
        <time>2017-12-19T13:09:03Z</time>
      </trkpt>
      <trkpt lat="62.634895735024" lon="17.988038688698">
        <ele>94.6</ele>
        <time>2017-12-19T13:09:04Z</time>
      </trkpt>
      <trkpt lat="62.634884754735" lon="17.988050171901">
        <ele>94.6</ele>
        <time>2017-12-19T13:09:05Z</time>
      </trkpt>
      <trkpt lat="62.634865141089" lon="17.988069198814">
        <ele>94.6</ele>
        <time>2017-12-19T13:09:06Z</time>
      </trkpt>
      <trkpt lat="62.634840163027" lon="17.988087052261">
        <ele>94.8</ele>
        <time>2017-12-19T13:09:07Z</time>
      </trkpt>
      <trkpt lat="62.634821387571" lon="17.98810138531">
        <ele>95</ele>
        <time>2017-12-19T13:09:08Z</time>
      </trkpt>
      <trkpt lat="62.63480219302" lon="17.988116305092">
        <ele>95.2</ele>
        <time>2017-12-19T13:09:09Z</time>
      </trkpt>
      <trkpt lat="62.634774616569" lon="17.988125776639">
        <ele>95.2</ele>
        <time>2017-12-19T13:09:10Z</time>
      </trkpt>
      <trkpt lat="62.634754080914" lon="17.988127453019">
        <ele>95.4</ele>
        <time>2017-12-19T13:09:11Z</time>
      </trkpt>
      <trkpt lat="62.63473765239" lon="17.988131224874">
        <ele>95.4</ele>
        <time>2017-12-19T13:09:12Z</time>
      </trkpt>
      <trkpt lat="62.634715524174" lon="17.988126111915">
        <ele>95.4</ele>
        <time>2017-12-19T13:09:13Z</time>
      </trkpt>
      <trkpt lat="62.634694653243" lon="17.988128123571">
        <ele>95.4</ele>
        <time>2017-12-19T13:09:14Z</time>
      </trkpt>
      <trkpt lat="62.634675877787" lon="17.988130386684">
        <ele>95.4</ele>
        <time>2017-12-19T13:09:15Z</time>
      </trkpt>
      <trkpt lat="62.634652743743" lon="17.988129632313">
        <ele>95.6</ele>
        <time>2017-12-19T13:09:16Z</time>
      </trkpt>
      <trkpt lat="62.634637321047" lon="17.988117394739">
        <ele>95.6</ele>
        <time>2017-12-19T13:09:17Z</time>
      </trkpt>
      <trkpt lat="62.634621311618" lon="17.98811311997">
        <ele>95.8</ele>
        <time>2017-12-19T13:09:18Z</time>
      </trkpt>
      <trkpt lat="62.634598596669" lon="17.988113287608">
        <ele>95.8</ele>
        <time>2017-12-19T13:09:19Z</time>
      </trkpt>
      <trkpt lat="62.634573115693" lon="17.988119490214">
        <ele>95.8</ele>
        <time>2017-12-19T13:09:20Z</time>
      </trkpt>
      <trkpt lat="62.634555010789" lon="17.988130386684">
        <ele>96</ele>
        <time>2017-12-19T13:09:21Z</time>
      </trkpt>
      <trkpt lat="62.634531373831" lon="17.988126782467">
        <ele>96</ele>
        <time>2017-12-19T13:09:22Z</time>
      </trkpt>
      <trkpt lat="62.634503881199" lon="17.988137678937">
        <ele>96.2</ele>
        <time>2017-12-19T13:09:23Z</time>
      </trkpt>
      <trkpt lat="62.634480914793" lon="17.988151257615">
        <ele>96.2</ele>
        <time>2017-12-19T13:09:24Z</time>
      </trkpt>
      <trkpt lat="62.634453757437" lon="17.988151257615">
        <ele>96.4</ele>
        <time>2017-12-19T13:09:25Z</time>
      </trkpt>
      <trkpt lat="62.634430791031" lon="17.988151173796">
        <ele>96.4</ele>
        <time>2017-12-19T13:09:26Z</time>
      </trkpt>
      <trkpt lat="62.634404974779" lon="17.988163662827">
        <ele>96.6</ele>
        <time>2017-12-19T13:09:27Z</time>
      </trkpt>
      <trkpt lat="62.634378571794" lon="17.988164920112">
        <ele>96.6</ele>
        <time>2017-12-19T13:09:28Z</time>
      </trkpt>
      <trkpt lat="62.63435879051" lon="17.988170033071">
        <ele>96.6</ele>
        <time>2017-12-19T13:09:29Z</time>
      </trkpt>
      <trkpt lat="62.634339344502" lon="17.988175397487">
        <ele>96.8</ele>
        <time>2017-12-19T13:09:30Z</time>
      </trkpt>
      <trkpt lat="62.634317886838" lon="17.988174475478">
        <ele>96.8</ele>
        <time>2017-12-19T13:09:31Z</time>
      </trkpt>
      <trkpt lat="62.634294333699" lon="17.988178163514">
        <ele>96.8</ele>
        <time>2017-12-19T13:09:32Z</time>
      </trkpt>
      <trkpt lat="62.634261392832" lon="17.988167937596">
        <ele>97</ele>
        <time>2017-12-19T13:09:33Z</time>
      </trkpt>
      <trkpt lat="62.634236582408" lon="17.988165758302">
        <ele>97</ele>
        <time>2017-12-19T13:09:34Z</time>
      </trkpt>
      <trkpt lat="62.634211939622" lon="17.98816005861">
        <ele>97</ele>
        <time>2017-12-19T13:09:35Z</time>
      </trkpt>
      <trkpt lat="62.634184111714" lon="17.988166345035">
        <ele>97.2</ele>
        <time>2017-12-19T13:09:36Z</time>
      </trkpt>
      <trkpt lat="62.634154607426" lon="17.988157879316">
        <ele>97.2</ele>
        <time>2017-12-19T13:09:37Z</time>
      </trkpt>
      <trkpt lat="62.634121918016" lon="17.988135499643">
        <ele>97.2</ele>
        <time>2017-12-19T13:09:38Z</time>
      </trkpt>
      <trkpt lat="62.634099873619" lon="17.98812150187">
        <ele>97.4</ele>
        <time>2017-12-19T13:09:39Z</time>
      </trkpt>
      <trkpt lat="62.634074811738" lon="17.988098703102">
        <ele>97.6</ele>
        <time>2017-12-19T13:09:40Z</time>
      </trkpt>
      <trkpt lat="62.634042625242" lon="17.988083196587">
        <ele>97.4</ele>
        <time>2017-12-19T13:09:41Z</time>
      </trkpt>
      <trkpt lat="62.634018401551" lon="17.98807372504">
        <ele>97.6</ele>
        <time>2017-12-19T13:09:42Z</time>
      </trkpt>
      <trkpt lat="62.633989232539" lon="17.988058972896">
        <ele>97.6</ele>
        <time>2017-12-19T13:09:43Z</time>
      </trkpt>
      <trkpt lat="62.633962578097" lon="17.988051177729">
        <ele>97.6</ele>
        <time>2017-12-19T13:09:44Z</time>
      </trkpt>
      <trkpt lat="62.633935253103" lon="17.9880351683">
        <ele>97.6</ele>
        <time>2017-12-19T13:09:45Z</time>
      </trkpt>
      <trkpt lat="62.633915136543" lon="17.988022427812">
        <ele>97.8</ele>
        <time>2017-12-19T13:09:46Z</time>
      </trkpt>
      <trkpt lat="62.633890493757" lon="17.988002646528">
        <ele>97.8</ele>
        <time>2017-12-19T13:09:47Z</time>
      </trkpt>
      <trkpt lat="62.633858810175" lon="17.987976914095">
        <ele>98</ele>
        <time>2017-12-19T13:09:48Z</time>
      </trkpt>
      <trkpt lat="62.633834837941" lon="17.987965766168">
        <ele>98</ele>
        <time>2017-12-19T13:09:49Z</time>
      </trkpt>
      <trkpt lat="62.633808183499" lon="17.987939363183">
        <ele>98.2</ele>
        <time>2017-12-19T13:09:50Z</time>
      </trkpt>
      <trkpt lat="62.633782199609" lon="17.98791446894">
        <ele>98</ele>
        <time>2017-12-19T13:09:51Z</time>
      </trkpt>
      <trkpt lat="62.633761244859" lon="17.987894939113">
        <ele>98.2</ele>
        <time>2017-12-19T13:09:52Z</time>
      </trkpt>
      <trkpt lat="62.633733333132" lon="17.987868536128">
        <ele>98.2</ele>
        <time>2017-12-19T13:09:53Z</time>
      </trkpt>
      <trkpt lat="62.633703158292" lon="17.987850347405">
        <ele>98.2</ele>
        <time>2017-12-19T13:09:54Z</time>
      </trkpt>
      <trkpt lat="62.633681281533" lon="17.987825453162">
        <ele>98.4</ele>
        <time>2017-12-19T13:09:55Z</time>
      </trkpt>
      <trkpt lat="62.633661248792" lon="17.987808773181">
        <ele>98.4</ele>
        <time>2017-12-19T13:09:56Z</time>
      </trkpt>
      <trkpt lat="62.633641970422" lon="17.987790835915">
        <ele>98.6</ele>
        <time>2017-12-19T13:09:57Z</time>
      </trkpt>
      <trkpt lat="62.633621350948" lon="17.987767618052">
        <ele>98.6</ele>
        <time>2017-12-19T13:09:58Z</time>
      </trkpt>
      <trkpt lat="62.633602575492" lon="17.987748088225">
        <ele>98.6</ele>
        <time>2017-12-19T13:09:59Z</time>
      </trkpt>
      <trkpt lat="62.633585560235" lon="17.987732665529">
        <ele>98.8</ele>
        <time>2017-12-19T13:10:00Z</time>
      </trkpt>
      <trkpt lat="62.633567036236" lon="17.987706933096">
        <ele>99</ele>
        <time>2017-12-19T13:10:01Z</time>
      </trkpt>
      <trkpt lat="62.633542728726" lon="17.987669298365">
        <ele>99</ele>
        <time>2017-12-19T13:10:03Z</time>
      </trkpt>
      <trkpt lat="62.633542812545" lon="17.987677680265">
        <ele>99.2</ele>
        <time>2017-12-19T13:10:04Z</time>
      </trkpt>
      <trkpt lat="62.633505429271" lon="17.98760517683">
        <ele>99.4</ele>
        <time>2017-12-19T13:10:05Z</time>
      </trkpt>
      <trkpt lat="62.633476427897" lon="17.987564189339">
        <ele>99.6</ele>
        <time>2017-12-19T13:10:06Z</time>
      </trkpt>
      <trkpt lat="62.633452790939" lon="17.98754734172">
        <ele>99.8</ele>
        <time>2017-12-19T13:10:07Z</time>
      </trkpt>
      <trkpt lat="62.633425214488" lon="17.987509204075">
        <ele>100</ele>
        <time>2017-12-19T13:10:08Z</time>
      </trkpt>
      <trkpt lat="62.633406858127" lon="17.987486740583">
        <ele>100.2</ele>
        <time>2017-12-19T13:10:09Z</time>
      </trkpt>
      <trkpt lat="62.633392105983" lon="17.987465282919">
        <ele>100.2</ele>
        <time>2017-12-19T13:10:10Z</time>
      </trkpt>
      <trkpt lat="62.633377102382" lon="17.987444747264">
        <ele>100.2</ele>
        <time>2017-12-19T13:10:11Z</time>
      </trkpt>
      <trkpt lat="62.63335882984" lon="17.987419266288">
        <ele>100.4</ele>
        <time>2017-12-19T13:10:12Z</time>
      </trkpt>
      <trkpt lat="62.633340222022" lon="17.987387917982">
        <ele>100.4</ele>
        <time>2017-12-19T13:10:13Z</time>
      </trkpt>
      <trkpt lat="62.633319015815" lon="17.98735036707">
        <ele>100.6</ele>
        <time>2017-12-19T13:10:14Z</time>
      </trkpt>
      <trkpt lat="62.633289930622" lon="17.987310301588">
        <ele>100.8</ele>
        <time>2017-12-19T13:10:15Z</time>
      </trkpt>
      <trkpt lat="62.633263611456" lon="17.987271493391">
        <ele>101</ele>
        <time>2017-12-19T13:10:16Z</time>
      </trkpt>
      <trkpt lat="62.633238214299" lon="17.98721122753">
        <ele>101.2</ele>
        <time>2017-12-19T13:10:17Z</time>
      </trkpt>
      <trkpt lat="62.633204770518" lon="17.987145429615">
        <ele>101.2</ele>
        <time>2017-12-19T13:10:18Z</time>
      </trkpt>
      <trkpt lat="62.633185743605" lon="17.98703604582">
        <ele>101</ele>
        <time>2017-12-19T13:10:19Z</time>
      </trkpt>
      <trkpt lat="62.633169063624" lon="17.986924315093">
        <ele>100.4</ele>
        <time>2017-12-19T13:10:20Z</time>
      </trkpt>
      <trkpt lat="62.633157328964" lon="17.986811746176">
        <ele>99.4</ele>
        <time>2017-12-19T13:10:21Z</time>
      </trkpt>
      <trkpt lat="62.633151126358" lon="17.986693561386">
        <ele>98.6</ele>
        <time>2017-12-19T13:10:22Z</time>
      </trkpt>
      <trkpt lat="62.633141654811" lon="17.986588368541">
        <ele>97.8</ele>
        <time>2017-12-19T13:10:23Z</time>
      </trkpt>
      <trkpt lat="62.633131428893" lon="17.986476805452">
        <ele>97.4</ele>
        <time>2017-12-19T13:10:24Z</time>
      </trkpt>
      <trkpt lat="62.633124555735" lon="17.986350825495">
        <ele>97.4</ele>
        <time>2017-12-19T13:10:25Z</time>
      </trkpt>
      <trkpt lat="62.633129333418" lon="17.986236244922">
        <ele>97.8</ele>
        <time>2017-12-19T13:10:26Z</time>
      </trkpt>
      <trkpt lat="62.633128495228" lon="17.986110767879">
        <ele>97.8</ele>
        <time>2017-12-19T13:10:27Z</time>
      </trkpt>
      <trkpt lat="62.633127908495" lon="17.985996606401">
        <ele>97.8</ele>
        <time>2017-12-19T13:10:28Z</time>
      </trkpt>
      <trkpt lat="62.633133943463" lon="17.985883450751">
        <ele>97.6</ele>
        <time>2017-12-19T13:10:29Z</time>
      </trkpt>
      <trkpt lat="62.633136625671" lon="17.98577540806">
        <ele>97.4</ele>
        <time>2017-12-19T13:10:30Z</time>
      </trkpt>
      <trkpt lat="62.633136122757" lon="17.985671891595">
        <ele>96.8</ele>
        <time>2017-12-19T13:10:31Z</time>
      </trkpt>
      <trkpt lat="62.633136290395" lon="17.985572985175">
        <ele>96.4</ele>
        <time>2017-12-19T13:10:32Z</time>
      </trkpt>
      <trkpt lat="62.633142744458" lon="17.985502744853">
        <ele>96.2</ele>
        <time>2017-12-19T13:10:33Z</time>
      </trkpt>
      <trkpt lat="62.633148779426" lon="17.985364108227">
        <ele>96.2</ele>
        <time>2017-12-19T13:10:34Z</time>
      </trkpt>
      <trkpt lat="62.633158753887" lon="17.985232596216">
        <ele>96</ele>
        <time>2017-12-19T13:10:35Z</time>
      </trkpt>
      <trkpt lat="62.633167471063" lon="17.985069568261">
        <ele>95.8</ele>
        <time>2017-12-19T13:10:36Z</time>
      </trkpt>
      <trkpt lat="62.633185408329" lon="17.984926070133">
        <ele>95.4</ele>
        <time>2017-12-19T13:10:37Z</time>
      </trkpt>
      <trkpt lat="62.633209464382" lon="17.984805706049">
        <ele>94.8</ele>
        <time>2017-12-19T13:10:38Z</time>
      </trkpt>
      <trkpt lat="62.633239974498" lon="17.984684168499">
        <ele>93.8</ele>
        <time>2017-12-19T13:10:39Z</time>
      </trkpt>
      <trkpt lat="62.63326495256" lon="17.984573695057">
        <ele>92.8</ele>
        <time>2017-12-19T13:10:40Z</time>
      </trkpt>
      <trkpt lat="62.63328926007" lon="17.984474956275">
        <ele>92.2</ele>
        <time>2017-12-19T13:10:41Z</time>
      </trkpt>
      <trkpt lat="62.633313483761" lon="17.984383258289">
        <ele>92</ele>
        <time>2017-12-19T13:10:42Z</time>
      </trkpt>
      <trkpt lat="62.633322955308" lon="17.9843052228">
        <ele>91.8</ele>
        <time>2017-12-19T13:10:43Z</time>
      </trkpt>
      <trkpt lat="62.633334941425" lon="17.984196928652">
        <ele>92</ele>
        <time>2017-12-19T13:10:44Z</time>
      </trkpt>
      <trkpt lat="62.633338964737" lon="17.984103470467">
        <ele>92.4</ele>
        <time>2017-12-19T13:10:45Z</time>
      </trkpt>
      <trkpt lat="62.633344748248" lon="17.984016717802">
        <ele>92.8</ele>
        <time>2017-12-19T13:10:46Z</time>
      </trkpt>
      <trkpt lat="62.633357572555" lon="17.983925438911">
        <ele>93</ele>
        <time>2017-12-19T13:10:47Z</time>
      </trkpt>
      <trkpt lat="62.633363356066" lon="17.983855533865">
        <ele>93.4</ele>
        <time>2017-12-19T13:10:48Z</time>
      </trkpt>
      <trkpt lat="62.633374923088" lon="17.983760483119">
        <ele>93.6</ele>
        <time>2017-12-19T13:10:49Z</time>
      </trkpt>
      <trkpt lat="62.633392525078" lon="17.98367490392">
        <ele>93.4</ele>
        <time>2017-12-19T13:10:50Z</time>
      </trkpt>
      <trkpt lat="62.633403002453" lon="17.983590498187">
        <ele>93.6</ele>
        <time>2017-12-19T13:10:51Z</time>
      </trkpt>
      <trkpt lat="62.633415407665" lon="17.983523359168">
        <ele>93.6</ele>
        <time>2017-12-19T13:10:52Z</time>
      </trkpt>
      <trkpt lat="62.633432842017" lon="17.983470720836">
        <ele>93.8</ele>
        <time>2017-12-19T13:10:53Z</time>
      </trkpt>
      <trkpt lat="62.633447091247" lon="17.983428978974">
        <ele>93.8</ele>
        <time>2017-12-19T13:10:54Z</time>
      </trkpt>
      <trkpt lat="62.633459496459" lon="17.983368377837">
        <ele>93.8</ele>
        <time>2017-12-19T13:10:55Z</time>
      </trkpt>
      <trkpt lat="62.633472656042" lon="17.983305429768">
        <ele>93.8</ele>
        <time>2017-12-19T13:10:56Z</time>
      </trkpt>
      <trkpt lat="62.633497382647" lon="17.983234099799">
        <ele>93.8</ele>
        <time>2017-12-19T13:10:57Z</time>
      </trkpt>
      <trkpt lat="62.633507524746" lon="17.98318288639">
        <ele>93.8</ele>
        <time>2017-12-19T13:10:58Z</time>
      </trkpt>
      <trkpt lat="62.633525881107" lon="17.983111807878">
        <ele>93.8</ele>
        <time>2017-12-19T13:10:59Z</time>
      </trkpt>
      <trkpt lat="62.633523198899" lon="17.982980631143">
        <ele>93.8</ele>
        <time>2017-12-19T13:11:00Z</time>
      </trkpt>
      <trkpt lat="62.633537951043" lon="17.982930926476">
        <ele>93.8</ele>
        <time>2017-12-19T13:11:01Z</time>
      </trkpt>
      <trkpt lat="62.633552200273" lon="17.982878036687">
        <ele>94</ele>
        <time>2017-12-19T13:11:02Z</time>
      </trkpt>
      <trkpt lat="62.633565611313" lon="17.982813831333">
        <ele>94</ele>
        <time>2017-12-19T13:11:03Z</time>
      </trkpt>
      <trkpt lat="62.633585895511" lon="17.982746021762">
        <ele>94</ele>
        <time>2017-12-19T13:11:04Z</time>
      </trkpt>
      <trkpt lat="62.633601318207" lon="17.982674440336">
        <ele>94</ele>
        <time>2017-12-19T13:11:05Z</time>
      </trkpt>
      <trkpt lat="62.633600982931" lon="17.982580060142">
        <ele>94</ele>
        <time>2017-12-19T13:11:06Z</time>
      </trkpt>
      <trkpt lat="62.633615232161" lon="17.982502192291">
        <ele>94</ele>
        <time>2017-12-19T13:11:07Z</time>
      </trkpt>
      <trkpt lat="62.633619087835" lon="17.982419211481">
        <ele>93.8</ele>
        <time>2017-12-19T13:11:08Z</time>
      </trkpt>
      <trkpt lat="62.633628056468" lon="17.982353581204">
        <ele>93.8</ele>
        <time>2017-12-19T13:11:09Z</time>
      </trkpt>
      <trkpt lat="62.633636941282" lon="17.982291555144">
        <ele>94</ele>
        <time>2017-12-19T13:11:10Z</time>
      </trkpt>
      <trkpt lat="62.633643395345" lon="17.982233636215">
        <ele>93.8</ele>
        <time>2017-12-19T13:11:11Z</time>
      </trkpt>
      <trkpt lat="62.633658985679" lon="17.982157025649">
        <ele>94</ele>
        <time>2017-12-19T13:11:12Z</time>
      </trkpt>
      <trkpt lat="62.633662589896" lon="17.982072703735">
        <ele>93.8</ele>
        <time>2017-12-19T13:11:13Z</time>
      </trkpt>
      <trkpt lat="62.633669127778" lon="17.982001709042">
        <ele>93.8</ele>
        <time>2017-12-19T13:11:14Z</time>
      </trkpt>
      <trkpt lat="62.633678012592" lon="17.981931384901">
        <ele>93.8</ele>
        <time>2017-12-19T13:11:15Z</time>
      </trkpt>
      <trkpt lat="62.633682119723" lon="17.981868855927">
        <ele>93.8</ele>
        <time>2017-12-19T13:11:16Z</time>
      </trkpt>
      <trkpt lat="62.633687484139" lon="17.981820911459">
        <ele>93.8</ele>
        <time>2017-12-19T13:11:17Z</time>
      </trkpt>
      <trkpt lat="62.633689160519" lon="17.981759304494">
        <ele>94</ele>
        <time>2017-12-19T13:11:18Z</time>
      </trkpt>
      <trkpt lat="62.633693351469" lon="17.981698787176">
        <ele>94</ele>
        <time>2017-12-19T13:11:19Z</time>
      </trkpt>
      <trkpt lat="62.633701901007" lon="17.981623685352">
        <ele>94</ele>
        <time>2017-12-19T13:11:20Z</time>
      </trkpt>
      <trkpt lat="62.633705924319" lon="17.981555456686">
        <ele>94.2</ele>
        <time>2017-12-19T13:11:21Z</time>
      </trkpt>
      <trkpt lat="62.633707433061" lon="17.981486222192">
        <ele>94.4</ele>
        <time>2017-12-19T13:11:22Z</time>
      </trkpt>
      <trkpt lat="62.633720173549" lon="17.981417155336">
        <ele>94.4</ele>
        <time>2017-12-19T13:11:23Z</time>
      </trkpt>
      <trkpt lat="62.633728303992" lon="17.981364265547">
        <ele>94.6</ele>
        <time>2017-12-19T13:11:24Z</time>
      </trkpt>
      <trkpt lat="62.633740373928" lon="17.981296455976">
        <ele>94.6</ele>
        <time>2017-12-19T13:11:25Z</time>
      </trkpt>
      <trkpt lat="62.633748923466" lon="17.981228311129">
        <ele>94.6</ele>
        <time>2017-12-19T13:11:26Z</time>
      </trkpt>
      <trkpt lat="62.633760155212" lon="17.981157484074">
        <ele>94.6</ele>
        <time>2017-12-19T13:11:27Z</time>
      </trkpt>
      <trkpt lat="62.633775242632" lon="17.981101828258">
        <ele>94.6</ele>
        <time>2017-12-19T13:11:28Z</time>
      </trkpt>
      <trkpt lat="62.633789827138" lon="17.981068803572">
        <ele>94.4</ele>
        <time>2017-12-19T13:11:29Z</time>
      </trkpt>
      <trkpt lat="62.633800639789" lon="17.981021613475">
        <ele>94.4</ele>
        <time>2017-12-19T13:11:30Z</time>
      </trkpt>
      <trkpt lat="62.633816313942" lon="17.980959587415">
        <ele>94.4</ele>
        <time>2017-12-19T13:11:31Z</time>
      </trkpt>
      <trkpt lat="62.633838609796" lon="17.980924551073">
        <ele>94.4</ele>
        <time>2017-12-19T13:11:32Z</time>
      </trkpt>
      <trkpt lat="62.633850092999" lon="17.980879204994">
        <ele>94.6</ele>
        <time>2017-12-19T13:11:33Z</time>
      </trkpt>
      <trkpt lat="62.633868030265" lon="17.980826315205">
        <ele>94.6</ele>
        <time>2017-12-19T13:11:34Z</time>
      </trkpt>
      <trkpt lat="62.63388940411" lon="17.980771329941">
        <ele>94.8</ele>
        <time>2017-12-19T13:11:35Z</time>
      </trkpt>
      <trkpt lat="62.633908347204" lon="17.980713075736">
        <ele>94.8</ele>
        <time>2017-12-19T13:11:36Z</time>
      </trkpt>
      <trkpt lat="62.633925027185" lon="17.980666137096">
        <ele>94.8</ele>
        <time>2017-12-19T13:11:37Z</time>
      </trkpt>
      <trkpt lat="62.633943635003" lon="17.980625065786">
        <ele>95</ele>
        <time>2017-12-19T13:11:38Z</time>
      </trkpt>
      <trkpt lat="62.633954866749" lon="17.98056521902">
        <ele>95.2</ele>
        <time>2017-12-19T13:11:39Z</time>
      </trkpt>
      <trkpt lat="62.633966433771" lon="17.980524315348">
        <ele>95.2</ele>
        <time>2017-12-19T13:11:40Z</time>
      </trkpt>
      <trkpt lat="62.633986801788" lon="17.980493050861">
        <ele>95.2</ele>
        <time>2017-12-19T13:11:41Z</time>
      </trkpt>
      <trkpt lat="62.634006918348" lon="17.980447453325">
        <ele>95.2</ele>
        <time>2017-12-19T13:11:42Z</time>
      </trkpt>
      <trkpt lat="62.634024436519" lon="17.980414680096">
        <ele>95.2</ele>
        <time>2017-12-19T13:11:43Z</time>
      </trkpt>
      <trkpt lat="62.634043966346" lon="17.980358689004">
        <ele>95.4</ele>
        <time>2017-12-19T13:11:44Z</time>
      </trkpt>
      <trkpt lat="62.634060730146" lon="17.980308565242">
        <ele>95.4</ele>
        <time>2017-12-19T13:11:45Z</time>
      </trkpt>
      <trkpt lat="62.634085792027" lon="17.980267158656">
        <ele>95.6</ele>
        <time>2017-12-19T13:11:46Z</time>
      </trkpt>
      <trkpt lat="62.634094593022" lon="17.980195158135">
        <ele>95.6</ele>
        <time>2017-12-19T13:11:47Z</time>
      </trkpt>
      <trkpt lat="62.63412242093" lon="17.980169006607">
        <ele>95.8</ele>
        <time>2017-12-19T13:11:48Z</time>
      </trkpt>
      <trkpt lat="62.634151087028" lon="17.980121481234">
        <ele>95.8</ele>
        <time>2017-12-19T13:11:49Z</time>
      </trkpt>
      <trkpt lat="62.634168689018" lon="17.980077727716">
        <ele>95.8</ele>
        <time>2017-12-19T13:11:50Z</time>
      </trkpt>
      <trkpt lat="62.634199869686" lon="17.980026095212">
        <ele>95.8</ele>
        <time>2017-12-19T13:11:51Z</time>
      </trkpt>
      <trkpt lat="62.634218393685" lon="17.979973540699">
        <ele>96</ele>
        <time>2017-12-19T13:11:52Z</time>
      </trkpt>
      <trkpt lat="62.634241276272" lon="17.979928529896">
        <ele>96</ele>
        <time>2017-12-19T13:11:53Z</time>
      </trkpt>
      <trkpt lat="62.634260973737" lon="17.979865665646">
        <ele>95.8</ele>
        <time>2017-12-19T13:11:54Z</time>
      </trkpt>
      <trkpt lat="62.634284443057" lon="17.979812189124">
        <ele>95.8</ele>
        <time>2017-12-19T13:11:55Z</time>
      </trkpt>
      <trkpt lat="62.634303721427" lon="17.979753264367">
        <ele>95.8</ele>
        <time>2017-12-19T13:11:56Z</time>
      </trkpt>
      <trkpt lat="62.634321491055" lon="17.979683024045">
        <ele>95.6</ele>
        <time>2017-12-19T13:11:57Z</time>
      </trkpt>
      <trkpt lat="62.634334315362" lon="17.979623847831">
        <ele>95.6</ele>
        <time>2017-12-19T13:11:58Z</time>
      </trkpt>
      <trkpt lat="62.634352839361" lon="17.979544890333">
        <ele>95.6</ele>
        <time>2017-12-19T13:11:59Z</time>
      </trkpt>
      <trkpt lat="62.634359041967" lon="17.979477080762">
        <ele>95.8</ele>
        <time>2017-12-19T13:12:00Z</time>
      </trkpt>
      <trkpt lat="62.634374548482" lon="17.979421341127">
        <ele>95.6</ele>
        <time>2017-12-19T13:12:01Z</time>
      </trkpt>
      <trkpt lat="62.634385109676" lon="17.979327380028">
        <ele>95.6</ele>
        <time>2017-12-19T13:12:02Z</time>
      </trkpt>
      <trkpt lat="62.634398855992" lon="17.979284380881">
        <ele>95.6</ele>
        <time>2017-12-19T13:12:03Z</time>
      </trkpt>
      <trkpt lat="62.634413356679" lon="17.979200561881">
        <ele>95.6</ele>
        <time>2017-12-19T13:12:04Z</time>
      </trkpt>
      <trkpt lat="62.634417882905" lon="17.979139876925">
        <ele>95.6</ele>
        <time>2017-12-19T13:12:05Z</time>
      </trkpt>
      <trkpt lat="62.63443422761" lon="17.979080616892">
        <ele>95.6</ele>
        <time>2017-12-19T13:12:06Z</time>
      </trkpt>
      <trkpt lat="62.634449817944" lon="17.979021943592">
        <ele>95.8</ele>
        <time>2017-12-19T13:12:07Z</time>
      </trkpt>
      <trkpt lat="62.634457026378" lon="17.978958911704">
        <ele>95.6</ele>
        <time>2017-12-19T13:12:08Z</time>
      </trkpt>
      <trkpt lat="62.63447613711" lon="17.978900070766">
        <ele>95.6</ele>
        <time>2017-12-19T13:12:09Z</time>
      </trkpt>
      <trkpt lat="62.634485273381" lon="17.978850952832">
        <ele>95.6</ele>
        <time>2017-12-19T13:12:10Z</time>
      </trkpt>
      <trkpt lat="62.634502791552" lon="17.978817425232">
        <ele>95.6</ele>
        <time>2017-12-19T13:12:11Z</time>
      </trkpt>
      <trkpt lat="62.634524835949" lon="17.978783143261">
        <ele>95.4</ele>
        <time>2017-12-19T13:12:12Z</time>
      </trkpt>
      <trkpt lat="62.6345440305" lon="17.978771660058">
        <ele>95.6</ele>
        <time>2017-12-19T13:12:13Z</time>
      </trkpt>
      <trkpt lat="62.634560207567" lon="17.978770486592">
        <ele>95.6</ele>
        <time>2017-12-19T13:12:14Z</time>
      </trkpt>
      <trkpt lat="62.634568086553" lon="17.978764116348">
        <ele>95.4</ele>
        <time>2017-12-19T13:12:15Z</time>
      </trkpt>
      <trkpt lat="62.63458007267" lon="17.978764535443">
        <ele>95.4</ele>
        <time>2017-12-19T13:12:17Z</time>
      </trkpt>
      <trkpt lat="62.634585856181" lon="17.978762439968">
        <ele>95.4</ele>
        <time>2017-12-19T13:12:18Z</time>
      </trkpt>
      <trkpt lat="62.634594070443" lon="17.978747520186">
        <ele>95.4</ele>
        <time>2017-12-19T13:12:19Z</time>
      </trkpt>
      <trkpt lat="62.634605050732" lon="17.978744251245">
        <ele>95.4</ele>
        <time>2017-12-19T13:12:20Z</time>
      </trkpt>
      <trkpt lat="62.634622987998" lon="17.978744167426">
        <ele>95.4</ele>
        <time>2017-12-19T13:12:21Z</time>
      </trkpt>
      <trkpt lat="62.634642266368" lon="17.978747017272">
        <ele>95.6</ele>
        <time>2017-12-19T13:12:22Z</time>
      </trkpt>
      <trkpt lat="62.634672357389" lon="17.978759087208">
        <ele>95.6</ele>
        <time>2017-12-19T13:12:23Z</time>
      </trkpt>
      <trkpt lat="62.634703035143" lon="17.978779539044">
        <ele>95.6</ele>
        <time>2017-12-19T13:12:24Z</time>
      </trkpt>
      <trkpt lat="62.634732539431" lon="17.978797727767">
        <ele>95.6</ele>
        <time>2017-12-19T13:12:25Z</time>
      </trkpt>
      <trkpt lat="62.634766821402" lon="17.978813904834">
        <ele>95.6</ele>
        <time>2017-12-19T13:12:26Z</time>
      </trkpt>
      <trkpt lat="62.634804539952" lon="17.978827818788">
        <ele>95.6</ele>
        <time>2017-12-19T13:12:27Z</time>
      </trkpt>
      <trkpt lat="62.634838402828" lon="17.978851874841">
        <ele>95.4</ele>
        <time>2017-12-19T13:12:28Z</time>
      </trkpt>
      <trkpt lat="62.634873858265" lon="17.978871991401">
        <ele>95.2</ele>
        <time>2017-12-19T13:12:29Z</time>
      </trkpt>
      <trkpt lat="62.634907972598" lon="17.978887581735">
        <ele>95</ele>
        <time>2017-12-19T13:12:30Z</time>
      </trkpt>
      <trkpt lat="62.634938734171" lon="17.978898394386">
        <ele>94.8</ele>
        <time>2017-12-19T13:12:31Z</time>
      </trkpt>
      <trkpt lat="62.63496815464" lon="17.978897137101">
        <ele>94.6</ele>
        <time>2017-12-19T13:12:32Z</time>
      </trkpt>
      <trkpt lat="62.634988355019" lon="17.97890141187">
        <ele>94.4</ele>
        <time>2017-12-19T13:12:33Z</time>
      </trkpt>
      <trkpt lat="62.635013249262" lon="17.978919181498">
        <ele>94.4</ele>
        <time>2017-12-19T13:12:34Z</time>
      </trkpt>
      <trkpt lat="62.635050213441" lon="17.978935861479">
        <ele>94.4</ele>
        <time>2017-12-19T13:12:35Z</time>
      </trkpt>
      <trkpt lat="62.635078376625" lon="17.978938795144">
        <ele>94.4</ele>
        <time>2017-12-19T13:12:36Z</time>
      </trkpt>
      <trkpt lat="62.63511651427" lon="17.978953798745">
        <ele>94.4</ele>
        <time>2017-12-19T13:12:37Z</time>
      </trkpt>
      <trkpt lat="62.635146856748" lon="17.978952625279">
        <ele>94.4</ele>
        <time>2017-12-19T13:12:38Z</time>
      </trkpt>
      <trkpt lat="62.635189939714" lon="17.978972741839">
        <ele>94.4</ele>
        <time>2017-12-19T13:12:39Z</time>
      </trkpt>
      <trkpt lat="62.635223551133" lon="17.978978022436">
        <ele>94.2</ele>
        <time>2017-12-19T13:12:40Z</time>
      </trkpt>
      <trkpt lat="62.635257581647" lon="17.978986991069">
        <ele>94</ele>
        <time>2017-12-19T13:12:41Z</time>
      </trkpt>
      <trkpt lat="62.63529169598" lon="17.978993193675">
        <ele>93.8</ele>
        <time>2017-12-19T13:12:42Z</time>
      </trkpt>
      <trkpt lat="62.635325391218" lon="17.979001240299">
        <ele>93.6</ele>
        <time>2017-12-19T13:12:43Z</time>
      </trkpt>
      <trkpt lat="62.635360846655" lon="17.979003000498">
        <ele>93.4</ele>
        <time>2017-12-19T13:12:44Z</time>
      </trkpt>
      <trkpt lat="62.635398481386" lon="17.978999228643">
        <ele>93</ele>
        <time>2017-12-19T13:12:45Z</time>
      </trkpt>
      <trkpt lat="62.63543837923" lon="17.978995205331">
        <ele>92.6</ele>
        <time>2017-12-19T13:12:46Z</time>
      </trkpt>
      <trkpt lat="62.635473750848" lon="17.978988751268">
        <ele>92.2</ele>
        <time>2017-12-19T13:12:47Z</time>
      </trkpt>
      <trkpt lat="62.635512810502" lon="17.978976262237">
        <ele>92</ele>
        <time>2017-12-19T13:12:48Z</time>
      </trkpt>
      <trkpt lat="62.635556228744" lon="17.978961593912">
        <ele>91.8</ele>
        <time>2017-12-19T13:12:49Z</time>
      </trkpt>
      <trkpt lat="62.635597467692" lon="17.9789491887">
        <ele>91.4</ele>
        <time>2017-12-19T13:12:50Z</time>
      </trkpt>
      <trkpt lat="62.635643400504" lon="17.978949440157">
        <ele>91.2</ele>
        <time>2017-12-19T13:12:51Z</time>
      </trkpt>
      <trkpt lat="62.635683717443" lon="17.978945416845">
        <ele>90.8</ele>
        <time>2017-12-19T13:12:52Z</time>
      </trkpt>
      <trkpt lat="62.635722860916" lon="17.978942902275">
        <ele>90.4</ele>
        <time>2017-12-19T13:12:53Z</time>
      </trkpt>
      <trkpt lat="62.635768290814" lon="17.978949859252">
        <ele>90.2</ele>
        <time>2017-12-19T13:12:54Z</time>
      </trkpt>
      <trkpt lat="62.635806093183" lon="17.978952876736">
        <ele>90</ele>
        <time>2017-12-19T13:12:55Z</time>
      </trkpt>
      <trkpt lat="62.635842722086" lon="17.978961510093">
        <ele>90</ele>
        <time>2017-12-19T13:12:56Z</time>
      </trkpt>
      <trkpt lat="62.635870969089" lon="17.978972574201">
        <ele>89.8</ele>
        <time>2017-12-19T13:12:57Z</time>
      </trkpt>
      <trkpt lat="62.635884631586" lon="17.97898020173">
        <ele>89.8</ele>
        <time>2017-12-19T13:12:58Z</time>
      </trkpt>
      <trkpt lat="62.635927463095" lon="17.979002581403">
        <ele>89.8</ele>
        <time>2017-12-19T13:12:59Z</time>
      </trkpt>
      <trkpt lat="62.635947412017" lon="17.979010963303">
        <ele>89.8</ele>
        <time>2017-12-19T13:13:00Z</time>
      </trkpt>
      <trkpt lat="62.635962080342" lon="17.979014986615">
        <ele>90.2</ele>
        <time>2017-12-19T13:13:01Z</time>
      </trkpt>
      <trkpt lat="62.635984208558" lon="17.979028649112">
        <ele>90.4</ele>
        <time>2017-12-19T13:13:02Z</time>
      </trkpt>
      <trkpt lat="62.635998793064" lon="17.97903803684">
        <ele>90.8</ele>
        <time>2017-12-19T13:13:03Z</time>
      </trkpt>
      <trkpt lat="62.636016227416" lon="17.979050106776">
        <ele>91</ele>
        <time>2017-12-19T13:13:04Z</time>
      </trkpt>
      <trkpt lat="62.636027542981" lon="17.979070307155">
        <ele>91.2</ele>
        <time>2017-12-19T13:13:05Z</time>
      </trkpt>
      <trkpt lat="62.636039110003" lon="17.979086400403">
        <ele>91.2</ele>
        <time>2017-12-19T13:13:06Z</time>
      </trkpt>
      <trkpt lat="62.636035338148" lon="17.979145073703">
        <ele>91.2</ele>
        <time>2017-12-19T13:13:07Z</time>
      </trkpt>
      <trkpt lat="62.636034919053" lon="17.979177763113">
        <ele>91.2</ele>
        <time>2017-12-19T13:13:08Z</time>
      </trkpt>
      <trkpt lat="62.636026453334" lon="17.979204417555">
        <ele>91.2</ele>
        <time>2017-12-19T13:13:09Z</time>
      </trkpt>
      <trkpt lat="62.636024860773" lon="17.979216487491">
        <ele>91.2</ele>
        <time>2017-12-19T13:13:10Z</time>
      </trkpt>
      <trkpt lat="62.636024525497" lon="17.97921908588">
        <ele>91</ele>
        <time>2017-12-19T13:13:12Z</time>
      </trkpt>
      <trkpt lat="62.636022346203" lon="17.979264599597">
        <ele>91.2</ele>
        <time>2017-12-19T13:13:14Z</time>
      </trkpt>
      <trkpt lat="62.636018574348" lon="17.979296450817">
        <ele>91.2</ele>
        <time>2017-12-19T13:13:15Z</time>
      </trkpt>
      <trkpt lat="62.636012623199" lon="17.97933643248">
        <ele>91.2</ele>
        <time>2017-12-19T13:13:16Z</time>
      </trkpt>
      <trkpt lat="62.63600667205" lon="17.979428298104">
        <ele>91</ele>
        <time>2017-12-19T13:13:17Z</time>
      </trkpt>
      <trkpt lat="62.63600499567" lon="17.979501723548">
        <ele>91</ele>
        <time>2017-12-19T13:13:18Z</time>
      </trkpt>
      <trkpt lat="62.636001223815" lon="17.979614543922">
        <ele>90.8</ele>
        <time>2017-12-19T13:13:19Z</time>
      </trkpt>
      <trkpt lat="62.63599577558" lon="17.97977229128">
        <ele>90.4</ele>
        <time>2017-12-19T13:13:20Z</time>
      </trkpt>
      <trkpt lat="62.635998541607" lon="17.979915202675">
        <ele>89.6</ele>
        <time>2017-12-19T13:13:21Z</time>
      </trkpt>
      <trkpt lat="62.636009940991" lon="17.980051240912">
        <ele>89</ele>
        <time>2017-12-19T13:13:22Z</time>
      </trkpt>
      <trkpt lat="62.636023268212" lon="17.980209155908">
        <ele>88.4</ele>
        <time>2017-12-19T13:13:23Z</time>
      </trkpt>
      <trkpt lat="62.636038942365" lon="17.980371178035">
        <ele>87.2</ele>
        <time>2017-12-19T13:13:24Z</time>
      </trkpt>
      <trkpt lat="62.636062244047" lon="17.980519872941">
        <ele>86</ele>
        <time>2017-12-19T13:13:25Z</time>
      </trkpt>
      <trkpt lat="62.636088060299" lon="17.980658006653">
        <ele>85.2</ele>
        <time>2017-12-19T13:13:26Z</time>
      </trkpt>
      <trkpt lat="62.636114128008" lon="17.980788848112">
        <ele>84.6</ele>
        <time>2017-12-19T13:13:27Z</time>
      </trkpt>
      <trkpt lat="62.636134663663" lon="17.980914995707">
        <ele>84.2</ele>
        <time>2017-12-19T13:13:28Z</time>
      </trkpt>
      <trkpt lat="62.636154528766" lon="17.981062349509">
        <ele>84</ele>
        <time>2017-12-19T13:13:29Z</time>
      </trkpt>
      <trkpt lat="62.636169364729" lon="17.981191095493">
        <ele>83.8</ele>
        <time>2017-12-19T13:13:30Z</time>
      </trkpt>
      <trkpt lat="62.636179842104" lon="17.981318919468">
        <ele>83.6</ele>
        <time>2017-12-19T13:13:31Z</time>
      </trkpt>
      <trkpt lat="62.636189481289" lon="17.981439535009">
        <ele>83.4</ele>
        <time>2017-12-19T13:13:32Z</time>
      </trkpt>
      <trkpt lat="62.636198869017" lon="17.981553025935">
        <ele>83.2</ele>
        <time>2017-12-19T13:13:33Z</time>
      </trkpt>
      <trkpt lat="62.636209933125" lon="17.981682274833">
        <ele>82.8</ele>
        <time>2017-12-19T13:13:34Z</time>
      </trkpt>
      <trkpt lat="62.636221164871" lon="17.981796268673">
        <ele>82.8</ele>
        <time>2017-12-19T13:13:35Z</time>
      </trkpt>
      <trkpt lat="62.636234827368" lon="17.981912609445">
        <ele>82.6</ele>
        <time>2017-12-19T13:13:36Z</time>
      </trkpt>
      <trkpt lat="62.636240778517" lon="17.982013695159">
        <ele>82.4</ele>
        <time>2017-12-19T13:13:37Z</time>
      </trkpt>
      <trkpt lat="62.63624136525" lon="17.982108913543">
        <ele>82.4</ele>
        <time>2017-12-19T13:13:38Z</time>
      </trkpt>
      <trkpt lat="62.636235162644" lon="17.982214441664">
        <ele>82.2</ele>
        <time>2017-12-19T13:13:39Z</time>
      </trkpt>
      <trkpt lat="62.636249998607" lon="17.982318377224">
        <ele>82.2</ele>
        <time>2017-12-19T13:13:40Z</time>
      </trkpt>
      <trkpt lat="62.636239185956" lon="17.982425330268">
        <ele>82.4</ele>
        <time>2017-12-19T13:13:41Z</time>
      </trkpt>
      <trkpt lat="62.636264415475" lon="17.982479896437">
        <ele>82.8</ele>
        <time>2017-12-19T13:13:42Z</time>
      </trkpt>
      <trkpt lat="62.636263828742" lon="17.982565810912">
        <ele>83.2</ele>
        <time>2017-12-19T13:13:43Z</time>
      </trkpt>
      <trkpt lat="62.636264499294" lon="17.982654239957">
        <ele>83.4</ele>
        <time>2017-12-19T13:13:44Z</time>
      </trkpt>
      <trkpt lat="62.636272713556" lon="17.982714170542">
        <ele>83.8</ele>
        <time>2017-12-19T13:13:45Z</time>
      </trkpt>
      <trkpt lat="62.636278580886" lon="17.982800504112">
        <ele>84</ele>
        <time>2017-12-19T13:13:46Z</time>
      </trkpt>
      <trkpt lat="62.636282604198" lon="17.98287275609">
        <ele>84</ele>
        <time>2017-12-19T13:13:47Z</time>
      </trkpt>
      <trkpt lat="62.636282604198" lon="17.982923466585">
        <ele>84</ele>
        <time>2017-12-19T13:13:48Z</time>
      </trkpt>
      <trkpt lat="62.63628159837" lon="17.983013739648">
        <ele>84</ele>
        <time>2017-12-19T13:13:49Z</time>
      </trkpt>
      <trkpt lat="62.636294590315" lon="17.983095295535">
        <ele>84</ele>
        <time>2017-12-19T13:13:50Z</time>
      </trkpt>
      <trkpt lat="62.636305486785" lon="17.983137037397">
        <ele>84.2</ele>
        <time>2017-12-19T13:13:51Z</time>
      </trkpt>
      <trkpt lat="62.636298110713" lon="17.983218760922">
        <ele>84.2</ele>
        <time>2017-12-19T13:13:52Z</time>
      </trkpt>
      <trkpt lat="62.636301128197" lon="17.983246672649">
        <ele>84.2</ele>
        <time>2017-12-19T13:13:53Z</time>
      </trkpt>
      <trkpt lat="62.636302720758" lon="17.983343986508">
        <ele>84.2</ele>
        <time>2017-12-19T13:13:54Z</time>
      </trkpt>
      <trkpt lat="62.63629752398" lon="17.983419926522">
        <ele>84.2</ele>
        <time>2017-12-19T13:13:55Z</time>
      </trkpt>
      <trkpt lat="62.636291237555" lon="17.983490585939">
        <ele>84.2</ele>
        <time>2017-12-19T13:13:56Z</time>
      </trkpt>
      <trkpt lat="62.636280341085" lon="17.983558730786">
        <ele>84.2</ele>
        <time>2017-12-19T13:13:57Z</time>
      </trkpt>
      <trkpt lat="62.636273300289" lon="17.983613129317">
        <ele>84.4</ele>
        <time>2017-12-19T13:13:58Z</time>
      </trkpt>
      <trkpt lat="62.636269779891" lon="17.983678340499">
        <ele>84.6</ele>
        <time>2017-12-19T13:13:59Z</time>
      </trkpt>
      <trkpt lat="62.636264666932" lon="17.983729721546">
        <ele>84.6</ele>
        <time>2017-12-19T13:14:00Z</time>
      </trkpt>
      <trkpt lat="62.636259637792" lon="17.983797950212">
        <ele>84.8</ele>
        <time>2017-12-19T13:14:01Z</time>
      </trkpt>
      <trkpt lat="62.636248657503" lon="17.983853019295">
        <ele>85</ele>
        <time>2017-12-19T13:14:02Z</time>
      </trkpt>
      <trkpt lat="62.636238934499" lon="17.983894090605">
        <ele>85</ele>
        <time>2017-12-19T13:14:03Z</time>
      </trkpt>
      <trkpt lat="62.636238934499" lon="17.983962067814">
        <ele>85.2</ele>
        <time>2017-12-19T13:14:04Z</time>
      </trkpt>
      <trkpt lat="62.636227786572" lon="17.984027614272">
        <ele>85.2</ele>
        <time>2017-12-19T13:14:05Z</time>
      </trkpt>
      <trkpt lat="62.636224685269" lon="17.984100452983">
        <ele>85.2</ele>
        <time>2017-12-19T13:14:06Z</time>
      </trkpt>
      <trkpt lat="62.636218817939" lon="17.984150073831">
        <ele>85.2</ele>
        <time>2017-12-19T13:14:07Z</time>
      </trkpt>
      <trkpt lat="62.636223008889" lon="17.984194916996">
        <ele>85.2</ele>
        <time>2017-12-19T13:14:08Z</time>
      </trkpt>
      <trkpt lat="62.636219069396" lon="17.984273539218">
        <ele>85.4</ele>
        <time>2017-12-19T13:14:09Z</time>
      </trkpt>
      <trkpt lat="62.63621538136" lon="17.984342019341">
        <ele>85.4</ele>
        <time>2017-12-19T13:14:10Z</time>
      </trkpt>
      <trkpt lat="62.636224266174" lon="17.98439910008">
        <ele>85.4</ele>
        <time>2017-12-19T13:14:11Z</time>
      </trkpt>
      <trkpt lat="62.636218398844" lon="17.984473447533">
        <ele>85.6</ele>
        <time>2017-12-19T13:14:12Z</time>
      </trkpt>
      <trkpt lat="62.636217225378" lon="17.984533461937">
        <ele>85.8</ele>
        <time>2017-12-19T13:14:13Z</time>
      </trkpt>
      <trkpt lat="62.636221500147" lon="17.984578724197">
        <ele>85.8</ele>
        <time>2017-12-19T13:14:14Z</time>
      </trkpt>
      <trkpt lat="62.636215297541" lon="17.984653155469">
        <ele>86</ele>
        <time>2017-12-19T13:14:15Z</time>
      </trkpt>
      <trkpt lat="62.636215548998" lon="17.984722473782">
        <ele>86.2</ele>
        <time>2017-12-19T13:14:16Z</time>
      </trkpt>
      <trkpt lat="62.636212782971" lon="17.984782907281">
        <ele>86.2</ele>
        <time>2017-12-19T13:14:17Z</time>
      </trkpt>
      <trkpt lat="62.636211777143" lon="17.984821296383">
        <ele>86.2</ele>
        <time>2017-12-19T13:14:18Z</time>
      </trkpt>
      <trkpt lat="62.636203311424" lon="17.984885837013">
        <ele>86.4</ele>
        <time>2017-12-19T13:14:19Z</time>
      </trkpt>
      <trkpt lat="62.636195097162" lon="17.984952473118">
        <ele>86.4</ele>
        <time>2017-12-19T13:14:20Z</time>
      </trkpt>
      <trkpt lat="62.636194845705" lon="17.985003099794">
        <ele>86.4</ele>
        <time>2017-12-19T13:14:21Z</time>
      </trkpt>
      <trkpt lat="62.636192079678" lon="17.985056827773">
        <ele>86.6</ele>
        <time>2017-12-19T13:14:22Z</time>
      </trkpt>
      <trkpt lat="62.636184535968" lon="17.985120949308">
        <ele>86.8</ele>
        <time>2017-12-19T13:14:23Z</time>
      </trkpt>
      <trkpt lat="62.63618353014" lon="17.98519202782">
        <ele>86.8</ele>
        <time>2017-12-19T13:14:24Z</time>
      </trkpt>
      <trkpt lat="62.636176992258" lon="17.985247432179">
        <ele>86.8</ele>
        <time>2017-12-19T13:14:25Z</time>
      </trkpt>
      <trkpt lat="62.636172046937" lon="17.985309793515">
        <ele>87</ele>
        <time>2017-12-19T13:14:26Z</time>
      </trkpt>
      <trkpt lat="62.636173639498" lon="17.985379530923">
        <ele>87</ele>
        <time>2017-12-19T13:14:27Z</time>
      </trkpt>
      <trkpt lat="62.63617347186" lon="17.985437282214">
        <ele>87.2</ele>
        <time>2017-12-19T13:14:28Z</time>
      </trkpt>
      <trkpt lat="62.636164754684" lon="17.985493105668">
        <ele>87.2</ele>
        <time>2017-12-19T13:14:29Z</time>
      </trkpt>
      <trkpt lat="62.636150505454" lon="17.985552533339">
        <ele>87.2</ele>
        <time>2017-12-19T13:14:30Z</time>
      </trkpt>
      <trkpt lat="62.636134663663" lon="17.98560022635">
        <ele>87.2</ele>
        <time>2017-12-19T13:14:31Z</time>
      </trkpt>
      <trkpt lat="62.636129299247" lon="17.985651188302">
        <ele>87.2</ele>
        <time>2017-12-19T13:14:32Z</time>
      </trkpt>
      <trkpt lat="62.636121420261" lon="17.985709610145">
        <ele>87.4</ele>
        <time>2017-12-19T13:14:33Z</time>
      </trkpt>
      <trkpt lat="62.636109937058" lon="17.985748502161">
        <ele>87.4</ele>
        <time>2017-12-19T13:14:34Z</time>
      </trkpt>
      <trkpt lat="62.636093173258" lon="17.985779850467">
        <ele>87.4</ele>
        <time>2017-12-19T13:14:35Z</time>
      </trkpt>
      <trkpt lat="62.636074481621" lon="17.985810025307">
        <ele>87.4</ele>
        <time>2017-12-19T13:14:36Z</time>
      </trkpt>
      <trkpt lat="62.636042965677" lon="17.985844391097">
        <ele>87.8</ele>
        <time>2017-12-19T13:14:37Z</time>
      </trkpt>
      <trkpt lat="62.63601253938" lon="17.985869704435">
        <ele>87.8</ele>
        <time>2017-12-19T13:14:38Z</time>
      </trkpt>
      <trkpt lat="62.635987728956" lon="17.985895772144">
        <ele>88</ele>
        <time>2017-12-19T13:14:39Z</time>
      </trkpt>
      <trkpt lat="62.635967612396" lon="17.985911613935">
        <ele>88.2</ele>
        <time>2017-12-19T13:14:40Z</time>
      </trkpt>
      <trkpt lat="62.635950680958" lon="17.985919409102">
        <ele>88.4</ele>
        <time>2017-12-19T13:14:41Z</time>
      </trkpt>
      <trkpt lat="62.635928217466" lon="17.9859313114">
        <ele>88.6</ele>
        <time>2017-12-19T13:14:42Z</time>
      </trkpt>
      <trkpt lat="62.635908687639" lon="17.985948159019">
        <ele>88.6</ele>
        <time>2017-12-19T13:14:43Z</time>
      </trkpt>
      <trkpt lat="62.635884380129" lon="17.985961067145">
        <ele>88.6</ele>
        <time>2017-12-19T13:14:44Z</time>
      </trkpt>
      <trkpt lat="62.635857390411" lon="17.985986883397">
        <ele>88.8</ele>
        <time>2017-12-19T13:14:45Z</time>
      </trkpt>
      <trkpt lat="62.635829730141" lon="17.986016890599">
        <ele>88.8</ele>
        <time>2017-12-19T13:14:46Z</time>
      </trkpt>
      <trkpt lat="62.635806093183" lon="17.986041784842">
        <ele>88.8</ele>
        <time>2017-12-19T13:14:47Z</time>
      </trkpt>
      <trkpt lat="62.635789916116" lon="17.986073468424">
        <ele>88.8</ele>
        <time>2017-12-19T13:14:48Z</time>
      </trkpt>
      <trkpt lat="62.635768877547" lon="17.986102888893">
        <ele>88.8</ele>
        <time>2017-12-19T13:14:49Z</time>
      </trkpt>
      <trkpt lat="62.63575437686" lon="17.98612660967">
        <ele>89</ele>
        <time>2017-12-19T13:14:50Z</time>
      </trkpt>
      <trkpt lat="62.635739959992" lon="17.986152425922">
        <ele>89</ele>
        <time>2017-12-19T13:14:51Z</time>
      </trkpt>
      <trkpt lat="62.635724537296" lon="17.986182097848">
        <ele>89</ele>
        <time>2017-12-19T13:14:52Z</time>
      </trkpt>
      <trkpt lat="62.635703917822" lon="17.98622551609">
        <ele>89.2</ele>
        <time>2017-12-19T13:14:53Z</time>
      </trkpt>
      <trkpt lat="62.635676760466" lon="17.986278489698">
        <ele>89.4</ele>
        <time>2017-12-19T13:14:54Z</time>
      </trkpt>
      <trkpt lat="62.635668630023" lon="17.986308077805">
        <ele>89.6</ele>
        <time>2017-12-19T13:14:55Z</time>
      </trkpt>
      <trkpt lat="62.63564038302" lon="17.98637806667">
        <ele>89.8</ele>
        <time>2017-12-19T13:14:56Z</time>
      </trkpt>
      <trkpt lat="62.635623283944" lon="17.986438751626">
        <ele>90</ele>
        <time>2017-12-19T13:14:57Z</time>
      </trkpt>
      <trkpt lat="62.635616746062" lon="17.986479990574">
        <ele>90</ele>
        <time>2017-12-19T13:14:58Z</time>
      </trkpt>
      <trkpt lat="62.635590678353" lon="17.986550147077">
        <ele>90.2</ele>
        <time>2017-12-19T13:14:59Z</time>
      </trkpt>
      <trkpt lat="62.635591516543" lon="17.986605551436">
        <ele>90.2</ele>
        <time>2017-12-19T13:15:00Z</time>
      </trkpt>
      <trkpt lat="62.635580284797" lon="17.986641090692">
        <ele>90</ele>
        <time>2017-12-19T13:15:01Z</time>
      </trkpt>
      <trkpt lat="62.635563520997" lon="17.986673025731">
        <ele>90</ele>
        <time>2017-12-19T13:15:02Z</time>
      </trkpt>
      <trkpt lat="62.635553965631" lon="17.986697752336">
        <ele>90.2</ele>
        <time>2017-12-19T13:15:03Z</time>
      </trkpt>
      <trkpt lat="62.635544996998" lon="17.986744523338">
        <ele>90.2</ele>
        <time>2017-12-19T13:15:04Z</time>
      </trkpt>
      <trkpt lat="62.635529909578" lon="17.986789282684">
        <ele>90.2</ele>
        <time>2017-12-19T13:15:05Z</time>
      </trkpt>
      <trkpt lat="62.635504512421" lon="17.986842507749">
        <ele>90.4</ele>
        <time>2017-12-19T13:15:06Z</time>
      </trkpt>
      <trkpt lat="62.635502752222" lon="17.986873604598">
        <ele>90.4</ele>
        <time>2017-12-19T13:15:07Z</time>
      </trkpt>
      <trkpt lat="62.63548028873" lon="17.986925740016">
        <ele>90.6</ele>
        <time>2017-12-19T13:15:08Z</time>
      </trkpt>
      <trkpt lat="62.63546017217" lon="17.986982234022">
        <ele>90.8</ele>
        <time>2017-12-19T13:15:09Z</time>
      </trkpt>
      <trkpt lat="62.635460255989" lon="17.986995309786">
        <ele>90.8</ele>
        <time>2017-12-19T13:15:10Z</time>
      </trkpt>
      <trkpt lat="62.635455813582" lon="17.987027496282">
        <ele>90.8</ele>
        <time>2017-12-19T13:15:11Z</time>
      </trkpt>
      <trkpt lat="62.635439049782" lon="17.987072004171">
        <ele>90.8</ele>
        <time>2017-12-19T13:15:12Z</time>
      </trkpt>
      <trkpt lat="62.635426979846" lon="17.987099999717">
        <ele>90.8</ele>
        <time>2017-12-19T13:15:13Z</time>
      </trkpt>
      <trkpt lat="62.635414239358" lon="17.987132186213">
        <ele>90.8</ele>
        <time>2017-12-19T13:15:14Z</time>
      </trkpt>
      <trkpt lat="62.635387333459" lon="17.987174850084">
        <ele>90.8</ele>
        <time>2017-12-19T13:15:15Z</time>
      </trkpt>
      <trkpt lat="62.63536964765" lon="17.987216508127">
        <ele>91</ele>
        <time>2017-12-19T13:15:16Z</time>
      </trkpt>
      <trkpt lat="62.635354811687" lon="17.987242408198">
        <ele>91.2</ele>
        <time>2017-12-19T13:15:17Z</time>
      </trkpt>
      <trkpt lat="62.635336455326" lon="17.98729169377">
        <ele>91.4</ele>
        <time>2017-12-19T13:15:18Z</time>
      </trkpt>
      <trkpt lat="62.635317512232" lon="17.987333351813">
        <ele>91.6</ele>
        <time>2017-12-19T13:15:19Z</time>
      </trkpt>
      <trkpt lat="62.63531013616" lon="17.987344918835">
        <ele>91.6</ele>
        <time>2017-12-19T13:15:20Z</time>
      </trkpt>
      <trkpt lat="62.635286163926" lon="17.987383140299">
        <ele>91.8</ele>
        <time>2017-12-19T13:15:21Z</time>
      </trkpt>
      <trkpt lat="62.635261269683" lon="17.987431839138">
        <ele>91.8</ele>
        <time>2017-12-19T13:15:22Z</time>
      </trkpt>
      <trkpt lat="62.635259760941" lon="17.987442148875">
        <ele>91.8</ele>
        <time>2017-12-19T13:15:23Z</time>
      </trkpt>
      <trkpt lat="62.63523805182" lon="17.987472407534">
        <ele>92</ele>
        <time>2017-12-19T13:15:24Z</time>
      </trkpt>
      <trkpt lat="62.635218019079" lon="17.987500570718">
        <ele>92</ele>
        <time>2017-12-19T13:15:25Z</time>
      </trkpt>
      <trkpt lat="62.635208296075" lon="17.987532924852">
        <ele>92.2</ele>
        <time>2017-12-19T13:15:26Z</time>
      </trkpt>
      <trkpt lat="62.63519027499" lon="17.987563434968">
        <ele>92.2</ele>
        <time>2017-12-19T13:15:27Z</time>
      </trkpt>
      <trkpt lat="62.63517518757" lon="17.987596124378">
        <ele>92.4</ele>
        <time>2017-12-19T13:15:28Z</time>
      </trkpt>
      <trkpt lat="62.635151969707" lon="17.987640716086">
        <ele>92.4</ele>
        <time>2017-12-19T13:15:29Z</time>
      </trkpt>
      <trkpt lat="62.635139899771" lon="17.987659072447">
        <ele>92.6</ele>
        <time>2017-12-19T13:15:30Z</time>
      </trkpt>
      <trkpt lat="62.635113664424" lon="17.987684637242">
        <ele>92.8</ele>
        <time>2017-12-19T13:15:31Z</time>
      </trkpt>
      <trkpt lat="62.635086171792" lon="17.987732665529">
        <ele>93</ele>
        <time>2017-12-19T13:15:32Z</time>
      </trkpt>
      <trkpt lat="62.635078376625" lon="17.987751189528">
        <ele>93</ele>
        <time>2017-12-19T13:15:33Z</time>
      </trkpt>
      <trkpt lat="62.635050548717" lon="17.987787315517">
        <ele>93</ele>
        <time>2017-12-19T13:15:34Z</time>
      </trkpt>
      <trkpt lat="62.635027079397" lon="17.987835259985">
        <ele>93</ele>
        <time>2017-12-19T13:15:35Z</time>
      </trkpt>
      <trkpt lat="62.635018110764" lon="17.987871553612">
        <ele>93.2</ele>
        <time>2017-12-19T13:15:36Z</time>
      </trkpt>
      <trkpt lat="62.634996485462" lon="17.987889658516">
        <ele>93.2</ele>
        <time>2017-12-19T13:15:37Z</time>
      </trkpt>
      <trkpt lat="62.634976871816" lon="17.987917905519">
        <ele>93.4</ele>
        <time>2017-12-19T13:15:38Z</time>
      </trkpt>
      <trkpt lat="62.634962203491" lon="17.987930981283">
        <ele>93.6</ele>
        <time>2017-12-19T13:15:39Z</time>
      </trkpt>
      <trkpt lat="62.634939572361" lon="17.987951516938">
        <ele>93.6</ele>
        <time>2017-12-19T13:15:40Z</time>
      </trkpt>
      <trkpt lat="62.634919371982" lon="17.987966101444">
        <ele>93.8</ele>
        <time>2017-12-19T13:15:41Z</time>
      </trkpt>
      <trkpt lat="62.634899255422" lon="17.987990995687">
        <ele>93.8</ele>
        <time>2017-12-19T13:15:42Z</time>
      </trkpt>
      <trkpt lat="62.634869080582" lon="17.988016644301">
        <ele>94</ele>
        <time>2017-12-19T13:15:43Z</time>
      </trkpt>
      <trkpt lat="62.63484745528" lon="17.988039945983">
        <ele>94.2</ele>
        <time>2017-12-19T13:15:44Z</time>
      </trkpt>
      <trkpt lat="62.63484074976" lon="17.988030474436">
        <ele>94.4</ele>
        <time>2017-12-19T13:15:45Z</time>
      </trkpt>
      <trkpt lat="62.634814179137" lon="17.988041706182">
        <ele>94.6</ele>
        <time>2017-12-19T13:15:46Z</time>
      </trkpt>
      <trkpt lat="62.634782411736" lon="17.988061822742">
        <ele>94.6</ele>
        <time>2017-12-19T13:15:47Z</time>
      </trkpt>
      <trkpt lat="62.634768833058" lon="17.988065426959">
        <ele>94.6</ele>
        <time>2017-12-19T13:15:48Z</time>
      </trkpt>
      <trkpt lat="62.634749806145" lon="17.988070959013">
        <ele>94.6</ele>
        <time>2017-12-19T13:15:49Z</time>
      </trkpt>
      <trkpt lat="62.634713009604" lon="17.988080514379">
        <ele>94.8</ele>
        <time>2017-12-19T13:15:50Z</time>
      </trkpt>
      <trkpt lat="62.63470831574" lon="17.988077413076">
        <ele>94.8</ele>
        <time>2017-12-19T13:15:51Z</time>
      </trkpt>
      <trkpt lat="62.634676548339" lon="17.988081436388">
        <ele>94.8</ele>
        <time>2017-12-19T13:15:52Z</time>
      </trkpt>
      <trkpt lat="62.634654420123" lon="17.988084034777">
        <ele>95</ele>
        <time>2017-12-19T13:15:53Z</time>
      </trkpt>
      <trkpt lat="62.634638075418" lon="17.98809719436">
        <ele>95</ele>
        <time>2017-12-19T13:15:54Z</time>
      </trkpt>
      <trkpt lat="62.63461443846" lon="17.988104905708">
        <ele>95.2</ele>
        <time>2017-12-19T13:15:55Z</time>
      </trkpt>
      <trkpt lat="62.634576552272" lon="17.988107923192">
        <ele>95.2</ele>
        <time>2017-12-19T13:15:56Z</time>
      </trkpt>
      <trkpt lat="62.634556435712" lon="17.988131308693">
        <ele>95.2</ele>
        <time>2017-12-19T13:15:57Z</time>
      </trkpt>
      <trkpt lat="62.634533385487" lon="17.988139858231">
        <ele>95.4</ele>
        <time>2017-12-19T13:15:58Z</time>
      </trkpt>
      <trkpt lat="62.634504216475" lon="17.988127872114">
        <ele>95.4</ele>
        <time>2017-12-19T13:15:59Z</time>
      </trkpt>
      <trkpt lat="62.634483764639" lon="17.988137511299">
        <ele>95.6</ele>
        <time>2017-12-19T13:16:00Z</time>
      </trkpt>
      <trkpt lat="62.634459876224" lon="17.988132230702">
        <ele>95.6</ele>
        <time>2017-12-19T13:16:01Z</time>
      </trkpt>
      <trkpt lat="62.634436909818" lon="17.988122088603">
        <ele>96</ele>
        <time>2017-12-19T13:16:02Z</time>
      </trkpt>
      <trkpt lat="62.634415284516" lon="17.988122759155">
        <ele>96</ele>
        <time>2017-12-19T13:16:03Z</time>
      </trkpt>
      <trkpt lat="62.634382678925" lon="17.988133990901">
        <ele>96</ele>
        <time>2017-12-19T13:16:04Z</time>
      </trkpt>
      <trkpt lat="62.634334985914" lon="17.988136337833">
        <ele>96.2</ele>
        <time>2017-12-19T13:16:05Z</time>
      </trkpt>
      <trkpt lat="62.63431855739" lon="17.988158298411">
        <ele>96.2</ele>
        <time>2017-12-19T13:16:06Z</time>
      </trkpt>
      <trkpt lat="62.634291986767" lon="17.988159304239">
        <ele>96.2</ele>
        <time>2017-12-19T13:16:07Z</time>
      </trkpt>
      <trkpt lat="62.634270612922" lon="17.988151173796">
        <ele>96.4</ele>
        <time>2017-12-19T13:16:08Z</time>
      </trkpt>
      <trkpt lat="62.634241863005" lon="17.988145725561">
        <ele>96.4</ele>
        <time>2017-12-19T13:16:09Z</time>
      </trkpt>
      <trkpt lat="62.634215208563" lon="17.988140444964">
        <ele>96.4</ele>
        <time>2017-12-19T13:16:10Z</time>
      </trkpt>
      <trkpt lat="62.634175897452" lon="17.988128877942">
        <ele>96.4</ele>
        <time>2017-12-19T13:16:11Z</time>
      </trkpt>
      <trkpt lat="62.634147734268" lon="17.988135415824">
        <ele>96.4</ele>
        <time>2017-12-19T13:16:12Z</time>
      </trkpt>
      <trkpt lat="62.634111692098" lon="17.988125609001">
        <ele>96.4</ele>
        <time>2017-12-19T13:16:13Z</time>
      </trkpt>
      <trkpt lat="62.634079924697" lon="17.988122591517">
        <ele>96.4</ele>
        <time>2017-12-19T13:16:14Z</time>
      </trkpt>
      <trkpt lat="62.634058299395" lon="17.988126950105">
        <ele>96.4</ele>
        <time>2017-12-19T13:16:15Z</time>
      </trkpt>
      <trkpt lat="62.634024268881" lon="17.988101552948">
        <ele>96.6</ele>
        <time>2017-12-19T13:16:16Z</time>
      </trkpt>
      <trkpt lat="62.633984371037" lon="17.988081436388">
        <ele>96.6</ele>
        <time>2017-12-19T13:16:17Z</time>
      </trkpt>
      <trkpt lat="62.633961656088" lon="17.988074730868">
        <ele>96.6</ele>
        <time>2017-12-19T13:16:18Z</time>
      </trkpt>
      <trkpt lat="62.633930307782" lon="17.988063499122">
        <ele>96.6</ele>
        <time>2017-12-19T13:16:19Z</time>
      </trkpt>
      <trkpt lat="62.633898205105" lon="17.988037012318">
        <ele>96.8</ele>
        <time>2017-12-19T13:16:20Z</time>
      </trkpt>
      <trkpt lat="62.633881189848" lon="17.988031983178">
        <ele>96.8</ele>
        <time>2017-12-19T13:16:21Z</time>
      </trkpt>
      <trkpt lat="62.633858810175" lon="17.988018488319">
        <ele>96.8</ele>
        <time>2017-12-19T13:16:22Z</time>
      </trkpt>
      <trkpt lat="62.63383408357" lon="17.988003400899">
        <ele>97</ele>
        <time>2017-12-19T13:16:23Z</time>
      </trkpt>
      <trkpt lat="62.633812374449" lon="17.987989989859">
        <ele>97</ele>
        <time>2017-12-19T13:16:24Z</time>
      </trkpt>
      <trkpt lat="62.633781696695" lon="17.987968448376">
        <ele>97.2</ele>
        <time>2017-12-19T13:16:25Z</time>
      </trkpt>
      <trkpt lat="62.633754539339" lon="17.9879429674">
        <ele>97.2</ele>
        <time>2017-12-19T13:16:26Z</time>
      </trkpt>
      <trkpt lat="62.63373182439" lon="17.987921928831">
        <ele>97.4</ele>
        <time>2017-12-19T13:16:27Z</time>
      </trkpt>
      <trkpt lat="62.633709528536" lon="17.987907260506">
        <ele>97.4</ele>
        <time>2017-12-19T13:16:28Z</time>
      </trkpt>
      <trkpt lat="62.633681365352" lon="17.98788094134">
        <ele>97.4</ele>
        <time>2017-12-19T13:16:29Z</time>
      </trkpt>
      <trkpt lat="62.633652363978" lon="17.987854873631">
        <ele>97.6</ele>
        <time>2017-12-19T13:16:30Z</time>
      </trkpt>
      <trkpt lat="62.633626296269" lon="17.98782897356">
        <ele>97.6</ele>
        <time>2017-12-19T13:16:31Z</time>
      </trkpt>
      <trkpt lat="62.633604922424" lon="17.987805923335">
        <ele>97.6</ele>
        <time>2017-12-19T13:16:32Z</time>
      </trkpt>
      <trkpt lat="62.63358681752" lon="17.987785303861">
        <ele>97.8</ele>
        <time>2017-12-19T13:16:33Z</time>
      </trkpt>
      <trkpt lat="62.633562677648" lon="17.987767115138">
        <ele>97.8</ele>
        <time>2017-12-19T13:16:34Z</time>
      </trkpt>
      <trkpt lat="62.633543902192" lon="17.987738868135">
        <ele>98</ele>
        <time>2017-12-19T13:16:35Z</time>
      </trkpt>
      <trkpt lat="62.633528730953" lon="17.987718667756">
        <ele>98.2</ele>
        <time>2017-12-19T13:16:36Z</time>
      </trkpt>
      <trkpt lat="62.633509117307" lon="17.987692600047">
        <ele>98.2</ele>
        <time>2017-12-19T13:16:37Z</time>
      </trkpt>
      <trkpt lat="62.633486653815" lon="17.987656054963">
        <ele>98.4</ele>
        <time>2017-12-19T13:16:38Z</time>
      </trkpt>
      <trkpt lat="62.6334711473" lon="17.987636273679">
        <ele>98.6</ele>
        <time>2017-12-19T13:16:39Z</time>
      </trkpt>
      <trkpt lat="62.633448432351" lon="17.987603165174">
        <ele>98.8</ele>
        <time>2017-12-19T13:16:40Z</time>
      </trkpt>
      <trkpt lat="62.633422197004" lon="17.987559830751">
        <ele>99</ele>
        <time>2017-12-19T13:16:41Z</time>
      </trkpt>
      <trkpt lat="62.633400487883" lon="17.987532757214">
        <ele>99.2</ele>
        <time>2017-12-19T13:16:42Z</time>
      </trkpt>
      <trkpt lat="62.633383556445" lon="17.987508282066">
        <ele>99.2</ele>
        <time>2017-12-19T13:16:43Z</time>
      </trkpt>
      <trkpt lat="62.633364529532" lon="17.987469892964">
        <ele>99.4</ele>
        <time>2017-12-19T13:16:44Z</time>
      </trkpt>
      <trkpt lat="62.633345502619" lon="17.987440388676">
        <ele>99.6</ele>
        <time>2017-12-19T13:16:45Z</time>
      </trkpt>
      <trkpt lat="62.63332781681" lon="17.987405268515">
        <ele>99.8</ele>
        <time>2017-12-19T13:16:46Z</time>
      </trkpt>
      <trkpt lat="62.633306694422" lon="17.987357575504">
        <ele>100</ele>
        <time>2017-12-19T13:16:47Z</time>
      </trkpt>
      <trkpt lat="62.633288254242" lon="17.987304098982">
        <ele>100.2</ele>
        <time>2017-12-19T13:16:48Z</time>
      </trkpt>
      <trkpt lat="62.633257157393" lon="17.987224303294">
        <ele>100.2</ele>
        <time>2017-12-19T13:16:49Z</time>
      </trkpt>
      <trkpt lat="62.633232849883" lon="17.987159092112">
        <ele>100.2</ele>
        <time>2017-12-19T13:16:50Z</time>
      </trkpt>
      <trkpt lat="62.633196975351" lon="17.987066639755">
        <ele>100</ele>
        <time>2017-12-19T13:16:51Z</time>
      </trkpt>
      <trkpt lat="62.633176020601" lon="17.986969493534">
        <ele>99.8</ele>
        <time>2017-12-19T13:16:52Z</time>
      </trkpt>
      <trkpt lat="62.633159759715" lon="17.986864049232">
        <ele>99</ele>
        <time>2017-12-19T13:16:53Z</time>
      </trkpt>
      <trkpt lat="62.633147689779" lon="17.986761370957">
        <ele>98.6</ele>
        <time>2017-12-19T13:16:54Z</time>
      </trkpt>
      <trkpt lat="62.63313838587" lon="17.986629188394">
        <ele>97.8</ele>
        <time>2017-12-19T13:16:55Z</time>
      </trkpt>
      <trkpt lat="62.633133692006" lon="17.986497257288">
        <ele>97.2</ele>
        <time>2017-12-19T13:16:56Z</time>
      </trkpt>
      <trkpt lat="62.633122627898" lon="17.986401200714">
        <ele>96.8</ele>
        <time>2017-12-19T13:16:57Z</time>
      </trkpt>
      <trkpt lat="62.633112988713" lon="17.986288967073">
        <ele>97</ele>
        <time>2017-12-19T13:16:58Z</time>
      </trkpt>
      <trkpt lat="62.633102762795" lon="17.986133399009">
        <ele>96.8</ele>
        <time>2017-12-19T13:16:59Z</time>
      </trkpt>
      <trkpt lat="62.633107875754" lon="17.985992331632">
        <ele>97</ele>
        <time>2017-12-19T13:17:00Z</time>
      </trkpt>
      <trkpt lat="62.633110306505" lon="17.985868950064">
        <ele>96.8</ele>
        <time>2017-12-19T13:17:01Z</time>
      </trkpt>
      <trkpt lat="62.633116928206" lon="17.985752441654">
        <ele>96.6</ele>
        <time>2017-12-19T13:17:02Z</time>
      </trkpt>
      <trkpt lat="62.633121119156" lon="17.985621851652">
        <ele>96.2</ele>
        <time>2017-12-19T13:17:03Z</time>
      </trkpt>
      <trkpt lat="62.633126567391" lon="17.985476341868">
        <ele>95.6</ele>
        <time>2017-12-19T13:17:04Z</time>
      </trkpt>
      <trkpt lat="62.633133775825" lon="17.985357067431">
        <ele>95.4</ele>
        <time>2017-12-19T13:17:05Z</time>
      </trkpt>
      <trkpt lat="62.633143666467" lon="17.985210803276">
        <ele>95.2</ele>
        <time>2017-12-19T13:17:06Z</time>
      </trkpt>
      <trkpt lat="62.633159675896" lon="17.985034783376">
        <ele>95.2</ele>
        <time>2017-12-19T13:17:07Z</time>
      </trkpt>
      <trkpt lat="62.633181468836" lon="17.984866391005">
        <ele>95</ele>
        <time>2017-12-19T13:17:08Z</time>
      </trkpt>
      <trkpt lat="62.633200914844" lon="17.984718115194">
        <ele>94.6</ele>
        <time>2017-12-19T13:17:09Z</time>
      </trkpt>
      <trkpt lat="62.633226060544" lon="17.984588782477">
        <ele>93.8</ele>
        <time>2017-12-19T13:17:10Z</time>
      </trkpt>
      <trkpt lat="62.633252463529" lon="17.984467915479">
        <ele>92.8</ele>
        <time>2017-12-19T13:17:11Z</time>
      </trkpt>
      <trkpt lat="62.633285572034" lon="17.984362554996">
        <ele>91.6</ele>
        <time>2017-12-19T13:17:12Z</time>
      </trkpt>
      <trkpt lat="62.633296468504" lon="17.984258870893">
        <ele>90.6</ele>
        <time>2017-12-19T13:17:13Z</time>
      </trkpt>
      <trkpt lat="62.633316668883" lon="17.984149990012">
        <ele>90.4</ele>
        <time>2017-12-19T13:17:14Z</time>
      </trkpt>
      <trkpt lat="62.633327649172" lon="17.984042785511">
        <ele>90.4</ele>
        <time>2017-12-19T13:17:15Z</time>
      </trkpt>
      <trkpt lat="62.633346424628" lon="17.983942035073">
        <ele>90.4</ele>
        <time>2017-12-19T13:17:16Z</time>
      </trkpt>
      <trkpt lat="62.633365954455" lon="17.98381404346">
        <ele>90.6</ele>
        <time>2017-12-19T13:17:17Z</time>
      </trkpt>
      <trkpt lat="62.633372157061" lon="17.983702648009">
        <ele>90.8</ele>
        <time>2017-12-19T13:17:18Z</time>
      </trkpt>
      <trkpt lat="62.633391100155" lon="17.983604915055">
        <ele>91.2</ele>
        <time>2017-12-19T13:17:19Z</time>
      </trkpt>
      <trkpt lat="62.633397554218" lon="17.983490837396">
        <ele>91.8</ele>
        <time>2017-12-19T13:17:20Z</time>
      </trkpt>
      <trkpt lat="62.633409707973" lon="17.983430906811">
        <ele>92.2</ele>
        <time>2017-12-19T13:17:21Z</time>
      </trkpt>
      <trkpt lat="62.633427896696" lon="17.983350189114">
        <ele>92.6</ele>
        <time>2017-12-19T13:17:22Z</time>
      </trkpt>
      <trkpt lat="62.633450444007" lon="17.983276847489">
        <ele>92.8</ele>
        <time>2017-12-19T13:17:23Z</time>
      </trkpt>
      <trkpt lat="62.633462011029" lon="17.983188502263">
        <ele>92.8</ele>
        <time>2017-12-19T13:17:24Z</time>
      </trkpt>
      <trkpt lat="62.633476260259" lon="17.983118429579">
        <ele>93</ele>
        <time>2017-12-19T13:17:25Z</time>
      </trkpt>
      <trkpt lat="62.633493946068" lon="17.983045087954">
        <ele>93</ele>
        <time>2017-12-19T13:17:26Z</time>
      </trkpt>
      <trkpt lat="62.633503501434" lon="17.982986582292">
        <ele>93</ele>
        <time>2017-12-19T13:17:27Z</time>
      </trkpt>
      <trkpt lat="62.633509368764" lon="17.982919107997">
        <ele>93</ele>
        <time>2017-12-19T13:17:28Z</time>
      </trkpt>
      <trkpt lat="62.633526384021" lon="17.982825398355">
        <ele>92.8</ele>
        <time>2017-12-19T13:17:29Z</time>
      </trkpt>
      <trkpt lat="62.633533676274" lon="17.982748955427">
        <ele>92.8</ele>
        <time>2017-12-19T13:17:30Z</time>
      </trkpt>
      <trkpt lat="62.633549685703" lon="17.98268164877">
        <ele>92.8</ele>
        <time>2017-12-19T13:17:31Z</time>
      </trkpt>
      <trkpt lat="62.633557816146" lon="17.982613084828">
        <ele>92.8</ele>
        <time>2017-12-19T13:17:32Z</time>
      </trkpt>
      <trkpt lat="62.633573909394" lon="17.982543682696">
        <ele>92.8</ele>
        <time>2017-12-19T13:17:33Z</time>
      </trkpt>
      <trkpt lat="62.633588074805" lon="17.982465479569">
        <ele>92.8</ele>
        <time>2017-12-19T13:17:34Z</time>
      </trkpt>
      <trkpt lat="62.633594025954" lon="17.982387611718">
        <ele>92.8</ele>
        <time>2017-12-19T13:17:35Z</time>
      </trkpt>
      <trkpt lat="62.633606263528" lon="17.982315024464">
        <ele>92.8</ele>
        <time>2017-12-19T13:17:36Z</time>
      </trkpt>
      <trkpt lat="62.633614980704" lon="17.98224578997">
        <ele>92.8</ele>
        <time>2017-12-19T13:17:37Z</time>
      </trkpt>
      <trkpt lat="62.633626715364" lon="17.982181668435">
        <ele>92.8</ele>
        <time>2017-12-19T13:17:38Z</time>
      </trkpt>
      <trkpt lat="62.633641216051" lon="17.982082007644">
        <ele>92.8</ele>
        <time>2017-12-19T13:17:39Z</time>
      </trkpt>
      <trkpt lat="62.633644149716" lon="17.982015203901">
        <ele>92.8</ele>
        <time>2017-12-19T13:17:40Z</time>
      </trkpt>
      <trkpt lat="62.633653788901" lon="17.981935324394">
        <ele>92.8</ele>
        <time>2017-12-19T13:17:41Z</time>
      </trkpt>
      <trkpt lat="62.633660745878" lon="17.98186692809">
        <ele>92.8</ele>
        <time>2017-12-19T13:17:42Z</time>
      </trkpt>
      <trkpt lat="62.633672396719" lon="17.981772044982">
        <ele>92.8</ele>
        <time>2017-12-19T13:17:43Z</time>
      </trkpt>
      <trkpt lat="62.6336723129" lon="17.981696104968">
        <ele>93</ele>
        <time>2017-12-19T13:17:44Z</time>
      </trkpt>
      <trkpt lat="62.633667116122" lon="17.98164899869">
        <ele>93</ele>
        <time>2017-12-19T13:17:45Z</time>
      </trkpt>
      <trkpt lat="62.633667032303" lon="17.981586218259">
        <ele>93</ele>
        <time>2017-12-19T13:17:46Z</time>
      </trkpt>
      <trkpt lat="62.633674156918" lon="17.98150231544">
        <ele>93</ele>
        <time>2017-12-19T13:17:47Z</time>
      </trkpt>
      <trkpt lat="62.633687987053" lon="17.981440373199">
        <ele>93</ele>
        <time>2017-12-19T13:17:48Z</time>
      </trkpt>
      <trkpt lat="62.633699470256" lon="17.981351776516">
        <ele>93</ele>
        <time>2017-12-19T13:17:49Z</time>
      </trkpt>
      <trkpt lat="62.633711204916" lon="17.98126678405">
        <ele>93.2</ele>
        <time>2017-12-19T13:17:50Z</time>
      </trkpt>
      <trkpt lat="62.633720592644" lon="17.981193274787">
        <ele>93.4</ele>
        <time>2017-12-19T13:17:51Z</time>
      </trkpt>
      <trkpt lat="62.633734758055" lon="17.981122783008">
        <ele>93.4</ele>
        <time>2017-12-19T13:17:52Z</time>
      </trkpt>
      <trkpt lat="62.633758478832" lon="17.981047094451">
        <ele>93.4</ele>
        <time>2017-12-19T13:17:53Z</time>
      </trkpt>
      <trkpt lat="62.633781529057" lon="17.980992360644">
        <ele>93.4</ele>
        <time>2017-12-19T13:17:54Z</time>
      </trkpt>
      <trkpt lat="62.633808434956" lon="17.980935363724">
        <ele>93.4</ele>
        <time>2017-12-19T13:17:55Z</time>
      </trkpt>
      <trkpt lat="62.633831736638" lon="17.980863949936">
        <ele>93.4</ele>
        <time>2017-12-19T13:17:56Z</time>
      </trkpt>
      <trkpt lat="62.633853110483" lon="17.980820112599">
        <ele>93.6</ele>
        <time>2017-12-19T13:17:57Z</time>
      </trkpt>
      <trkpt lat="62.633873981414" lon="17.980779041289">
        <ele>93.8</ele>
        <time>2017-12-19T13:17:58Z</time>
      </trkpt>
      <trkpt lat="62.633891331947" lon="17.980736461237">
        <ele>93.8</ele>
        <time>2017-12-19T13:17:59Z</time>
      </trkpt>
      <trkpt lat="62.633910610317" lon="17.980703939465">
        <ele>94</ele>
        <time>2017-12-19T13:18:00Z</time>
      </trkpt>
      <trkpt lat="62.633928882859" lon="17.980656246454">
        <ele>94</ele>
        <time>2017-12-19T13:18:01Z</time>
      </trkpt>
      <trkpt lat="62.633942880632" lon="17.980625233424">
        <ele>94</ele>
        <time>2017-12-19T13:18:02Z</time>
      </trkpt>
      <trkpt lat="62.633962578097" lon="17.980572678911">
        <ele>94</ele>
        <time>2017-12-19T13:18:03Z</time>
      </trkpt>
      <trkpt lat="62.633980263906" lon="17.980533283981">
        <ele>94</ele>
        <time>2017-12-19T13:18:04Z</time>
      </trkpt>
      <trkpt lat="62.634001134837" lon="17.9804914583">
        <ele>94.2</ele>
        <time>2017-12-19T13:18:05Z</time>
      </trkpt>
      <trkpt lat="62.634020245569" lon="17.980446950411">
        <ele>94.2</ele>
        <time>2017-12-19T13:18:06Z</time>
      </trkpt>
      <trkpt lat="62.63404027831" lon="17.980405543825">
        <ele>94.4</ele>
        <time>2017-12-19T13:18:07Z</time>
      </trkpt>
      <trkpt lat="62.634062825621" lon="17.980361706488">
        <ele>94.4</ele>
        <time>2017-12-19T13:18:08Z</time>
      </trkpt>
      <trkpt lat="62.634089899158" lon="17.980313845839">
        <ele>94.2</ele>
        <time>2017-12-19T13:18:09Z</time>
      </trkpt>
      <trkpt lat="62.634113536116" lon="17.980268835036">
        <ele>94.4</ele>
        <time>2017-12-19T13:18:10Z</time>
      </trkpt>
      <trkpt lat="62.634138765635" lon="17.980218375998">
        <ele>94.2</ele>
        <time>2017-12-19T13:18:11Z</time>
      </trkpt>
      <trkpt lat="62.634158127824" lon="17.980166994951">
        <ele>94.2</ele>
        <time>2017-12-19T13:18:12Z</time>
      </trkpt>
      <trkpt lat="62.634180926592" lon="17.980108573108">
        <ele>94.2</ele>
        <time>2017-12-19T13:18:13Z</time>
      </trkpt>
      <trkpt lat="62.634205988473" lon="17.980049396894">
        <ele>94.4</ele>
        <time>2017-12-19T13:18:14Z</time>
      </trkpt>
      <trkpt lat="62.634248484706" lon="17.980003883177">
        <ele>94.2</ele>
        <time>2017-12-19T13:18:15Z</time>
      </trkpt>
      <trkpt lat="62.634277066985" lon="17.979940516013">
        <ele>94.4</ele>
        <time>2017-12-19T13:18:16Z</time>
      </trkpt>
      <trkpt lat="62.634296512993" lon="17.979883183817">
        <ele>94.4</ele>
        <time>2017-12-19T13:18:17Z</time>
      </trkpt>
      <trkpt lat="62.634316294277" lon="17.979799700093">
        <ele>94.2</ele>
        <time>2017-12-19T13:18:18Z</time>
      </trkpt>
      <trkpt lat="62.634333141896" lon="17.979727783391">
        <ele>94.2</ele>
        <time>2017-12-19T13:18:19Z</time>
      </trkpt>
      <trkpt lat="62.634348396954" lon="17.979649328807">
        <ele>94.2</ele>
        <time>2017-12-19T13:18:20Z</time>
      </trkpt>
      <trkpt lat="62.634357281768" lon="17.979569533119">
        <ele>94.2</ele>
        <time>2017-12-19T13:18:21Z</time>
      </trkpt>
      <trkpt lat="62.634372369188" lon="17.979501136815">
        <ele>94.4</ele>
        <time>2017-12-19T13:18:22Z</time>
      </trkpt>
      <trkpt lat="62.634385109676" lon="17.979424777706">
        <ele>94.4</ele>
        <time>2017-12-19T13:18:23Z</time>
      </trkpt>
      <trkpt lat="62.634395167956" lon="17.979358728334">
        <ele>94.2</ele>
        <time>2017-12-19T13:18:24Z</time>
      </trkpt>
      <trkpt lat="62.634404136589" lon="17.979295612627">
        <ele>94.2</ele>
        <time>2017-12-19T13:18:25Z</time>
      </trkpt>
      <trkpt lat="62.634418553457" lon="17.979228473608">
        <ele>94.2</ele>
        <time>2017-12-19T13:18:26Z</time>
      </trkpt>
      <trkpt lat="62.634434059972" lon="17.979162424236">
        <ele>94.2</ele>
        <time>2017-12-19T13:18:27Z</time>
      </trkpt>
      <trkpt lat="62.634448560659" lon="17.979092351552">
        <ele>94.2</ele>
        <time>2017-12-19T13:18:28Z</time>
      </trkpt>
      <trkpt lat="62.6344602115" lon="17.979017501185">
        <ele>94.2</ele>
        <time>2017-12-19T13:18:29Z</time>
      </trkpt>
      <trkpt lat="62.634467168477" lon="17.978947596139">
        <ele>94.2</ele>
        <time>2017-12-19T13:18:30Z</time>
      </trkpt>
      <trkpt lat="62.634484770467" lon="17.97887710436">
        <ele>94.2</ele>
        <time>2017-12-19T13:18:31Z</time>
      </trkpt>
      <trkpt lat="62.63449541548" lon="17.978812815187">
        <ele>94.2</ele>
        <time>2017-12-19T13:18:32Z</time>
      </trkpt>
      <trkpt lat="62.634520896456" lon="17.978681219357">
        <ele>94.2</ele>
        <time>2017-12-19T13:18:34Z</time>
      </trkpt>
      <trkpt lat="62.634530200365" lon="17.978628245749">
        <ele>94</ele>
        <time>2017-12-19T13:18:35Z</time>
      </trkpt>
      <trkpt lat="62.634536151514" lon="17.978574853046">
        <ele>94</ele>
        <time>2017-12-19T13:18:36Z</time>
      </trkpt>
      <trkpt lat="62.634540845378" lon="17.978526573302">
        <ele>93.8</ele>
        <time>2017-12-19T13:18:37Z</time>
      </trkpt>
      <trkpt lat="62.634551322753" lon="17.978450633288">
        <ele>94</ele>
        <time>2017-12-19T13:18:38Z</time>
      </trkpt>
      <trkpt lat="62.634558195911" lon="17.978383997183">
        <ele>94</ele>
        <time>2017-12-19T13:18:39Z</time>
      </trkpt>
      <trkpt lat="62.634568086553" lon="17.97830797335">
        <ele>93.8</ele>
        <time>2017-12-19T13:18:40Z</time>
      </trkpt>
      <trkpt lat="62.634582251964" lon="17.978225495454">
        <ele>93.8</ele>
        <time>2017-12-19T13:18:41Z</time>
      </trkpt>
      <trkpt lat="62.634594992452" lon="17.978153997847">
        <ele>93.6</ele>
        <time>2017-12-19T13:18:42Z</time>
      </trkpt>
      <trkpt lat="62.634607146207" lon="17.978071519951">
        <ele>93.4</ele>
        <time>2017-12-19T13:18:43Z</time>
      </trkpt>
      <trkpt lat="62.634621060161" lon="17.977979235232">
        <ele>93.2</ele>
        <time>2017-12-19T13:18:44Z</time>
      </trkpt>
      <trkpt lat="62.634632627183" lon="17.977903379037">
        <ele>93</ele>
        <time>2017-12-19T13:18:45Z</time>
      </trkpt>
      <trkpt lat="62.634645367671" lon="17.977817129286">
        <ele>92.8</ele>
        <time>2017-12-19T13:18:46Z</time>
      </trkpt>
      <trkpt lat="62.634656096503" lon="17.977746050774">
        <ele>92.8</ele>
        <time>2017-12-19T13:18:47Z</time>
      </trkpt>
      <trkpt lat="62.634667831163" lon="17.977666171267">
        <ele>92.6</ele>
        <time>2017-12-19T13:18:48Z</time>
      </trkpt>
      <trkpt lat="62.634681158384" lon="17.977589728339">
        <ele>92.6</ele>
        <time>2017-12-19T13:18:49Z</time>
      </trkpt>
      <trkpt lat="62.634693479777" lon="17.977513872144">
        <ele>92.6</ele>
        <time>2017-12-19T13:18:50Z</time>
      </trkpt>
      <trkpt lat="62.634703370419" lon="17.977446397849">
        <ele>92.6</ele>
        <time>2017-12-19T13:18:51Z</time>
      </trkpt>
      <trkpt lat="62.634715607993" lon="17.977379091192">
        <ele>92.6</ele>
        <time>2017-12-19T13:18:52Z</time>
      </trkpt>
      <trkpt lat="62.634731114508" lon="17.977305581929">
        <ele>92.6</ele>
        <time>2017-12-19T13:18:53Z</time>
      </trkpt>
      <trkpt lat="62.634741172788" lon="17.977245567525">
        <ele>92.6</ele>
        <time>2017-12-19T13:18:54Z</time>
      </trkpt>
      <trkpt lat="62.634753829457" lon="17.977176249212">
        <ele>92.4</ele>
        <time>2017-12-19T13:18:55Z</time>
      </trkpt>
      <trkpt lat="62.634765731755" lon="17.977121766862">
        <ele>92.4</ele>
        <time>2017-12-19T13:18:56Z</time>
      </trkpt>
      <trkpt lat="62.634772101999" lon="17.977078432439">
        <ele>92.4</ele>
        <time>2017-12-19T13:18:57Z</time>
      </trkpt>
      <trkpt lat="62.634786351229" lon="17.977009114126">
        <ele>92.4</ele>
        <time>2017-12-19T13:18:58Z</time>
      </trkpt>
      <trkpt lat="62.634799175536" lon="17.976933006474">
        <ele>92.2</ele>
        <time>2017-12-19T13:18:59Z</time>
      </trkpt>
      <trkpt lat="62.634811077834" lon="17.976859329573">
        <ele>92.2</ele>
        <time>2017-12-19T13:19:00Z</time>
      </trkpt>
      <trkpt lat="62.634826249073" lon="17.97678414393">
        <ele>92.4</ele>
        <time>2017-12-19T13:19:01Z</time>
      </trkpt>
      <trkpt lat="62.634835469163" lon="17.976728907209">
        <ele>92.2</ele>
        <time>2017-12-19T13:19:02Z</time>
      </trkpt>
      <trkpt lat="62.63485164623" lon="17.976639891431">
        <ele>92.2</ele>
        <time>2017-12-19T13:19:03Z</time>
      </trkpt>
      <trkpt lat="62.63486589546" lon="17.976556910621">
        <ele>92.2</ele>
        <time>2017-12-19T13:19:04Z</time>
      </trkpt>
      <trkpt lat="62.634881234337" lon="17.976475857648">
        <ele>92.2</ele>
        <time>2017-12-19T13:19:05Z</time>
      </trkpt>
      <trkpt lat="62.634895902662" lon="17.976389524078">
        <ele>92</ele>
        <time>2017-12-19T13:19:06Z</time>
      </trkpt>
      <trkpt lat="62.634909565159" lon="17.976315008987">
        <ele>92</ele>
        <time>2017-12-19T13:19:07Z</time>
      </trkpt>
      <trkpt lat="62.63493127428" lon="17.976229848883">
        <ele>91.8</ele>
        <time>2017-12-19T13:19:08Z</time>
      </trkpt>
      <trkpt lat="62.634950301193" lon="17.97614711953">
        <ele>91.8</ele>
        <time>2017-12-19T13:19:09Z</time>
      </trkpt>
      <trkpt lat="62.634963293138" lon="17.976076963027">
        <ele>91.8</ele>
        <time>2017-12-19T13:19:10Z</time>
      </trkpt>
      <trkpt lat="62.634980978947" lon="17.976013176768">
        <ele>91.6</ele>
        <time>2017-12-19T13:19:11Z</time>
      </trkpt>
      <trkpt lat="62.635001598421" lon="17.975936398564">
        <ele>91.6</ele>
        <time>2017-12-19T13:19:12Z</time>
      </trkpt>
      <trkpt lat="62.635022385533" lon="17.975845538768">
        <ele>91.4</ele>
        <time>2017-12-19T13:19:13Z</time>
      </trkpt>
      <trkpt lat="62.635039233152" lon="17.97575819937">
        <ele>90.8</ele>
        <time>2017-12-19T13:19:14Z</time>
      </trkpt>
      <trkpt lat="62.635052644192" lon="17.975667507212">
        <ele>90.4</ele>
        <time>2017-12-19T13:19:15Z</time>
      </trkpt>
      <trkpt lat="62.635067228698" lon="17.975570193353">
        <ele>89.8</ele>
        <time>2017-12-19T13:19:16Z</time>
      </trkpt>
      <trkpt lat="62.635075694417" lon="17.975499701574">
        <ele>89.6</ele>
        <time>2017-12-19T13:19:17Z</time>
      </trkpt>
      <trkpt lat="62.63509053038" lon="17.975403058267">
        <ele>89.6</ele>
        <time>2017-12-19T13:19:18Z</time>
      </trkpt>
      <trkpt lat="62.635102684135" lon="17.975324603683">
        <ele>90</ele>
        <time>2017-12-19T13:19:19Z</time>
      </trkpt>
      <trkpt lat="62.635111149854" lon="17.975240533226">
        <ele>90.2</ele>
        <time>2017-12-19T13:19:20Z</time>
      </trkpt>
      <trkpt lat="62.635117603917" lon="17.975156798045">
        <ele>90.4</ele>
        <time>2017-12-19T13:19:21Z</time>
      </trkpt>
      <trkpt lat="62.635114418795" lon="17.975063088403">
        <ele>90.4</ele>
        <time>2017-12-19T13:19:22Z</time>
      </trkpt>
      <trkpt lat="62.635104192877" lon="17.97495856611">
        <ele>89.8</ele>
        <time>2017-12-19T13:19:23Z</time>
      </trkpt>
      <trkpt lat="62.635085836516" lon="17.974864269735">
        <ele>89.2</ele>
        <time>2017-12-19T13:19:24Z</time>
      </trkpt>
      <trkpt lat="62.635062618653" lon="17.974775756871">
        <ele>88.6</ele>
        <time>2017-12-19T13:19:25Z</time>
      </trkpt>
      <trkpt lat="62.635039736066" lon="17.974686908731">
        <ele>88</ele>
        <time>2017-12-19T13:19:26Z</time>
      </trkpt>
      <trkpt lat="62.635023810456" lon="17.974593618184">
        <ele>87.4</ele>
        <time>2017-12-19T13:19:27Z</time>
      </trkpt>
      <trkpt lat="62.635009896502" lon="17.97451600179">
        <ele>87</ele>
        <time>2017-12-19T13:19:28Z</time>
      </trkpt>
      <trkpt lat="62.63499330034" lon="17.97443302098">
        <ele>86.6</ele>
        <time>2017-12-19T13:19:29Z</time>
      </trkpt>
      <trkpt lat="62.634974273427" lon="17.974353895844">
        <ele>86.4</ele>
        <time>2017-12-19T13:19:30Z</time>
      </trkpt>
      <trkpt lat="62.634955414152" lon="17.974268065188">
        <ele>86.2</ele>
        <time>2017-12-19T13:19:31Z</time>
      </trkpt>
      <trkpt lat="62.634936387239" lon="17.974192041355">
        <ele>86</ele>
        <time>2017-12-19T13:19:32Z</time>
      </trkpt>
      <trkpt lat="62.634908307874" lon="17.974089446899">
        <ele>86</ele>
        <time>2017-12-19T13:19:33Z</time>
      </trkpt>
      <trkpt lat="62.634891627893" lon="17.974005795537">
        <ele>86</ele>
        <time>2017-12-19T13:19:34Z</time>
      </trkpt>
      <trkpt lat="62.634876289016" lon="17.97391250499">
        <ele>86</ele>
        <time>2017-12-19T13:19:35Z</time>
      </trkpt>
      <trkpt lat="62.63485751356" lon="17.973832960759">
        <ele>86.2</ele>
        <time>2017-12-19T13:19:36Z</time>
      </trkpt>
      <trkpt lat="62.634840833579" lon="17.973770767061">
        <ele>86.6</ele>
        <time>2017-12-19T13:19:37Z</time>
      </trkpt>
      <trkpt lat="62.634819543553" lon="17.973682086559">
        <ele>86.8</ele>
        <time>2017-12-19T13:19:38Z</time>
      </trkpt>
      <trkpt lat="62.634804539952" lon="17.97360069831">
        <ele>86.8</ele>
        <time>2017-12-19T13:19:39Z</time>
      </trkpt>
      <trkpt lat="62.634789033437" lon="17.973527691961">
        <ele>86.6</ele>
        <time>2017-12-19T13:19:40Z</time>
      </trkpt>
      <trkpt lat="62.634773024008" lon="17.973439933468">
        <ele>86.4</ele>
        <time>2017-12-19T13:19:41Z</time>
      </trkpt>
      <trkpt lat="62.634763468642" lon="17.973363658178">
        <ele>86.4</ele>
        <time>2017-12-19T13:19:42Z</time>
      </trkpt>
      <trkpt lat="62.634753075086" lon="17.973281012644">
        <ele>86.2</ele>
        <time>2017-12-19T13:19:43Z</time>
      </trkpt>
      <trkpt lat="62.63474771067" lon="17.973192583599">
        <ele>86.4</ele>
        <time>2017-12-19T13:19:44Z</time>
      </trkpt>
      <trkpt lat="62.634753661819" lon="17.973089737686">
        <ele>86.4</ele>
        <time>2017-12-19T13:19:45Z</time>
      </trkpt>
      <trkpt lat="62.63476363628" lon="17.97298881961">
        <ele>86.2</ele>
        <time>2017-12-19T13:19:46Z</time>
      </trkpt>
      <trkpt lat="62.634771347628" lon="17.972912963415">
        <ele>86.2</ele>
        <time>2017-12-19T13:19:47Z</time>
      </trkpt>
      <trkpt lat="62.634784926306" lon="17.972800310679">
        <ele>86</ele>
        <time>2017-12-19T13:19:48Z</time>
      </trkpt>
      <trkpt lat="62.63480806035" lon="17.972697632404">
        <ele>85.8</ele>
        <time>2017-12-19T13:19:49Z</time>
      </trkpt>
      <trkpt lat="62.634833122231" lon="17.972602665477">
        <ele>85.6</ele>
        <time>2017-12-19T13:19:50Z</time>
      </trkpt>
      <trkpt lat="62.634869415858" lon="17.972517002459">
        <ele>85.6</ele>
        <time>2017-12-19T13:19:51Z</time>
      </trkpt>
      <trkpt lat="62.634894896834" lon="17.972449360526">
        <ele>85.4</ele>
        <time>2017-12-19T13:19:52Z</time>
      </trkpt>
      <trkpt lat="62.634918952887" lon="17.972372666141">
        <ele>85.4</ele>
        <time>2017-12-19T13:19:53Z</time>
      </trkpt>
      <trkpt lat="62.6349463617" lon="17.97228725458">
        <ele>85.4</ele>
        <time>2017-12-19T13:19:54Z</time>
      </trkpt>
      <trkpt lat="62.63496983102" lon="17.972210308738">
        <ele>85</ele>
        <time>2017-12-19T13:19:55Z</time>
      </trkpt>
      <trkpt lat="62.634994557625" lon="17.972132859982">
        <ele>84.6</ele>
        <time>2017-12-19T13:19:56Z</time>
      </trkpt>
      <trkpt lat="62.635014506547" lon="17.972056333235">
        <ele>84.2</ele>
        <time>2017-12-19T13:19:57Z</time>
      </trkpt>
      <trkpt lat="62.6350385626" lon="17.971978716841">
        <ele>83.8</ele>
        <time>2017-12-19T13:19:58Z</time>
      </trkpt>
      <trkpt lat="62.635063875938" lon="17.971882744086">
        <ele>83.2</ele>
        <time>2017-12-19T13:19:59Z</time>
      </trkpt>
      <trkpt lat="62.635085585059" lon="17.971756764129">
        <ele>82.8</ele>
        <time>2017-12-19T13:20:00Z</time>
      </trkpt>
      <trkpt lat="62.635104192877" lon="17.97163179">
        <ele>82.6</ele>
        <time>2017-12-19T13:20:01Z</time>
      </trkpt>
      <trkpt lat="62.63511902884" lon="17.971515952142">
        <ele>82.4</ele>
        <time>2017-12-19T13:20:02Z</time>
      </trkpt>
      <trkpt lat="62.635136295554" lon="17.971383182846">
        <ele>82.4</ele>
        <time>2017-12-19T13:20:03Z</time>
      </trkpt>
      <trkpt lat="62.635149455137" lon="17.971255861785">
        <ele>82.2</ele>
        <time>2017-12-19T13:20:04Z</time>
      </trkpt>
      <trkpt lat="62.635165296928" lon="17.971127618715">
        <ele>82.4</ele>
        <time>2017-12-19T13:20:05Z</time>
      </trkpt>
      <trkpt lat="62.635180719624" lon="17.97100398569">
        <ele>82.4</ele>
        <time>2017-12-19T13:20:06Z</time>
      </trkpt>
      <trkpt lat="62.635192119008" lon="17.970885633262">
        <ele>82</ele>
        <time>2017-12-19T13:20:07Z</time>
      </trkpt>
      <trkpt lat="62.635208296075" lon="17.970761245866">
        <ele>81.8</ele>
        <time>2017-12-19T13:20:08Z</time>
      </trkpt>
      <trkpt lat="62.635223215857" lon="17.970655466288">
        <ele>81.4</ele>
        <time>2017-12-19T13:20:09Z</time>
      </trkpt>
      <trkpt lat="62.635236543078" lon="17.970533677281">
        <ele>81</ele>
        <time>2017-12-19T13:20:10Z</time>
      </trkpt>
      <trkpt lat="62.635248780652" lon="17.970414989577">
        <ele>80.6</ele>
        <time>2017-12-19T13:20:11Z</time>
      </trkpt>
      <trkpt lat="62.635260096217" lon="17.970305605782">
        <ele>80.4</ele>
        <time>2017-12-19T13:20:12Z</time>
      </trkpt>
      <trkpt lat="62.635276189465" lon="17.970185157879">
        <ele>80</ele>
        <time>2017-12-19T13:20:13Z</time>
      </trkpt>
      <trkpt lat="62.635294629645" lon="17.970068733288">
        <ele>79.8</ele>
        <time>2017-12-19T13:20:14Z</time>
      </trkpt>
      <trkpt lat="62.635318937155" lon="17.96995205724">
        <ele>79.6</ele>
        <time>2017-12-19T13:20:15Z</time>
      </trkpt>
      <trkpt lat="62.635345591597" lon="17.969835967925">
        <ele>79.2</ele>
        <time>2017-12-19T13:20:16Z</time>
      </trkpt>
      <trkpt lat="62.635370653478" lon="17.969743431749">
        <ele>79</ele>
        <time>2017-12-19T13:20:17Z</time>
      </trkpt>
      <trkpt lat="62.635404097259" lon="17.969632623031">
        <ele>78.2</ele>
        <time>2017-12-19T13:20:18Z</time>
      </trkpt>
      <trkpt lat="62.635431506072" lon="17.96953128586">
        <ele>77.4</ele>
        <time>2017-12-19T13:20:19Z</time>
      </trkpt>
      <trkpt lat="62.635456903229" lon="17.969427517938">
        <ele>76.8</ele>
        <time>2017-12-19T13:20:20Z</time>
      </trkpt>
      <trkpt lat="62.635481881291" lon="17.96932928207">
        <ele>76</ele>
        <time>2017-12-19T13:20:21Z</time>
      </trkpt>
      <trkpt lat="62.635507026991" lon="17.969231549116">
        <ele>75.2</ele>
        <time>2017-12-19T13:20:22Z</time>
      </trkpt>
      <trkpt lat="62.635534016709" lon="17.969129876669">
        <ele>74.6</ele>
        <time>2017-12-19T13:20:23Z</time>
      </trkpt>
      <trkpt lat="62.635562096074" lon="17.969026779299">
        <ele>74.2</ele>
        <time>2017-12-19T13:20:24Z</time>
      </trkpt>
      <trkpt lat="62.635589504887" lon="17.968933991666">
        <ele>73.6</ele>
        <time>2017-12-19T13:20:25Z</time>
      </trkpt>
      <trkpt lat="62.635616829881" lon="17.968842209861">
        <ele>73</ele>
        <time>2017-12-19T13:20:26Z</time>
      </trkpt>
      <trkpt lat="62.6356420594" lon="17.968759145232">
        <ele>72.6</ele>
        <time>2017-12-19T13:20:27Z</time>
      </trkpt>
      <trkpt lat="62.635674413534" lon="17.968668536893">
        <ele>72.4</ele>
        <time>2017-12-19T13:20:28Z</time>
      </trkpt>
      <trkpt lat="62.635710371885" lon="17.968594021802">
        <ele>72</ele>
        <time>2017-12-19T13:20:29Z</time>
      </trkpt>
      <trkpt lat="62.635748425711" lon="17.968536019054">
        <ele>71.6</ele>
        <time>2017-12-19T13:20:30Z</time>
      </trkpt>
      <trkpt lat="62.635789916116" lon="17.968488158405">
        <ele>71.4</ele>
        <time>2017-12-19T13:20:31Z</time>
      </trkpt>
      <trkpt lat="62.635827131752" lon="17.968451110407">
        <ele>71.2</ele>
        <time>2017-12-19T13:20:32Z</time>
      </trkpt>
      <trkpt lat="62.635875579134" lon="17.968414649142">
        <ele>71</ele>
        <time>2017-12-19T13:20:33Z</time>
      </trkpt>
      <trkpt lat="62.635923188326" lon="17.968398723532">
        <ele>70.6</ele>
        <time>2017-12-19T13:20:34Z</time>
      </trkpt>
      <trkpt lat="62.63596811531" lon="17.968390425451">
        <ele>70.4</ele>
        <time>2017-12-19T13:20:35Z</time>
      </trkpt>
      <trkpt lat="62.636009521896" lon="17.968394364944">
        <ele>70.2</ele>
        <time>2017-12-19T13:20:36Z</time>
      </trkpt>
      <trkpt lat="62.636046318437" lon="17.9684047585">
        <ele>70</ele>
        <time>2017-12-19T13:20:37Z</time>
      </trkpt>
      <trkpt lat="62.636081438598" lon="17.968420181196">
        <ele>69.6</ele>
        <time>2017-12-19T13:20:38Z</time>
      </trkpt>
      <trkpt lat="62.636107673945" lon="17.968436022987">
        <ele>69.4</ele>
        <time>2017-12-19T13:20:39Z</time>
      </trkpt>
      <trkpt lat="62.636125275935" lon="17.968444237249">
        <ele>69.2</ele>
        <time>2017-12-19T13:20:40Z</time>
      </trkpt>
      <trkpt lat="62.636134579844" lon="17.968451361864">
        <ele>69</ele>
        <time>2017-12-19T13:20:41Z</time>
      </trkpt>
      <trkpt lat="62.636134328387" lon="17.968454044072">
        <ele>68.8</ele>
        <time>2017-12-19T13:20:42Z</time>
      </trkpt>
    </trkseg>
  </trk>
</gpx>